<?xml version="1.0" encoding="UTF-8" standalone="no" ?>
<gpx xmlns="http://www.topografix.com/GPX/1/1" creator="www.cicloide.com" version="1.1" xmlns:xsi="http://www.w3.org/2001/XMLSchema-instance" xsi:schemaLocation="http://www.topografix.com/GPX/1/1 http://www.topografix.com/GPX/1/1/gpx.xsd">
  <trk>
    <name>www.cicloide.com 18056</name>
    <desc>www.cicloide.com 18056</desc>
    <trkseg>
      <trkpt lat="41.424486808" lon="2.230390374">
        <ele>-22.93</ele>
        <time>2014-05-04T07:00:05Z</time>
      </trkpt>
      <trkpt lat="41.424513797" lon="2.230346201">
        <ele>-22.93</ele>
        <time>2014-05-04T07:00:07Z</time>
      </trkpt>
      <trkpt lat="41.424478426" lon="2.230271434">
        <ele>-22.93</ele>
        <time>2014-05-04T07:00:12Z</time>
      </trkpt>
      <trkpt lat="41.424410700" lon="2.230142437">
        <ele>-22.93</ele>
        <time>2014-05-04T07:00:20Z</time>
      </trkpt>
      <trkpt lat="41.424311291" lon="2.230031544">
        <ele>-22.93</ele>
        <time>2014-05-04T07:00:29Z</time>
      </trkpt>
      <trkpt lat="41.424205679" lon="2.229967004">
        <ele>-22.93</ele>
        <time>2014-05-04T07:00:36Z</time>
      </trkpt>
      <trkpt lat="41.424044914" lon="2.229828199">
        <ele>-22.93</ele>
        <time>2014-05-04T07:00:45Z</time>
      </trkpt>
      <trkpt lat="41.423841988" lon="2.229676990">
        <ele>-22.93</ele>
        <time>2014-05-04T07:00:53Z</time>
      </trkpt>
      <trkpt lat="41.423639230" lon="2.229465766">
        <ele>-22.93</ele>
        <time>2014-05-04T07:01:02Z</time>
      </trkpt>
      <trkpt lat="41.423455079" lon="2.229311120">
        <ele>-21.97</ele>
        <time>2014-05-04T07:01:09Z</time>
      </trkpt>
      <trkpt lat="41.423177806" lon="2.229081791">
        <ele>-21.97</ele>
        <time>2014-05-04T07:01:19Z</time>
      </trkpt>
      <trkpt lat="41.423002540" lon="2.228896551">
        <ele>-21.97</ele>
        <time>2014-05-04T07:01:26Z</time>
      </trkpt>
      <trkpt lat="41.422970354" lon="2.228796722">
        <ele>-21.97</ele>
        <time>2014-05-04T07:01:30Z</time>
      </trkpt>
      <trkpt lat="41.423030703" lon="2.228586420">
        <ele>-21.97</ele>
        <time>2014-05-04T07:01:36Z</time>
      </trkpt>
      <trkpt lat="41.423184930" lon="2.228285510">
        <ele>-21.97</ele>
        <time>2014-05-04T07:01:45Z</time>
      </trkpt>
      <trkpt lat="41.423307390" lon="2.228048135">
        <ele>-21.49</ele>
        <time>2014-05-04T07:01:53Z</time>
      </trkpt>
      <trkpt lat="41.423442255" lon="2.227763318">
        <ele>-21.01</ele>
        <time>2014-05-04T07:02:02Z</time>
      </trkpt>
      <trkpt lat="41.423619951" lon="2.227397364">
        <ele>-21.01</ele>
        <time>2014-05-04T07:02:13Z</time>
      </trkpt>
      <trkpt lat="41.423807706" lon="2.227026632">
        <ele>-20.53</ele>
        <time>2014-05-04T07:02:23Z</time>
      </trkpt>
      <trkpt lat="41.423851878" lon="2.226902748">
        <ele>-20.53</ele>
        <time>2014-05-04T07:02:26Z</time>
      </trkpt>
      <trkpt lat="41.423778704" lon="2.226633521">
        <ele>-20.53</ele>
        <time>2014-05-04T07:02:33Z</time>
      </trkpt>
      <trkpt lat="41.423851795" lon="2.226438558">
        <ele>-20.05</ele>
        <time>2014-05-04T07:02:38Z</time>
      </trkpt>
      <trkpt lat="41.424042902" lon="2.226063468">
        <ele>-19.57</ele>
        <time>2014-05-04T07:02:48Z</time>
      </trkpt>
      <trkpt lat="41.424210037" lon="2.225721234">
        <ele>-19.57</ele>
        <time>2014-05-04T07:02:57Z</time>
      </trkpt>
      <trkpt lat="41.424369796" lon="2.225406578">
        <ele>-19.57</ele>
        <time>2014-05-04T07:03:05Z</time>
      </trkpt>
      <trkpt lat="41.424525532" lon="2.225091837">
        <ele>-19.57</ele>
        <time>2014-05-04T07:03:13Z</time>
      </trkpt>
      <trkpt lat="41.424676658" lon="2.224785479">
        <ele>-19.57</ele>
        <time>2014-05-04T07:03:21Z</time>
      </trkpt>
      <trkpt lat="41.424843374" lon="2.224450706">
        <ele>-18.61</ele>
        <time>2014-05-04T07:03:30Z</time>
      </trkpt>
      <trkpt lat="41.424841781" lon="2.224404270">
        <ele>-18.13</ele>
        <time>2014-05-04T07:03:31Z</time>
      </trkpt>
      <trkpt lat="41.424732481" lon="2.224262951">
        <ele>-17.65</ele>
        <time>2014-05-04T07:03:38Z</time>
      </trkpt>
      <trkpt lat="41.424652015" lon="2.224307124">
        <ele>-17.17</ele>
        <time>2014-05-04T07:03:42Z</time>
      </trkpt>
      <trkpt lat="41.424615721" lon="2.224418435">
        <ele>-17.17</ele>
        <time>2014-05-04T07:03:45Z</time>
      </trkpt>
      <trkpt lat="41.424544643" lon="2.224452550">
        <ele>-18.13</ele>
        <time>2014-05-04T07:03:48Z</time>
      </trkpt>
      <trkpt lat="41.424527460" lon="2.224438719">
        <ele>-18.13</ele>
        <time>2014-05-04T07:03:49Z</time>
      </trkpt>
      <trkpt lat="41.424575237" lon="2.224293042">
        <ele>-18.13</ele>
        <time>2014-05-04T07:03:52Z</time>
      </trkpt>
      <trkpt lat="41.424633742" lon="2.224180138">
        <ele>-18.61</ele>
        <time>2014-05-04T07:03:54Z</time>
      </trkpt>
      <trkpt lat="41.424746144" lon="2.224012416">
        <ele>-19.09</ele>
        <time>2014-05-04T07:03:58Z</time>
      </trkpt>
      <trkpt lat="41.424924930" lon="2.223627603">
        <ele>-19.09</ele>
        <time>2014-05-04T07:04:06Z</time>
      </trkpt>
      <trkpt lat="41.424951919" lon="2.223570187">
        <ele>-17.65</ele>
        <time>2014-05-04T07:04:08Z</time>
      </trkpt>
      <trkpt lat="41.424980502" lon="2.223522075">
        <ele>-17.65</ele>
        <time>2014-05-04T07:04:10Z</time>
      </trkpt>
      <trkpt lat="41.424993829" lon="2.223442866">
        <ele>-17.65</ele>
        <time>2014-05-04T07:04:15Z</time>
      </trkpt>
      <trkpt lat="41.424943035" lon="2.223547388">
        <ele>-17.65</ele>
        <time>2014-05-04T07:04:20Z</time>
      </trkpt>
      <trkpt lat="41.424915123" lon="2.223601032">
        <ele>-17.65</ele>
        <time>2014-05-04T07:04:22Z</time>
      </trkpt>
      <trkpt lat="41.424864077" lon="2.223676469">
        <ele>-17.65</ele>
        <time>2014-05-04T07:04:24Z</time>
      </trkpt>
      <trkpt lat="41.424746647" lon="2.223896327">
        <ele>-19.09</ele>
        <time>2014-05-04T07:04:28Z</time>
      </trkpt>
      <trkpt lat="41.424550845" lon="2.224231435">
        <ele>-20.05</ele>
        <time>2014-05-04T07:04:35Z</time>
      </trkpt>
      <trkpt lat="41.424557802" lon="2.224208385">
        <ele>-19.57</ele>
        <time>2014-05-04T07:04:40Z</time>
      </trkpt>
      <trkpt lat="41.424572638" lon="2.224206876">
        <ele>-19.57</ele>
        <time>2014-05-04T07:04:47Z</time>
      </trkpt>
      <trkpt lat="41.424567693" lon="2.224203691">
        <ele>-19.57</ele>
        <time>2014-05-04T07:04:56Z</time>
      </trkpt>
      <trkpt lat="41.424554114" lon="2.224209223">
        <ele>-19.57</ele>
        <time>2014-05-04T07:05:05Z</time>
      </trkpt>
      <trkpt lat="41.424504577" lon="2.224299748">
        <ele>-19.57</ele>
        <time>2014-05-04T07:05:11Z</time>
      </trkpt>
      <trkpt lat="41.424399301" lon="2.224511893">
        <ele>-20.05</ele>
        <time>2014-05-04T07:05:17Z</time>
      </trkpt>
      <trkpt lat="41.424385554" lon="2.224543912">
        <ele>-20.53</ele>
        <time>2014-05-04T07:05:18Z</time>
      </trkpt>
      <trkpt lat="41.424321014" lon="2.224553971">
        <ele>-20.53</ele>
        <time>2014-05-04T07:05:21Z</time>
      </trkpt>
      <trkpt lat="41.424398462" lon="2.224369317">
        <ele>-20.53</ele>
        <time>2014-05-04T07:05:27Z</time>
      </trkpt>
      <trkpt lat="41.424421513" lon="2.224329922">
        <ele>-20.53</ele>
        <time>2014-05-04T07:05:28Z</time>
      </trkpt>
      <trkpt lat="41.424620834" lon="2.223976374">
        <ele>-20.53</ele>
        <time>2014-05-04T07:05:37Z</time>
      </trkpt>
      <trkpt lat="41.424792831" lon="2.223688874">
        <ele>-20.53</ele>
        <time>2014-05-04T07:05:45Z</time>
      </trkpt>
      <trkpt lat="41.424972707" lon="2.223310599">
        <ele>-20.05</ele>
        <time>2014-05-04T07:05:54Z</time>
      </trkpt>
      <trkpt lat="41.425120982" lon="2.223019663">
        <ele>-20.05</ele>
        <time>2014-05-04T07:06:01Z</time>
      </trkpt>
      <trkpt lat="41.425365985" lon="2.222547511">
        <ele>-20.05</ele>
        <time>2014-05-04T07:06:12Z</time>
      </trkpt>
      <trkpt lat="41.425566816" lon="2.222165715">
        <ele>-20.05</ele>
        <time>2014-05-04T07:06:21Z</time>
      </trkpt>
      <trkpt lat="41.425804946" lon="2.221753996">
        <ele>-19.57</ele>
        <time>2014-05-04T07:06:31Z</time>
      </trkpt>
      <trkpt lat="41.426063611" lon="2.221315958">
        <ele>-19.57</ele>
        <time>2014-05-04T07:06:42Z</time>
      </trkpt>
      <trkpt lat="41.426270141" lon="2.220970204">
        <ele>-19.57</ele>
        <time>2014-05-04T07:06:51Z</time>
      </trkpt>
      <trkpt lat="41.426498045" lon="2.220568040">
        <ele>-18.13</ele>
        <time>2014-05-04T07:07:01Z</time>
      </trkpt>
      <trkpt lat="41.426634000" lon="2.220334521">
        <ele>-18.13</ele>
        <time>2014-05-04T07:07:07Z</time>
      </trkpt>
      <trkpt lat="41.426961229" lon="2.219964292">
        <ele>-18.13</ele>
        <time>2014-05-04T07:07:19Z</time>
      </trkpt>
      <trkpt lat="41.427194414" lon="2.219649300">
        <ele>-18.13</ele>
        <time>2014-05-04T07:07:28Z</time>
      </trkpt>
      <trkpt lat="41.427371523" lon="2.219397927">
        <ele>-18.13</ele>
        <time>2014-05-04T07:07:35Z</time>
      </trkpt>
      <trkpt lat="41.427617532" lon="2.219064914">
        <ele>-17.65</ele>
        <time>2014-05-04T07:07:44Z</time>
      </trkpt>
      <trkpt lat="41.427841161" lon="2.218747743">
        <ele>-17.65</ele>
        <time>2014-05-04T07:07:53Z</time>
      </trkpt>
      <trkpt lat="41.428121871" lon="2.218370389">
        <ele>-17.65</ele>
        <time>2014-05-04T07:08:03Z</time>
      </trkpt>
      <trkpt lat="41.428447760" lon="2.217936039">
        <ele>-17.65</ele>
        <time>2014-05-04T07:08:15Z</time>
      </trkpt>
      <trkpt lat="41.428686728" lon="2.217617946">
        <ele>-17.17</ele>
        <time>2014-05-04T07:08:24Z</time>
      </trkpt>
      <trkpt lat="41.429008928" lon="2.217186613">
        <ele>-17.17</ele>
        <time>2014-05-04T07:08:36Z</time>
      </trkpt>
      <trkpt lat="41.429308581" lon="2.216781599">
        <ele>-17.17</ele>
        <time>2014-05-04T07:08:47Z</time>
      </trkpt>
      <trkpt lat="41.429551321" lon="2.216444815">
        <ele>-17.17</ele>
        <time>2014-05-04T07:08:56Z</time>
      </trkpt>
      <trkpt lat="41.429795067" lon="2.216037957">
        <ele>-16.69</ele>
        <time>2014-05-04T07:09:06Z</time>
      </trkpt>
      <trkpt lat="41.430024144" lon="2.215768395">
        <ele>-16.69</ele>
        <time>2014-05-04T07:09:14Z</time>
      </trkpt>
      <trkpt lat="41.430319690" lon="2.215424569">
        <ele>-16.69</ele>
        <time>2014-05-04T07:09:25Z</time>
      </trkpt>
      <trkpt lat="41.430540386" lon="2.215114523">
        <ele>-16.69</ele>
        <time>2014-05-04T07:09:34Z</time>
      </trkpt>
      <trkpt lat="41.430768876" lon="2.214799028">
        <ele>-16.69</ele>
        <time>2014-05-04T07:09:43Z</time>
      </trkpt>
      <trkpt lat="41.430972389" lon="2.214521587">
        <ele>-16.21</ele>
        <time>2014-05-04T07:09:51Z</time>
      </trkpt>
      <trkpt lat="41.431236754" lon="2.214154962">
        <ele>-15.72</ele>
        <time>2014-05-04T07:10:01Z</time>
      </trkpt>
      <trkpt lat="41.431534731" lon="2.213818597">
        <ele>-15.72</ele>
        <time>2014-05-04T07:10:11Z</time>
      </trkpt>
      <trkpt lat="41.431866068" lon="2.213483069">
        <ele>-15.72</ele>
        <time>2014-05-04T07:10:22Z</time>
      </trkpt>
      <trkpt lat="41.432184077" lon="2.213204538">
        <ele>-15.72</ele>
        <time>2014-05-04T07:10:32Z</time>
      </trkpt>
      <trkpt lat="41.432521197" lon="2.212945957">
        <ele>-15.24</ele>
        <time>2014-05-04T07:10:42Z</time>
      </trkpt>
      <trkpt lat="41.432907016" lon="2.212685447">
        <ele>-15.24</ele>
        <time>2014-05-04T07:10:53Z</time>
      </trkpt>
      <trkpt lat="41.433035259" lon="2.212545553">
        <ele>-14.76</ele>
        <time>2014-05-04T07:10:57Z</time>
      </trkpt>
      <trkpt lat="41.433180098" lon="2.212457459">
        <ele>-14.76</ele>
        <time>2014-05-04T07:11:01Z</time>
      </trkpt>
      <trkpt lat="41.433518727" lon="2.212333491">
        <ele>-14.76</ele>
        <time>2014-05-04T07:11:10Z</time>
      </trkpt>
      <trkpt lat="41.433923909" lon="2.212099971">
        <ele>-14.76</ele>
        <time>2014-05-04T07:11:21Z</time>
      </trkpt>
      <trkpt lat="41.434327916" lon="2.211870139">
        <ele>-14.28</ele>
        <time>2014-05-04T07:11:32Z</time>
      </trkpt>
      <trkpt lat="41.434662019" lon="2.211682804">
        <ele>-14.28</ele>
        <time>2014-05-04T07:11:41Z</time>
      </trkpt>
      <trkpt lat="41.435070637" lon="2.211477866">
        <ele>-14.28</ele>
        <time>2014-05-04T07:11:52Z</time>
      </trkpt>
      <trkpt lat="41.435587465" lon="2.211241078">
        <ele>-13.32</ele>
        <time>2014-05-04T07:12:05Z</time>
      </trkpt>
      <trkpt lat="41.435941433" lon="2.211091796">
        <ele>-12.84</ele>
        <time>2014-05-04T07:12:14Z</time>
      </trkpt>
      <trkpt lat="41.436391038" lon="2.210933043">
        <ele>-12.36</ele>
        <time>2014-05-04T07:12:25Z</time>
      </trkpt>
      <trkpt lat="41.436744000" lon="2.210813182">
        <ele>-12.36</ele>
        <time>2014-05-04T07:12:34Z</time>
      </trkpt>
      <trkpt lat="41.437053963" lon="2.210719723">
        <ele>-11.88</ele>
        <time>2014-05-04T07:12:42Z</time>
      </trkpt>
      <trkpt lat="41.437271305" lon="2.210629702">
        <ele>-11.88</ele>
        <time>2014-05-04T07:12:48Z</time>
      </trkpt>
      <trkpt lat="41.437644216" lon="2.210568178">
        <ele>-11.88</ele>
        <time>2014-05-04T07:12:57Z</time>
      </trkpt>
      <trkpt lat="41.438053505" lon="2.210453011">
        <ele>-11.88</ele>
        <time>2014-05-04T07:13:07Z</time>
      </trkpt>
      <trkpt lat="41.438590952" lon="2.210309345">
        <ele>-10.92</ele>
        <time>2014-05-04T07:13:20Z</time>
      </trkpt>
      <trkpt lat="41.439027398" lon="2.210195435">
        <ele>-10.92</ele>
        <time>2014-05-04T07:13:31Z</time>
      </trkpt>
      <trkpt lat="41.439420258" lon="2.210084878">
        <ele>-10.92</ele>
        <time>2014-05-04T07:13:41Z</time>
      </trkpt>
      <trkpt lat="41.439855279" lon="2.209963005">
        <ele>-10.92</ele>
        <time>2014-05-04T07:13:52Z</time>
      </trkpt>
      <trkpt lat="41.440388535" lon="2.209812634">
        <ele>-10.44</ele>
        <time>2014-05-04T07:14:05Z</time>
      </trkpt>
      <trkpt lat="41.440857419" lon="2.209647259">
        <ele>-10.44</ele>
        <time>2014-05-04T07:14:16Z</time>
      </trkpt>
      <trkpt lat="41.441128238" lon="2.209521446">
        <ele>-10.44</ele>
        <time>2014-05-04T07:14:23Z</time>
      </trkpt>
      <trkpt lat="41.441327811" lon="2.209437208">
        <ele>-9.96</ele>
        <time>2014-05-04T07:14:28Z</time>
      </trkpt>
      <trkpt lat="41.441669709" lon="2.209355820">
        <ele>-9.48</ele>
        <time>2014-05-04T07:14:36Z</time>
      </trkpt>
      <trkpt lat="41.441946312" lon="2.209190864">
        <ele>-9.48</ele>
        <time>2014-05-04T07:14:43Z</time>
      </trkpt>
      <trkpt lat="41.442333640" lon="2.208960446">
        <ele>-9.48</ele>
        <time>2014-05-04T07:14:53Z</time>
      </trkpt>
      <trkpt lat="41.442453752" lon="2.208894648">
        <ele>-9.48</ele>
        <time>2014-05-04T07:14:56Z</time>
      </trkpt>
      <trkpt lat="41.443017771" lon="2.208554678">
        <ele>-9.48</ele>
        <time>2014-05-04T07:15:10Z</time>
      </trkpt>
      <trkpt lat="41.443481541" lon="2.208243458">
        <ele>-9.00</ele>
        <time>2014-05-04T07:15:22Z</time>
      </trkpt>
      <trkpt lat="41.443855207" lon="2.207959563">
        <ele>-8.51</ele>
        <time>2014-05-04T07:15:32Z</time>
      </trkpt>
      <trkpt lat="41.444217891" lon="2.207697125">
        <ele>-8.51</ele>
        <time>2014-05-04T07:15:41Z</time>
      </trkpt>
      <trkpt lat="41.444624498" lon="2.207351288">
        <ele>-8.03</ele>
        <time>2014-05-04T07:15:52Z</time>
      </trkpt>
      <trkpt lat="41.444693229" lon="2.207277611">
        <ele>-8.03</ele>
        <time>2014-05-04T07:15:54Z</time>
      </trkpt>
      <trkpt lat="41.444818706" lon="2.207106369">
        <ele>-7.55</ele>
        <time>2014-05-04T07:15:58Z</time>
      </trkpt>
      <trkpt lat="41.445196814" lon="2.206832029">
        <ele>-7.55</ele>
        <time>2014-05-04T07:16:08Z</time>
      </trkpt>
      <trkpt lat="41.445593194" lon="2.206466662">
        <ele>-7.55</ele>
        <time>2014-05-04T07:16:19Z</time>
      </trkpt>
      <trkpt lat="41.445913467" lon="2.206162566">
        <ele>-7.55</ele>
        <time>2014-05-04T07:16:28Z</time>
      </trkpt>
      <trkpt lat="41.446307919" lon="2.205790829">
        <ele>-7.07</ele>
        <time>2014-05-04T07:16:39Z</time>
      </trkpt>
      <trkpt lat="41.446785604" lon="2.205341559">
        <ele>-6.59</ele>
        <time>2014-05-04T07:16:52Z</time>
      </trkpt>
      <trkpt lat="41.447145942" lon="2.205009216">
        <ele>-6.11</ele>
        <time>2014-05-04T07:17:02Z</time>
      </trkpt>
      <trkpt lat="41.447430675" lon="2.204731189">
        <ele>-6.11</ele>
        <time>2014-05-04T07:17:10Z</time>
      </trkpt>
      <trkpt lat="41.447465041" lon="2.204693051">
        <ele>-6.11</ele>
        <time>2014-05-04T07:17:11Z</time>
      </trkpt>
      <trkpt lat="41.447607617" lon="2.204501441">
        <ele>-6.11</ele>
        <time>2014-05-04T07:17:17Z</time>
      </trkpt>
      <trkpt lat="41.447777770" lon="2.204352578">
        <ele>-6.11</ele>
        <time>2014-05-04T07:17:25Z</time>
      </trkpt>
      <trkpt lat="41.448051523" lon="2.204152335">
        <ele>-7.07</ele>
        <time>2014-05-04T07:17:35Z</time>
      </trkpt>
      <trkpt lat="41.448225363" lon="2.203959215">
        <ele>-5.63</ele>
        <time>2014-05-04T07:17:42Z</time>
      </trkpt>
      <trkpt lat="41.448494087" lon="2.203713290">
        <ele>-5.63</ele>
        <time>2014-05-04T07:17:51Z</time>
      </trkpt>
      <trkpt lat="41.448793153" lon="2.203430904">
        <ele>-5.63</ele>
        <time>2014-05-04T07:18:00Z</time>
      </trkpt>
      <trkpt lat="41.449177128" lon="2.203061849">
        <ele>-5.15</ele>
        <time>2014-05-04T07:18:11Z</time>
      </trkpt>
      <trkpt lat="41.449563618" lon="2.202688267">
        <ele>-4.19</ele>
        <time>2014-05-04T07:18:22Z</time>
      </trkpt>
      <trkpt lat="41.449889506" lon="2.202374449">
        <ele>-4.19</ele>
        <time>2014-05-04T07:18:31Z</time>
      </trkpt>
      <trkpt lat="41.450326455" lon="2.201948145">
        <ele>-4.19</ele>
        <time>2014-05-04T07:18:43Z</time>
      </trkpt>
      <trkpt lat="41.450856024" lon="2.201408435">
        <ele>-3.71</ele>
        <time>2014-05-04T07:18:58Z</time>
      </trkpt>
      <trkpt lat="41.451035564" lon="2.201258902">
        <ele>-1.79</ele>
        <time>2014-05-04T07:19:05Z</time>
      </trkpt>
      <trkpt lat="41.451201106" lon="2.201120768">
        <ele>-0.34</ele>
        <time>2014-05-04T07:19:12Z</time>
      </trkpt>
      <trkpt lat="41.451224324" lon="2.201105513">
        <ele>-0.34</ele>
        <time>2014-05-04T07:19:16Z</time>
      </trkpt>
      <trkpt lat="41.451234802" lon="2.201098975">
        <ele>0.62</ele>
        <time>2014-05-04T07:19:23Z</time>
      </trkpt>
      <trkpt lat="41.451236143" lon="2.201071063">
        <ele>0.62</ele>
        <time>2014-05-04T07:19:29Z</time>
      </trkpt>
      <trkpt lat="41.451232622" lon="2.201054132">
        <ele>0.62</ele>
        <time>2014-05-04T07:19:47Z</time>
      </trkpt>
      <trkpt lat="41.451260031" lon="2.201041056">
        <ele>1.10</ele>
        <time>2014-05-04T07:19:56Z</time>
      </trkpt>
      <trkpt lat="41.451354998" lon="2.200949274">
        <ele>1.10</ele>
        <time>2014-05-04T07:20:02Z</time>
      </trkpt>
      <trkpt lat="41.451511069" lon="2.200789096">
        <ele>1.10</ele>
        <time>2014-05-04T07:20:09Z</time>
      </trkpt>
      <trkpt lat="41.451536802" lon="2.200775769">
        <ele>1.10</ele>
        <time>2014-05-04T07:20:10Z</time>
      </trkpt>
      <trkpt lat="41.451635205" lon="2.200818935">
        <ele>1.10</ele>
        <time>2014-05-04T07:20:15Z</time>
      </trkpt>
      <trkpt lat="41.451724137" lon="2.200947598">
        <ele>2.06</ele>
        <time>2014-05-04T07:20:22Z</time>
      </trkpt>
      <trkpt lat="41.451793875" lon="2.201039882">
        <ele>2.06</ele>
        <time>2014-05-04T07:20:26Z</time>
      </trkpt>
      <trkpt lat="41.451899738" lon="2.201101992">
        <ele>2.54</ele>
        <time>2014-05-04T07:20:32Z</time>
      </trkpt>
      <trkpt lat="41.451911054" lon="2.201098723">
        <ele>3.02</ele>
        <time>2014-05-04T07:20:33Z</time>
      </trkpt>
      <trkpt lat="41.451998477" lon="2.201202072">
        <ele>3.02</ele>
        <time>2014-05-04T07:20:41Z</time>
      </trkpt>
      <trkpt lat="41.452013900" lon="2.201224620">
        <ele>3.02</ele>
        <time>2014-05-04T07:20:42Z</time>
      </trkpt>
      <trkpt lat="41.452157314" lon="2.201422684">
        <ele>3.50</ele>
        <time>2014-05-04T07:20:50Z</time>
      </trkpt>
      <trkpt lat="41.452294190" lon="2.201610271">
        <ele>3.98</ele>
        <time>2014-05-04T07:20:58Z</time>
      </trkpt>
      <trkpt lat="41.452429474" lon="2.201772042">
        <ele>4.94</ele>
        <time>2014-05-04T07:21:05Z</time>
      </trkpt>
      <trkpt lat="41.452550677" lon="2.201954935">
        <ele>4.94</ele>
        <time>2014-05-04T07:21:12Z</time>
      </trkpt>
      <trkpt lat="41.452648158" lon="2.202110168">
        <ele>4.94</ele>
        <time>2014-05-04T07:21:18Z</time>
      </trkpt>
      <trkpt lat="41.452876314" lon="2.202435637">
        <ele>5.42</ele>
        <time>2014-05-04T07:21:29Z</time>
      </trkpt>
      <trkpt lat="41.453038084" lon="2.202677371">
        <ele>5.42</ele>
        <time>2014-05-04T07:21:37Z</time>
      </trkpt>
      <trkpt lat="41.453196083" lon="2.202942072">
        <ele>5.42</ele>
        <time>2014-05-04T07:21:45Z</time>
      </trkpt>
      <trkpt lat="41.453348047" lon="2.203201575">
        <ele>5.91</ele>
        <time>2014-05-04T07:21:53Z</time>
      </trkpt>
      <trkpt lat="41.453507136" lon="2.203486560">
        <ele>4.94</ele>
        <time>2014-05-04T07:22:02Z</time>
      </trkpt>
      <trkpt lat="41.453649041" lon="2.203748075">
        <ele>4.94</ele>
        <time>2014-05-04T07:22:10Z</time>
      </trkpt>
      <trkpt lat="41.453792037" lon="2.203998107">
        <ele>4.94</ele>
        <time>2014-05-04T07:22:18Z</time>
      </trkpt>
      <trkpt lat="41.453856577" lon="2.204120986">
        <ele>6.39</ele>
        <time>2014-05-04T07:22:22Z</time>
      </trkpt>
      <trkpt lat="41.453975768" lon="2.204339335">
        <ele>6.39</ele>
        <time>2014-05-04T07:22:29Z</time>
      </trkpt>
      <trkpt lat="41.454094623" lon="2.204565730">
        <ele>6.39</ele>
        <time>2014-05-04T07:22:36Z</time>
      </trkpt>
      <trkpt lat="41.454161595" lon="2.204701433">
        <ele>6.87</ele>
        <time>2014-05-04T07:22:41Z</time>
      </trkpt>
      <trkpt lat="41.454162265" lon="2.204795478">
        <ele>6.87</ele>
        <time>2014-05-04T07:22:44Z</time>
      </trkpt>
      <trkpt lat="41.454186237" lon="2.204859935">
        <ele>6.87</ele>
        <time>2014-05-04T07:22:49Z</time>
      </trkpt>
      <trkpt lat="41.454193362" lon="2.204870580">
        <ele>6.87</ele>
        <time>2014-05-04T07:22:51Z</time>
      </trkpt>
      <trkpt lat="41.454259495" lon="2.204986418">
        <ele>7.35</ele>
        <time>2014-05-04T07:22:57Z</time>
      </trkpt>
      <trkpt lat="41.454398467" lon="2.205088425">
        <ele>8.31</ele>
        <time>2014-05-04T07:23:05Z</time>
      </trkpt>
      <trkpt lat="41.454497793" lon="2.205196552">
        <ele>8.79</ele>
        <time>2014-05-04T07:23:11Z</time>
      </trkpt>
      <trkpt lat="41.454628551" lon="2.205411632">
        <ele>10.23</ele>
        <time>2014-05-04T07:23:20Z</time>
      </trkpt>
      <trkpt lat="41.454724104" lon="2.205561081">
        <ele>10.71</ele>
        <time>2014-05-04T07:23:26Z</time>
      </trkpt>
      <trkpt lat="41.454807085" lon="2.205708854">
        <ele>11.67</ele>
        <time>2014-05-04T07:23:33Z</time>
      </trkpt>
      <trkpt lat="41.454912110" lon="2.205865596">
        <ele>12.63</ele>
        <time>2014-05-04T07:23:40Z</time>
      </trkpt>
      <trkpt lat="41.455005401" lon="2.206014207">
        <ele>13.60</ele>
        <time>2014-05-04T07:23:46Z</time>
      </trkpt>
      <trkpt lat="41.455110007" lon="2.206158878">
        <ele>13.60</ele>
        <time>2014-05-04T07:23:52Z</time>
      </trkpt>
      <trkpt lat="41.455233556" lon="2.206334312">
        <ele>14.08</ele>
        <time>2014-05-04T07:23:59Z</time>
      </trkpt>
      <trkpt lat="41.455349478" lon="2.206486778">
        <ele>14.56</ele>
        <time>2014-05-04T07:24:05Z</time>
      </trkpt>
      <trkpt lat="41.455468082" lon="2.206613680">
        <ele>15.52</ele>
        <time>2014-05-04T07:24:11Z</time>
      </trkpt>
      <trkpt lat="41.455617112" lon="2.206804033">
        <ele>16.48</ele>
        <time>2014-05-04T07:24:19Z</time>
      </trkpt>
      <trkpt lat="41.455774440" lon="2.207000086">
        <ele>16.96</ele>
        <time>2014-05-04T07:24:27Z</time>
      </trkpt>
      <trkpt lat="41.455926740" lon="2.207184320">
        <ele>17.44</ele>
        <time>2014-05-04T07:24:35Z</time>
      </trkpt>
      <trkpt lat="41.456104771" lon="2.207403675">
        <ele>17.92</ele>
        <time>2014-05-04T07:24:43Z</time>
      </trkpt>
      <trkpt lat="41.456239552" lon="2.207577264">
        <ele>18.40</ele>
        <time>2014-05-04T07:24:50Z</time>
      </trkpt>
      <trkpt lat="41.456343236" lon="2.207746914">
        <ele>18.88</ele>
        <time>2014-05-04T07:24:57Z</time>
      </trkpt>
      <trkpt lat="41.456422445" lon="2.207909774">
        <ele>19.84</ele>
        <time>2014-05-04T07:25:03Z</time>
      </trkpt>
      <trkpt lat="41.456539708" lon="2.208060565">
        <ele>20.32</ele>
        <time>2014-05-04T07:25:09Z</time>
      </trkpt>
      <trkpt lat="41.456699635" lon="2.208247229">
        <ele>21.29</ele>
        <time>2014-05-04T07:25:17Z</time>
      </trkpt>
      <trkpt lat="41.456849420" lon="2.208406737">
        <ele>21.29</ele>
        <time>2014-05-04T07:25:25Z</time>
      </trkpt>
      <trkpt lat="41.456946063" lon="2.208512349">
        <ele>22.73</ele>
        <time>2014-05-04T07:25:32Z</time>
      </trkpt>
      <trkpt lat="41.456984955" lon="2.208546799">
        <ele>22.73</ele>
        <time>2014-05-04T07:25:35Z</time>
      </trkpt>
      <trkpt lat="41.457066511" lon="2.208681915">
        <ele>23.21</ele>
        <time>2014-05-04T07:25:42Z</time>
      </trkpt>
      <trkpt lat="41.457147312" lon="2.208765902">
        <ele>23.21</ele>
        <time>2014-05-04T07:25:47Z</time>
      </trkpt>
      <trkpt lat="41.457289302" lon="2.208991626">
        <ele>24.17</ele>
        <time>2014-05-04T07:25:56Z</time>
      </trkpt>
      <trkpt lat="41.457407403" lon="2.209168065">
        <ele>24.65</ele>
        <time>2014-05-04T07:26:03Z</time>
      </trkpt>
      <trkpt lat="41.457533131" lon="2.209390018">
        <ele>25.13</ele>
        <time>2014-05-04T07:26:11Z</time>
      </trkpt>
      <trkpt lat="41.457632122" lon="2.209565116">
        <ele>26.57</ele>
        <time>2014-05-04T07:26:18Z</time>
      </trkpt>
      <trkpt lat="41.457753659" lon="2.209784554">
        <ele>26.57</ele>
        <time>2014-05-04T07:26:26Z</time>
      </trkpt>
      <trkpt lat="41.457776123" lon="2.209837360">
        <ele>27.05</ele>
        <time>2014-05-04T07:26:28Z</time>
      </trkpt>
      <trkpt lat="41.457762712" lon="2.210020840">
        <ele>28.02</ele>
        <time>2014-05-04T07:26:34Z</time>
      </trkpt>
      <trkpt lat="41.457645952" lon="2.210211696">
        <ele>30.42</ele>
        <time>2014-05-04T07:26:42Z</time>
      </trkpt>
      <trkpt lat="41.457545201" lon="2.210344214">
        <ele>32.34</ele>
        <time>2014-05-04T07:26:49Z</time>
      </trkpt>
      <trkpt lat="41.457474039" lon="2.210460890">
        <ele>34.26</ele>
        <time>2014-05-04T07:26:55Z</time>
      </trkpt>
      <trkpt lat="41.457427519" lon="2.210509757">
        <ele>35.23</ele>
        <time>2014-05-04T07:26:58Z</time>
      </trkpt>
      <trkpt lat="41.457421987" lon="2.210673120">
        <ele>37.15</ele>
        <time>2014-05-04T07:27:04Z</time>
      </trkpt>
      <trkpt lat="41.457533299" lon="2.210880907">
        <ele>37.63</ele>
        <time>2014-05-04T07:27:13Z</time>
      </trkpt>
      <trkpt lat="41.457699093" lon="2.211082744">
        <ele>37.63</ele>
        <time>2014-05-04T07:27:22Z</time>
      </trkpt>
      <trkpt lat="41.457843094" lon="2.211277958">
        <ele>37.63</ele>
        <time>2014-05-04T07:27:30Z</time>
      </trkpt>
      <trkpt lat="41.457989945" lon="2.211452721">
        <ele>38.11</ele>
        <time>2014-05-04T07:27:37Z</time>
      </trkpt>
      <trkpt lat="41.458162026" lon="2.211661346">
        <ele>39.07</ele>
        <time>2014-05-04T07:27:45Z</time>
      </trkpt>
      <trkpt lat="41.458367215" lon="2.211895369">
        <ele>39.07</ele>
        <time>2014-05-04T07:27:54Z</time>
      </trkpt>
      <trkpt lat="41.458557149" lon="2.212112293">
        <ele>39.55</ele>
        <time>2014-05-04T07:28:02Z</time>
      </trkpt>
      <trkpt lat="41.458818161" lon="2.212407671">
        <ele>40.51</ele>
        <time>2014-05-04T07:28:13Z</time>
      </trkpt>
      <trkpt lat="41.459045981" lon="2.212654602">
        <ele>40.99</ele>
        <time>2014-05-04T07:28:22Z</time>
      </trkpt>
      <trkpt lat="41.459251757" lon="2.212914189">
        <ele>41.47</ele>
        <time>2014-05-04T07:28:31Z</time>
      </trkpt>
      <trkpt lat="41.459422580" lon="2.213256590">
        <ele>43.40</ele>
        <time>2014-05-04T07:28:41Z</time>
      </trkpt>
      <trkpt lat="41.459558032" lon="2.213551968">
        <ele>45.32</ele>
        <time>2014-05-04T07:28:51Z</time>
      </trkpt>
      <trkpt lat="41.459669343" lon="2.213781130">
        <ele>46.76</ele>
        <time>2014-05-04T07:28:59Z</time>
      </trkpt>
      <trkpt lat="41.459767914" lon="2.213996461">
        <ele>48.20</ele>
        <time>2014-05-04T07:29:07Z</time>
      </trkpt>
      <trkpt lat="41.459841927" lon="2.214138702">
        <ele>49.16</ele>
        <time>2014-05-04T07:29:13Z</time>
      </trkpt>
      <trkpt lat="41.459972181" lon="2.214384543">
        <ele>51.09</ele>
        <time>2014-05-04T07:29:23Z</time>
      </trkpt>
      <trkpt lat="41.460116350" lon="2.214648321">
        <ele>53.49</ele>
        <time>2014-05-04T07:29:34Z</time>
      </trkpt>
      <trkpt lat="41.460256412" lon="2.214869771">
        <ele>55.41</ele>
        <time>2014-05-04T07:29:44Z</time>
      </trkpt>
      <trkpt lat="41.460372417" lon="2.215043779">
        <ele>56.37</ele>
        <time>2014-05-04T07:29:52Z</time>
      </trkpt>
      <trkpt lat="41.460503929" lon="2.215254333">
        <ele>57.82</ele>
        <time>2014-05-04T07:30:01Z</time>
      </trkpt>
      <trkpt lat="41.460624545" lon="2.215428257">
        <ele>59.26</ele>
        <time>2014-05-04T07:30:09Z</time>
      </trkpt>
      <trkpt lat="41.460706939" lon="2.215574689">
        <ele>60.70</ele>
        <time>2014-05-04T07:30:15Z</time>
      </trkpt>
      <trkpt lat="41.460816993" lon="2.215746686">
        <ele>62.62</ele>
        <time>2014-05-04T07:30:23Z</time>
      </trkpt>
      <trkpt lat="41.460925036" lon="2.215915749">
        <ele>65.03</ele>
        <time>2014-05-04T07:30:32Z</time>
      </trkpt>
      <trkpt lat="41.461037186" lon="2.216090763">
        <ele>67.43</ele>
        <time>2014-05-04T07:30:41Z</time>
      </trkpt>
      <trkpt lat="41.461161909" lon="2.216270136">
        <ele>69.83</ele>
        <time>2014-05-04T07:30:51Z</time>
      </trkpt>
      <trkpt lat="41.461237011" lon="2.216436097">
        <ele>72.24</ele>
        <time>2014-05-04T07:30:59Z</time>
      </trkpt>
      <trkpt lat="41.461291996" lon="2.216625528">
        <ele>74.64</ele>
        <time>2014-05-04T07:31:07Z</time>
      </trkpt>
      <trkpt lat="41.461347987" lon="2.216854606">
        <ele>76.56</ele>
        <time>2014-05-04T07:31:17Z</time>
      </trkpt>
      <trkpt lat="41.461404062" lon="2.217099777">
        <ele>78.97</ele>
        <time>2014-05-04T07:31:27Z</time>
      </trkpt>
      <trkpt lat="41.461487127" lon="2.217369171">
        <ele>78.97</ele>
        <time>2014-05-04T07:31:35Z</time>
      </trkpt>
      <trkpt lat="41.461581088" lon="2.217629932">
        <ele>78.97</ele>
        <time>2014-05-04T07:31:43Z</time>
      </trkpt>
      <trkpt lat="41.461718299" lon="2.217849622">
        <ele>79.93</ele>
        <time>2014-05-04T07:31:52Z</time>
      </trkpt>
      <trkpt lat="41.461889458" lon="2.217928663">
        <ele>81.37</ele>
        <time>2014-05-04T07:32:00Z</time>
      </trkpt>
      <trkpt lat="41.462100179" lon="2.217898991">
        <ele>82.33</ele>
        <time>2014-05-04T07:32:09Z</time>
      </trkpt>
      <trkpt lat="41.462264883" lon="2.217776867">
        <ele>83.29</ele>
        <time>2014-05-04T07:32:17Z</time>
      </trkpt>
      <trkpt lat="41.462491782" lon="2.217617946">
        <ele>84.25</ele>
        <time>2014-05-04T07:32:27Z</time>
      </trkpt>
      <trkpt lat="41.462712561" lon="2.217586178">
        <ele>84.25</ele>
        <time>2014-05-04T07:32:35Z</time>
      </trkpt>
      <trkpt lat="41.462945075" lon="2.217721714">
        <ele>84.25</ele>
        <time>2014-05-04T07:32:43Z</time>
      </trkpt>
      <trkpt lat="41.463078263" lon="2.217854735">
        <ele>84.25</ele>
        <time>2014-05-04T07:32:49Z</time>
      </trkpt>
      <trkpt lat="41.463231317" lon="2.218043830">
        <ele>86.18</ele>
        <time>2014-05-04T07:32:58Z</time>
      </trkpt>
      <trkpt lat="41.463354866" lon="2.218228819">
        <ele>87.14</ele>
        <time>2014-05-04T07:33:06Z</time>
      </trkpt>
      <trkpt lat="41.463446732" lon="2.218436522">
        <ele>88.58</ele>
        <time>2014-05-04T07:33:14Z</time>
      </trkpt>
      <trkpt lat="41.463504735" lon="2.218637940">
        <ele>90.02</ele>
        <time>2014-05-04T07:33:21Z</time>
      </trkpt>
      <trkpt lat="41.463572712" lon="2.218902892">
        <ele>91.46</ele>
        <time>2014-05-04T07:33:29Z</time>
      </trkpt>
      <trkpt lat="41.463580339" lon="2.219216459">
        <ele>92.90</ele>
        <time>2014-05-04T07:33:38Z</time>
      </trkpt>
      <trkpt lat="41.463561815" lon="2.219536144">
        <ele>94.35</ele>
        <time>2014-05-04T07:33:47Z</time>
      </trkpt>
      <trkpt lat="41.463592409" lon="2.219863793">
        <ele>95.79</ele>
        <time>2014-05-04T07:33:57Z</time>
      </trkpt>
      <trkpt lat="41.463670864" lon="2.220067054">
        <ele>97.23</ele>
        <time>2014-05-04T07:34:04Z</time>
      </trkpt>
      <trkpt lat="41.463797095" lon="2.220167721">
        <ele>98.67</ele>
        <time>2014-05-04T07:34:11Z</time>
      </trkpt>
      <trkpt lat="41.463953166" lon="2.220198650">
        <ele>99.63</ele>
        <time>2014-05-04T07:34:18Z</time>
      </trkpt>
      <trkpt lat="41.464131701" lon="2.220219018">
        <ele>99.63</ele>
        <time>2014-05-04T07:34:26Z</time>
      </trkpt>
      <trkpt lat="41.464327837" lon="2.220325552">
        <ele>101.08</ele>
        <time>2014-05-04T07:34:36Z</time>
      </trkpt>
      <trkpt lat="41.464491452" lon="2.220489167">
        <ele>103.00</ele>
        <time>2014-05-04T07:34:45Z</time>
      </trkpt>
      <trkpt lat="41.464611230" lon="2.220667282">
        <ele>103.96</ele>
        <time>2014-05-04T07:34:53Z</time>
      </trkpt>
      <trkpt lat="41.464719356" lon="2.220874064">
        <ele>105.40</ele>
        <time>2014-05-04T07:35:01Z</time>
      </trkpt>
      <trkpt lat="41.464839720" lon="2.221067099">
        <ele>106.36</ele>
        <time>2014-05-04T07:35:09Z</time>
      </trkpt>
      <trkpt lat="41.464975759" lon="2.221321574">
        <ele>107.81</ele>
        <time>2014-05-04T07:35:19Z</time>
      </trkpt>
      <trkpt lat="41.465104169" lon="2.221545119">
        <ele>109.73</ele>
        <time>2014-05-04T07:35:28Z</time>
      </trkpt>
      <trkpt lat="41.465246243" lon="2.221653748">
        <ele>110.69</ele>
        <time>2014-05-04T07:35:35Z</time>
      </trkpt>
      <trkpt lat="41.465439697" lon="2.221680822">
        <ele>112.61</ele>
        <time>2014-05-04T07:35:44Z</time>
      </trkpt>
      <trkpt lat="41.465579842" lon="2.221659197">
        <ele>113.57</ele>
        <time>2014-05-04T07:35:50Z</time>
      </trkpt>
      <trkpt lat="41.465773297" lon="2.221619131">
        <ele>114.53</ele>
        <time>2014-05-04T07:35:58Z</time>
      </trkpt>
      <trkpt lat="41.465992483" lon="2.221588369">
        <ele>116.46</ele>
        <time>2014-05-04T07:36:08Z</time>
      </trkpt>
      <trkpt lat="41.466163055" lon="2.221671183">
        <ele>117.42</ele>
        <time>2014-05-04T07:36:16Z</time>
      </trkpt>
      <trkpt lat="41.466309235" lon="2.221852483">
        <ele>118.86</ele>
        <time>2014-05-04T07:36:25Z</time>
      </trkpt>
      <trkpt lat="41.466480562" lon="2.222095558">
        <ele>119.34</ele>
        <time>2014-05-04T07:36:35Z</time>
      </trkpt>
      <trkpt lat="41.466649289" lon="2.222272333">
        <ele>120.78</ele>
        <time>2014-05-04T07:36:43Z</time>
      </trkpt>
      <trkpt lat="41.466853305" lon="2.222285409">
        <ele>120.78</ele>
        <time>2014-05-04T07:36:51Z</time>
      </trkpt>
      <trkpt lat="41.467066373" lon="2.222133445">
        <ele>121.26</ele>
        <time>2014-05-04T07:37:01Z</time>
      </trkpt>
      <trkpt lat="41.467260246" lon="2.221969159">
        <ele>121.74</ele>
        <time>2014-05-04T07:37:10Z</time>
      </trkpt>
      <trkpt lat="41.467457137" lon="2.221807137">
        <ele>122.22</ele>
        <time>2014-05-04T07:37:19Z</time>
      </trkpt>
      <trkpt lat="41.467683449" lon="2.221598679">
        <ele>123.67</ele>
        <time>2014-05-04T07:37:30Z</time>
      </trkpt>
      <trkpt lat="41.467842286" lon="2.221326938">
        <ele>124.63</ele>
        <time>2014-05-04T07:37:40Z</time>
      </trkpt>
      <trkpt lat="41.467994920" lon="2.221086042">
        <ele>125.11</ele>
        <time>2014-05-04T07:37:49Z</time>
      </trkpt>
      <trkpt lat="41.468198600" lon="2.220893761">
        <ele>125.59</ele>
        <time>2014-05-04T07:37:58Z</time>
      </trkpt>
      <trkpt lat="41.468525075" lon="2.220635096">
        <ele>126.07</ele>
        <time>2014-05-04T07:38:11Z</time>
      </trkpt>
      <trkpt lat="41.468687014" lon="2.220397888">
        <ele>127.51</ele>
        <time>2014-05-04T07:38:20Z</time>
      </trkpt>
      <trkpt lat="41.468706125" lon="2.220144754">
        <ele>127.51</ele>
        <time>2014-05-04T07:38:28Z</time>
      </trkpt>
      <trkpt lat="41.468691456" lon="2.219906960">
        <ele>127.99</ele>
        <time>2014-05-04T07:38:36Z</time>
      </trkpt>
      <trkpt lat="41.468753147" lon="2.219658772">
        <ele>129.43</ele>
        <time>2014-05-04T07:38:45Z</time>
      </trkpt>
      <trkpt lat="41.468854819" lon="2.219439920">
        <ele>130.40</ele>
        <time>2014-05-04T07:38:53Z</time>
      </trkpt>
      <trkpt lat="41.468926736" lon="2.219294326">
        <ele>131.36</ele>
        <time>2014-05-04T07:38:59Z</time>
      </trkpt>
      <trkpt lat="41.469054644" lon="2.219158204">
        <ele>132.32</ele>
        <time>2014-05-04T07:39:07Z</time>
      </trkpt>
      <trkpt lat="41.469224545" lon="2.219094083">
        <ele>134.24</ele>
        <time>2014-05-04T07:39:16Z</time>
      </trkpt>
      <trkpt lat="41.469270227" lon="2.219078241">
        <ele>134.72</ele>
        <time>2014-05-04T07:39:18Z</time>
      </trkpt>
      <trkpt lat="41.469433422" lon="2.219001295">
        <ele>135.68</ele>
        <time>2014-05-04T07:39:25Z</time>
      </trkpt>
      <trkpt lat="41.469602653" lon="2.218883697">
        <ele>136.64</ele>
        <time>2014-05-04T07:39:33Z</time>
      </trkpt>
      <trkpt lat="41.469754030" lon="2.218883529">
        <ele>137.13</ele>
        <time>2014-05-04T07:39:41Z</time>
      </trkpt>
      <trkpt lat="41.469865509" lon="2.218994757">
        <ele>137.13</ele>
        <time>2014-05-04T07:39:46Z</time>
      </trkpt>
      <trkpt lat="41.469953352" lon="2.219207155">
        <ele>137.13</ele>
        <time>2014-05-04T07:39:51Z</time>
      </trkpt>
      <trkpt lat="41.469986879" lon="2.219489625">
        <ele>135.68</ele>
        <time>2014-05-04T07:39:57Z</time>
      </trkpt>
      <trkpt lat="41.469994674" lon="2.219774945">
        <ele>134.24</ele>
        <time>2014-05-04T07:40:03Z</time>
      </trkpt>
      <trkpt lat="41.469971289" lon="2.220027324">
        <ele>134.24</ele>
        <time>2014-05-04T07:40:10Z</time>
      </trkpt>
      <trkpt lat="41.470017976" lon="2.220231172">
        <ele>134.24</ele>
        <time>2014-05-04T07:40:17Z</time>
      </trkpt>
      <trkpt lat="41.470116044" lon="2.220500734">
        <ele>134.24</ele>
        <time>2014-05-04T07:40:25Z</time>
      </trkpt>
      <trkpt lat="41.470219561" lon="2.220735343">
        <ele>134.24</ele>
        <time>2014-05-04T07:40:32Z</time>
      </trkpt>
      <trkpt lat="41.470353504" lon="2.221039690">
        <ele>134.24</ele>
        <time>2014-05-04T07:40:40Z</time>
      </trkpt>
      <trkpt lat="41.470431623" lon="2.221210765">
        <ele>133.28</ele>
        <time>2014-05-04T07:40:44Z</time>
      </trkpt>
      <trkpt lat="41.470574702" lon="2.221402291">
        <ele>131.84</ele>
        <time>2014-05-04T07:40:49Z</time>
      </trkpt>
      <trkpt lat="41.470864129" lon="2.221647881">
        <ele>128.95</ele>
        <time>2014-05-04T07:40:55Z</time>
      </trkpt>
      <trkpt lat="41.471327649" lon="2.221795151">
        <ele>127.99</ele>
        <time>2014-05-04T07:41:02Z</time>
      </trkpt>
      <trkpt lat="41.471438206" lon="2.221836893">
        <ele>126.55</ele>
        <time>2014-05-04T07:41:04Z</time>
      </trkpt>
      <trkpt lat="41.471487072" lon="2.221855501">
        <ele>126.55</ele>
        <time>2014-05-04T07:41:05Z</time>
      </trkpt>
      <trkpt lat="41.471573490" lon="2.221896824">
        <ele>126.55</ele>
        <time>2014-05-04T07:41:07Z</time>
      </trkpt>
      <trkpt lat="41.471714222" lon="2.222065300">
        <ele>126.07</ele>
        <time>2014-05-04T07:41:13Z</time>
      </trkpt>
      <trkpt lat="41.471694273" lon="2.222287672">
        <ele>126.07</ele>
        <time>2014-05-04T07:41:18Z</time>
      </trkpt>
      <trkpt lat="41.471580279" lon="2.222579865">
        <ele>126.07</ele>
        <time>2014-05-04T07:41:26Z</time>
      </trkpt>
      <trkpt lat="41.471436697" lon="2.222838447">
        <ele>128.47</ele>
        <time>2014-05-04T07:41:35Z</time>
      </trkpt>
      <trkpt lat="41.471297558" lon="2.223083366">
        <ele>129.92</ele>
        <time>2014-05-04T07:41:44Z</time>
      </trkpt>
      <trkpt lat="41.471127573" lon="2.223170538">
        <ele>130.88</ele>
        <time>2014-05-04T07:41:51Z</time>
      </trkpt>
      <trkpt lat="41.471025397" lon="2.223144051">
        <ele>132.32</ele>
        <time>2014-05-04T07:41:57Z</time>
      </trkpt>
      <trkpt lat="41.470951050" lon="2.223293500">
        <ele>133.28</ele>
        <time>2014-05-04T07:42:03Z</time>
      </trkpt>
      <trkpt lat="41.471001006" lon="2.223650904">
        <ele>135.20</ele>
        <time>2014-05-04T07:42:14Z</time>
      </trkpt>
      <trkpt lat="41.471077700" lon="2.223918203">
        <ele>136.16</ele>
        <time>2014-05-04T07:42:23Z</time>
      </trkpt>
      <trkpt lat="41.471187755" lon="2.224202769">
        <ele>138.09</ele>
        <time>2014-05-04T07:42:34Z</time>
      </trkpt>
      <trkpt lat="41.471276938" lon="2.224439725">
        <ele>139.53</ele>
        <time>2014-05-04T07:42:43Z</time>
      </trkpt>
      <trkpt lat="41.471322284" lon="2.224730410">
        <ele>140.97</ele>
        <time>2014-05-04T07:42:53Z</time>
      </trkpt>
      <trkpt lat="41.471326475" lon="2.224983962">
        <ele>142.89</ele>
        <time>2014-05-04T07:43:02Z</time>
      </trkpt>
      <trkpt lat="41.471334773" lon="2.225105500">
        <ele>143.85</ele>
        <time>2014-05-04T07:43:09Z</time>
      </trkpt>
      <trkpt lat="41.471353549" lon="2.225130981">
        <ele>143.85</ele>
        <time>2014-05-04T07:43:12Z</time>
      </trkpt>
      <trkpt lat="41.471424543" lon="2.225042217">
        <ele>145.30</ele>
        <time>2014-05-04T07:43:18Z</time>
      </trkpt>
      <trkpt lat="41.471545075" lon="2.224811714">
        <ele>146.74</ele>
        <time>2014-05-04T07:43:29Z</time>
      </trkpt>
      <trkpt lat="41.471639874" lon="2.224666623">
        <ele>148.66</ele>
        <time>2014-05-04T07:43:37Z</time>
      </trkpt>
      <trkpt lat="41.471744229" lon="2.224541482">
        <ele>151.06</ele>
        <time>2014-05-04T07:43:46Z</time>
      </trkpt>
      <trkpt lat="41.471858558" lon="2.224413658">
        <ele>154.91</ele>
        <time>2014-05-04T07:43:57Z</time>
      </trkpt>
      <trkpt lat="41.471961740" lon="2.224305783">
        <ele>156.35</ele>
        <time>2014-05-04T07:44:05Z</time>
      </trkpt>
      <trkpt lat="41.472065005" lon="2.224220371">
        <ele>158.27</ele>
        <time>2014-05-04T07:44:13Z</time>
      </trkpt>
      <trkpt lat="41.472198947" lon="2.224158512">
        <ele>160.20</ele>
        <time>2014-05-04T07:44:22Z</time>
      </trkpt>
      <trkpt lat="41.472351833" lon="2.224127919">
        <ele>161.16</ele>
        <time>2014-05-04T07:44:31Z</time>
      </trkpt>
      <trkpt lat="41.472471527" lon="2.224105958">
        <ele>163.08</ele>
        <time>2014-05-04T07:44:39Z</time>
      </trkpt>
      <trkpt lat="41.472574708" lon="2.224091206">
        <ele>164.04</ele>
        <time>2014-05-04T07:44:47Z</time>
      </trkpt>
      <trkpt lat="41.472657186" lon="2.224070335">
        <ele>165.48</ele>
        <time>2014-05-04T07:44:53Z</time>
      </trkpt>
      <trkpt lat="41.472781071" lon="2.224012416">
        <ele>166.93</ele>
        <time>2014-05-04T07:45:02Z</time>
      </trkpt>
      <trkpt lat="41.472923228" lon="2.223953910">
        <ele>168.85</ele>
        <time>2014-05-04T07:45:11Z</time>
      </trkpt>
      <trkpt lat="41.473037724" lon="2.223936643">
        <ele>169.81</ele>
        <time>2014-05-04T07:45:18Z</time>
      </trkpt>
      <trkpt lat="41.473159765" lon="2.223898757">
        <ele>171.73</ele>
        <time>2014-05-04T07:45:26Z</time>
      </trkpt>
      <trkpt lat="41.473312735" lon="2.223793397">
        <ele>172.21</ele>
        <time>2014-05-04T07:45:35Z</time>
      </trkpt>
      <trkpt lat="41.473499400" lon="2.223674709">
        <ele>172.69</ele>
        <time>2014-05-04T07:45:44Z</time>
      </trkpt>
      <trkpt lat="41.473671983" lon="2.223578652">
        <ele>173.66</ele>
        <time>2014-05-04T07:45:53Z</time>
      </trkpt>
      <trkpt lat="41.473905587" lon="2.223481925">
        <ele>173.66</ele>
        <time>2014-05-04T07:46:03Z</time>
      </trkpt>
      <trkpt lat="41.474086468" lon="2.223457199">
        <ele>173.66</ele>
        <time>2014-05-04T07:46:11Z</time>
      </trkpt>
      <trkpt lat="41.474281515" lon="2.223437920">
        <ele>175.10</ele>
        <time>2014-05-04T07:46:21Z</time>
      </trkpt>
      <trkpt lat="41.474423085" lon="2.223442111">
        <ele>177.02</ele>
        <time>2014-05-04T07:46:30Z</time>
      </trkpt>
      <trkpt lat="41.474579743" lon="2.223490475">
        <ele>179.90</ele>
        <time>2014-05-04T07:46:40Z</time>
      </trkpt>
      <trkpt lat="41.474701532" lon="2.223598853">
        <ele>181.35</ele>
        <time>2014-05-04T07:46:49Z</time>
      </trkpt>
      <trkpt lat="41.474809240" lon="2.223774705">
        <ele>182.31</ele>
        <time>2014-05-04T07:46:58Z</time>
      </trkpt>
      <trkpt lat="41.474824495" lon="2.223782500">
        <ele>182.31</ele>
        <time>2014-05-04T07:46:59Z</time>
      </trkpt>
      <trkpt lat="41.474922312" lon="2.223810077">
        <ele>182.79</ele>
        <time>2014-05-04T07:47:05Z</time>
      </trkpt>
      <trkpt lat="41.475083076" lon="2.223838491">
        <ele>184.23</ele>
        <time>2014-05-04T07:47:14Z</time>
      </trkpt>
      <trkpt lat="41.475199501" lon="2.223836396">
        <ele>184.71</ele>
        <time>2014-05-04T07:47:20Z</time>
      </trkpt>
      <trkpt lat="41.475272927" lon="2.223854082">
        <ele>185.67</ele>
        <time>2014-05-04T07:47:25Z</time>
      </trkpt>
      <trkpt lat="41.475527653" lon="2.223960951">
        <ele>186.15</ele>
        <time>2014-05-04T07:47:36Z</time>
      </trkpt>
      <trkpt lat="41.475701158" lon="2.224094475">
        <ele>186.63</ele>
        <time>2014-05-04T07:47:44Z</time>
      </trkpt>
      <trkpt lat="41.475762178" lon="2.224320618">
        <ele>187.59</ele>
        <time>2014-05-04T07:47:52Z</time>
      </trkpt>
      <trkpt lat="41.475773159" lon="2.224522790">
        <ele>190.00</ele>
        <time>2014-05-04T07:48:00Z</time>
      </trkpt>
      <trkpt lat="41.475782965" lon="2.224739546">
        <ele>192.88</ele>
        <time>2014-05-04T07:48:11Z</time>
      </trkpt>
      <trkpt lat="41.475799981" lon="2.224969042">
        <ele>193.36</ele>
        <time>2014-05-04T07:48:18Z</time>
      </trkpt>
      <trkpt lat="41.475810709" lon="2.225244723">
        <ele>191.92</ele>
        <time>2014-05-04T07:48:22Z</time>
      </trkpt>
      <trkpt lat="41.475805597" lon="2.225422923">
        <ele>191.92</ele>
        <time>2014-05-04T07:48:26Z</time>
      </trkpt>
      <trkpt lat="41.475804591" lon="2.225503389">
        <ele>192.88</ele>
        <time>2014-05-04T07:48:29Z</time>
      </trkpt>
      <trkpt lat="41.475808363" lon="2.225658035">
        <ele>194.80</ele>
        <time>2014-05-04T07:48:35Z</time>
      </trkpt>
      <trkpt lat="41.475790341" lon="2.225862386">
        <ele>195.77</ele>
        <time>2014-05-04T07:48:42Z</time>
      </trkpt>
      <trkpt lat="41.475719095" lon="2.226006471">
        <ele>197.69</ele>
        <time>2014-05-04T07:48:50Z</time>
      </trkpt>
      <trkpt lat="41.475719011" lon="2.226032455">
        <ele>197.69</ele>
        <time>2014-05-04T07:48:51Z</time>
      </trkpt>
      <trkpt lat="41.475733931" lon="2.226149047">
        <ele>198.65</ele>
        <time>2014-05-04T07:48:56Z</time>
      </trkpt>
      <trkpt lat="41.475908442" lon="2.226165811">
        <ele>200.09</ele>
        <time>2014-05-04T07:49:05Z</time>
      </trkpt>
      <trkpt lat="41.476059652" lon="2.226178216">
        <ele>201.53</ele>
        <time>2014-05-04T07:49:13Z</time>
      </trkpt>
      <trkpt lat="41.476211784" lon="2.226214845">
        <ele>202.49</ele>
        <time>2014-05-04T07:49:21Z</time>
      </trkpt>
      <trkpt lat="41.476353019" lon="2.226245523">
        <ele>204.42</ele>
        <time>2014-05-04T07:49:29Z</time>
      </trkpt>
      <trkpt lat="41.476503138" lon="2.226248456">
        <ele>205.38</ele>
        <time>2014-05-04T07:49:37Z</time>
      </trkpt>
      <trkpt lat="41.476616881" lon="2.226159105">
        <ele>206.34</ele>
        <time>2014-05-04T07:49:44Z</time>
      </trkpt>
      <trkpt lat="41.476706903" lon="2.226038909">
        <ele>208.74</ele>
        <time>2014-05-04T07:49:51Z</time>
      </trkpt>
      <trkpt lat="41.476754679" lon="2.225981828">
        <ele>209.22</ele>
        <time>2014-05-04T07:49:55Z</time>
      </trkpt>
      <trkpt lat="41.476807318" lon="2.225899434">
        <ele>210.19</ele>
        <time>2014-05-04T07:50:00Z</time>
      </trkpt>
      <trkpt lat="41.476927933" lon="2.225748559">
        <ele>211.63</ele>
        <time>2014-05-04T07:50:09Z</time>
      </trkpt>
      <trkpt lat="41.477044442" lon="2.225639427">
        <ele>212.59</ele>
        <time>2014-05-04T07:50:17Z</time>
      </trkpt>
      <trkpt lat="41.477146617" lon="2.225522416">
        <ele>214.51</ele>
        <time>2014-05-04T07:50:26Z</time>
      </trkpt>
      <trkpt lat="41.477232951" lon="2.225430634">
        <ele>216.43</ele>
        <time>2014-05-04T07:50:34Z</time>
      </trkpt>
      <trkpt lat="41.477342754" lon="2.225287136">
        <ele>218.36</ele>
        <time>2014-05-04T07:50:44Z</time>
      </trkpt>
      <trkpt lat="41.477443504" lon="2.225189319">
        <ele>219.32</ele>
        <time>2014-05-04T07:50:52Z</time>
      </trkpt>
      <trkpt lat="41.477536040" lon="2.225100303">
        <ele>221.24</ele>
        <time>2014-05-04T07:51:00Z</time>
      </trkpt>
      <trkpt lat="41.477653052" lon="2.224985471">
        <ele>222.68</ele>
        <time>2014-05-04T07:51:09Z</time>
      </trkpt>
      <trkpt lat="41.477739385" lon="2.224857396">
        <ele>223.64</ele>
        <time>2014-05-04T07:51:17Z</time>
      </trkpt>
      <trkpt lat="41.477826222" lon="2.224739462">
        <ele>226.53</ele>
        <time>2014-05-04T07:51:25Z</time>
      </trkpt>
      <trkpt lat="41.477924290" lon="2.224613231">
        <ele>227.49</ele>
        <time>2014-05-04T07:51:33Z</time>
      </trkpt>
      <trkpt lat="41.478069968" lon="2.224444922">
        <ele>228.93</ele>
        <time>2014-05-04T07:51:44Z</time>
      </trkpt>
      <trkpt lat="41.478192511" lon="2.224311817">
        <ele>229.89</ele>
        <time>2014-05-04T07:51:53Z</time>
      </trkpt>
      <trkpt lat="41.478324778" lon="2.224272339">
        <ele>230.85</ele>
        <time>2014-05-04T07:52:01Z</time>
      </trkpt>
      <trkpt lat="41.478365933" lon="2.224254318">
        <ele>231.81</ele>
        <time>2014-05-04T07:52:04Z</time>
      </trkpt>
      <trkpt lat="41.478513957" lon="2.224259850">
        <ele>232.78</ele>
        <time>2014-05-04T07:52:13Z</time>
      </trkpt>
      <trkpt lat="41.478658210" lon="2.224169074">
        <ele>233.26</ele>
        <time>2014-05-04T07:52:19Z</time>
      </trkpt>
      <trkpt lat="41.478837582" lon="2.224096570">
        <ele>233.26</ele>
        <time>2014-05-04T07:52:26Z</time>
      </trkpt>
      <trkpt lat="41.479023996" lon="2.223946450">
        <ele>233.26</ele>
        <time>2014-05-04T07:52:35Z</time>
      </trkpt>
      <trkpt lat="41.479156765" lon="2.223821979">
        <ele>233.74</ele>
        <time>2014-05-04T07:52:42Z</time>
      </trkpt>
      <trkpt lat="41.479307556" lon="2.223711841">
        <ele>235.18</ele>
        <time>2014-05-04T07:52:50Z</time>
      </trkpt>
      <trkpt lat="41.479512409" lon="2.223702621">
        <ele>236.14</ele>
        <time>2014-05-04T07:52:59Z</time>
      </trkpt>
      <trkpt lat="41.479709803" lon="2.223731706">
        <ele>237.58</ele>
        <time>2014-05-04T07:53:08Z</time>
      </trkpt>
      <trkpt lat="41.479887500" lon="2.223585777">
        <ele>238.06</ele>
        <time>2014-05-04T07:53:16Z</time>
      </trkpt>
      <trkpt lat="41.479995458" lon="2.223459629">
        <ele>237.58</ele>
        <time>2014-05-04T07:53:22Z</time>
      </trkpt>
      <trkpt lat="41.480101825" lon="2.223510759">
        <ele>238.06</ele>
        <time>2014-05-04T07:53:28Z</time>
      </trkpt>
      <trkpt lat="41.480158235" lon="2.223626932">
        <ele>239.99</ele>
        <time>2014-05-04T07:53:34Z</time>
      </trkpt>
      <trkpt lat="41.480247418" lon="2.223759785">
        <ele>241.91</ele>
        <time>2014-05-04T07:53:41Z</time>
      </trkpt>
      <trkpt lat="41.480321598" lon="2.223857770">
        <ele>243.83</ele>
        <time>2014-05-04T07:53:46Z</time>
      </trkpt>
      <trkpt lat="41.480409944" lon="2.223871935">
        <ele>244.79</ele>
        <time>2014-05-04T07:53:51Z</time>
      </trkpt>
      <trkpt lat="41.480572888" lon="2.223841341">
        <ele>247.20</ele>
        <time>2014-05-04T07:54:02Z</time>
      </trkpt>
      <trkpt lat="41.480705070" lon="2.223807311">
        <ele>249.60</ele>
        <time>2014-05-04T07:54:11Z</time>
      </trkpt>
      <trkpt lat="41.480833900" lon="2.223774957">
        <ele>251.04</ele>
        <time>2014-05-04T07:54:20Z</time>
      </trkpt>
      <trkpt lat="41.480989636" lon="2.223735478">
        <ele>253.44</ele>
        <time>2014-05-04T07:54:32Z</time>
      </trkpt>
      <trkpt lat="41.481088794" lon="2.223682839">
        <ele>255.37</ele>
        <time>2014-05-04T07:54:40Z</time>
      </trkpt>
      <trkpt lat="41.481205805" lon="2.223605055">
        <ele>256.81</ele>
        <time>2014-05-04T07:54:49Z</time>
      </trkpt>
      <trkpt lat="41.481322565" lon="2.223553842">
        <ele>259.21</ele>
        <time>2014-05-04T07:54:58Z</time>
      </trkpt>
      <trkpt lat="41.481412587" lon="2.223526098">
        <ele>260.65</ele>
        <time>2014-05-04T07:55:05Z</time>
      </trkpt>
      <trkpt lat="41.481460867" lon="2.223503299">
        <ele>261.14</ele>
        <time>2014-05-04T07:55:09Z</time>
      </trkpt>
      <trkpt lat="41.481573771" lon="2.223457199">
        <ele>263.54</ele>
        <time>2014-05-04T07:55:18Z</time>
      </trkpt>
      <trkpt lat="41.481660691" lon="2.223446051">
        <ele>264.50</ele>
        <time>2014-05-04T07:55:25Z</time>
      </trkpt>
      <trkpt lat="41.481820031" lon="2.223446051">
        <ele>265.94</ele>
        <time>2014-05-04T07:55:36Z</time>
      </trkpt>
      <trkpt lat="41.481969397" lon="2.223454600">
        <ele>267.38</ele>
        <time>2014-05-04T07:55:46Z</time>
      </trkpt>
      <trkpt lat="41.482088503" lon="2.223463066">
        <ele>268.83</ele>
        <time>2014-05-04T07:55:54Z</time>
      </trkpt>
      <trkpt lat="41.482254130" lon="2.223448398">
        <ele>270.75</ele>
        <time>2014-05-04T07:56:05Z</time>
      </trkpt>
      <trkpt lat="41.482312384" lon="2.223434065">
        <ele>271.71</ele>
        <time>2014-05-04T07:56:09Z</time>
      </trkpt>
      <trkpt lat="41.482468623" lon="2.223433310">
        <ele>273.63</ele>
        <time>2014-05-04T07:56:19Z</time>
      </trkpt>
      <trkpt lat="41.482592256" lon="2.223470442">
        <ele>274.11</ele>
        <time>2014-05-04T07:56:27Z</time>
      </trkpt>
      <trkpt lat="41.482609271" lon="2.223478740">
        <ele>274.11</ele>
        <time>2014-05-04T07:56:28Z</time>
      </trkpt>
      <trkpt lat="41.482784285" lon="2.223552501">
        <ele>275.07</ele>
        <time>2014-05-04T07:56:39Z</time>
      </trkpt>
      <trkpt lat="41.482887131" lon="2.223594829">
        <ele>276.52</ele>
        <time>2014-05-04T07:56:45Z</time>
      </trkpt>
      <trkpt lat="41.483050327" lon="2.223649647">
        <ele>276.52</ele>
        <time>2014-05-04T07:56:54Z</time>
      </trkpt>
      <trkpt lat="41.483222743" lon="2.223630788">
        <ele>277.00</ele>
        <time>2014-05-04T07:57:03Z</time>
      </trkpt>
      <trkpt lat="41.483374120" lon="2.223592483">
        <ele>277.48</ele>
        <time>2014-05-04T07:57:11Z</time>
      </trkpt>
      <trkpt lat="41.483555337" lon="2.223569181">
        <ele>278.92</ele>
        <time>2014-05-04T07:57:21Z</time>
      </trkpt>
      <trkpt lat="41.483730518" lon="2.223621735">
        <ele>279.40</ele>
        <time>2014-05-04T07:57:31Z</time>
      </trkpt>
      <trkpt lat="41.483880135" lon="2.223727431">
        <ele>279.88</ele>
        <time>2014-05-04T07:57:40Z</time>
      </trkpt>
      <trkpt lat="41.484025477" lon="2.223797672">
        <ele>280.84</ele>
        <time>2014-05-04T07:57:48Z</time>
      </trkpt>
      <trkpt lat="41.484151960" lon="2.223839078">
        <ele>282.77</ele>
        <time>2014-05-04T07:57:56Z</time>
      </trkpt>
      <trkpt lat="41.484293028" lon="2.223875875">
        <ele>284.21</ele>
        <time>2014-05-04T07:58:04Z</time>
      </trkpt>
      <trkpt lat="41.484424875" lon="2.223912587">
        <ele>284.69</ele>
        <time>2014-05-04T07:58:12Z</time>
      </trkpt>
      <trkpt lat="41.484545826" lon="2.223964555">
        <ele>285.65</ele>
        <time>2014-05-04T07:58:19Z</time>
      </trkpt>
      <trkpt lat="41.484702735" lon="2.223984001">
        <ele>287.57</ele>
        <time>2014-05-04T07:58:28Z</time>
      </trkpt>
      <trkpt lat="41.484837265" lon="2.223983415">
        <ele>288.53</ele>
        <time>2014-05-04T07:58:36Z</time>
      </trkpt>
      <trkpt lat="41.484949582" lon="2.224024151">
        <ele>289.49</ele>
        <time>2014-05-04T07:58:43Z</time>
      </trkpt>
      <trkpt lat="41.485077825" lon="2.224109897">
        <ele>291.90</ele>
        <time>2014-05-04T07:58:53Z</time>
      </trkpt>
      <trkpt lat="41.485099702" lon="2.224139737">
        <ele>292.86</ele>
        <time>2014-05-04T07:58:55Z</time>
      </trkpt>
      <trkpt lat="41.485178073" lon="2.224271417">
        <ele>294.30</ele>
        <time>2014-05-04T07:59:03Z</time>
      </trkpt>
      <trkpt lat="41.485236495" lon="2.224396978">
        <ele>295.74</ele>
        <time>2014-05-04T07:59:11Z</time>
      </trkpt>
      <trkpt lat="41.485339592" lon="2.224534525">
        <ele>297.18</ele>
        <time>2014-05-04T07:59:19Z</time>
      </trkpt>
      <trkpt lat="41.485423244" lon="2.224683471">
        <ele>298.63</ele>
        <time>2014-05-04T07:59:28Z</time>
      </trkpt>
      <trkpt lat="41.485484264" lon="2.224792101">
        <ele>299.59</ele>
        <time>2014-05-04T07:59:35Z</time>
      </trkpt>
      <trkpt lat="41.485584176" lon="2.224938365">
        <ele>301.03</ele>
        <time>2014-05-04T07:59:44Z</time>
      </trkpt>
      <trkpt lat="41.485662296" lon="2.225097034">
        <ele>302.47</ele>
        <time>2014-05-04T07:59:53Z</time>
      </trkpt>
      <trkpt lat="41.485728764" lon="2.225230223">
        <ele>304.39</ele>
        <time>2014-05-04T08:00:00Z</time>
      </trkpt>
      <trkpt lat="41.485801603" lon="2.225368943">
        <ele>305.84</ele>
        <time>2014-05-04T08:00:09Z</time>
      </trkpt>
      <trkpt lat="41.485862539" lon="2.225467850">
        <ele>307.28</ele>
        <time>2014-05-04T08:00:17Z</time>
      </trkpt>
      <trkpt lat="41.485885757" lon="2.225500120">
        <ele>308.24</ele>
        <time>2014-05-04T08:00:20Z</time>
      </trkpt>
      <trkpt lat="41.485989274" lon="2.225652251">
        <ele>310.64</ele>
        <time>2014-05-04T08:00:31Z</time>
      </trkpt>
      <trkpt lat="41.486055239" lon="2.225768425">
        <ele>313.05</ele>
        <time>2014-05-04T08:00:39Z</time>
      </trkpt>
      <trkpt lat="41.486135789" lon="2.225885604">
        <ele>314.49</ele>
        <time>2014-05-04T08:00:47Z</time>
      </trkpt>
      <trkpt lat="41.486247855" lon="2.225941595">
        <ele>314.97</ele>
        <time>2014-05-04T08:00:55Z</time>
      </trkpt>
      <trkpt lat="41.486382050" lon="2.226015439">
        <ele>315.45</ele>
        <time>2014-05-04T08:01:03Z</time>
      </trkpt>
      <trkpt lat="41.486526302" lon="2.226121135">
        <ele>316.41</ele>
        <time>2014-05-04T08:01:13Z</time>
      </trkpt>
      <trkpt lat="41.486633674" lon="2.226210235">
        <ele>317.85</ele>
        <time>2014-05-04T08:01:21Z</time>
      </trkpt>
      <trkpt lat="41.486764851" lon="2.226316433">
        <ele>319.30</ele>
        <time>2014-05-04T08:01:31Z</time>
      </trkpt>
      <trkpt lat="41.486863338" lon="2.226413999">
        <ele>320.26</ele>
        <time>2014-05-04T08:01:39Z</time>
      </trkpt>
      <trkpt lat="41.486945397" lon="2.226519778">
        <ele>321.70</ele>
        <time>2014-05-04T08:01:46Z</time>
      </trkpt>
      <trkpt lat="41.487046232" lon="2.226646094">
        <ele>323.14</ele>
        <time>2014-05-04T08:01:54Z</time>
      </trkpt>
      <trkpt lat="41.487120160" lon="2.226756986">
        <ele>324.10</ele>
        <time>2014-05-04T08:02:01Z</time>
      </trkpt>
      <trkpt lat="41.487171876" lon="2.226854049">
        <ele>326.02</ele>
        <time>2014-05-04T08:02:08Z</time>
      </trkpt>
      <trkpt lat="41.487239854" lon="2.227002325">
        <ele>326.99</ele>
        <time>2014-05-04T08:02:16Z</time>
      </trkpt>
      <trkpt lat="41.487305316" lon="2.227201562">
        <ele>328.91</ele>
        <time>2014-05-04T08:02:26Z</time>
      </trkpt>
      <trkpt lat="41.487349405" lon="2.227329303">
        <ele>329.87</ele>
        <time>2014-05-04T08:02:33Z</time>
      </trkpt>
      <trkpt lat="41.487360469" lon="2.227429634">
        <ele>331.79</ele>
        <time>2014-05-04T08:02:40Z</time>
      </trkpt>
      <trkpt lat="41.487407743" lon="2.227541281">
        <ele>332.75</ele>
        <time>2014-05-04T08:02:47Z</time>
      </trkpt>
      <trkpt lat="41.487468260" lon="2.227641361">
        <ele>334.20</ele>
        <time>2014-05-04T08:02:52Z</time>
      </trkpt>
      <trkpt lat="41.487650734" lon="2.227795169">
        <ele>334.68</ele>
        <time>2014-05-04T08:03:03Z</time>
      </trkpt>
      <trkpt lat="41.487816696" lon="2.227876976">
        <ele>337.08</ele>
        <time>2014-05-04T08:03:14Z</time>
      </trkpt>
      <trkpt lat="41.487865563" lon="2.227916287">
        <ele>338.04</ele>
        <time>2014-05-04T08:03:18Z</time>
      </trkpt>
      <trkpt lat="41.487957177" lon="2.227968255">
        <ele>340.92</ele>
        <time>2014-05-04T08:03:26Z</time>
      </trkpt>
      <trkpt lat="41.488071338" lon="2.228022235">
        <ele>343.33</ele>
        <time>2014-05-04T08:03:36Z</time>
      </trkpt>
      <trkpt lat="41.488164294" lon="2.228057103">
        <ele>344.29</ele>
        <time>2014-05-04T08:03:44Z</time>
      </trkpt>
      <trkpt lat="41.488277617" lon="2.227974290">
        <ele>344.77</ele>
        <time>2014-05-04T08:03:53Z</time>
      </trkpt>
      <trkpt lat="41.488378032" lon="2.227890722">
        <ele>344.77</ele>
        <time>2014-05-04T08:04:01Z</time>
      </trkpt>
      <trkpt lat="41.488444249" lon="2.227818303">
        <ele>346.69</ele>
        <time>2014-05-04T08:04:08Z</time>
      </trkpt>
      <trkpt lat="41.488542904" lon="2.227732975">
        <ele>348.13</ele>
        <time>2014-05-04T08:04:17Z</time>
      </trkpt>
      <trkpt lat="41.488598728" lon="2.227717301">
        <ele>349.10</ele>
        <time>2014-05-04T08:04:21Z</time>
      </trkpt>
      <trkpt lat="41.488709034" lon="2.227746218">
        <ele>351.98</ele>
        <time>2014-05-04T08:04:32Z</time>
      </trkpt>
      <trkpt lat="41.488761923" lon="2.227795336">
        <ele>353.90</ele>
        <time>2014-05-04T08:04:38Z</time>
      </trkpt>
      <trkpt lat="41.488855968" lon="2.227861386">
        <ele>356.31</ele>
        <time>2014-05-04T08:04:47Z</time>
      </trkpt>
      <trkpt lat="41.488977841" lon="2.227944870">
        <ele>359.19</ele>
        <time>2014-05-04T08:04:57Z</time>
      </trkpt>
      <trkpt lat="41.489084459" lon="2.228010835">
        <ele>361.11</ele>
        <time>2014-05-04T08:05:06Z</time>
      </trkpt>
      <trkpt lat="41.489157130" lon="2.228059031">
        <ele>362.07</ele>
        <time>2014-05-04T08:05:13Z</time>
      </trkpt>
      <trkpt lat="41.489276237" lon="2.228124997">
        <ele>364.00</ele>
        <time>2014-05-04T08:05:24Z</time>
      </trkpt>
      <trkpt lat="41.489365923" lon="2.228213929">
        <ele>366.88</ele>
        <time>2014-05-04T08:05:34Z</time>
      </trkpt>
      <trkpt lat="41.489394086" lon="2.228234213">
        <ele>367.84</ele>
        <time>2014-05-04T08:05:37Z</time>
      </trkpt>
      <trkpt lat="41.489438678" lon="2.228290372">
        <ele>368.32</ele>
        <time>2014-05-04T08:05:42Z</time>
      </trkpt>
      <trkpt lat="41.489547978" lon="2.228378717">
        <ele>370.73</ele>
        <time>2014-05-04T08:05:53Z</time>
      </trkpt>
      <trkpt lat="41.489636826" lon="2.228443341">
        <ele>372.65</ele>
        <time>2014-05-04T08:06:02Z</time>
      </trkpt>
      <trkpt lat="41.489723663" lon="2.228503356">
        <ele>374.57</ele>
        <time>2014-05-04T08:06:11Z</time>
      </trkpt>
      <trkpt lat="41.489742522" lon="2.228516264">
        <ele>374.57</ele>
        <time>2014-05-04T08:06:13Z</time>
      </trkpt>
      <trkpt lat="41.489847045" lon="2.228591450">
        <ele>376.97</ele>
        <time>2014-05-04T08:06:23Z</time>
      </trkpt>
      <trkpt lat="41.489938407" lon="2.228686836">
        <ele>378.90</ele>
        <time>2014-05-04T08:06:33Z</time>
      </trkpt>
      <trkpt lat="41.489959278" lon="2.228699744">
        <ele>379.86</ele>
        <time>2014-05-04T08:06:35Z</time>
      </trkpt>
      <trkpt lat="41.490041253" lon="2.228782557">
        <ele>380.80</ele>
        <time>2014-05-04T08:06:43Z</time>
      </trkpt>
      <trkpt lat="41.490051144" lon="2.228792364">
        <ele>380.80</ele>
        <time>2014-05-04T08:06:44Z</time>
      </trkpt>
      <trkpt lat="41.490162372" lon="2.228894036">
        <ele>382.70</ele>
        <time>2014-05-04T08:06:55Z</time>
      </trkpt>
      <trkpt lat="41.490248621" lon="2.228950447">
        <ele>383.70</ele>
        <time>2014-05-04T08:07:03Z</time>
      </trkpt>
      <trkpt lat="41.490341996" lon="2.229079695">
        <ele>385.60</ele>
        <time>2014-05-04T08:07:14Z</time>
      </trkpt>
      <trkpt lat="41.490435454" lon="2.229176087">
        <ele>387.60</ele>
        <time>2014-05-04T08:07:24Z</time>
      </trkpt>
      <trkpt lat="41.490455990" lon="2.229191426">
        <ele>387.60</ele>
        <time>2014-05-04T08:07:26Z</time>
      </trkpt>
      <trkpt lat="41.490513406" lon="2.229256721">
        <ele>389.50</ele>
        <time>2014-05-04T08:07:32Z</time>
      </trkpt>
      <trkpt lat="41.490601164" lon="2.229358394">
        <ele>390.90</ele>
        <time>2014-05-04T08:07:42Z</time>
      </trkpt>
      <trkpt lat="41.490695796" lon="2.229459982">
        <ele>393.80</ele>
        <time>2014-05-04T08:07:52Z</time>
      </trkpt>
      <trkpt lat="41.490784393" lon="2.229562242">
        <ele>394.30</ele>
        <time>2014-05-04T08:08:01Z</time>
      </trkpt>
      <trkpt lat="41.490853711" lon="2.229657711">
        <ele>396.20</ele>
        <time>2014-05-04T08:08:09Z</time>
      </trkpt>
      <trkpt lat="41.490947505" lon="2.229747817">
        <ele>397.60</ele>
        <time>2014-05-04T08:08:18Z</time>
      </trkpt>
      <trkpt lat="41.491043226" lon="2.229844041">
        <ele>400.50</ele>
        <time>2014-05-04T08:08:28Z</time>
      </trkpt>
      <trkpt lat="41.491122686" lon="2.229933225">
        <ele>402.90</ele>
        <time>2014-05-04T08:08:37Z</time>
      </trkpt>
      <trkpt lat="41.491219749" lon="2.230055600">
        <ele>404.90</ele>
        <time>2014-05-04T08:08:49Z</time>
      </trkpt>
      <trkpt lat="41.491284289" lon="2.230150986">
        <ele>405.30</ele>
        <time>2014-05-04T08:08:56Z</time>
      </trkpt>
      <trkpt lat="41.491360649" lon="2.230270764">
        <ele>406.30</ele>
        <time>2014-05-04T08:09:05Z</time>
      </trkpt>
      <trkpt lat="41.491453855" lon="2.230411412">
        <ele>407.70</ele>
        <time>2014-05-04T08:09:16Z</time>
      </trkpt>
      <trkpt lat="41.491517223" lon="2.230532950">
        <ele>409.20</ele>
        <time>2014-05-04T08:09:25Z</time>
      </trkpt>
      <trkpt lat="41.491564999" lon="2.230621379">
        <ele>410.60</ele>
        <time>2014-05-04T08:09:32Z</time>
      </trkpt>
      <trkpt lat="41.491586373" lon="2.230655996">
        <ele>411.10</ele>
        <time>2014-05-04T08:09:35Z</time>
      </trkpt>
      <trkpt lat="41.491651249" lon="2.230787341">
        <ele>413.50</ele>
        <time>2014-05-04T08:09:45Z</time>
      </trkpt>
      <trkpt lat="41.491702295" lon="2.230922876">
        <ele>415.40</ele>
        <time>2014-05-04T08:09:54Z</time>
      </trkpt>
      <trkpt lat="41.491730374" lon="2.231081797">
        <ele>418.30</ele>
        <time>2014-05-04T08:10:04Z</time>
      </trkpt>
      <trkpt lat="41.491697182" lon="2.231191684">
        <ele>419.80</ele>
        <time>2014-05-04T08:10:12Z</time>
      </trkpt>
      <trkpt lat="41.491666840" lon="2.231273407">
        <ele>420.70</ele>
        <time>2014-05-04T08:10:18Z</time>
      </trkpt>
      <trkpt lat="41.491631216" lon="2.231451439">
        <ele>424.10</ele>
        <time>2014-05-04T08:10:29Z</time>
      </trkpt>
      <trkpt lat="41.491657536" lon="2.231656041">
        <ele>424.10</ele>
        <time>2014-05-04T08:10:38Z</time>
      </trkpt>
      <trkpt lat="41.491768177" lon="2.231814375">
        <ele>424.10</ele>
        <time>2014-05-04T08:10:48Z</time>
      </trkpt>
      <trkpt lat="41.491859372" lon="2.231940020">
        <ele>425.00</ele>
        <time>2014-05-04T08:10:56Z</time>
      </trkpt>
      <trkpt lat="41.491939168" lon="2.232094079">
        <ele>426.50</ele>
        <time>2014-05-04T08:11:05Z</time>
      </trkpt>
      <trkpt lat="41.492008402" lon="2.232288372">
        <ele>428.40</ele>
        <time>2014-05-04T08:11:16Z</time>
      </trkpt>
      <trkpt lat="41.492085516" lon="2.232497500">
        <ele>430.30</ele>
        <time>2014-05-04T08:11:28Z</time>
      </trkpt>
      <trkpt lat="41.492137651" lon="2.232647872">
        <ele>432.30</ele>
        <time>2014-05-04T08:11:37Z</time>
      </trkpt>
      <trkpt lat="41.492180315" lon="2.232725320">
        <ele>434.20</ele>
        <time>2014-05-04T08:11:43Z</time>
      </trkpt>
      <trkpt lat="41.492268828" lon="2.232731272">
        <ele>435.60</ele>
        <time>2014-05-04T08:11:51Z</time>
      </trkpt>
      <trkpt lat="41.492300595" lon="2.232752143">
        <ele>436.60</ele>
        <time>2014-05-04T08:11:58Z</time>
      </trkpt>
      <trkpt lat="41.492302691" lon="2.232762368">
        <ele>437.10</ele>
        <time>2014-05-04T08:12:07Z</time>
      </trkpt>
      <trkpt lat="41.492307217" lon="2.232761446">
        <ele>437.10</ele>
        <time>2014-05-04T08:12:17Z</time>
      </trkpt>
      <trkpt lat="41.492303026" lon="2.232761111">
        <ele>437.10</ele>
        <time>2014-05-04T08:12:49Z</time>
      </trkpt>
      <trkpt lat="41.492299086" lon="2.232749125">
        <ele>437.50</ele>
        <time>2014-05-04T08:13:22Z</time>
      </trkpt>
      <trkpt lat="41.492305708" lon="2.232758764">
        <ele>437.50</ele>
        <time>2014-05-04T08:13:54Z</time>
      </trkpt>
      <trkpt lat="41.492306546" lon="2.232731188">
        <ele>437.50</ele>
        <time>2014-05-04T08:14:03Z</time>
      </trkpt>
      <trkpt lat="41.492307887" lon="2.232734457">
        <ele>437.50</ele>
        <time>2014-05-04T08:14:08Z</time>
      </trkpt>
      <trkpt lat="41.492318532" lon="2.232701767">
        <ele>437.50</ele>
        <time>2014-05-04T08:14:21Z</time>
      </trkpt>
      <trkpt lat="41.492335548" lon="2.232706964">
        <ele>437.50</ele>
        <time>2014-05-04T08:14:29Z</time>
      </trkpt>
      <trkpt lat="41.492380223" lon="2.232816516">
        <ele>435.60</ele>
        <time>2014-05-04T08:14:34Z</time>
      </trkpt>
      <trkpt lat="41.492434454" lon="2.233035535">
        <ele>431.80</ele>
        <time>2014-05-04T08:14:40Z</time>
      </trkpt>
      <trkpt lat="41.492441830" lon="2.233154139">
        <ele>430.30</ele>
        <time>2014-05-04T08:14:43Z</time>
      </trkpt>
      <trkpt lat="41.492438226" lon="2.233194288">
        <ele>429.90</ele>
        <time>2014-05-04T08:14:44Z</time>
      </trkpt>
      <trkpt lat="41.492358095" lon="2.233358741">
        <ele>426.50</ele>
        <time>2014-05-04T08:14:47Z</time>
      </trkpt>
      <trkpt lat="41.492254159" lon="2.233502239">
        <ele>425.00</ele>
        <time>2014-05-04T08:14:49Z</time>
      </trkpt>
      <trkpt lat="41.492090712" lon="2.233896440">
        <ele>423.60</ele>
        <time>2014-05-04T08:14:53Z</time>
      </trkpt>
      <trkpt lat="41.492061292" lon="2.234102970">
        <ele>423.60</ele>
        <time>2014-05-04T08:14:55Z</time>
      </trkpt>
      <trkpt lat="41.492049641" lon="2.234708898">
        <ele>422.60</ele>
        <time>2014-05-04T08:15:01Z</time>
      </trkpt>
      <trkpt lat="41.492054419" lon="2.234808140">
        <ele>421.70</ele>
        <time>2014-05-04T08:15:02Z</time>
      </trkpt>
      <trkpt lat="41.492033213" lon="2.235025231">
        <ele>425.00</ele>
        <time>2014-05-04T08:15:06Z</time>
      </trkpt>
      <trkpt lat="41.492023992" lon="2.235048784">
        <ele>425.50</ele>
        <time>2014-05-04T08:15:07Z</time>
      </trkpt>
      <trkpt lat="41.491965990" lon="2.235302337">
        <ele>424.60</ele>
        <time>2014-05-04T08:15:15Z</time>
      </trkpt>
      <trkpt lat="41.491855097" lon="2.235559661">
        <ele>420.70</ele>
        <time>2014-05-04T08:15:19Z</time>
      </trkpt>
      <trkpt lat="41.491789886" lon="2.235697795">
        <ele>419.30</ele>
        <time>2014-05-04T08:15:21Z</time>
      </trkpt>
      <trkpt lat="41.491643035" lon="2.236071711">
        <ele>416.40</ele>
        <time>2014-05-04T08:15:26Z</time>
      </trkpt>
      <trkpt lat="41.491596432" lon="2.236234069">
        <ele>415.00</ele>
        <time>2014-05-04T08:15:30Z</time>
      </trkpt>
      <trkpt lat="41.491601125" lon="2.236230129">
        <ele>415.40</ele>
        <time>2014-05-04T08:15:33Z</time>
      </trkpt>
      <trkpt lat="41.491636832" lon="2.236159386">
        <ele>415.40</ele>
        <time>2014-05-04T08:15:41Z</time>
      </trkpt>
      <trkpt lat="41.491631971" lon="2.236150418">
        <ele>415.40</ele>
        <time>2014-05-04T08:16:10Z</time>
      </trkpt>
      <trkpt lat="41.491633982" lon="2.236152848">
        <ele>415.00</ele>
        <time>2014-05-04T08:16:37Z</time>
      </trkpt>
      <trkpt lat="41.491632893" lon="2.236149747">
        <ele>415.00</ele>
        <time>2014-05-04T08:17:09Z</time>
      </trkpt>
      <trkpt lat="41.491633480" lon="2.236149244">
        <ele>415.00</ele>
        <time>2014-05-04T08:17:30Z</time>
      </trkpt>
      <trkpt lat="41.491635575" lon="2.236146227">
        <ele>415.00</ele>
        <time>2014-05-04T08:17:55Z</time>
      </trkpt>
      <trkpt lat="41.491631384" lon="2.236145221">
        <ele>415.00</ele>
        <time>2014-05-04T08:18:21Z</time>
      </trkpt>
      <trkpt lat="41.491623421" lon="2.236155028">
        <ele>415.00</ele>
        <time>2014-05-04T08:18:27Z</time>
      </trkpt>
      <trkpt lat="41.491599617" lon="2.236228872">
        <ele>415.00</ele>
        <time>2014-05-04T08:18:32Z</time>
      </trkpt>
      <trkpt lat="41.491648316" lon="2.236339513">
        <ele>414.00</ele>
        <time>2014-05-04T08:18:39Z</time>
      </trkpt>
      <trkpt lat="41.491732889" lon="2.236516874">
        <ele>411.60</ele>
        <time>2014-05-04T08:18:45Z</time>
      </trkpt>
      <trkpt lat="41.491692488" lon="2.236654254">
        <ele>408.20</ele>
        <time>2014-05-04T08:18:49Z</time>
      </trkpt>
      <trkpt lat="41.491589894" lon="2.236777552">
        <ele>405.30</ele>
        <time>2014-05-04T08:18:53Z</time>
      </trkpt>
      <trkpt lat="41.491436840" lon="2.236869166">
        <ele>402.50</ele>
        <time>2014-05-04T08:18:57Z</time>
      </trkpt>
      <trkpt lat="41.491289319" lon="2.236973353">
        <ele>399.10</ele>
        <time>2014-05-04T08:19:02Z</time>
      </trkpt>
      <trkpt lat="41.491262497" lon="2.237164460">
        <ele>395.70</ele>
        <time>2014-05-04T08:19:07Z</time>
      </trkpt>
      <trkpt lat="41.491271381" lon="2.237266803">
        <ele>395.20</ele>
        <time>2014-05-04T08:19:09Z</time>
      </trkpt>
      <trkpt lat="41.491278422" lon="2.237582466">
        <ele>392.80</ele>
        <time>2014-05-04T08:19:13Z</time>
      </trkpt>
      <trkpt lat="41.491271549" lon="2.237663770">
        <ele>392.80</ele>
        <time>2014-05-04T08:19:14Z</time>
      </trkpt>
      <trkpt lat="41.491270795" lon="2.237978846">
        <ele>392.80</ele>
        <time>2014-05-04T08:19:20Z</time>
      </trkpt>
      <trkpt lat="41.491282026" lon="2.238056881">
        <ele>392.80</ele>
        <time>2014-05-04T08:19:22Z</time>
      </trkpt>
      <trkpt lat="41.491291498" lon="2.238395929">
        <ele>390.40</ele>
        <time>2014-05-04T08:19:27Z</time>
      </trkpt>
      <trkpt lat="41.491173900" lon="2.238697846">
        <ele>390.00</ele>
        <time>2014-05-04T08:19:32Z</time>
      </trkpt>
      <trkpt lat="41.491144312" lon="2.238902699">
        <ele>390.00</ele>
        <time>2014-05-04T08:19:36Z</time>
      </trkpt>
      <trkpt lat="41.491161075" lon="2.239017699">
        <ele>388.50</ele>
        <time>2014-05-04T08:19:41Z</time>
      </trkpt>
      <trkpt lat="41.491154118" lon="2.238965144">
        <ele>388.50</ele>
        <time>2014-05-04T08:19:48Z</time>
      </trkpt>
      <trkpt lat="41.491152777" lon="2.238925498">
        <ele>388.50</ele>
        <time>2014-05-04T08:19:53Z</time>
      </trkpt>
      <trkpt lat="41.491141462" lon="2.238850061">
        <ele>390.00</ele>
        <time>2014-05-04T08:19:58Z</time>
      </trkpt>
      <trkpt lat="41.491190412" lon="2.238640932">
        <ele>390.40</ele>
        <time>2014-05-04T08:20:05Z</time>
      </trkpt>
      <trkpt lat="41.491291246" lon="2.238475641">
        <ele>390.40</ele>
        <time>2014-05-04T08:20:11Z</time>
      </trkpt>
      <trkpt lat="41.491433906" lon="2.238482682">
        <ele>389.00</ele>
        <time>2014-05-04T08:20:17Z</time>
      </trkpt>
      <trkpt lat="41.491571537" lon="2.238535404">
        <ele>385.20</ele>
        <time>2014-05-04T08:20:22Z</time>
      </trkpt>
      <trkpt lat="41.491671617" lon="2.238571782">
        <ele>381.80</ele>
        <time>2014-05-04T08:20:26Z</time>
      </trkpt>
      <trkpt lat="41.491747306" lon="2.238516545">
        <ele>378.90</ele>
        <time>2014-05-04T08:20:32Z</time>
      </trkpt>
      <trkpt lat="41.491807739" lon="2.238519227">
        <ele>377.90</ele>
        <time>2014-05-04T08:20:36Z</time>
      </trkpt>
      <trkpt lat="41.491834645" lon="2.238620732">
        <ele>377.90</ele>
        <time>2014-05-04T08:20:41Z</time>
      </trkpt>
      <trkpt lat="41.491869765" lon="2.238868417">
        <ele>377.90</ele>
        <time>2014-05-04T08:20:51Z</time>
      </trkpt>
      <trkpt lat="41.491882757" lon="2.238917116">
        <ele>379.40</ele>
        <time>2014-05-04T08:20:53Z</time>
      </trkpt>
      <trkpt lat="41.491949896" lon="2.239095734">
        <ele>380.30</ele>
        <time>2014-05-04T08:21:02Z</time>
      </trkpt>
      <trkpt lat="41.492015694" lon="2.239233533">
        <ele>380.80</ele>
        <time>2014-05-04T08:21:09Z</time>
      </trkpt>
      <trkpt lat="41.492117115" lon="2.239391113">
        <ele>381.30</ele>
        <time>2014-05-04T08:21:16Z</time>
      </trkpt>
      <trkpt lat="41.492190373" lon="2.239522373">
        <ele>381.80</ele>
        <time>2014-05-04T08:21:22Z</time>
      </trkpt>
      <trkpt lat="41.492248376" lon="2.239669643">
        <ele>381.80</ele>
        <time>2014-05-04T08:21:28Z</time>
      </trkpt>
      <trkpt lat="41.492245442" lon="2.239650114">
        <ele>381.80</ele>
        <time>2014-05-04T08:21:34Z</time>
      </trkpt>
      <trkpt lat="41.492221889" lon="2.239597391">
        <ele>381.80</ele>
        <time>2014-05-04T08:21:42Z</time>
      </trkpt>
      <trkpt lat="41.492170424" lon="2.239578364">
        <ele>381.80</ele>
        <time>2014-05-04T08:21:49Z</time>
      </trkpt>
      <trkpt lat="41.492165982" lon="2.239572832">
        <ele>381.80</ele>
        <time>2014-05-04T08:22:12Z</time>
      </trkpt>
      <trkpt lat="41.492176459" lon="2.239566127">
        <ele>381.80</ele>
        <time>2014-05-04T08:22:31Z</time>
      </trkpt>
      <trkpt lat="41.492176878" lon="2.239570402">
        <ele>381.80</ele>
        <time>2014-05-04T08:22:48Z</time>
      </trkpt>
      <trkpt lat="41.492177968" lon="2.239549112">
        <ele>381.80</ele>
        <time>2014-05-04T08:23:11Z</time>
      </trkpt>
      <trkpt lat="41.492151733" lon="2.239562187">
        <ele>381.80</ele>
        <time>2014-05-04T08:23:31Z</time>
      </trkpt>
      <trkpt lat="41.492174196" lon="2.239569228">
        <ele>381.80</ele>
        <time>2014-05-04T08:23:48Z</time>
      </trkpt>
      <trkpt lat="41.492163886" lon="2.239571910">
        <ele>381.80</ele>
        <time>2014-05-04T08:24:11Z</time>
      </trkpt>
      <trkpt lat="41.492186182" lon="2.239583729">
        <ele>382.30</ele>
        <time>2014-05-04T08:24:33Z</time>
      </trkpt>
      <trkpt lat="41.492186518" lon="2.239591859">
        <ele>382.30</ele>
        <time>2014-05-04T08:24:53Z</time>
      </trkpt>
      <trkpt lat="41.492158773" lon="2.239593703">
        <ele>382.30</ele>
        <time>2014-05-04T08:25:10Z</time>
      </trkpt>
      <trkpt lat="41.492152487" lon="2.239599068">
        <ele>382.30</ele>
        <time>2014-05-04T08:25:21Z</time>
      </trkpt>
      <trkpt lat="41.492154080" lon="2.239608958">
        <ele>382.30</ele>
        <time>2014-05-04T08:25:41Z</time>
      </trkpt>
      <trkpt lat="41.492152152" lon="2.239609042">
        <ele>382.30</ele>
        <time>2014-05-04T08:25:59Z</time>
      </trkpt>
      <trkpt lat="41.492146703" lon="2.239614490">
        <ele>382.30</ele>
        <time>2014-05-04T08:26:15Z</time>
      </trkpt>
      <trkpt lat="41.492149302" lon="2.239605103">
        <ele>382.30</ele>
        <time>2014-05-04T08:26:17Z</time>
      </trkpt>
      <trkpt lat="41.492174867" lon="2.239607282">
        <ele>382.30</ele>
        <time>2014-05-04T08:26:22Z</time>
      </trkpt>
      <trkpt lat="41.492265810" lon="2.239761677">
        <ele>382.30</ele>
        <time>2014-05-04T08:26:29Z</time>
      </trkpt>
      <trkpt lat="41.492391958" lon="2.240064766">
        <ele>381.30</ele>
        <time>2014-05-04T08:26:37Z</time>
      </trkpt>
      <trkpt lat="41.492488098" lon="2.240218490">
        <ele>380.30</ele>
        <time>2014-05-04T08:26:41Z</time>
      </trkpt>
      <trkpt lat="41.492650707" lon="2.240547564">
        <ele>377.00</ele>
        <time>2014-05-04T08:26:49Z</time>
      </trkpt>
      <trkpt lat="41.492720780" lon="2.240820563">
        <ele>374.10</ele>
        <time>2014-05-04T08:26:55Z</time>
      </trkpt>
      <trkpt lat="41.492740729" lon="2.240904382">
        <ele>373.60</ele>
        <time>2014-05-04T08:26:57Z</time>
      </trkpt>
      <trkpt lat="41.492759169" lon="2.241068751">
        <ele>372.20</ele>
        <time>2014-05-04T08:27:01Z</time>
      </trkpt>
      <trkpt lat="41.492637380" lon="2.241260277">
        <ele>369.80</ele>
        <time>2014-05-04T08:27:08Z</time>
      </trkpt>
      <trkpt lat="41.492629501" lon="2.241289111">
        <ele>369.80</ele>
        <time>2014-05-04T08:27:09Z</time>
      </trkpt>
      <trkpt lat="41.492688929" lon="2.241412241">
        <ele>366.40</ele>
        <time>2014-05-04T08:27:14Z</time>
      </trkpt>
      <trkpt lat="41.492810634" lon="2.241547860">
        <ele>361.60</ele>
        <time>2014-05-04T08:27:19Z</time>
      </trkpt>
      <trkpt lat="41.492811472" lon="2.241713235">
        <ele>357.80</ele>
        <time>2014-05-04T08:27:23Z</time>
      </trkpt>
      <trkpt lat="41.492806024" lon="2.241868636">
        <ele>354.90</ele>
        <time>2014-05-04T08:27:27Z</time>
      </trkpt>
      <trkpt lat="41.492817926" lon="2.242102658">
        <ele>351.00</ele>
        <time>2014-05-04T08:27:32Z</time>
      </trkpt>
      <trkpt lat="41.492812981" lon="2.242324360">
        <ele>347.70</ele>
        <time>2014-05-04T08:27:37Z</time>
      </trkpt>
      <trkpt lat="41.492763612" lon="2.242426284">
        <ele>345.70</ele>
        <time>2014-05-04T08:27:40Z</time>
      </trkpt>
      <trkpt lat="41.492804264" lon="2.242523849">
        <ele>343.30</ele>
        <time>2014-05-04T08:27:45Z</time>
      </trkpt>
      <trkpt lat="41.492889927" lon="2.242657540">
        <ele>339.00</ele>
        <time>2014-05-04T08:27:50Z</time>
      </trkpt>
      <trkpt lat="41.492921527" lon="2.242817216">
        <ele>334.70</ele>
        <time>2014-05-04T08:27:54Z</time>
      </trkpt>
      <trkpt lat="41.492989001" lon="2.242933976">
        <ele>330.80</ele>
        <time>2014-05-04T08:27:58Z</time>
      </trkpt>
      <trkpt lat="41.493044154" lon="2.242963648">
        <ele>329.40</ele>
        <time>2014-05-04T08:28:00Z</time>
      </trkpt>
      <trkpt lat="41.493088913" lon="2.243022405">
        <ele>328.90</ele>
        <time>2014-05-04T08:28:02Z</time>
      </trkpt>
      <trkpt lat="41.493131074" lon="2.243137572">
        <ele>325.10</ele>
        <time>2014-05-04T08:28:05Z</time>
      </trkpt>
      <trkpt lat="41.493173990" lon="2.243302695">
        <ele>321.70</ele>
        <time>2014-05-04T08:28:09Z</time>
      </trkpt>
      <trkpt lat="41.493178264" lon="2.243451558">
        <ele>318.80</ele>
        <time>2014-05-04T08:28:13Z</time>
      </trkpt>
      <trkpt lat="41.493169631" lon="2.243479135">
        <ele>318.80</ele>
        <time>2014-05-04T08:28:14Z</time>
      </trkpt>
      <trkpt lat="41.493036694" lon="2.243519954">
        <ele>318.30</ele>
        <time>2014-05-04T08:28:21Z</time>
      </trkpt>
      <trkpt lat="41.492837121" lon="2.243603187">
        <ele>317.90</ele>
        <time>2014-05-04T08:28:28Z</time>
      </trkpt>
      <trkpt lat="41.492796636" lon="2.243819775">
        <ele>317.90</ele>
        <time>2014-05-04T08:28:33Z</time>
      </trkpt>
      <trkpt lat="41.492789176" lon="2.244203163">
        <ele>316.40</ele>
        <time>2014-05-04T08:28:41Z</time>
      </trkpt>
      <trkpt lat="41.492851370" lon="2.244667772">
        <ele>314.50</ele>
        <time>2014-05-04T08:28:49Z</time>
      </trkpt>
      <trkpt lat="41.492949606" lon="2.245145373">
        <ele>313.10</ele>
        <time>2014-05-04T08:28:57Z</time>
      </trkpt>
      <trkpt lat="41.492907194" lon="2.245583914">
        <ele>311.60</ele>
        <time>2014-05-04T08:29:04Z</time>
      </trkpt>
      <trkpt lat="41.492823123" lon="2.245737722">
        <ele>311.10</ele>
        <time>2014-05-04T08:29:07Z</time>
      </trkpt>
      <trkpt lat="41.492683732" lon="2.245986413">
        <ele>309.70</ele>
        <time>2014-05-04T08:29:12Z</time>
      </trkpt>
      <trkpt lat="41.492495307" lon="2.246146843">
        <ele>308.70</ele>
        <time>2014-05-04T08:29:17Z</time>
      </trkpt>
      <trkpt lat="41.492319538" lon="2.246334765">
        <ele>308.20</ele>
        <time>2014-05-04T08:29:23Z</time>
      </trkpt>
      <trkpt lat="41.492350970" lon="2.246488405">
        <ele>307.80</ele>
        <time>2014-05-04T08:29:26Z</time>
      </trkpt>
      <trkpt lat="41.492471502" lon="2.246728882">
        <ele>306.80</ele>
        <time>2014-05-04T08:29:31Z</time>
      </trkpt>
      <trkpt lat="41.492706447" lon="2.247169603">
        <ele>303.40</ele>
        <time>2014-05-04T08:29:38Z</time>
      </trkpt>
      <trkpt lat="41.492974333" lon="2.247733202">
        <ele>301.50</ele>
        <time>2014-05-04T08:29:46Z</time>
      </trkpt>
      <trkpt lat="41.493150017" lon="2.248132432">
        <ele>302.00</ele>
        <time>2014-05-04T08:29:53Z</time>
      </trkpt>
      <trkpt lat="41.493164350" lon="2.248179203">
        <ele>302.00</ele>
        <time>2014-05-04T08:29:54Z</time>
      </trkpt>
      <trkpt lat="41.493185892" lon="2.248444574">
        <ele>303.00</ele>
        <time>2014-05-04T08:30:01Z</time>
      </trkpt>
      <trkpt lat="41.493119926" lon="2.248695361">
        <ele>304.90</ele>
        <time>2014-05-04T08:30:09Z</time>
      </trkpt>
      <trkpt lat="41.493027809" lon="2.248876074">
        <ele>305.80</ele>
        <time>2014-05-04T08:30:16Z</time>
      </trkpt>
      <trkpt lat="41.492916497" lon="2.249003312">
        <ele>307.80</ele>
        <time>2014-05-04T08:30:23Z</time>
      </trkpt>
      <trkpt lat="41.492761013" lon="2.249042790">
        <ele>308.70</ele>
        <time>2014-05-04T08:30:30Z</time>
      </trkpt>
      <trkpt lat="41.492593627" lon="2.248908093">
        <ele>308.70</ele>
        <time>2014-05-04T08:30:37Z</time>
      </trkpt>
      <trkpt lat="41.492390449" lon="2.248732576">
        <ele>308.20</ele>
        <time>2014-05-04T08:30:44Z</time>
      </trkpt>
      <trkpt lat="41.492103537" lon="2.248611039">
        <ele>307.30</ele>
        <time>2014-05-04T08:30:51Z</time>
      </trkpt>
      <trkpt lat="41.492060957" lon="2.248601232">
        <ele>307.30</ele>
        <time>2014-05-04T08:30:52Z</time>
      </trkpt>
      <trkpt lat="41.491929445" lon="2.248556221">
        <ele>306.80</ele>
        <time>2014-05-04T08:30:55Z</time>
      </trkpt>
      <trkpt lat="41.491807069" lon="2.248514898">
        <ele>306.80</ele>
        <time>2014-05-04T08:30:58Z</time>
      </trkpt>
      <trkpt lat="41.491540021" lon="2.248563429">
        <ele>306.80</ele>
        <time>2014-05-04T08:31:05Z</time>
      </trkpt>
      <trkpt lat="41.491513367" lon="2.248864675">
        <ele>306.80</ele>
        <time>2014-05-04T08:31:11Z</time>
      </trkpt>
      <trkpt lat="41.491517055" lon="2.248913374">
        <ele>306.80</ele>
        <time>2014-05-04T08:31:12Z</time>
      </trkpt>
      <trkpt lat="41.491500375" lon="2.249350490">
        <ele>306.80</ele>
        <time>2014-05-04T08:31:22Z</time>
      </trkpt>
      <trkpt lat="41.491505823" lon="2.249650143">
        <ele>306.80</ele>
        <time>2014-05-04T08:31:29Z</time>
      </trkpt>
      <trkpt lat="41.491540357" lon="2.249867821">
        <ele>308.20</ele>
        <time>2014-05-04T08:31:34Z</time>
      </trkpt>
      <trkpt lat="41.491602383" lon="2.250170073">
        <ele>308.20</ele>
        <time>2014-05-04T08:31:41Z</time>
      </trkpt>
      <trkpt lat="41.491665582" lon="2.250451956">
        <ele>309.70</ele>
        <time>2014-05-04T08:31:48Z</time>
      </trkpt>
      <trkpt lat="41.491720903" lon="2.250699557">
        <ele>311.10</ele>
        <time>2014-05-04T08:31:55Z</time>
      </trkpt>
      <trkpt lat="41.491794496" lon="2.250975993">
        <ele>312.60</ele>
        <time>2014-05-04T08:32:03Z</time>
      </trkpt>
      <trkpt lat="41.491874208" lon="2.251343707">
        <ele>315.00</ele>
        <time>2014-05-04T08:32:14Z</time>
      </trkpt>
      <trkpt lat="41.491930534" lon="2.251667332">
        <ele>317.90</ele>
        <time>2014-05-04T08:32:24Z</time>
      </trkpt>
      <trkpt lat="41.491940509" lon="2.251867827">
        <ele>318.80</ele>
        <time>2014-05-04T08:32:31Z</time>
      </trkpt>
      <trkpt lat="41.491957105" lon="2.252077794">
        <ele>319.80</ele>
        <time>2014-05-04T08:32:38Z</time>
      </trkpt>
      <trkpt lat="41.492016365" lon="2.252288012">
        <ele>320.30</ele>
        <time>2014-05-04T08:32:45Z</time>
      </trkpt>
      <trkpt lat="41.492159528" lon="2.252529159">
        <ele>320.30</ele>
        <time>2014-05-04T08:32:52Z</time>
      </trkpt>
      <trkpt lat="41.492217028" lon="2.252603004">
        <ele>320.30</ele>
        <time>2014-05-04T08:32:54Z</time>
      </trkpt>
      <trkpt lat="41.492318532" lon="2.252826382">
        <ele>317.90</ele>
        <time>2014-05-04T08:32:59Z</time>
      </trkpt>
      <trkpt lat="41.492329178" lon="2.253033079">
        <ele>317.40</ele>
        <time>2014-05-04T08:33:03Z</time>
      </trkpt>
      <trkpt lat="41.492286430" lon="2.253250171">
        <ele>316.40</ele>
        <time>2014-05-04T08:33:07Z</time>
      </trkpt>
      <trkpt lat="41.492175956" lon="2.253580753">
        <ele>315.00</ele>
        <time>2014-05-04T08:33:12Z</time>
      </trkpt>
      <trkpt lat="41.492122647" lon="2.253690975">
        <ele>313.50</ele>
        <time>2014-05-04T08:33:14Z</time>
      </trkpt>
      <trkpt lat="41.491943107" lon="2.253898343">
        <ele>311.60</ele>
        <time>2014-05-04T08:33:20Z</time>
      </trkpt>
      <trkpt lat="41.491961128" lon="2.254023066">
        <ele>311.60</ele>
        <time>2014-05-04T08:33:23Z</time>
      </trkpt>
      <trkpt lat="41.492007145" lon="2.254100179">
        <ele>313.50</ele>
        <time>2014-05-04T08:33:26Z</time>
      </trkpt>
      <trkpt lat="41.492136980" lon="2.254236804">
        <ele>315.50</ele>
        <time>2014-05-04T08:33:34Z</time>
      </trkpt>
      <trkpt lat="41.492277377" lon="2.254402850">
        <ele>317.40</ele>
        <time>2014-05-04T08:33:43Z</time>
      </trkpt>
      <trkpt lat="41.492395562" lon="2.254516676">
        <ele>318.80</ele>
        <time>2014-05-04T08:33:51Z</time>
      </trkpt>
      <trkpt lat="41.492516429" lon="2.254651541">
        <ele>320.30</ele>
        <time>2014-05-04T08:34:00Z</time>
      </trkpt>
      <trkpt lat="41.492569570" lon="2.254716333">
        <ele>321.20</ele>
        <time>2014-05-04T08:34:05Z</time>
      </trkpt>
      <trkpt lat="41.492617934" lon="2.254778191">
        <ele>321.70</ele>
        <time>2014-05-04T08:34:09Z</time>
      </trkpt>
      <trkpt lat="41.492757325" lon="2.254911631">
        <ele>323.60</ele>
        <time>2014-05-04T08:34:19Z</time>
      </trkpt>
      <trkpt lat="41.492879617" lon="2.255019255">
        <ele>325.50</ele>
        <time>2014-05-04T08:34:28Z</time>
      </trkpt>
      <trkpt lat="41.492988163" lon="2.255129728">
        <ele>327.50</ele>
        <time>2014-05-04T08:34:37Z</time>
      </trkpt>
      <trkpt lat="41.493117998" lon="2.255259397">
        <ele>329.90</ele>
        <time>2014-05-04T08:34:49Z</time>
      </trkpt>
      <trkpt lat="41.493229562" lon="2.255330810">
        <ele>331.30</ele>
        <time>2014-05-04T08:34:57Z</time>
      </trkpt>
      <trkpt lat="41.493303825" lon="2.255368780">
        <ele>332.80</ele>
        <time>2014-05-04T08:35:03Z</time>
      </trkpt>
      <trkpt lat="41.493355961" lon="2.255424352">
        <ele>332.30</ele>
        <time>2014-05-04T08:35:07Z</time>
      </trkpt>
      <trkpt lat="41.493473307" lon="2.255557960">
        <ele>334.20</ele>
        <time>2014-05-04T08:35:16Z</time>
      </trkpt>
      <trkpt lat="41.493600461" lon="2.255751163">
        <ele>334.70</ele>
        <time>2014-05-04T08:35:24Z</time>
      </trkpt>
      <trkpt lat="41.493733565" lon="2.255909413">
        <ele>334.70</ele>
        <time>2014-05-04T08:35:31Z</time>
      </trkpt>
      <trkpt lat="41.493793245" lon="2.255962973">
        <ele>334.70</ele>
        <time>2014-05-04T08:35:34Z</time>
      </trkpt>
      <trkpt lat="41.493881255" lon="2.255999686">
        <ele>334.70</ele>
        <time>2014-05-04T08:35:39Z</time>
      </trkpt>
      <trkpt lat="41.494026345" lon="2.256064059">
        <ele>334.70</ele>
        <time>2014-05-04T08:35:46Z</time>
      </trkpt>
      <trkpt lat="41.494188954" lon="2.256127678">
        <ele>334.70</ele>
        <time>2014-05-04T08:35:54Z</time>
      </trkpt>
      <trkpt lat="41.494332452" lon="2.256187357">
        <ele>334.70</ele>
        <time>2014-05-04T08:36:01Z</time>
      </trkpt>
      <trkpt lat="41.494542084" lon="2.256256172">
        <ele>335.20</ele>
        <time>2014-05-04T08:36:09Z</time>
      </trkpt>
      <trkpt lat="41.494784991" lon="2.256255921">
        <ele>336.10</ele>
        <time>2014-05-04T08:36:19Z</time>
      </trkpt>
      <trkpt lat="41.495037706" lon="2.256194314">
        <ele>336.60</ele>
        <time>2014-05-04T08:36:28Z</time>
      </trkpt>
      <trkpt lat="41.495262592" lon="2.256284084">
        <ele>336.60</ele>
        <time>2014-05-04T08:36:35Z</time>
      </trkpt>
      <trkpt lat="41.495469793" lon="2.256501846">
        <ele>336.60</ele>
        <time>2014-05-04T08:36:43Z</time>
      </trkpt>
      <trkpt lat="41.495591749" lon="2.256679291">
        <ele>336.60</ele>
        <time>2014-05-04T08:36:49Z</time>
      </trkpt>
      <trkpt lat="41.495746563" lon="2.256941225">
        <ele>336.60</ele>
        <time>2014-05-04T08:36:58Z</time>
      </trkpt>
      <trkpt lat="41.495881260" lon="2.257098554">
        <ele>337.60</ele>
        <time>2014-05-04T08:37:05Z</time>
      </trkpt>
      <trkpt lat="41.496043450" lon="2.257236017">
        <ele>339.00</ele>
        <time>2014-05-04T08:37:13Z</time>
      </trkpt>
      <trkpt lat="41.496187200" lon="2.257402649">
        <ele>340.00</ele>
        <time>2014-05-04T08:37:21Z</time>
      </trkpt>
      <trkpt lat="41.496298763" lon="2.257560648">
        <ele>340.90</ele>
        <time>2014-05-04T08:37:29Z</time>
      </trkpt>
      <trkpt lat="41.496312928" lon="2.257638432">
        <ele>340.90</ele>
        <time>2014-05-04T08:37:34Z</time>
      </trkpt>
      <trkpt lat="41.496321059" lon="2.257681683">
        <ele>340.90</ele>
        <time>2014-05-04T08:37:44Z</time>
      </trkpt>
      <trkpt lat="41.496333045" lon="2.257712277">
        <ele>340.90</ele>
        <time>2014-05-04T08:37:48Z</time>
      </trkpt>
      <trkpt lat="41.496363304" lon="2.257791234">
        <ele>340.90</ele>
        <time>2014-05-04T08:37:53Z</time>
      </trkpt>
      <trkpt lat="41.496386941" lon="2.257804310">
        <ele>340.90</ele>
        <time>2014-05-04T08:38:00Z</time>
      </trkpt>
      <trkpt lat="41.496403453" lon="2.257809507">
        <ele>340.90</ele>
        <time>2014-05-04T08:38:07Z</time>
      </trkpt>
      <trkpt lat="41.496420971" lon="2.257800706">
        <ele>340.90</ele>
        <time>2014-05-04T08:38:23Z</time>
      </trkpt>
      <trkpt lat="41.496402950" lon="2.257784529">
        <ele>340.90</ele>
        <time>2014-05-04T08:38:49Z</time>
      </trkpt>
      <trkpt lat="41.496402699" lon="2.257794168">
        <ele>340.90</ele>
        <time>2014-05-04T08:39:07Z</time>
      </trkpt>
      <trkpt lat="41.496400771" lon="2.257769357">
        <ele>340.90</ele>
        <time>2014-05-04T08:39:35Z</time>
      </trkpt>
      <trkpt lat="41.496417032" lon="2.257780673">
        <ele>340.40</ele>
        <time>2014-05-04T08:40:00Z</time>
      </trkpt>
      <trkpt lat="41.496414014" lon="2.257782768">
        <ele>340.40</ele>
        <time>2014-05-04T08:40:26Z</time>
      </trkpt>
      <trkpt lat="41.496413679" lon="2.257796096">
        <ele>340.40</ele>
        <time>2014-05-04T08:40:46Z</time>
      </trkpt>
      <trkpt lat="41.496406722" lon="2.257786876">
        <ele>340.40</ele>
        <time>2014-05-04T08:41:08Z</time>
      </trkpt>
      <trkpt lat="41.496402531" lon="2.257784780">
        <ele>340.40</ele>
        <time>2014-05-04T08:41:25Z</time>
      </trkpt>
      <trkpt lat="41.496396580" lon="2.257794671">
        <ele>340.40</ele>
        <time>2014-05-04T08:41:46Z</time>
      </trkpt>
      <trkpt lat="41.496399094" lon="2.257801963">
        <ele>340.40</ele>
        <time>2014-05-04T08:42:04Z</time>
      </trkpt>
      <trkpt lat="41.496414349" lon="2.257800203">
        <ele>340.40</ele>
        <time>2014-05-04T08:42:22Z</time>
      </trkpt>
      <trkpt lat="41.496418205" lon="2.257813446">
        <ele>340.00</ele>
        <time>2014-05-04T08:42:42Z</time>
      </trkpt>
      <trkpt lat="41.496412254" lon="2.257809171">
        <ele>339.00</ele>
        <time>2014-05-04T08:42:58Z</time>
      </trkpt>
      <trkpt lat="41.496410745" lon="2.257801544">
        <ele>339.00</ele>
        <time>2014-05-04T08:43:18Z</time>
      </trkpt>
      <trkpt lat="41.496408315" lon="2.257807830">
        <ele>339.00</ele>
        <time>2014-05-04T08:43:31Z</time>
      </trkpt>
      <trkpt lat="41.496396328" lon="2.257808836">
        <ele>339.00</ele>
        <time>2014-05-04T08:43:56Z</time>
      </trkpt>
      <trkpt lat="41.496387360" lon="2.257803639">
        <ele>339.00</ele>
        <time>2014-05-04T08:44:14Z</time>
      </trkpt>
      <trkpt lat="41.496385348" lon="2.257811770">
        <ele>339.00</ele>
        <time>2014-05-04T08:44:31Z</time>
      </trkpt>
      <trkpt lat="41.496393981" lon="2.257818224">
        <ele>339.00</ele>
        <time>2014-05-04T08:44:48Z</time>
      </trkpt>
      <trkpt lat="41.496387946" lon="2.257814117">
        <ele>339.00</ele>
        <time>2014-05-04T08:45:07Z</time>
      </trkpt>
      <trkpt lat="41.496389874" lon="2.257805986">
        <ele>339.00</ele>
        <time>2014-05-04T08:45:23Z</time>
      </trkpt>
      <trkpt lat="41.496403453" lon="2.257807663">
        <ele>339.00</ele>
        <time>2014-05-04T08:45:43Z</time>
      </trkpt>
      <trkpt lat="41.496403285" lon="2.257812273">
        <ele>339.00</ele>
        <time>2014-05-04T08:45:58Z</time>
      </trkpt>
      <trkpt lat="41.496391970" lon="2.257822331">
        <ele>339.00</ele>
        <time>2014-05-04T08:46:17Z</time>
      </trkpt>
      <trkpt lat="41.496405716" lon="2.257827528">
        <ele>339.00</ele>
        <time>2014-05-04T08:46:36Z</time>
      </trkpt>
      <trkpt lat="41.496410410" lon="2.257833311">
        <ele>338.50</ele>
        <time>2014-05-04T08:46:53Z</time>
      </trkpt>
      <trkpt lat="41.496405548" lon="2.257820739">
        <ele>338.50</ele>
        <time>2014-05-04T08:47:12Z</time>
      </trkpt>
      <trkpt lat="41.496398927" lon="2.257816883">
        <ele>338.50</ele>
        <time>2014-05-04T08:47:29Z</time>
      </trkpt>
      <trkpt lat="41.496395658" lon="2.257793414">
        <ele>338.50</ele>
        <time>2014-05-04T08:47:51Z</time>
      </trkpt>
      <trkpt lat="41.496399430" lon="2.257794419">
        <ele>338.50</ele>
        <time>2014-05-04T08:48:07Z</time>
      </trkpt>
      <trkpt lat="41.496396161" lon="2.257793581">
        <ele>338.50</ele>
        <time>2014-05-04T08:48:22Z</time>
      </trkpt>
      <trkpt lat="41.496405968" lon="2.257790647">
        <ele>338.50</ele>
        <time>2014-05-04T08:48:39Z</time>
      </trkpt>
      <trkpt lat="41.496397083" lon="2.257784193">
        <ele>338.50</ele>
        <time>2014-05-04T08:48:56Z</time>
      </trkpt>
      <trkpt lat="41.496382582" lon="2.257801460">
        <ele>338.50</ele>
        <time>2014-05-04T08:49:15Z</time>
      </trkpt>
      <trkpt lat="41.496375457" lon="2.257795174">
        <ele>338.50</ele>
        <time>2014-05-04T08:49:32Z</time>
      </trkpt>
      <trkpt lat="41.496382582" lon="2.257783523">
        <ele>338.50</ele>
        <time>2014-05-04T08:49:49Z</time>
      </trkpt>
      <trkpt lat="41.496391215" lon="2.257782685">
        <ele>338.50</ele>
        <time>2014-05-04T08:50:10Z</time>
      </trkpt>
      <trkpt lat="41.496404626" lon="2.257769860">
        <ele>338.50</ele>
        <time>2014-05-04T08:50:32Z</time>
      </trkpt>
      <trkpt lat="41.496410578" lon="2.257772123">
        <ele>338.00</ele>
        <time>2014-05-04T08:50:52Z</time>
      </trkpt>
      <trkpt lat="41.496416445" lon="2.257782182">
        <ele>338.00</ele>
        <time>2014-05-04T08:51:15Z</time>
      </trkpt>
      <trkpt lat="41.496424659" lon="2.257792743">
        <ele>338.00</ele>
        <time>2014-05-04T08:51:40Z</time>
      </trkpt>
      <trkpt lat="41.496429269" lon="2.257813027">
        <ele>338.00</ele>
        <time>2014-05-04T08:51:59Z</time>
      </trkpt>
      <trkpt lat="41.496427509" lon="2.257809926">
        <ele>338.00</ele>
        <time>2014-05-04T08:52:17Z</time>
      </trkpt>
      <trkpt lat="41.496428180" lon="2.257805232">
        <ele>338.00</ele>
        <time>2014-05-04T08:52:35Z</time>
      </trkpt>
      <trkpt lat="41.496421055" lon="2.257781595">
        <ele>338.00</ele>
        <time>2014-05-04T08:52:55Z</time>
      </trkpt>
      <trkpt lat="41.496420133" lon="2.257785451">
        <ele>338.00</ele>
        <time>2014-05-04T08:53:17Z</time>
      </trkpt>
      <trkpt lat="41.496421223" lon="2.257808417">
        <ele>338.00</ele>
        <time>2014-05-04T08:53:41Z</time>
      </trkpt>
      <trkpt lat="41.496421726" lon="2.257783104">
        <ele>338.00</ele>
        <time>2014-05-04T08:54:02Z</time>
      </trkpt>
      <trkpt lat="41.496424408" lon="2.257771201">
        <ele>338.00</ele>
        <time>2014-05-04T08:54:22Z</time>
      </trkpt>
      <trkpt lat="41.496418121" lon="2.257792156">
        <ele>338.00</ele>
        <time>2014-05-04T08:54:41Z</time>
      </trkpt>
      <trkpt lat="41.496417786" lon="2.257782349">
        <ele>338.00</ele>
        <time>2014-05-04T08:55:09Z</time>
      </trkpt>
      <trkpt lat="41.496420636" lon="2.257772459">
        <ele>338.00</ele>
        <time>2014-05-04T08:55:27Z</time>
      </trkpt>
      <trkpt lat="41.496415271" lon="2.257808249">
        <ele>338.00</ele>
        <time>2014-05-04T08:55:45Z</time>
      </trkpt>
      <trkpt lat="41.496431113" lon="2.257846387">
        <ele>338.00</ele>
        <time>2014-05-04T08:55:53Z</time>
      </trkpt>
      <trkpt lat="41.496494229" lon="2.258016791">
        <ele>337.60</ele>
        <time>2014-05-04T08:56:01Z</time>
      </trkpt>
      <trkpt lat="41.496587520" lon="2.258160289">
        <ele>338.00</ele>
        <time>2014-05-04T08:56:07Z</time>
      </trkpt>
      <trkpt lat="41.496733784" lon="2.258304207">
        <ele>338.00</ele>
        <time>2014-05-04T08:56:14Z</time>
      </trkpt>
      <trkpt lat="41.496864541" lon="2.258442089">
        <ele>338.00</ele>
        <time>2014-05-04T08:56:21Z</time>
      </trkpt>
      <trkpt lat="41.496979960" lon="2.258688768">
        <ele>338.00</ele>
        <time>2014-05-04T08:56:30Z</time>
      </trkpt>
      <trkpt lat="41.497072161" lon="2.258936035">
        <ele>339.00</ele>
        <time>2014-05-04T08:56:38Z</time>
      </trkpt>
      <trkpt lat="41.497191268" lon="2.259144660">
        <ele>339.50</ele>
        <time>2014-05-04T08:56:45Z</time>
      </trkpt>
      <trkpt lat="41.497376005" lon="2.259297295">
        <ele>340.40</ele>
        <time>2014-05-04T08:56:53Z</time>
      </trkpt>
      <trkpt lat="41.497574908" lon="2.259384885">
        <ele>341.40</ele>
        <time>2014-05-04T08:57:01Z</time>
      </trkpt>
      <trkpt lat="41.497804907" lon="2.259413216">
        <ele>342.90</ele>
        <time>2014-05-04T08:57:10Z</time>
      </trkpt>
      <trkpt lat="41.498015042" lon="2.259406930">
        <ele>343.30</ele>
        <time>2014-05-04T08:57:18Z</time>
      </trkpt>
      <trkpt lat="41.498279155" lon="2.259484882">
        <ele>343.80</ele>
        <time>2014-05-04T08:57:28Z</time>
      </trkpt>
      <trkpt lat="41.498482752" lon="2.259625614">
        <ele>345.30</ele>
        <time>2014-05-04T08:57:37Z</time>
      </trkpt>
      <trkpt lat="41.498697748" lon="2.259732902">
        <ele>347.20</ele>
        <time>2014-05-04T08:57:47Z</time>
      </trkpt>
      <trkpt lat="41.498819788" lon="2.259844549">
        <ele>348.60</ele>
        <time>2014-05-04T08:57:54Z</time>
      </trkpt>
      <trkpt lat="41.498966304" lon="2.260004392">
        <ele>349.10</ele>
        <time>2014-05-04T08:58:01Z</time>
      </trkpt>
      <trkpt lat="41.499106449" lon="2.260165241">
        <ele>350.50</ele>
        <time>2014-05-04T08:58:09Z</time>
      </trkpt>
      <trkpt lat="41.499117094" lon="2.260375878">
        <ele>352.50</ele>
        <time>2014-05-04T08:58:16Z</time>
      </trkpt>
      <trkpt lat="41.499172247" lon="2.260669496">
        <ele>352.90</ele>
        <time>2014-05-04T08:58:25Z</time>
      </trkpt>
      <trkpt lat="41.499295796" lon="2.260860855">
        <ele>354.40</ele>
        <time>2014-05-04T08:58:33Z</time>
      </trkpt>
      <trkpt lat="41.499392440" lon="2.261093956">
        <ele>354.90</ele>
        <time>2014-05-04T08:58:41Z</time>
      </trkpt>
      <trkpt lat="41.499496627" lon="2.261403583">
        <ele>355.80</ele>
        <time>2014-05-04T08:58:51Z</time>
      </trkpt>
      <trkpt lat="41.499612548" lon="2.261641629">
        <ele>357.30</ele>
        <time>2014-05-04T08:59:00Z</time>
      </trkpt>
      <trkpt lat="41.499734421" lon="2.261804825">
        <ele>358.20</ele>
        <time>2014-05-04T08:59:08Z</time>
      </trkpt>
      <trkpt lat="41.499878422" lon="2.261945389">
        <ele>359.70</ele>
        <time>2014-05-04T08:59:16Z</time>
      </trkpt>
      <trkpt lat="41.500031225" lon="2.262098694">
        <ele>361.60</ele>
        <time>2014-05-04T08:59:25Z</time>
      </trkpt>
      <trkpt lat="41.500152008" lon="2.262248479">
        <ele>363.50</ele>
        <time>2014-05-04T08:59:33Z</time>
      </trkpt>
      <trkpt lat="41.500254686" lon="2.262415027">
        <ele>365.40</ele>
        <time>2014-05-04T08:59:41Z</time>
      </trkpt>
      <trkpt lat="41.500366668" lon="2.262604291">
        <ele>367.40</ele>
        <time>2014-05-04T08:59:51Z</time>
      </trkpt>
      <trkpt lat="41.500438585" lon="2.262780311">
        <ele>368.80</ele>
        <time>2014-05-04T08:59:59Z</time>
      </trkpt>
      <trkpt lat="41.500484266" lon="2.262940237">
        <ele>369.80</ele>
        <time>2014-05-04T09:00:06Z</time>
      </trkpt>
      <trkpt lat="41.500525338" lon="2.263148611">
        <ele>371.20</ele>
        <time>2014-05-04T09:00:14Z</time>
      </trkpt>
      <trkpt lat="41.500634135" lon="2.263250368">
        <ele>371.70</ele>
        <time>2014-05-04T09:00:21Z</time>
      </trkpt>
      <trkpt lat="41.500760618" lon="2.263249362">
        <ele>373.10</ele>
        <time>2014-05-04T09:00:28Z</time>
      </trkpt>
      <trkpt lat="41.500890202" lon="2.263267718">
        <ele>375.50</ele>
        <time>2014-05-04T09:00:36Z</time>
      </trkpt>
      <trkpt lat="41.500989947" lon="2.263318261">
        <ele>376.50</ele>
        <time>2014-05-04T09:00:43Z</time>
      </trkpt>
      <trkpt lat="41.501112993" lon="2.263443319">
        <ele>377.90</ele>
        <time>2014-05-04T09:00:53Z</time>
      </trkpt>
      <trkpt lat="41.501221455" lon="2.263550608">
        <ele>380.30</ele>
        <time>2014-05-04T09:01:02Z</time>
      </trkpt>
      <trkpt lat="41.501347854" lon="2.263677426">
        <ele>382.70</ele>
        <time>2014-05-04T09:01:13Z</time>
      </trkpt>
      <trkpt lat="41.501457573" lon="2.263727549">
        <ele>383.70</ele>
        <time>2014-05-04T09:01:21Z</time>
      </trkpt>
      <trkpt lat="41.501597802" lon="2.263703158">
        <ele>384.20</ele>
        <time>2014-05-04T09:01:28Z</time>
      </trkpt>
      <trkpt lat="41.501727051" lon="2.263630822">
        <ele>385.20</ele>
        <time>2014-05-04T09:01:36Z</time>
      </trkpt>
      <trkpt lat="41.501868538" lon="2.263598301">
        <ele>387.10</ele>
        <time>2014-05-04T09:01:45Z</time>
      </trkpt>
      <trkpt lat="41.502058304" lon="2.263588745">
        <ele>388.50</ele>
        <time>2014-05-04T09:01:56Z</time>
      </trkpt>
      <trkpt lat="41.502238850" lon="2.263662925">
        <ele>390.40</ele>
        <time>2014-05-04T09:02:07Z</time>
      </trkpt>
      <trkpt lat="41.502349407" lon="2.263767280">
        <ele>391.90</ele>
        <time>2014-05-04T09:02:16Z</time>
      </trkpt>
      <trkpt lat="41.502470191" lon="2.263897534">
        <ele>392.80</ele>
        <time>2014-05-04T09:02:24Z</time>
      </trkpt>
      <trkpt lat="41.502591309" lon="2.264067268">
        <ele>393.80</ele>
        <time>2014-05-04T09:02:33Z</time>
      </trkpt>
      <trkpt lat="41.502732125" lon="2.264233649">
        <ele>395.20</ele>
        <time>2014-05-04T09:02:43Z</time>
      </trkpt>
      <trkpt lat="41.502843688" lon="2.264387373">
        <ele>396.20</ele>
        <time>2014-05-04T09:02:52Z</time>
      </trkpt>
      <trkpt lat="41.502870175" lon="2.264545456">
        <ele>397.60</ele>
        <time>2014-05-04T09:02:59Z</time>
      </trkpt>
      <trkpt lat="41.502848131" lon="2.264749639">
        <ele>397.60</ele>
        <time>2014-05-04T09:03:07Z</time>
      </trkpt>
      <trkpt lat="41.502817285" lon="2.264979051">
        <ele>398.60</ele>
        <time>2014-05-04T09:03:17Z</time>
      </trkpt>
      <trkpt lat="41.502726425" lon="2.265171668">
        <ele>399.10</ele>
        <time>2014-05-04T09:03:25Z</time>
      </trkpt>
      <trkpt lat="41.502595333" lon="2.265335031">
        <ele>399.10</ele>
        <time>2014-05-04T09:03:33Z</time>
      </trkpt>
      <trkpt lat="41.502503634" lon="2.265563270">
        <ele>399.60</ele>
        <time>2014-05-04T09:03:42Z</time>
      </trkpt>
      <trkpt lat="41.502502126" lon="2.265844148">
        <ele>400.50</ele>
        <time>2014-05-04T09:03:52Z</time>
      </trkpt>
      <trkpt lat="41.502549819" lon="2.266025364">
        <ele>401.00</ele>
        <time>2014-05-04T09:03:59Z</time>
      </trkpt>
      <trkpt lat="41.502645875" lon="2.266237091">
        <ele>402.00</ele>
        <time>2014-05-04T09:04:08Z</time>
      </trkpt>
      <trkpt lat="41.502722905" lon="2.266435994">
        <ele>402.90</ele>
        <time>2014-05-04T09:04:17Z</time>
      </trkpt>
      <trkpt lat="41.502798929" lon="2.266641853">
        <ele>404.90</ele>
        <time>2014-05-04T09:04:26Z</time>
      </trkpt>
      <trkpt lat="41.502861626" lon="2.266881157">
        <ele>406.30</ele>
        <time>2014-05-04T09:04:36Z</time>
      </trkpt>
      <trkpt lat="41.502887274" lon="2.267057177">
        <ele>407.30</ele>
        <time>2014-05-04T09:04:43Z</time>
      </trkpt>
      <trkpt lat="41.502874450" lon="2.267197657">
        <ele>407.70</ele>
        <time>2014-05-04T09:04:49Z</time>
      </trkpt>
      <trkpt lat="41.502851735" lon="2.267408546">
        <ele>409.70</ele>
        <time>2014-05-04T09:04:58Z</time>
      </trkpt>
      <trkpt lat="41.502821644" lon="2.267586326">
        <ele>410.60</ele>
        <time>2014-05-04T09:05:05Z</time>
      </trkpt>
      <trkpt lat="41.502808149" lon="2.267774668">
        <ele>412.10</ele>
        <time>2014-05-04T09:05:13Z</time>
      </trkpt>
      <trkpt lat="41.502797169" lon="2.267882543">
        <ele>413.50</ele>
        <time>2014-05-04T09:05:18Z</time>
      </trkpt>
      <trkpt lat="41.502791385" lon="2.267915065">
        <ele>414.00</ele>
        <time>2014-05-04T09:05:20Z</time>
      </trkpt>
      <trkpt lat="41.502802198" lon="2.267968793">
        <ele>414.00</ele>
        <time>2014-05-04T09:05:24Z</time>
      </trkpt>
      <trkpt lat="41.502905631" lon="2.268012127">
        <ele>415.00</ele>
        <time>2014-05-04T09:05:32Z</time>
      </trkpt>
      <trkpt lat="41.503000262" lon="2.268024448">
        <ele>415.90</ele>
        <time>2014-05-04T09:05:40Z</time>
      </trkpt>
      <trkpt lat="41.503023732" lon="2.268023275">
        <ele>416.40</ele>
        <time>2014-05-04T09:05:42Z</time>
      </trkpt>
      <trkpt lat="41.503150969" lon="2.268029226">
        <ele>418.80</ele>
        <time>2014-05-04T09:05:51Z</time>
      </trkpt>
      <trkpt lat="41.503250378" lon="2.268005841">
        <ele>421.20</ele>
        <time>2014-05-04T09:06:00Z</time>
      </trkpt>
      <trkpt lat="41.503299329" lon="2.268027214">
        <ele>422.20</ele>
        <time>2014-05-04T09:06:06Z</time>
      </trkpt>
      <trkpt lat="41.503404773" lon="2.268135006">
        <ele>424.10</ele>
        <time>2014-05-04T09:06:15Z</time>
      </trkpt>
      <trkpt lat="41.503470738" lon="2.268284120">
        <ele>426.50</ele>
        <time>2014-05-04T09:06:26Z</time>
      </trkpt>
      <trkpt lat="41.503480294" lon="2.268294597">
        <ele>426.50</ele>
        <time>2014-05-04T09:06:27Z</time>
      </trkpt>
      <trkpt lat="41.503506026" lon="2.268217567">
        <ele>427.40</ele>
        <time>2014-05-04T09:06:33Z</time>
      </trkpt>
      <trkpt lat="41.503504350" lon="2.268201390">
        <ele>427.40</ele>
        <time>2014-05-04T09:06:34Z</time>
      </trkpt>
      <trkpt lat="41.503455903" lon="2.268074153">
        <ele>428.90</ele>
        <time>2014-05-04T09:06:42Z</time>
      </trkpt>
      <trkpt lat="41.503505607" lon="2.268057641">
        <ele>429.40</ele>
        <time>2014-05-04T09:06:48Z</time>
      </trkpt>
      <trkpt lat="41.503559838" lon="2.268151183">
        <ele>430.80</ele>
        <time>2014-05-04T09:06:54Z</time>
      </trkpt>
      <trkpt lat="41.503626893" lon="2.268238103">
        <ele>432.30</ele>
        <time>2014-05-04T09:07:01Z</time>
      </trkpt>
      <trkpt lat="41.503663271" lon="2.268211197">
        <ele>433.20</ele>
        <time>2014-05-04T09:07:08Z</time>
      </trkpt>
      <trkpt lat="41.503644244" lon="2.268180268">
        <ele>433.70</ele>
        <time>2014-05-04T09:07:10Z</time>
      </trkpt>
      <trkpt lat="41.503598730" lon="2.268080691">
        <ele>434.20</ele>
        <time>2014-05-04T09:07:16Z</time>
      </trkpt>
      <trkpt lat="41.503624965" lon="2.268034842">
        <ele>434.70</ele>
        <time>2014-05-04T09:07:21Z</time>
      </trkpt>
      <trkpt lat="41.503693529" lon="2.268146070">
        <ele>436.10</ele>
        <time>2014-05-04T09:07:29Z</time>
      </trkpt>
      <trkpt lat="41.503758741" lon="2.268232655">
        <ele>437.50</ele>
        <time>2014-05-04T09:07:36Z</time>
      </trkpt>
      <trkpt lat="41.503783048" lon="2.268182280">
        <ele>438.00</ele>
        <time>2014-05-04T09:07:41Z</time>
      </trkpt>
      <trkpt lat="41.503722028" lon="2.268039620">
        <ele>439.50</ele>
        <time>2014-05-04T09:07:50Z</time>
      </trkpt>
      <trkpt lat="41.503773828" lon="2.268050265">
        <ele>439.50</ele>
        <time>2014-05-04T09:07:56Z</time>
      </trkpt>
      <trkpt lat="41.503819509" lon="2.268154871">
        <ele>440.90</ele>
        <time>2014-05-04T09:08:03Z</time>
      </trkpt>
      <trkpt lat="41.503836609" lon="2.268182112">
        <ele>441.40</ele>
        <time>2014-05-04T09:08:05Z</time>
      </trkpt>
      <trkpt lat="41.503873489" lon="2.268233158">
        <ele>441.90</ele>
        <time>2014-05-04T09:08:09Z</time>
      </trkpt>
      <trkpt lat="41.503902490" lon="2.268166522">
        <ele>442.80</ele>
        <time>2014-05-04T09:08:15Z</time>
      </trkpt>
      <trkpt lat="41.503847337" lon="2.268052109">
        <ele>444.30</ele>
        <time>2014-05-04T09:08:22Z</time>
      </trkpt>
      <trkpt lat="41.503878686" lon="2.268003326">
        <ele>444.80</ele>
        <time>2014-05-04T09:08:28Z</time>
      </trkpt>
      <trkpt lat="41.503937778" lon="2.268116649">
        <ele>446.70</ele>
        <time>2014-05-04T09:08:35Z</time>
      </trkpt>
      <trkpt lat="41.503951357" lon="2.268156882">
        <ele>446.70</ele>
        <time>2014-05-04T09:08:38Z</time>
      </trkpt>
      <trkpt lat="41.503967199" lon="2.268100724">
        <ele>447.60</ele>
        <time>2014-05-04T09:08:44Z</time>
      </trkpt>
      <trkpt lat="41.503958984" lon="2.268085301">
        <ele>447.60</ele>
        <time>2014-05-04T09:08:45Z</time>
      </trkpt>
      <trkpt lat="41.503940963" lon="2.267982958">
        <ele>449.10</ele>
        <time>2014-05-04T09:08:51Z</time>
      </trkpt>
      <trkpt lat="41.503991674" lon="2.267997626">
        <ele>449.60</ele>
        <time>2014-05-04T09:08:57Z</time>
      </trkpt>
      <trkpt lat="41.504033164" lon="2.268071638">
        <ele>450.50</ele>
        <time>2014-05-04T09:09:03Z</time>
      </trkpt>
      <trkpt lat="41.504045569" lon="2.267994860">
        <ele>452.00</ele>
        <time>2014-05-04T09:09:08Z</time>
      </trkpt>
      <trkpt lat="41.504066357" lon="2.267946245">
        <ele>452.90</ele>
        <time>2014-05-04T09:09:13Z</time>
      </trkpt>
      <trkpt lat="41.504093598" lon="2.268004164">
        <ele>453.90</ele>
        <time>2014-05-04T09:09:17Z</time>
      </trkpt>
      <trkpt lat="41.504193175" lon="2.268056635">
        <ele>455.30</ele>
        <time>2014-05-04T09:09:26Z</time>
      </trkpt>
      <trkpt lat="41.504229887" lon="2.268106172">
        <ele>456.30</ele>
        <time>2014-05-04T09:09:33Z</time>
      </trkpt>
      <trkpt lat="41.504238521" lon="2.268103574">
        <ele>456.30</ele>
        <time>2014-05-04T09:09:40Z</time>
      </trkpt>
      <trkpt lat="41.504261906" lon="2.268063005">
        <ele>456.30</ele>
        <time>2014-05-04T09:09:48Z</time>
      </trkpt>
      <trkpt lat="41.504259308" lon="2.268052192">
        <ele>456.80</ele>
        <time>2014-05-04T09:09:54Z</time>
      </trkpt>
      <trkpt lat="41.504200886" lon="2.267991340">
        <ele>458.20</ele>
        <time>2014-05-04T09:10:02Z</time>
      </trkpt>
      <trkpt lat="41.504195522" lon="2.267982036">
        <ele>458.70</ele>
        <time>2014-05-04T09:10:03Z</time>
      </trkpt>
      <trkpt lat="41.504233659" lon="2.267917747">
        <ele>459.20</ele>
        <time>2014-05-04T09:10:09Z</time>
      </trkpt>
      <trkpt lat="41.504314545" lon="2.267854966">
        <ele>461.60</ele>
        <time>2014-05-04T09:10:18Z</time>
      </trkpt>
      <trkpt lat="41.504354778" lon="2.267723203">
        <ele>463.00</ele>
        <time>2014-05-04T09:10:27Z</time>
      </trkpt>
      <trkpt lat="41.504387467" lon="2.267623961">
        <ele>463.50</ele>
        <time>2014-05-04T09:10:33Z</time>
      </trkpt>
      <trkpt lat="41.504420660" lon="2.267546596">
        <ele>464.00</ele>
        <time>2014-05-04T09:10:38Z</time>
      </trkpt>
      <trkpt lat="41.504504814" lon="2.267373594">
        <ele>465.90</ele>
        <time>2014-05-04T09:10:49Z</time>
      </trkpt>
      <trkpt lat="41.504543790" lon="2.267236130">
        <ele>466.90</ele>
        <time>2014-05-04T09:10:57Z</time>
      </trkpt>
      <trkpt lat="41.504584610" lon="2.267097829">
        <ele>469.30</ele>
        <time>2014-05-04T09:11:05Z</time>
      </trkpt>
      <trkpt lat="41.504660717" lon="2.267025745">
        <ele>472.10</ele>
        <time>2014-05-04T09:11:12Z</time>
      </trkpt>
      <trkpt lat="41.504675050" lon="2.267000096">
        <ele>472.60</ele>
        <time>2014-05-04T09:11:19Z</time>
      </trkpt>
      <trkpt lat="41.504677733" lon="2.266995905">
        <ele>472.60</ele>
        <time>2014-05-04T09:11:30Z</time>
      </trkpt>
      <trkpt lat="41.504687707" lon="2.267005041">
        <ele>472.60</ele>
        <time>2014-05-04T09:11:38Z</time>
      </trkpt>
      <trkpt lat="41.504789799" lon="2.267030355">
        <ele>472.60</ele>
        <time>2014-05-04T09:11:44Z</time>
      </trkpt>
      <trkpt lat="41.504906894" lon="2.266981907">
        <ele>470.70</ele>
        <time>2014-05-04T09:11:48Z</time>
      </trkpt>
      <trkpt lat="41.504996329" lon="2.266841259">
        <ele>468.80</ele>
        <time>2014-05-04T09:11:52Z</time>
      </trkpt>
      <trkpt lat="41.504995155" lon="2.266601872">
        <ele>466.40</ele>
        <time>2014-05-04T09:11:57Z</time>
      </trkpt>
      <trkpt lat="41.504940673" lon="2.266374638">
        <ele>462.50</ele>
        <time>2014-05-04T09:12:03Z</time>
      </trkpt>
      <trkpt lat="41.504981912" lon="2.266326275">
        <ele>461.60</ele>
        <time>2014-05-04T09:12:08Z</time>
      </trkpt>
      <trkpt lat="41.505072185" lon="2.266500618">
        <ele>460.10</ele>
        <time>2014-05-04T09:12:14Z</time>
      </trkpt>
      <trkpt lat="41.505217276" lon="2.266658114">
        <ele>458.20</ele>
        <time>2014-05-04T09:12:20Z</time>
      </trkpt>
      <trkpt lat="41.505252899" lon="2.266663982">
        <ele>458.20</ele>
        <time>2014-05-04T09:12:21Z</time>
      </trkpt>
      <trkpt lat="41.505429170" lon="2.266651325">
        <ele>456.80</ele>
        <time>2014-05-04T09:12:25Z</time>
      </trkpt>
      <trkpt lat="41.505632599" lon="2.266677476">
        <ele>455.80</ele>
        <time>2014-05-04T09:12:29Z</time>
      </trkpt>
      <trkpt lat="41.505907106" lon="2.266700024">
        <ele>454.80</ele>
        <time>2014-05-04T09:12:34Z</time>
      </trkpt>
      <trkpt lat="41.506203323" lon="2.266863974">
        <ele>454.40</ele>
        <time>2014-05-04T09:12:40Z</time>
      </trkpt>
      <trkpt lat="41.506500629" lon="2.267138984">
        <ele>453.90</ele>
        <time>2014-05-04T09:12:48Z</time>
      </trkpt>
      <trkpt lat="41.506783434" lon="2.267213583">
        <ele>453.90</ele>
        <time>2014-05-04T09:12:55Z</time>
      </trkpt>
      <trkpt lat="41.507014691" lon="2.267273681">
        <ele>454.80</ele>
        <time>2014-05-04T09:13:02Z</time>
      </trkpt>
      <trkpt lat="41.507181658" lon="2.267460514">
        <ele>455.80</ele>
        <time>2014-05-04T09:13:09Z</time>
      </trkpt>
      <trkpt lat="41.507272854" lon="2.267659081">
        <ele>456.30</ele>
        <time>2014-05-04T09:13:15Z</time>
      </trkpt>
      <trkpt lat="41.507385506" lon="2.267917244">
        <ele>457.20</ele>
        <time>2014-05-04T09:13:22Z</time>
      </trkpt>
      <trkpt lat="41.507637299" lon="2.268048337">
        <ele>457.70</ele>
        <time>2014-05-04T09:13:30Z</time>
      </trkpt>
      <trkpt lat="41.507766799" lon="2.268100221">
        <ele>457.70</ele>
        <time>2014-05-04T09:13:33Z</time>
      </trkpt>
      <trkpt lat="41.508087826" lon="2.268225698">
        <ele>455.80</ele>
        <time>2014-05-04T09:13:39Z</time>
      </trkpt>
      <trkpt lat="41.508269294" lon="2.268243132">
        <ele>455.80</ele>
        <time>2014-05-04T09:13:42Z</time>
      </trkpt>
      <trkpt lat="41.508763659" lon="2.268510347">
        <ele>454.40</ele>
        <time>2014-05-04T09:13:51Z</time>
      </trkpt>
      <trkpt lat="41.508815710" lon="2.268550580">
        <ele>454.40</ele>
        <time>2014-05-04T09:13:52Z</time>
      </trkpt>
      <trkpt lat="41.509133804" lon="2.268686786">
        <ele>454.40</ele>
        <time>2014-05-04T09:13:58Z</time>
      </trkpt>
      <trkpt lat="41.509335640" lon="2.268905470">
        <ele>453.90</ele>
        <time>2014-05-04T09:14:03Z</time>
      </trkpt>
      <trkpt lat="41.509352907" lon="2.269228509">
        <ele>453.90</ele>
        <time>2014-05-04T09:14:08Z</time>
      </trkpt>
      <trkpt lat="41.509342513" lon="2.269291457">
        <ele>453.90</ele>
        <time>2014-05-04T09:14:09Z</time>
      </trkpt>
      <trkpt lat="41.509314434" lon="2.269410061">
        <ele>453.90</ele>
        <time>2014-05-04T09:14:11Z</time>
      </trkpt>
      <trkpt lat="41.509275709" lon="2.269731339">
        <ele>452.90</ele>
        <time>2014-05-04T09:14:17Z</time>
      </trkpt>
      <trkpt lat="41.509213264" lon="2.269926135">
        <ele>449.60</ele>
        <time>2014-05-04T09:14:21Z</time>
      </trkpt>
      <trkpt lat="41.509136067" lon="2.270104837">
        <ele>448.10</ele>
        <time>2014-05-04T09:14:26Z</time>
      </trkpt>
      <trkpt lat="41.509170936" lon="2.270189578">
        <ele>446.70</ele>
        <time>2014-05-04T09:14:28Z</time>
      </trkpt>
      <trkpt lat="41.509313176" lon="2.270449417">
        <ele>443.30</ele>
        <time>2014-05-04T09:14:34Z</time>
      </trkpt>
      <trkpt lat="41.509340753" lon="2.270489315">
        <ele>443.30</ele>
        <time>2014-05-04T09:14:35Z</time>
      </trkpt>
      <trkpt lat="41.509401689" lon="2.270515801">
        <ele>441.90</ele>
        <time>2014-05-04T09:14:37Z</time>
      </trkpt>
      <trkpt lat="41.509478887" lon="2.270522423">
        <ele>441.40</ele>
        <time>2014-05-04T09:14:39Z</time>
      </trkpt>
      <trkpt lat="41.509666390" lon="2.270637171">
        <ele>439.00</ele>
        <time>2014-05-04T09:14:43Z</time>
      </trkpt>
      <trkpt lat="41.509755741" lon="2.270874547">
        <ele>437.10</ele>
        <time>2014-05-04T09:14:47Z</time>
      </trkpt>
      <trkpt lat="41.509843919" lon="2.270940512">
        <ele>437.10</ele>
        <time>2014-05-04T09:14:49Z</time>
      </trkpt>
      <trkpt lat="41.509953973" lon="2.270985942">
        <ele>436.10</ele>
        <time>2014-05-04T09:14:51Z</time>
      </trkpt>
      <trkpt lat="41.510162599" lon="2.271180570">
        <ele>433.70</ele>
        <time>2014-05-04T09:14:55Z</time>
      </trkpt>
      <trkpt lat="41.510527211" lon="2.271641575">
        <ele>432.70</ele>
        <time>2014-05-04T09:15:03Z</time>
      </trkpt>
      <trkpt lat="41.510640116" lon="2.271764789">
        <ele>432.70</ele>
        <time>2014-05-04T09:15:06Z</time>
      </trkpt>
      <trkpt lat="41.510756037" lon="2.271851793">
        <ele>434.20</ele>
        <time>2014-05-04T09:15:09Z</time>
      </trkpt>
      <trkpt lat="41.510795684" lon="2.271872832">
        <ele>434.20</ele>
        <time>2014-05-04T09:15:10Z</time>
      </trkpt>
      <trkpt lat="41.511097181" lon="2.272011384">
        <ele>431.30</ele>
        <time>2014-05-04T09:15:16Z</time>
      </trkpt>
      <trkpt lat="41.511326510" lon="2.272134598">
        <ele>429.90</ele>
        <time>2014-05-04T09:15:19Z</time>
      </trkpt>
      <trkpt lat="41.511491465" lon="2.272181537">
        <ele>428.90</ele>
        <time>2014-05-04T09:15:21Z</time>
      </trkpt>
      <trkpt lat="41.511737055" lon="2.272164186">
        <ele>427.90</ele>
        <time>2014-05-04T09:15:24Z</time>
      </trkpt>
      <trkpt lat="41.512042743" lon="2.272131162">
        <ele>427.00</ele>
        <time>2014-05-04T09:15:28Z</time>
      </trkpt>
      <trkpt lat="41.512292021" lon="2.272235516">
        <ele>425.00</ele>
        <time>2014-05-04T09:15:33Z</time>
      </trkpt>
      <trkpt lat="41.512318256" lon="2.272291508">
        <ele>424.60</ele>
        <time>2014-05-04T09:15:34Z</time>
      </trkpt>
      <trkpt lat="41.512368548" lon="2.272440035">
        <ele>423.10</ele>
        <time>2014-05-04T09:15:36Z</time>
      </trkpt>
      <trkpt lat="41.512540461" lon="2.272762906">
        <ele>421.70</ele>
        <time>2014-05-04T09:15:40Z</time>
      </trkpt>
      <trkpt lat="41.512825026" lon="2.272985781">
        <ele>421.70</ele>
        <time>2014-05-04T09:15:45Z</time>
      </trkpt>
      <trkpt lat="41.512967351" lon="2.273062475">
        <ele>422.60</ele>
        <time>2014-05-04T09:15:48Z</time>
      </trkpt>
      <trkpt lat="41.513054271" lon="2.273116035">
        <ele>423.60</ele>
        <time>2014-05-04T09:15:50Z</time>
      </trkpt>
      <trkpt lat="41.513226436" lon="2.273358189">
        <ele>425.50</ele>
        <time>2014-05-04T09:15:57Z</time>
      </trkpt>
      <trkpt lat="41.513286534" lon="2.273686256">
        <ele>427.00</ele>
        <time>2014-05-04T09:16:05Z</time>
      </trkpt>
      <trkpt lat="41.513266082" lon="2.273850961">
        <ele>427.40</ele>
        <time>2014-05-04T09:16:12Z</time>
      </trkpt>
      <trkpt lat="41.513210091" lon="2.274052797">
        <ele>427.90</ele>
        <time>2014-05-04T09:16:19Z</time>
      </trkpt>
      <trkpt lat="41.513158710" lon="2.274431240">
        <ele>429.40</ele>
        <time>2014-05-04T09:16:29Z</time>
      </trkpt>
      <trkpt lat="41.513180670" lon="2.274743047">
        <ele>429.90</ele>
        <time>2014-05-04T09:16:36Z</time>
      </trkpt>
      <trkpt lat="41.513081764" lon="2.274962485">
        <ele>429.90</ele>
        <time>2014-05-04T09:16:41Z</time>
      </trkpt>
      <trkpt lat="41.512862158" lon="2.275142193">
        <ele>430.30</ele>
        <time>2014-05-04T09:16:48Z</time>
      </trkpt>
      <trkpt lat="41.512761994" lon="2.275362553">
        <ele>432.70</ele>
        <time>2014-05-04T09:16:55Z</time>
      </trkpt>
      <trkpt lat="41.512758809" lon="2.275652902">
        <ele>433.70</ele>
        <time>2014-05-04T09:17:03Z</time>
      </trkpt>
      <trkpt lat="41.512743554" lon="2.275969068">
        <ele>434.20</ele>
        <time>2014-05-04T09:17:10Z</time>
      </trkpt>
      <trkpt lat="41.512706087" lon="2.276076775">
        <ele>434.20</ele>
        <time>2014-05-04T09:17:12Z</time>
      </trkpt>
      <trkpt lat="41.512647162" lon="2.276190601">
        <ele>433.20</ele>
        <time>2014-05-04T09:17:14Z</time>
      </trkpt>
      <trkpt lat="41.512477596" lon="2.276464019">
        <ele>430.80</ele>
        <time>2014-05-04T09:17:18Z</time>
      </trkpt>
      <trkpt lat="41.512379277" lon="2.276822597">
        <ele>429.90</ele>
        <time>2014-05-04T09:17:22Z</time>
      </trkpt>
      <trkpt lat="41.512404003" lon="2.276975818">
        <ele>429.90</ele>
        <time>2014-05-04T09:17:24Z</time>
      </trkpt>
      <trkpt lat="41.512473824" lon="2.277516199">
        <ele>427.90</ele>
        <time>2014-05-04T09:17:31Z</time>
      </trkpt>
      <trkpt lat="41.512477093" lon="2.277599935">
        <ele>427.40</ele>
        <time>2014-05-04T09:17:32Z</time>
      </trkpt>
      <trkpt lat="41.512509531" lon="2.277873268">
        <ele>425.50</ele>
        <time>2014-05-04T09:17:35Z</time>
      </trkpt>
      <trkpt lat="41.512509364" lon="2.278278617">
        <ele>423.10</ele>
        <time>2014-05-04T09:17:40Z</time>
      </trkpt>
      <trkpt lat="41.512512297" lon="2.278576175">
        <ele>419.30</ele>
        <time>2014-05-04T09:17:45Z</time>
      </trkpt>
      <trkpt lat="41.512556219" lon="2.278787399">
        <ele>416.90</ele>
        <time>2014-05-04T09:17:50Z</time>
      </trkpt>
      <trkpt lat="41.512776076" lon="2.278978590">
        <ele>414.50</ele>
        <time>2014-05-04T09:17:56Z</time>
      </trkpt>
      <trkpt lat="41.512869367" lon="2.279195681">
        <ele>412.10</ele>
        <time>2014-05-04T09:17:59Z</time>
      </trkpt>
      <trkpt lat="41.513013116" lon="2.279574459">
        <ele>410.10</ele>
        <time>2014-05-04T09:18:04Z</time>
      </trkpt>
      <trkpt lat="41.513123673" lon="2.279654590">
        <ele>410.10</ele>
        <time>2014-05-04T09:18:06Z</time>
      </trkpt>
      <trkpt lat="41.513670509" lon="2.279890876">
        <ele>408.20</ele>
        <time>2014-05-04T09:18:15Z</time>
      </trkpt>
      <trkpt lat="41.514036630" lon="2.280055413">
        <ele>406.80</ele>
        <time>2014-05-04T09:18:22Z</time>
      </trkpt>
      <trkpt lat="41.514313485" lon="2.280183908">
        <ele>408.70</ele>
        <time>2014-05-04T09:18:29Z</time>
      </trkpt>
      <trkpt lat="41.514394957" lon="2.280292034">
        <ele>409.20</ele>
        <time>2014-05-04T09:18:32Z</time>
      </trkpt>
      <trkpt lat="41.514568797" lon="2.280623958">
        <ele>409.20</ele>
        <time>2014-05-04T09:18:39Z</time>
      </trkpt>
      <trkpt lat="41.514620430" lon="2.280902237">
        <ele>407.70</ele>
        <time>2014-05-04T09:18:44Z</time>
      </trkpt>
      <trkpt lat="41.514725790" lon="2.281211194">
        <ele>407.30</ele>
        <time>2014-05-04T09:18:50Z</time>
      </trkpt>
      <trkpt lat="41.514906504" lon="2.281283530">
        <ele>407.30</ele>
        <time>2014-05-04T09:18:55Z</time>
      </trkpt>
      <trkpt lat="41.514950006" lon="2.281292917">
        <ele>407.30</ele>
        <time>2014-05-04T09:18:56Z</time>
      </trkpt>
      <trkpt lat="41.515036256" lon="2.281312028">
        <ele>407.30</ele>
        <time>2014-05-04T09:18:58Z</time>
      </trkpt>
      <trkpt lat="41.515178665" lon="2.281317225">
        <ele>406.80</ele>
        <time>2014-05-04T09:19:01Z</time>
      </trkpt>
      <trkpt lat="41.515393493" lon="2.281430213">
        <ele>405.80</ele>
        <time>2014-05-04T09:19:06Z</time>
      </trkpt>
      <trkpt lat="41.515422913" lon="2.281582680">
        <ele>405.30</ele>
        <time>2014-05-04T09:19:09Z</time>
      </trkpt>
      <trkpt lat="41.515379914" lon="2.282061286">
        <ele>403.40</ele>
        <time>2014-05-04T09:19:16Z</time>
      </trkpt>
      <trkpt lat="41.515396846" lon="2.282293884">
        <ele>400.50</ele>
        <time>2014-05-04T09:19:21Z</time>
      </trkpt>
      <trkpt lat="41.515343201" lon="2.282512484">
        <ele>399.10</ele>
        <time>2014-05-04T09:19:25Z</time>
      </trkpt>
      <trkpt lat="41.515254437" lon="2.282763774">
        <ele>394.80</ele>
        <time>2014-05-04T09:19:30Z</time>
      </trkpt>
      <trkpt lat="41.515173636" lon="2.282936022">
        <ele>391.40</ele>
        <time>2014-05-04T09:19:33Z</time>
      </trkpt>
      <trkpt lat="41.515102222" lon="2.283192927">
        <ele>389.50</ele>
        <time>2014-05-04T09:19:36Z</time>
      </trkpt>
      <trkpt lat="41.514980181" lon="2.283538261">
        <ele>388.00</ele>
        <time>2014-05-04T09:19:40Z</time>
      </trkpt>
      <trkpt lat="41.514953946" lon="2.283644795">
        <ele>386.60</ele>
        <time>2014-05-04T09:19:42Z</time>
      </trkpt>
      <trkpt lat="41.514949755" lon="2.283784438">
        <ele>385.20</ele>
        <time>2014-05-04T09:19:45Z</time>
      </trkpt>
      <trkpt lat="41.515066682" lon="2.284244437">
        <ele>382.30</ele>
        <time>2014-05-04T09:19:51Z</time>
      </trkpt>
      <trkpt lat="41.515218060" lon="2.284464126">
        <ele>381.80</ele>
        <time>2014-05-04T09:19:55Z</time>
      </trkpt>
      <trkpt lat="41.515302046" lon="2.284566721">
        <ele>379.90</ele>
        <time>2014-05-04T09:19:57Z</time>
      </trkpt>
      <trkpt lat="41.515397097" lon="2.284739388">
        <ele>377.90</ele>
        <time>2014-05-04T09:20:00Z</time>
      </trkpt>
      <trkpt lat="41.515443533" lon="2.284963185">
        <ele>375.10</ele>
        <time>2014-05-04T09:20:04Z</time>
      </trkpt>
      <trkpt lat="41.515390392" lon="2.285161333">
        <ele>371.20</ele>
        <time>2014-05-04T09:20:10Z</time>
      </trkpt>
      <trkpt lat="41.515341106" lon="2.285212379">
        <ele>370.20</ele>
        <time>2014-05-04T09:20:12Z</time>
      </trkpt>
      <trkpt lat="41.515251252" lon="2.285281697">
        <ele>367.80</ele>
        <time>2014-05-04T09:20:15Z</time>
      </trkpt>
      <trkpt lat="41.515137258" lon="2.285325116">
        <ele>365.90</ele>
        <time>2014-05-04T09:20:18Z</time>
      </trkpt>
      <trkpt lat="41.514935170" lon="2.285178935">
        <ele>364.50</ele>
        <time>2014-05-04T09:20:23Z</time>
      </trkpt>
      <trkpt lat="41.514886723" lon="2.285109365">
        <ele>364.50</ele>
        <time>2014-05-04T09:20:27Z</time>
      </trkpt>
      <trkpt lat="41.514890998" lon="2.285123698">
        <ele>365.00</ele>
        <time>2014-05-04T09:20:30Z</time>
      </trkpt>
      <trkpt lat="41.515009937" lon="2.285251690">
        <ele>365.00</ele>
        <time>2014-05-04T09:20:37Z</time>
      </trkpt>
      <trkpt lat="41.515096941" lon="2.285314387">
        <ele>365.00</ele>
        <time>2014-05-04T09:20:41Z</time>
      </trkpt>
      <trkpt lat="41.515160727" lon="2.285359733">
        <ele>366.40</ele>
        <time>2014-05-04T09:20:49Z</time>
      </trkpt>
      <trkpt lat="41.515193501" lon="2.285450257">
        <ele>364.50</ele>
        <time>2014-05-04T09:20:55Z</time>
      </trkpt>
      <trkpt lat="41.515191908" lon="2.285528125">
        <ele>362.60</ele>
        <time>2014-05-04T09:21:00Z</time>
      </trkpt>
      <trkpt lat="41.515188220" lon="2.285556288">
        <ele>362.10</ele>
        <time>2014-05-04T09:21:10Z</time>
      </trkpt>
      <trkpt lat="41.515189645" lon="2.285593420">
        <ele>361.10</ele>
        <time>2014-05-04T09:21:17Z</time>
      </trkpt>
      <trkpt lat="41.515185538" lon="2.285679586">
        <ele>358.20</ele>
        <time>2014-05-04T09:21:27Z</time>
      </trkpt>
      <trkpt lat="41.515183107" lon="2.285711605">
        <ele>357.80</ele>
        <time>2014-05-04T09:21:34Z</time>
      </trkpt>
      <trkpt lat="41.515220323" lon="2.285754101">
        <ele>355.80</ele>
        <time>2014-05-04T09:21:42Z</time>
      </trkpt>
      <trkpt lat="41.515217724" lon="2.285805902">
        <ele>354.40</ele>
        <time>2014-05-04T09:21:49Z</time>
      </trkpt>
      <trkpt lat="41.515232393" lon="2.285842950">
        <ele>352.90</ele>
        <time>2014-05-04T09:21:57Z</time>
      </trkpt>
      <trkpt lat="41.515218730" lon="2.285924505">
        <ele>351.00</ele>
        <time>2014-05-04T09:22:05Z</time>
      </trkpt>
      <trkpt lat="41.515192495" lon="2.285976557">
        <ele>351.00</ele>
        <time>2014-05-04T09:22:11Z</time>
      </trkpt>
      <trkpt lat="41.515138599" lon="2.286063645">
        <ele>349.10</ele>
        <time>2014-05-04T09:22:18Z</time>
      </trkpt>
      <trkpt lat="41.515119656" lon="2.286093066">
        <ele>348.10</ele>
        <time>2014-05-04T09:22:25Z</time>
      </trkpt>
      <trkpt lat="41.515109430" lon="2.286135310">
        <ele>347.70</ele>
        <time>2014-05-04T09:22:34Z</time>
      </trkpt>
      <trkpt lat="41.515082105" lon="2.286189877">
        <ele>345.70</ele>
        <time>2014-05-04T09:22:43Z</time>
      </trkpt>
      <trkpt lat="41.515065509" lon="2.286226673">
        <ele>344.30</ele>
        <time>2014-05-04T09:22:49Z</time>
      </trkpt>
      <trkpt lat="41.515041788" lon="2.286286520">
        <ele>342.90</ele>
        <time>2014-05-04T09:22:58Z</time>
      </trkpt>
      <trkpt lat="41.515023180" lon="2.286366399">
        <ele>340.90</ele>
        <time>2014-05-04T09:23:05Z</time>
      </trkpt>
      <trkpt lat="41.515012787" lon="2.286395401">
        <ele>340.40</ele>
        <time>2014-05-04T09:23:12Z</time>
      </trkpt>
      <trkpt lat="41.514995520" lon="2.286465893">
        <ele>339.00</ele>
        <time>2014-05-04T09:23:17Z</time>
      </trkpt>
      <trkpt lat="41.514956879" lon="2.286612408">
        <ele>335.60</ele>
        <time>2014-05-04T09:23:24Z</time>
      </trkpt>
      <trkpt lat="41.514893261" lon="2.286799409">
        <ele>332.80</ele>
        <time>2014-05-04T09:23:31Z</time>
      </trkpt>
      <trkpt lat="41.514826289" lon="2.286996299">
        <ele>329.40</ele>
        <time>2014-05-04T09:23:37Z</time>
      </trkpt>
      <trkpt lat="41.514747751" lon="2.287214229">
        <ele>326.00</ele>
        <time>2014-05-04T09:23:43Z</time>
      </trkpt>
      <trkpt lat="41.514726880" lon="2.287409192">
        <ele>322.70</ele>
        <time>2014-05-04T09:23:49Z</time>
      </trkpt>
      <trkpt lat="41.514725874" lon="2.287611112">
        <ele>318.80</ele>
        <time>2014-05-04T09:23:55Z</time>
      </trkpt>
      <trkpt lat="41.514746075" lon="2.287758466">
        <ele>315.90</ele>
        <time>2014-05-04T09:24:00Z</time>
      </trkpt>
      <trkpt lat="41.514728305" lon="2.287856283">
        <ele>314.00</ele>
        <time>2014-05-04T09:24:04Z</time>
      </trkpt>
      <trkpt lat="41.514691089" lon="2.287998188">
        <ele>311.10</ele>
        <time>2014-05-04T09:24:10Z</time>
      </trkpt>
      <trkpt lat="41.514628393" lon="2.288108410">
        <ele>308.70</ele>
        <time>2014-05-04T09:24:15Z</time>
      </trkpt>
      <trkpt lat="41.514595452" lon="2.288131796">
        <ele>308.20</ele>
        <time>2014-05-04T09:24:16Z</time>
      </trkpt>
      <trkpt lat="41.514523787" lon="2.288180076">
        <ele>307.30</ele>
        <time>2014-05-04T09:24:18Z</time>
      </trkpt>
      <trkpt lat="41.514398477" lon="2.288199270">
        <ele>305.80</ele>
        <time>2014-05-04T09:24:23Z</time>
      </trkpt>
      <trkpt lat="41.514370649" lon="2.288234893">
        <ele>305.40</ele>
        <time>2014-05-04T09:24:29Z</time>
      </trkpt>
      <trkpt lat="41.514376097" lon="2.288237911">
        <ele>305.40</ele>
        <time>2014-05-04T09:24:40Z</time>
      </trkpt>
      <trkpt lat="41.514387245" lon="2.288237995">
        <ele>305.40</ele>
        <time>2014-05-04T09:24:51Z</time>
      </trkpt>
      <trkpt lat="41.514365117" lon="2.288287615">
        <ele>305.40</ele>
        <time>2014-05-04T09:25:01Z</time>
      </trkpt>
      <trkpt lat="41.514270988" lon="2.288530020">
        <ele>303.90</ele>
        <time>2014-05-04T09:25:08Z</time>
      </trkpt>
      <trkpt lat="41.514180715" lon="2.288775023">
        <ele>303.00</ele>
        <time>2014-05-04T09:25:14Z</time>
      </trkpt>
      <trkpt lat="41.514150457" lon="2.288850544">
        <ele>302.50</ele>
        <time>2014-05-04T09:25:16Z</time>
      </trkpt>
      <trkpt lat="41.514148193" lon="2.288897902">
        <ele>302.50</ele>
        <time>2014-05-04T09:25:19Z</time>
      </trkpt>
      <trkpt lat="41.514190354" lon="2.289049279">
        <ele>302.00</ele>
        <time>2014-05-04T09:25:26Z</time>
      </trkpt>
      <trkpt lat="41.514241819" lon="2.289251450">
        <ele>302.00</ele>
        <time>2014-05-04T09:25:34Z</time>
      </trkpt>
      <trkpt lat="41.514249866" lon="2.289296797">
        <ele>303.00</ele>
        <time>2014-05-04T09:25:36Z</time>
      </trkpt>
      <trkpt lat="41.514270821" lon="2.289474577">
        <ele>305.40</ele>
        <time>2014-05-04T09:25:44Z</time>
      </trkpt>
      <trkpt lat="41.514298900" lon="2.289651183">
        <ele>306.80</ele>
        <time>2014-05-04T09:25:51Z</time>
      </trkpt>
      <trkpt lat="41.514350030" lon="2.289817648">
        <ele>308.70</ele>
        <time>2014-05-04T09:25:59Z</time>
      </trkpt>
      <trkpt lat="41.514416833" lon="2.290060304">
        <ele>311.60</ele>
        <time>2014-05-04T09:26:09Z</time>
      </trkpt>
      <trkpt lat="41.514495623" lon="2.290241689">
        <ele>314.00</ele>
        <time>2014-05-04T09:26:18Z</time>
      </trkpt>
      <trkpt lat="41.514601738" lon="2.290452074">
        <ele>314.50</ele>
        <time>2014-05-04T09:26:27Z</time>
      </trkpt>
      <trkpt lat="41.514721180" lon="2.290688360">
        <ele>312.10</ele>
        <time>2014-05-04T09:26:34Z</time>
      </trkpt>
      <trkpt lat="41.514731406" lon="2.290712081">
        <ele>312.10</ele>
        <time>2014-05-04T09:26:35Z</time>
      </trkpt>
      <trkpt lat="41.514739872" lon="2.290854322">
        <ele>309.20</ele>
        <time>2014-05-04T09:26:42Z</time>
      </trkpt>
      <trkpt lat="41.514736855" lon="2.290941494">
        <ele>307.80</ele>
        <time>2014-05-04T09:26:45Z</time>
      </trkpt>
      <trkpt lat="41.514737106" lon="2.291026821">
        <ele>305.80</ele>
        <time>2014-05-04T09:26:48Z</time>
      </trkpt>
      <trkpt lat="41.514728054" lon="2.291090943">
        <ele>304.40</ele>
        <time>2014-05-04T09:26:55Z</time>
      </trkpt>
      <trkpt lat="41.514731071" lon="2.291163782">
        <ele>303.00</ele>
        <time>2014-05-04T09:27:04Z</time>
      </trkpt>
      <trkpt lat="41.514714978" lon="2.291255396">
        <ele>300.10</ele>
        <time>2014-05-04T09:27:07Z</time>
      </trkpt>
      <trkpt lat="41.514648509" lon="2.291430661">
        <ele>296.70</ele>
        <time>2014-05-04T09:27:11Z</time>
      </trkpt>
      <trkpt lat="41.514639038" lon="2.291469051">
        <ele>296.70</ele>
        <time>2014-05-04T09:27:12Z</time>
      </trkpt>
      <trkpt lat="41.514623950" lon="2.291578183">
        <ele>295.30</ele>
        <time>2014-05-04T09:27:15Z</time>
      </trkpt>
      <trkpt lat="41.514616909" lon="2.291815894">
        <ele>292.90</ele>
        <time>2014-05-04T09:27:20Z</time>
      </trkpt>
      <trkpt lat="41.514610707" lon="2.291868197">
        <ele>291.90</ele>
        <time>2014-05-04T09:27:21Z</time>
      </trkpt>
      <trkpt lat="41.514579610" lon="2.291984538">
        <ele>291.40</ele>
        <time>2014-05-04T09:27:23Z</time>
      </trkpt>
      <trkpt lat="41.514463353" lon="2.292308917">
        <ele>289.50</ele>
        <time>2014-05-04T09:27:28Z</time>
      </trkpt>
      <trkpt lat="41.514437704" lon="2.292441351">
        <ele>288.50</ele>
        <time>2014-05-04T09:27:32Z</time>
      </trkpt>
      <trkpt lat="41.514432340" lon="2.292545036">
        <ele>287.60</ele>
        <time>2014-05-04T09:27:38Z</time>
      </trkpt>
      <trkpt lat="41.514464443" lon="2.292716865">
        <ele>284.70</ele>
        <time>2014-05-04T09:27:44Z</time>
      </trkpt>
      <trkpt lat="41.514482296" lon="2.292757852">
        <ele>283.70</ele>
        <time>2014-05-04T09:27:46Z</time>
      </trkpt>
      <trkpt lat="41.514581119" lon="2.292880395">
        <ele>279.40</ele>
        <time>2014-05-04T09:27:51Z</time>
      </trkpt>
      <trkpt lat="41.514605259" lon="2.292922389">
        <ele>278.40</ele>
        <time>2014-05-04T09:27:53Z</time>
      </trkpt>
      <trkpt lat="41.514639960" lon="2.293099079">
        <ele>274.60</ele>
        <time>2014-05-04T09:27:59Z</time>
      </trkpt>
      <trkpt lat="41.514584891" lon="2.293316590">
        <ele>271.20</ele>
        <time>2014-05-04T09:28:04Z</time>
      </trkpt>
      <trkpt lat="41.514560835" lon="2.293345256">
        <ele>271.20</ele>
        <time>2014-05-04T09:28:05Z</time>
      </trkpt>
      <trkpt lat="41.514538120" lon="2.293370066">
        <ele>270.30</ele>
        <time>2014-05-04T09:28:06Z</time>
      </trkpt>
      <trkpt lat="41.514500988" lon="2.293417256">
        <ele>269.80</ele>
        <time>2014-05-04T09:28:08Z</time>
      </trkpt>
      <trkpt lat="41.514337708" lon="2.293582464">
        <ele>268.40</ele>
        <time>2014-05-04T09:28:13Z</time>
      </trkpt>
      <trkpt lat="41.514228576" lon="2.293723866">
        <ele>268.40</ele>
        <time>2014-05-04T09:28:17Z</time>
      </trkpt>
      <trkpt lat="41.514102847" lon="2.293887984">
        <ele>269.80</ele>
        <time>2014-05-04T09:28:24Z</time>
      </trkpt>
      <trkpt lat="41.514008300" lon="2.294099208">
        <ele>270.80</ele>
        <time>2014-05-04T09:28:31Z</time>
      </trkpt>
      <trkpt lat="41.513903945" lon="2.294252345">
        <ele>271.20</ele>
        <time>2014-05-04T09:28:37Z</time>
      </trkpt>
      <trkpt lat="41.513789448" lon="2.294382600">
        <ele>273.20</ele>
        <time>2014-05-04T09:28:44Z</time>
      </trkpt>
      <trkpt lat="41.513774025" lon="2.294393832">
        <ele>273.20</ele>
        <time>2014-05-04T09:28:45Z</time>
      </trkpt>
      <trkpt lat="41.513615943" lon="2.294480920">
        <ele>274.60</ele>
        <time>2014-05-04T09:28:53Z</time>
      </trkpt>
      <trkpt lat="41.513407149" lon="2.294635063">
        <ele>276.50</ele>
        <time>2014-05-04T09:29:03Z</time>
      </trkpt>
      <trkpt lat="41.513259460" lon="2.294744531">
        <ele>277.00</ele>
        <time>2014-05-04T09:29:11Z</time>
      </trkpt>
      <trkpt lat="41.513116214" lon="2.294909989">
        <ele>277.50</ele>
        <time>2014-05-04T09:29:18Z</time>
      </trkpt>
      <trkpt lat="41.513087380" lon="2.294945529">
        <ele>277.50</ele>
        <time>2014-05-04T09:29:19Z</time>
      </trkpt>
      <trkpt lat="41.512935332" lon="2.295070503">
        <ele>277.50</ele>
        <time>2014-05-04T09:29:25Z</time>
      </trkpt>
      <trkpt lat="41.512804574" lon="2.295202350">
        <ele>279.40</ele>
        <time>2014-05-04T09:29:33Z</time>
      </trkpt>
      <trkpt lat="41.512699382" lon="2.295318943">
        <ele>281.80</ele>
        <time>2014-05-04T09:29:41Z</time>
      </trkpt>
      <trkpt lat="41.512588740" lon="2.295440145">
        <ele>284.70</ele>
        <time>2014-05-04T09:29:50Z</time>
      </trkpt>
      <trkpt lat="41.512553620" lon="2.295576602">
        <ele>286.10</ele>
        <time>2014-05-04T09:29:57Z</time>
      </trkpt>
      <trkpt lat="41.512602235" lon="2.295801153">
        <ele>283.70</ele>
        <time>2014-05-04T09:30:03Z</time>
      </trkpt>
      <trkpt lat="41.512684126" lon="2.296104830">
        <ele>283.30</ele>
        <time>2014-05-04T09:30:10Z</time>
      </trkpt>
      <trkpt lat="41.512693011" lon="2.296193259">
        <ele>284.70</ele>
        <time>2014-05-04T09:30:13Z</time>
      </trkpt>
      <trkpt lat="41.512731484" lon="2.296403309">
        <ele>285.70</ele>
        <time>2014-05-04T09:30:21Z</time>
      </trkpt>
      <trkpt lat="41.512800803" lon="2.296647558">
        <ele>286.60</ele>
        <time>2014-05-04T09:30:30Z</time>
      </trkpt>
      <trkpt lat="41.512866852" lon="2.296869427">
        <ele>287.10</ele>
        <time>2014-05-04T09:30:38Z</time>
      </trkpt>
      <trkpt lat="41.512928627" lon="2.297118789">
        <ele>288.50</ele>
        <time>2014-05-04T09:30:47Z</time>
      </trkpt>
      <trkpt lat="41.512980930" lon="2.297321212">
        <ele>289.00</ele>
        <time>2014-05-04T09:30:54Z</time>
      </trkpt>
      <trkpt lat="41.513054187" lon="2.297556073">
        <ele>290.00</ele>
        <time>2014-05-04T09:31:02Z</time>
      </trkpt>
      <trkpt lat="41.513115962" lon="2.297764866">
        <ele>290.50</ele>
        <time>2014-05-04T09:31:09Z</time>
      </trkpt>
      <trkpt lat="41.513208834" lon="2.298005678">
        <ele>291.40</ele>
        <time>2014-05-04T09:31:17Z</time>
      </trkpt>
      <trkpt lat="41.513296676" lon="2.298231235">
        <ele>292.40</ele>
        <time>2014-05-04T09:31:25Z</time>
      </trkpt>
      <trkpt lat="41.513374209" lon="2.298436172">
        <ele>294.80</ele>
        <time>2014-05-04T09:31:33Z</time>
      </trkpt>
      <trkpt lat="41.513465404" lon="2.298644463">
        <ele>297.20</ele>
        <time>2014-05-04T09:31:42Z</time>
      </trkpt>
      <trkpt lat="41.513543774" lon="2.298851496">
        <ele>298.60</ele>
        <time>2014-05-04T09:31:50Z</time>
      </trkpt>
      <trkpt lat="41.513607896" lon="2.299056685">
        <ele>300.10</ele>
        <time>2014-05-04T09:31:58Z</time>
      </trkpt>
      <trkpt lat="41.513660199" lon="2.299218036">
        <ele>301.50</ele>
        <time>2014-05-04T09:32:05Z</time>
      </trkpt>
      <trkpt lat="41.513709820" lon="2.299423141">
        <ele>303.00</ele>
        <time>2014-05-04T09:32:14Z</time>
      </trkpt>
      <trkpt lat="41.513720465" lon="2.299525233">
        <ele>303.40</ele>
        <time>2014-05-04T09:32:18Z</time>
      </trkpt>
      <trkpt lat="41.513777881" lon="2.299784904">
        <ele>304.40</ele>
        <time>2014-05-04T09:32:28Z</time>
      </trkpt>
      <trkpt lat="41.513830016" lon="2.300084893">
        <ele>305.80</ele>
        <time>2014-05-04T09:32:39Z</time>
      </trkpt>
      <trkpt lat="41.513870417" lon="2.300313048">
        <ele>306.80</ele>
        <time>2014-05-04T09:32:46Z</time>
      </trkpt>
      <trkpt lat="41.513945351" lon="2.300658383">
        <ele>308.20</ele>
        <time>2014-05-04T09:32:57Z</time>
      </trkpt>
      <trkpt lat="41.514004276" lon="2.300867008">
        <ele>308.70</ele>
        <time>2014-05-04T09:33:04Z</time>
      </trkpt>
      <trkpt lat="41.514087089" lon="2.301098265">
        <ele>309.70</ele>
        <time>2014-05-04T09:33:12Z</time>
      </trkpt>
      <trkpt lat="41.514168813" lon="2.301274285">
        <ele>309.70</ele>
        <time>2014-05-04T09:33:18Z</time>
      </trkpt>
      <trkpt lat="41.514287501" lon="2.301536555">
        <ele>310.20</ele>
        <time>2014-05-04T09:33:26Z</time>
      </trkpt>
      <trkpt lat="41.514422282" lon="2.301820366">
        <ele>310.60</ele>
        <time>2014-05-04T09:33:35Z</time>
      </trkpt>
      <trkpt lat="41.514535354" lon="2.302056316">
        <ele>311.60</ele>
        <time>2014-05-04T09:33:43Z</time>
      </trkpt>
      <trkpt lat="41.514576341" lon="2.302299811">
        <ele>313.50</ele>
        <time>2014-05-04T09:33:51Z</time>
      </trkpt>
      <trkpt lat="41.514564020" lon="2.302608768">
        <ele>314.00</ele>
        <time>2014-05-04T09:34:00Z</time>
      </trkpt>
      <trkpt lat="41.514555386" lon="2.302940859">
        <ele>315.00</ele>
        <time>2014-05-04T09:34:09Z</time>
      </trkpt>
      <trkpt lat="41.514542227" lon="2.303207822">
        <ele>315.00</ele>
        <time>2014-05-04T09:34:16Z</time>
      </trkpt>
      <trkpt lat="41.514516159" lon="2.303600850">
        <ele>315.90</ele>
        <time>2014-05-04T09:34:26Z</time>
      </trkpt>
      <trkpt lat="41.514465281" lon="2.303969737">
        <ele>315.90</ele>
        <time>2014-05-04T09:34:36Z</time>
      </trkpt>
      <trkpt lat="41.514324549" lon="2.304284142">
        <ele>316.40</ele>
        <time>2014-05-04T09:34:45Z</time>
      </trkpt>
      <trkpt lat="41.514146769" lon="2.304589327">
        <ele>315.00</ele>
        <time>2014-05-04T09:34:53Z</time>
      </trkpt>
      <trkpt lat="41.513913835" lon="2.304984534">
        <ele>314.50</ele>
        <time>2014-05-04T09:35:02Z</time>
      </trkpt>
      <trkpt lat="41.513799171" lon="2.305154016">
        <ele>315.90</ele>
        <time>2014-05-04T09:35:08Z</time>
      </trkpt>
      <trkpt lat="41.513690122" lon="2.305344453">
        <ele>317.40</ele>
        <time>2014-05-04T09:35:15Z</time>
      </trkpt>
      <trkpt lat="41.513572776" lon="2.305583421">
        <ele>319.30</ele>
        <time>2014-05-04T09:35:23Z</time>
      </trkpt>
      <trkpt lat="41.513487029" lon="2.305847032">
        <ele>320.30</ele>
        <time>2014-05-04T09:35:31Z</time>
      </trkpt>
      <trkpt lat="41.513386949" lon="2.306136878">
        <ele>321.70</ele>
        <time>2014-05-04T09:35:40Z</time>
      </trkpt>
      <trkpt lat="41.513299442" lon="2.306401411">
        <ele>323.60</ele>
        <time>2014-05-04T09:35:49Z</time>
      </trkpt>
      <trkpt lat="41.513246468" lon="2.306623196">
        <ele>325.50</ele>
        <time>2014-05-04T09:35:57Z</time>
      </trkpt>
      <trkpt lat="41.513173127" lon="2.306881694">
        <ele>328.00</ele>
        <time>2014-05-04T09:36:06Z</time>
      </trkpt>
      <trkpt lat="41.513238170" lon="2.307114124">
        <ele>329.90</ele>
        <time>2014-05-04T09:36:14Z</time>
      </trkpt>
      <trkpt lat="41.513373454" lon="2.307306070">
        <ele>330.40</ele>
        <time>2014-05-04T09:36:22Z</time>
      </trkpt>
      <trkpt lat="41.513524077" lon="2.307465494">
        <ele>330.40</ele>
        <time>2014-05-04T09:36:27Z</time>
      </trkpt>
      <trkpt lat="41.513647123" lon="2.307588121">
        <ele>328.40</ele>
        <time>2014-05-04T09:36:30Z</time>
      </trkpt>
      <trkpt lat="41.514000337" lon="2.307787359">
        <ele>326.50</ele>
        <time>2014-05-04T09:36:36Z</time>
      </trkpt>
      <trkpt lat="41.514211142" lon="2.307894647">
        <ele>324.60</ele>
        <time>2014-05-04T09:36:39Z</time>
      </trkpt>
      <trkpt lat="41.514430245" lon="2.308009898">
        <ele>323.60</ele>
        <time>2014-05-04T09:36:42Z</time>
      </trkpt>
      <trkpt lat="41.514636858" lon="2.308151133">
        <ele>322.70</ele>
        <time>2014-05-04T09:36:45Z</time>
      </trkpt>
      <trkpt lat="41.514853782" lon="2.308387503">
        <ele>322.20</ele>
        <time>2014-05-04T09:36:49Z</time>
      </trkpt>
      <trkpt lat="41.515150334" lon="2.308713894">
        <ele>320.30</ele>
        <time>2014-05-04T09:36:55Z</time>
      </trkpt>
      <trkpt lat="41.515211354" lon="2.308739627">
        <ele>319.80</ele>
        <time>2014-05-04T09:36:56Z</time>
      </trkpt>
      <trkpt lat="41.515566579" lon="2.308892680">
        <ele>316.90</ele>
        <time>2014-05-04T09:37:02Z</time>
      </trkpt>
      <trkpt lat="41.515779731" lon="2.309014218">
        <ele>314.50</ele>
        <time>2014-05-04T09:37:06Z</time>
      </trkpt>
      <trkpt lat="41.515866400" lon="2.309090912">
        <ele>314.50</ele>
        <time>2014-05-04T09:37:08Z</time>
      </trkpt>
      <trkpt lat="41.515942172" lon="2.309188142">
        <ele>313.50</ele>
        <time>2014-05-04T09:37:10Z</time>
      </trkpt>
      <trkpt lat="41.516003528" lon="2.309465751">
        <ele>313.10</ele>
        <time>2014-05-04T09:37:15Z</time>
      </trkpt>
      <trkpt lat="41.515974778" lon="2.309792310">
        <ele>314.00</ele>
        <time>2014-05-04T09:37:22Z</time>
      </trkpt>
      <trkpt lat="41.515963378" lon="2.309832711">
        <ele>314.00</ele>
        <time>2014-05-04T09:37:23Z</time>
      </trkpt>
      <trkpt lat="41.515857599" lon="2.310151391">
        <ele>315.50</ele>
        <time>2014-05-04T09:37:32Z</time>
      </trkpt>
      <trkpt lat="41.515804709" lon="2.310480548">
        <ele>316.90</ele>
        <time>2014-05-04T09:37:41Z</time>
      </trkpt>
      <trkpt lat="41.515703456" lon="2.310823955">
        <ele>319.80</ele>
        <time>2014-05-04T09:37:52Z</time>
      </trkpt>
      <trkpt lat="41.515640843" lon="2.311063929">
        <ele>321.70</ele>
        <time>2014-05-04T09:38:00Z</time>
      </trkpt>
      <trkpt lat="41.515627851" lon="2.311304070">
        <ele>323.60</ele>
        <time>2014-05-04T09:38:07Z</time>
      </trkpt>
      <trkpt lat="41.515626258" lon="2.311523089">
        <ele>325.10</ele>
        <time>2014-05-04T09:38:14Z</time>
      </trkpt>
      <trkpt lat="41.515645620" lon="2.311783180">
        <ele>326.00</ele>
        <time>2014-05-04T09:38:22Z</time>
      </trkpt>
      <trkpt lat="41.515662887" lon="2.312078809">
        <ele>328.40</ele>
        <time>2014-05-04T09:38:31Z</time>
      </trkpt>
      <trkpt lat="41.515688452" lon="2.312355496">
        <ele>329.40</ele>
        <time>2014-05-04T09:38:39Z</time>
      </trkpt>
      <trkpt lat="41.515732541" lon="2.312581388">
        <ele>329.90</ele>
        <time>2014-05-04T09:38:46Z</time>
      </trkpt>
      <trkpt lat="41.515819126" lon="2.312892860">
        <ele>330.40</ele>
        <time>2014-05-04T09:38:55Z</time>
      </trkpt>
      <trkpt lat="41.515852821" lon="2.313103832">
        <ele>331.30</ele>
        <time>2014-05-04T09:39:01Z</time>
      </trkpt>
      <trkpt lat="41.515890372" lon="2.313425195">
        <ele>332.30</ele>
        <time>2014-05-04T09:39:10Z</time>
      </trkpt>
      <trkpt lat="41.515921217" lon="2.313857952">
        <ele>333.20</ele>
        <time>2014-05-04T09:39:22Z</time>
      </trkpt>
      <trkpt lat="41.515926414" lon="2.314169340">
        <ele>334.70</ele>
        <time>2014-05-04T09:39:31Z</time>
      </trkpt>
      <trkpt lat="41.515901855" lon="2.314429766">
        <ele>336.10</ele>
        <time>2014-05-04T09:39:39Z</time>
      </trkpt>
      <trkpt lat="41.515883499" lon="2.314722294">
        <ele>338.50</ele>
        <time>2014-05-04T09:39:48Z</time>
      </trkpt>
      <trkpt lat="41.515930270" lon="2.314963274">
        <ele>340.00</ele>
        <time>2014-05-04T09:39:56Z</time>
      </trkpt>
      <trkpt lat="41.516088101" lon="2.315127224">
        <ele>341.90</ele>
        <time>2014-05-04T09:40:04Z</time>
      </trkpt>
      <trkpt lat="41.516297146" lon="2.315205259">
        <ele>343.30</ele>
        <time>2014-05-04T09:40:13Z</time>
      </trkpt>
      <trkpt lat="41.516540640" lon="2.315226885">
        <ele>345.30</ele>
        <time>2014-05-04T09:40:23Z</time>
      </trkpt>
      <trkpt lat="41.516719845" lon="2.315268626">
        <ele>346.20</ele>
        <time>2014-05-04T09:40:31Z</time>
      </trkpt>
      <trkpt lat="41.516959651" lon="2.315300562">
        <ele>347.70</ele>
        <time>2014-05-04T09:40:41Z</time>
      </trkpt>
      <trkpt lat="41.517211192" lon="2.315392176">
        <ele>348.60</ele>
        <time>2014-05-04T09:40:51Z</time>
      </trkpt>
      <trkpt lat="41.517378327" lon="2.315601807">
        <ele>348.60</ele>
        <time>2014-05-04T09:40:59Z</time>
      </trkpt>
      <trkpt lat="41.517436163" lon="2.315723512">
        <ele>347.20</ele>
        <time>2014-05-04T09:41:02Z</time>
      </trkpt>
      <trkpt lat="41.517495171" lon="2.316070104">
        <ele>346.20</ele>
        <time>2014-05-04T09:41:09Z</time>
      </trkpt>
      <trkpt lat="41.517570944" lon="2.316321310">
        <ele>345.70</ele>
        <time>2014-05-04T09:41:15Z</time>
      </trkpt>
      <trkpt lat="41.517733553" lon="2.316647366">
        <ele>345.30</ele>
        <time>2014-05-04T09:41:23Z</time>
      </trkpt>
      <trkpt lat="41.517916949" lon="2.317057241">
        <ele>345.30</ele>
        <time>2014-05-04T09:41:33Z</time>
      </trkpt>
      <trkpt lat="41.517921307" lon="2.317153968">
        <ele>345.30</ele>
        <time>2014-05-04T09:41:35Z</time>
      </trkpt>
      <trkpt lat="41.517897419" lon="2.317425877">
        <ele>343.80</ele>
        <time>2014-05-04T09:41:40Z</time>
      </trkpt>
      <trkpt lat="41.517916362" lon="2.317546409">
        <ele>343.30</ele>
        <time>2014-05-04T09:41:42Z</time>
      </trkpt>
      <trkpt lat="41.518065141" lon="2.317740450">
        <ele>341.40</ele>
        <time>2014-05-04T09:41:47Z</time>
      </trkpt>
      <trkpt lat="41.518110151" lon="2.317744557">
        <ele>341.40</ele>
        <time>2014-05-04T09:41:48Z</time>
      </trkpt>
      <trkpt lat="41.518388431" lon="2.317894174">
        <ele>340.40</ele>
        <time>2014-05-04T09:41:54Z</time>
      </trkpt>
      <trkpt lat="41.518552045" lon="2.318046976">
        <ele>339.00</ele>
        <time>2014-05-04T09:41:58Z</time>
      </trkpt>
      <trkpt lat="41.518613485" lon="2.318044461">
        <ele>338.50</ele>
        <time>2014-05-04T09:41:59Z</time>
      </trkpt>
      <trkpt lat="41.518778860" lon="2.318021914">
        <ele>337.10</ele>
        <time>2014-05-04T09:42:02Z</time>
      </trkpt>
      <trkpt lat="41.518860332" lon="2.318031637">
        <ele>336.10</ele>
        <time>2014-05-04T09:42:04Z</time>
      </trkpt>
      <trkpt lat="41.518923280" lon="2.318165077">
        <ele>334.70</ele>
        <time>2014-05-04T09:42:07Z</time>
      </trkpt>
      <trkpt lat="41.518886064" lon="2.318374038">
        <ele>333.70</ele>
        <time>2014-05-04T09:42:10Z</time>
      </trkpt>
      <trkpt lat="41.518777938" lon="2.318860691">
        <ele>331.30</ele>
        <time>2014-05-04T09:42:16Z</time>
      </trkpt>
      <trkpt lat="41.518834013" lon="2.319221783">
        <ele>329.90</ele>
        <time>2014-05-04T09:42:21Z</time>
      </trkpt>
      <trkpt lat="41.518993939" lon="2.319337118">
        <ele>329.90</ele>
        <time>2014-05-04T09:42:25Z</time>
      </trkpt>
      <trkpt lat="41.519177838" lon="2.319451615">
        <ele>329.90</ele>
        <time>2014-05-04T09:42:31Z</time>
      </trkpt>
      <trkpt lat="41.519516551" lon="2.319532836">
        <ele>328.40</ele>
        <time>2014-05-04T09:42:38Z</time>
      </trkpt>
      <trkpt lat="41.519618726" lon="2.319567286">
        <ele>327.50</ele>
        <time>2014-05-04T09:42:40Z</time>
      </trkpt>
      <trkpt lat="41.519786197" lon="2.319798626">
        <ele>325.10</ele>
        <time>2014-05-04T09:42:44Z</time>
      </trkpt>
      <trkpt lat="41.519793992" lon="2.319988560">
        <ele>324.60</ele>
        <time>2014-05-04T09:42:46Z</time>
      </trkpt>
      <trkpt lat="41.519860880" lon="2.320431544">
        <ele>323.60</ele>
        <time>2014-05-04T09:42:52Z</time>
      </trkpt>
      <trkpt lat="41.519903041" lon="2.320499772">
        <ele>323.60</ele>
        <time>2014-05-04T09:42:56Z</time>
      </trkpt>
      <trkpt lat="41.519913853" lon="2.320519889">
        <ele>323.60</ele>
        <time>2014-05-04T09:43:09Z</time>
      </trkpt>
      <trkpt lat="41.519896419" lon="2.320535395">
        <ele>323.60</ele>
        <time>2014-05-04T09:43:17Z</time>
      </trkpt>
      <trkpt lat="41.519927683" lon="2.320555093">
        <ele>323.60</ele>
        <time>2014-05-04T09:43:43Z</time>
      </trkpt>
      <trkpt lat="41.519881918" lon="2.320555512">
        <ele>323.10</ele>
        <time>2014-05-04T09:44:08Z</time>
      </trkpt>
      <trkpt lat="41.519882337" lon="2.320534557">
        <ele>323.10</ele>
        <time>2014-05-04T09:44:34Z</time>
      </trkpt>
      <trkpt lat="41.519890887" lon="2.320521817">
        <ele>323.60</ele>
        <time>2014-05-04T09:44:57Z</time>
      </trkpt>
      <trkpt lat="41.519929276" lon="2.320538664">
        <ele>323.60</ele>
        <time>2014-05-04T09:45:11Z</time>
      </trkpt>
      <trkpt lat="41.519943022" lon="2.320552578">
        <ele>323.60</ele>
        <time>2014-05-04T09:45:24Z</time>
      </trkpt>
      <trkpt lat="41.519942016" lon="2.320535814">
        <ele>323.60</ele>
        <time>2014-05-04T09:45:36Z</time>
      </trkpt>
      <trkpt lat="41.519940005" lon="2.320539000">
        <ele>323.60</ele>
        <time>2014-05-04T09:45:50Z</time>
      </trkpt>
      <trkpt lat="41.519938328" lon="2.320520978">
        <ele>323.60</ele>
        <time>2014-05-04T09:45:59Z</time>
      </trkpt>
      <trkpt lat="41.519955679" lon="2.320533132">
        <ele>323.60</ele>
        <time>2014-05-04T09:46:03Z</time>
      </trkpt>
      <trkpt lat="41.519976801" lon="2.320558026">
        <ele>324.10</ele>
        <time>2014-05-04T09:46:06Z</time>
      </trkpt>
      <trkpt lat="41.520126754" lon="2.320598763">
        <ele>325.10</ele>
        <time>2014-05-04T09:46:14Z</time>
      </trkpt>
      <trkpt lat="41.520279556" lon="2.320658861">
        <ele>326.50</ele>
        <time>2014-05-04T09:46:22Z</time>
      </trkpt>
      <trkpt lat="41.520465802" lon="2.320759527">
        <ele>328.90</ele>
        <time>2014-05-04T09:46:33Z</time>
      </trkpt>
      <trkpt lat="41.520615670" lon="2.320818201">
        <ele>330.40</ele>
        <time>2014-05-04T09:46:43Z</time>
      </trkpt>
      <trkpt lat="41.520729748" lon="2.320849298">
        <ele>332.80</ele>
        <time>2014-05-04T09:46:51Z</time>
      </trkpt>
      <trkpt lat="41.520881376" lon="2.320885172">
        <ele>333.70</ele>
        <time>2014-05-04T09:46:59Z</time>
      </trkpt>
      <trkpt lat="41.521026551" lon="2.320997825">
        <ele>334.70</ele>
        <time>2014-05-04T09:47:08Z</time>
      </trkpt>
      <trkpt lat="41.521088074" lon="2.321175940">
        <ele>332.30</ele>
        <time>2014-05-04T09:47:13Z</time>
      </trkpt>
      <trkpt lat="41.521153118" lon="2.321324216">
        <ele>330.80</ele>
        <time>2014-05-04T09:47:19Z</time>
      </trkpt>
      <trkpt lat="41.521202990" lon="2.321552288">
        <ele>329.40</ele>
        <time>2014-05-04T09:47:25Z</time>
      </trkpt>
      <trkpt lat="41.521156303" lon="2.321972473">
        <ele>328.00</ele>
        <time>2014-05-04T09:47:32Z</time>
      </trkpt>
      <trkpt lat="41.521224615" lon="2.322180009">
        <ele>327.00</ele>
        <time>2014-05-04T09:47:36Z</time>
      </trkpt>
      <trkpt lat="41.521322181" lon="2.322246645">
        <ele>327.00</ele>
        <time>2014-05-04T09:47:39Z</time>
      </trkpt>
      <trkpt lat="41.521503984" lon="2.322336918">
        <ele>328.40</ele>
        <time>2014-05-04T09:47:46Z</time>
      </trkpt>
      <trkpt lat="41.521527370" lon="2.322355358">
        <ele>328.40</ele>
        <time>2014-05-04T09:47:47Z</time>
      </trkpt>
      <trkpt lat="41.521713867" lon="2.322461892">
        <ele>329.90</ele>
        <time>2014-05-04T09:47:54Z</time>
      </trkpt>
      <trkpt lat="41.521857533" lon="2.322632799">
        <ele>330.80</ele>
        <time>2014-05-04T09:48:02Z</time>
      </trkpt>
      <trkpt lat="41.521991727" lon="2.322851986">
        <ele>331.30</ele>
        <time>2014-05-04T09:48:10Z</time>
      </trkpt>
      <trkpt lat="41.522165568" lon="2.322904205">
        <ele>331.80</ele>
        <time>2014-05-04T09:48:17Z</time>
      </trkpt>
      <trkpt lat="41.522410571" lon="2.322869839">
        <ele>332.80</ele>
        <time>2014-05-04T09:48:26Z</time>
      </trkpt>
      <trkpt lat="41.522611736" lon="2.322774118">
        <ele>333.70</ele>
        <time>2014-05-04T09:48:34Z</time>
      </trkpt>
      <trkpt lat="41.522687593" lon="2.322778393">
        <ele>333.70</ele>
        <time>2014-05-04T09:48:37Z</time>
      </trkpt>
      <trkpt lat="41.522778117" lon="2.322885765">
        <ele>334.20</ele>
        <time>2014-05-04T09:48:44Z</time>
      </trkpt>
      <trkpt lat="41.522892111" lon="2.323089194">
        <ele>335.20</ele>
        <time>2014-05-04T09:48:52Z</time>
      </trkpt>
      <trkpt lat="41.523004764" lon="2.323280050">
        <ele>336.10</ele>
        <time>2014-05-04T09:49:00Z</time>
      </trkpt>
      <trkpt lat="41.523086068" lon="2.323497392">
        <ele>337.60</ele>
        <time>2014-05-04T09:49:08Z</time>
      </trkpt>
      <trkpt lat="41.523078357" lon="2.323727895">
        <ele>337.60</ele>
        <time>2014-05-04T09:49:15Z</time>
      </trkpt>
      <trkpt lat="41.523055558" lon="2.323884217">
        <ele>337.60</ele>
        <time>2014-05-04T09:49:21Z</time>
      </trkpt>
      <trkpt lat="41.523116662" lon="2.324087227">
        <ele>338.50</ele>
        <time>2014-05-04T09:49:28Z</time>
      </trkpt>
      <trkpt lat="41.523177096" lon="2.324323261">
        <ele>340.00</ele>
        <time>2014-05-04T09:49:36Z</time>
      </trkpt>
      <trkpt lat="41.523287905" lon="2.324451504">
        <ele>341.40</ele>
        <time>2014-05-04T09:49:42Z</time>
      </trkpt>
      <trkpt lat="41.523472642" lon="2.324466927">
        <ele>343.30</ele>
        <time>2014-05-04T09:49:50Z</time>
      </trkpt>
      <trkpt lat="41.523618151" lon="2.324443877">
        <ele>344.30</ele>
        <time>2014-05-04T09:49:57Z</time>
      </trkpt>
      <trkpt lat="41.523803894" lon="2.324465754">
        <ele>343.30</ele>
        <time>2014-05-04T09:50:03Z</time>
      </trkpt>
      <trkpt lat="41.523991398" lon="2.324395932">
        <ele>340.90</ele>
        <time>2014-05-04T09:50:09Z</time>
      </trkpt>
      <trkpt lat="41.524101452" lon="2.324301133">
        <ele>340.00</ele>
        <time>2014-05-04T09:50:12Z</time>
      </trkpt>
      <trkpt lat="41.524195748" lon="2.324211866">
        <ele>338.50</ele>
        <time>2014-05-04T09:50:14Z</time>
      </trkpt>
      <trkpt lat="41.524333295" lon="2.323973484">
        <ele>336.60</ele>
        <time>2014-05-04T09:50:18Z</time>
      </trkpt>
      <trkpt lat="41.524482493" lon="2.323653128">
        <ele>335.20</ele>
        <time>2014-05-04T09:50:23Z</time>
      </trkpt>
      <trkpt lat="41.524514177" lon="2.323612895">
        <ele>335.60</ele>
        <time>2014-05-04T09:50:24Z</time>
      </trkpt>
      <trkpt lat="41.524724311" lon="2.323475013">
        <ele>335.20</ele>
        <time>2014-05-04T09:50:31Z</time>
      </trkpt>
      <trkpt lat="41.524960681" lon="2.323488172">
        <ele>332.80</ele>
        <time>2014-05-04T09:50:36Z</time>
      </trkpt>
      <trkpt lat="41.525296292" lon="2.323626641">
        <ele>329.40</ele>
        <time>2014-05-04T09:50:42Z</time>
      </trkpt>
      <trkpt lat="41.525378770" lon="2.323652038">
        <ele>328.90</ele>
        <time>2014-05-04T09:50:43Z</time>
      </trkpt>
      <trkpt lat="41.525821586" lon="2.323727643">
        <ele>325.50</ele>
        <time>2014-05-04T09:50:48Z</time>
      </trkpt>
      <trkpt lat="41.526136327" lon="2.323779527">
        <ele>320.30</ele>
        <time>2014-05-04T09:50:52Z</time>
      </trkpt>
      <trkpt lat="41.526197682" lon="2.323790088">
        <ele>320.30</ele>
        <time>2014-05-04T09:50:53Z</time>
      </trkpt>
      <trkpt lat="41.526250153" lon="2.323794195">
        <ele>319.30</ele>
        <time>2014-05-04T09:50:54Z</time>
      </trkpt>
      <trkpt lat="41.526443859" lon="2.323703922">
        <ele>317.40</ele>
        <time>2014-05-04T09:50:58Z</time>
      </trkpt>
      <trkpt lat="41.526598756" lon="2.323722865">
        <ele>315.90</ele>
        <time>2014-05-04T09:51:01Z</time>
      </trkpt>
      <trkpt lat="41.526897655" lon="2.323777180">
        <ele>312.60</ele>
        <time>2014-05-04T09:51:07Z</time>
      </trkpt>
      <trkpt lat="41.526964040" lon="2.323768631">
        <ele>312.60</ele>
        <time>2014-05-04T09:51:08Z</time>
      </trkpt>
      <trkpt lat="41.527104939" lon="2.323767792">
        <ele>311.10</ele>
        <time>2014-05-04T09:51:10Z</time>
      </trkpt>
      <trkpt lat="41.527232177" lon="2.323794447">
        <ele>309.70</ele>
        <time>2014-05-04T09:51:12Z</time>
      </trkpt>
      <trkpt lat="41.527339130" lon="2.323830405">
        <ele>308.70</ele>
        <time>2014-05-04T09:51:14Z</time>
      </trkpt>
      <trkpt lat="41.527590671" lon="2.323746922">
        <ele>304.90</ele>
        <time>2014-05-04T09:51:19Z</time>
      </trkpt>
      <trkpt lat="41.527683794" lon="2.323655978">
        <ele>303.00</ele>
        <time>2014-05-04T09:51:21Z</time>
      </trkpt>
      <trkpt lat="41.527777336" lon="2.323455399">
        <ele>301.00</ele>
        <time>2014-05-04T09:51:24Z</time>
      </trkpt>
      <trkpt lat="41.527791082" lon="2.323386667">
        <ele>299.60</ele>
        <time>2014-05-04T09:51:25Z</time>
      </trkpt>
      <trkpt lat="41.527767445" lon="2.323218778">
        <ele>296.70</ele>
        <time>2014-05-04T09:51:30Z</time>
      </trkpt>
      <trkpt lat="41.527633921" lon="2.323113082">
        <ele>293.80</ele>
        <time>2014-05-04T09:51:35Z</time>
      </trkpt>
      <trkpt lat="41.527679184" lon="2.323031358">
        <ele>291.90</ele>
        <time>2014-05-04T09:51:40Z</time>
      </trkpt>
      <trkpt lat="41.527845732" lon="2.322975451">
        <ele>291.90</ele>
        <time>2014-05-04T09:51:45Z</time>
      </trkpt>
      <trkpt lat="41.527909686" lon="2.322910324">
        <ele>291.90</ele>
        <time>2014-05-04T09:51:47Z</time>
      </trkpt>
      <trkpt lat="41.528152091" lon="2.322539341">
        <ele>290.00</ele>
        <time>2014-05-04T09:51:56Z</time>
      </trkpt>
      <trkpt lat="41.528285950" lon="2.322470944">
        <ele>288.10</ele>
        <time>2014-05-04T09:52:01Z</time>
      </trkpt>
      <trkpt lat="41.528413857" lon="2.322476560">
        <ele>284.20</ele>
        <time>2014-05-04T09:52:06Z</time>
      </trkpt>
      <trkpt lat="41.528499604" lon="2.322487708">
        <ele>281.30</ele>
        <time>2014-05-04T09:52:11Z</time>
      </trkpt>
      <trkpt lat="41.528611419" lon="2.322465329">
        <ele>278.00</ele>
        <time>2014-05-04T09:52:15Z</time>
      </trkpt>
      <trkpt lat="41.528692639" lon="2.322495168">
        <ele>276.50</ele>
        <time>2014-05-04T09:52:20Z</time>
      </trkpt>
      <trkpt lat="41.528766233" lon="2.322585022">
        <ele>273.20</ele>
        <time>2014-05-04T09:52:26Z</time>
      </trkpt>
      <trkpt lat="41.528860864" lon="2.322685102">
        <ele>270.30</ele>
        <time>2014-05-04T09:52:32Z</time>
      </trkpt>
      <trkpt lat="41.528902690" lon="2.322716618">
        <ele>269.30</ele>
        <time>2014-05-04T09:52:39Z</time>
      </trkpt>
      <trkpt lat="41.528927333" lon="2.322729778">
        <ele>269.30</ele>
        <time>2014-05-04T09:52:47Z</time>
      </trkpt>
      <trkpt lat="41.529010062" lon="2.322795073">
        <ele>266.90</ele>
        <time>2014-05-04T09:52:51Z</time>
      </trkpt>
      <trkpt lat="41.529207456" lon="2.322949635">
        <ele>264.00</ele>
        <time>2014-05-04T09:52:57Z</time>
      </trkpt>
      <trkpt lat="41.529332598" lon="2.323143089">
        <ele>260.70</ele>
        <time>2014-05-04T09:53:01Z</time>
      </trkpt>
      <trkpt lat="41.529385152" lon="2.323230093">
        <ele>258.70</ele>
        <time>2014-05-04T09:53:03Z</time>
      </trkpt>
      <trkpt lat="41.529473330" lon="2.323358420">
        <ele>257.30</ele>
        <time>2014-05-04T09:53:06Z</time>
      </trkpt>
      <trkpt lat="41.529499565" lon="2.323394211">
        <ele>256.30</ele>
        <time>2014-05-04T09:53:07Z</time>
      </trkpt>
      <trkpt lat="41.529629820" lon="2.323573081">
        <ele>253.00</ele>
        <time>2014-05-04T09:53:11Z</time>
      </trkpt>
      <trkpt lat="41.529752280" lon="2.323863095">
        <ele>248.20</ele>
        <time>2014-05-04T09:53:18Z</time>
      </trkpt>
      <trkpt lat="41.529795782" lon="2.324006006">
        <ele>244.80</ele>
        <time>2014-05-04T09:53:23Z</time>
      </trkpt>
      <trkpt lat="41.529841128" lon="2.324177668">
        <ele>242.40</ele>
        <time>2014-05-04T09:53:29Z</time>
      </trkpt>
      <trkpt lat="41.529810282" lon="2.324308341">
        <ele>241.40</ele>
        <time>2014-05-04T09:53:33Z</time>
      </trkpt>
      <trkpt lat="41.529841715" lon="2.324513530">
        <ele>239.50</ele>
        <time>2014-05-04T09:53:38Z</time>
      </trkpt>
      <trkpt lat="41.529899969" lon="2.324687455">
        <ele>237.10</ele>
        <time>2014-05-04T09:53:41Z</time>
      </trkpt>
      <trkpt lat="41.529871554" lon="2.324854925">
        <ele>237.10</ele>
        <time>2014-05-04T09:53:47Z</time>
      </trkpt>
      <trkpt lat="41.529812965" lon="2.324972523">
        <ele>237.60</ele>
        <time>2014-05-04T09:53:52Z</time>
      </trkpt>
      <trkpt lat="41.529685392" lon="2.325144017">
        <ele>239.00</ele>
        <time>2014-05-04T09:54:00Z</time>
      </trkpt>
      <trkpt lat="41.529557820" lon="2.325350044">
        <ele>240.00</ele>
        <time>2014-05-04T09:54:08Z</time>
      </trkpt>
      <trkpt lat="41.529543654" lon="2.325382985">
        <ele>240.00</ele>
        <time>2014-05-04T09:54:09Z</time>
      </trkpt>
      <trkpt lat="41.529589838" lon="2.325558502">
        <ele>241.00</ele>
        <time>2014-05-04T09:54:16Z</time>
      </trkpt>
      <trkpt lat="41.529632167" lon="2.325696804">
        <ele>242.40</ele>
        <time>2014-05-04T09:54:22Z</time>
      </trkpt>
      <trkpt lat="41.529557400" lon="2.325931413">
        <ele>242.40</ele>
        <time>2014-05-04T09:54:29Z</time>
      </trkpt>
      <trkpt lat="41.529438545" lon="2.326270545">
        <ele>242.40</ele>
        <time>2014-05-04T09:54:38Z</time>
      </trkpt>
      <trkpt lat="41.529327066" lon="2.326499203">
        <ele>242.90</ele>
        <time>2014-05-04T09:54:45Z</time>
      </trkpt>
      <trkpt lat="41.529237798" lon="2.326745799">
        <ele>243.80</ele>
        <time>2014-05-04T09:54:52Z</time>
      </trkpt>
      <trkpt lat="41.529174850" lon="2.326967081">
        <ele>244.80</ele>
        <time>2014-05-04T09:54:59Z</time>
      </trkpt>
      <trkpt lat="41.529105616" lon="2.327193979">
        <ele>247.20</ele>
        <time>2014-05-04T09:55:07Z</time>
      </trkpt>
      <trkpt lat="41.529016432" lon="2.327412495">
        <ele>248.60</ele>
        <time>2014-05-04T09:55:14Z</time>
      </trkpt>
      <trkpt lat="41.528959938" lon="2.327687925">
        <ele>250.10</ele>
        <time>2014-05-04T09:55:23Z</time>
      </trkpt>
      <trkpt lat="41.528886513" lon="2.328027308">
        <ele>250.60</ele>
        <time>2014-05-04T09:55:32Z</time>
      </trkpt>
      <trkpt lat="41.528813758" lon="2.328288320">
        <ele>250.60</ele>
        <time>2014-05-04T09:55:39Z</time>
      </trkpt>
      <trkpt lat="41.528709739" lon="2.328550087">
        <ele>251.00</ele>
        <time>2014-05-04T09:55:47Z</time>
      </trkpt>
      <trkpt lat="41.528623740" lon="2.328755025">
        <ele>253.00</ele>
        <time>2014-05-04T09:55:55Z</time>
      </trkpt>
      <trkpt lat="41.528643270" lon="2.328928195">
        <ele>254.40</ele>
        <time>2014-05-04T09:56:02Z</time>
      </trkpt>
      <trkpt lat="41.528706302" lon="2.329198595">
        <ele>254.40</ele>
        <time>2014-05-04T09:56:09Z</time>
      </trkpt>
      <trkpt lat="41.528690376" lon="2.329398923">
        <ele>254.90</ele>
        <time>2014-05-04T09:56:16Z</time>
      </trkpt>
      <trkpt lat="41.528668751" lon="2.329649877">
        <ele>256.80</ele>
        <time>2014-05-04T09:56:26Z</time>
      </trkpt>
      <trkpt lat="41.528651401" lon="2.329853557">
        <ele>258.70</ele>
        <time>2014-05-04T09:56:34Z</time>
      </trkpt>
      <trkpt lat="41.528641678" lon="2.330041396">
        <ele>261.10</ele>
        <time>2014-05-04T09:56:43Z</time>
      </trkpt>
      <trkpt lat="41.528634721" lon="2.330216326">
        <ele>263.50</ele>
        <time>2014-05-04T09:56:52Z</time>
      </trkpt>
      <trkpt lat="41.528613850" lon="2.330350017">
        <ele>265.50</ele>
        <time>2014-05-04T09:57:00Z</time>
      </trkpt>
      <trkpt lat="41.528583088" lon="2.330495024">
        <ele>268.40</ele>
        <time>2014-05-04T09:57:10Z</time>
      </trkpt>
      <trkpt lat="41.528550315" lon="2.330544980">
        <ele>269.30</ele>
        <time>2014-05-04T09:57:14Z</time>
      </trkpt>
      <trkpt lat="41.528480242" lon="2.330677666">
        <ele>271.20</ele>
        <time>2014-05-04T09:57:24Z</time>
      </trkpt>
      <trkpt lat="41.528457192" lon="2.330760814">
        <ele>272.20</ele>
        <time>2014-05-04T09:57:30Z</time>
      </trkpt>
      <trkpt lat="41.528465658" lon="2.330914622">
        <ele>274.10</ele>
        <time>2014-05-04T09:57:41Z</time>
      </trkpt>
      <trkpt lat="41.528464065" lon="2.331055354">
        <ele>276.00</ele>
        <time>2014-05-04T09:57:50Z</time>
      </trkpt>
      <trkpt lat="41.528463897" lon="2.331071783">
        <ele>276.50</ele>
        <time>2014-05-04T09:57:51Z</time>
      </trkpt>
      <trkpt lat="41.528381336" lon="2.331157949">
        <ele>277.50</ele>
        <time>2014-05-04T09:57:59Z</time>
      </trkpt>
      <trkpt lat="41.528349820" lon="2.331157278">
        <ele>278.00</ele>
        <time>2014-05-04T09:58:01Z</time>
      </trkpt>
      <trkpt lat="41.528199867" lon="2.331094833">
        <ele>278.90</ele>
        <time>2014-05-04T09:58:10Z</time>
      </trkpt>
      <trkpt lat="41.528089897" lon="2.331111765">
        <ele>279.40</ele>
        <time>2014-05-04T09:58:16Z</time>
      </trkpt>
      <trkpt lat="41.527941956" lon="2.331260208">
        <ele>278.00</ele>
        <time>2014-05-04T09:58:23Z</time>
      </trkpt>
      <trkpt lat="41.527923265" lon="2.331314104">
        <ele>278.00</ele>
        <time>2014-05-04T09:58:24Z</time>
      </trkpt>
      <trkpt lat="41.527813881" lon="2.331499428">
        <ele>277.00</ele>
        <time>2014-05-04T09:58:28Z</time>
      </trkpt>
      <trkpt lat="41.527602489" lon="2.331613421">
        <ele>277.00</ele>
        <time>2014-05-04T09:58:34Z</time>
      </trkpt>
      <trkpt lat="41.527425799" lon="2.331766894">
        <ele>278.40</ele>
        <time>2014-05-04T09:58:43Z</time>
      </trkpt>
      <trkpt lat="41.527313481" lon="2.331890862">
        <ele>279.40</ele>
        <time>2014-05-04T09:58:50Z</time>
      </trkpt>
      <trkpt lat="41.527228237" lon="2.332011394">
        <ele>280.80</ele>
        <time>2014-05-04T09:58:56Z</time>
      </trkpt>
      <trkpt lat="41.527135869" lon="2.332168723">
        <ele>281.80</ele>
        <time>2014-05-04T09:59:02Z</time>
      </trkpt>
      <trkpt lat="41.527035705" lon="2.332290847">
        <ele>282.80</ele>
        <time>2014-05-04T09:59:08Z</time>
      </trkpt>
      <trkpt lat="41.526882819" lon="2.332373995">
        <ele>284.20</ele>
        <time>2014-05-04T09:59:15Z</time>
      </trkpt>
      <trkpt lat="41.526823224" lon="2.332514225">
        <ele>285.70</ele>
        <time>2014-05-04T09:59:22Z</time>
      </trkpt>
      <trkpt lat="41.526807382" lon="2.332695525">
        <ele>287.10</ele>
        <time>2014-05-04T09:59:32Z</time>
      </trkpt>
      <trkpt lat="41.526766981" lon="2.332851512">
        <ele>289.00</ele>
        <time>2014-05-04T09:59:40Z</time>
      </trkpt>
      <trkpt lat="41.526664135" lon="2.332903313">
        <ele>290.50</ele>
        <time>2014-05-04T09:59:48Z</time>
      </trkpt>
      <trkpt lat="41.526541675" lon="2.332882861">
        <ele>292.40</ele>
        <time>2014-05-04T09:59:56Z</time>
      </trkpt>
      <trkpt lat="41.526503454" lon="2.332896356">
        <ele>293.30</ele>
        <time>2014-05-04T09:59:59Z</time>
      </trkpt>
      <trkpt lat="41.526468669" lon="2.333020994">
        <ele>295.30</ele>
        <time>2014-05-04T10:00:08Z</time>
      </trkpt>
      <trkpt lat="41.526480320" lon="2.333029544">
        <ele>295.30</ele>
        <time>2014-05-04T10:00:09Z</time>
      </trkpt>
      <trkpt lat="41.526569503" lon="2.333108585">
        <ele>297.20</ele>
        <time>2014-05-04T10:00:17Z</time>
      </trkpt>
      <trkpt lat="41.526528600" lon="2.333231548">
        <ele>299.10</ele>
        <time>2014-05-04T10:00:26Z</time>
      </trkpt>
      <trkpt lat="41.526404045" lon="2.333305895">
        <ele>300.60</ele>
        <time>2014-05-04T10:00:36Z</time>
      </trkpt>
      <trkpt lat="41.526318214" lon="2.333355684">
        <ele>302.00</ele>
        <time>2014-05-04T10:00:43Z</time>
      </trkpt>
      <trkpt lat="41.526220816" lon="2.333454339">
        <ele>303.00</ele>
        <time>2014-05-04T10:00:51Z</time>
      </trkpt>
      <trkpt lat="41.526110762" lon="2.333558274">
        <ele>304.40</ele>
        <time>2014-05-04T10:00:59Z</time>
      </trkpt>
      <trkpt lat="41.525999450" lon="2.333644440">
        <ele>305.80</ele>
        <time>2014-05-04T10:01:07Z</time>
      </trkpt>
      <trkpt lat="41.525895682" lon="2.333734630">
        <ele>307.80</ele>
        <time>2014-05-04T10:01:15Z</time>
      </trkpt>
      <trkpt lat="41.525782275" lon="2.333816940">
        <ele>309.20</ele>
        <time>2014-05-04T10:01:23Z</time>
      </trkpt>
      <trkpt lat="41.525663923" lon="2.333891874">
        <ele>311.10</ele>
        <time>2014-05-04T10:01:31Z</time>
      </trkpt>
      <trkpt lat="41.525521933" lon="2.333985416">
        <ele>312.60</ele>
        <time>2014-05-04T10:01:40Z</time>
      </trkpt>
      <trkpt lat="41.525360246" lon="2.334048783">
        <ele>314.00</ele>
        <time>2014-05-04T10:01:50Z</time>
      </trkpt>
      <trkpt lat="41.525254383" lon="2.334099075">
        <ele>315.00</ele>
        <time>2014-05-04T10:01:57Z</time>
      </trkpt>
      <trkpt lat="41.525143658" lon="2.334203094">
        <ele>315.90</ele>
        <time>2014-05-04T10:02:05Z</time>
      </trkpt>
      <trkpt lat="41.525030167" lon="2.334325302">
        <ele>316.90</ele>
        <time>2014-05-04T10:02:14Z</time>
      </trkpt>
      <trkpt lat="41.524974930" lon="2.334406942">
        <ele>317.90</ele>
        <time>2014-05-04T10:02:19Z</time>
      </trkpt>
      <trkpt lat="41.524948527" lon="2.334480032">
        <ele>319.30</ele>
        <time>2014-05-04T10:02:23Z</time>
      </trkpt>
      <trkpt lat="41.524908545" lon="2.334642641">
        <ele>320.70</ele>
        <time>2014-05-04T10:02:32Z</time>
      </trkpt>
      <trkpt lat="41.524928997" lon="2.334814554">
        <ele>323.10</ele>
        <time>2014-05-04T10:02:42Z</time>
      </trkpt>
      <trkpt lat="41.524987000" lon="2.335014965">
        <ele>325.50</ele>
        <time>2014-05-04T10:02:54Z</time>
      </trkpt>
      <trkpt lat="41.525073082" lon="2.335125607">
        <ele>327.50</ele>
        <time>2014-05-04T10:03:03Z</time>
      </trkpt>
      <trkpt lat="41.525159667" lon="2.335234823">
        <ele>330.40</ele>
        <time>2014-05-04T10:03:13Z</time>
      </trkpt>
      <trkpt lat="41.525168720" lon="2.335246054">
        <ele>330.40</ele>
        <time>2014-05-04T10:03:14Z</time>
      </trkpt>
      <trkpt lat="41.525255221" lon="2.335394749">
        <ele>331.30</ele>
        <time>2014-05-04T10:03:23Z</time>
      </trkpt>
      <trkpt lat="41.525332083" lon="2.335515784">
        <ele>333.20</ele>
        <time>2014-05-04T10:03:32Z</time>
      </trkpt>
      <trkpt lat="41.525386733" lon="2.335627180">
        <ele>333.70</ele>
        <time>2014-05-04T10:03:38Z</time>
      </trkpt>
      <trkpt lat="41.525470384" lon="2.335786268">
        <ele>336.10</ele>
        <time>2014-05-04T10:03:48Z</time>
      </trkpt>
      <trkpt lat="41.525534506" lon="2.335951559">
        <ele>337.60</ele>
        <time>2014-05-04T10:03:57Z</time>
      </trkpt>
      <trkpt lat="41.525546241" lon="2.335986512">
        <ele>338.00</ele>
        <time>2014-05-04T10:03:59Z</time>
      </trkpt>
      <trkpt lat="41.525583792" lon="2.336076533">
        <ele>339.50</ele>
        <time>2014-05-04T10:04:05Z</time>
      </trkpt>
      <trkpt lat="41.525662246" lon="2.336234532">
        <ele>341.40</ele>
        <time>2014-05-04T10:04:15Z</time>
      </trkpt>
      <trkpt lat="41.525751597" lon="2.336411055">
        <ele>342.90</ele>
        <time>2014-05-04T10:04:26Z</time>
      </trkpt>
      <trkpt lat="41.525819658" lon="2.336567964">
        <ele>344.30</ele>
        <time>2014-05-04T10:04:36Z</time>
      </trkpt>
      <trkpt lat="41.525905992" lon="2.336707942">
        <ele>345.30</ele>
        <time>2014-05-04T10:04:44Z</time>
      </trkpt>
      <trkpt lat="41.525937508" lon="2.336763347">
        <ele>345.70</ele>
        <time>2014-05-04T10:04:47Z</time>
      </trkpt>
      <trkpt lat="41.525977741" lon="2.336919334">
        <ele>345.70</ele>
        <time>2014-05-04T10:04:54Z</time>
      </trkpt>
      <trkpt lat="41.525983525" lon="2.336943558">
        <ele>345.70</ele>
        <time>2014-05-04T10:04:55Z</time>
      </trkpt>
      <trkpt lat="41.526019902" lon="2.337197613">
        <ele>346.70</ele>
        <time>2014-05-04T10:05:04Z</time>
      </trkpt>
      <trkpt lat="41.526014873" lon="2.337418979">
        <ele>347.20</ele>
        <time>2014-05-04T10:05:11Z</time>
      </trkpt>
      <trkpt lat="41.525979334" lon="2.337671945">
        <ele>347.20</ele>
        <time>2014-05-04T10:05:18Z</time>
      </trkpt>
      <trkpt lat="41.525948572" lon="2.337958941">
        <ele>348.10</ele>
        <time>2014-05-04T10:05:26Z</time>
      </trkpt>
      <trkpt lat="41.525908255" lon="2.338277034">
        <ele>348.60</ele>
        <time>2014-05-04T10:05:35Z</time>
      </trkpt>
      <trkpt lat="41.525869112" lon="2.338553553">
        <ele>349.60</ele>
        <time>2014-05-04T10:05:43Z</time>
      </trkpt>
      <trkpt lat="41.525823849" lon="2.338857062">
        <ele>350.10</ele>
        <time>2014-05-04T10:05:52Z</time>
      </trkpt>
      <trkpt lat="41.525778503" lon="2.339169791">
        <ele>351.50</ele>
        <time>2014-05-04T10:06:02Z</time>
      </trkpt>
      <trkpt lat="41.525745143" lon="2.339445807">
        <ele>352.90</ele>
        <time>2014-05-04T10:06:12Z</time>
      </trkpt>
      <trkpt lat="41.525722093" lon="2.339689804">
        <ele>354.90</ele>
        <time>2014-05-04T10:06:21Z</time>
      </trkpt>
      <trkpt lat="41.525707928" lon="2.339939250">
        <ele>356.30</ele>
        <time>2014-05-04T10:06:30Z</time>
      </trkpt>
      <trkpt lat="41.525704994" lon="2.340156006">
        <ele>357.80</ele>
        <time>2014-05-04T10:06:38Z</time>
      </trkpt>
      <trkpt lat="41.525728379" lon="2.340256002">
        <ele>358.70</ele>
        <time>2014-05-04T10:06:43Z</time>
      </trkpt>
      <trkpt lat="41.525849749" lon="2.340220379">
        <ele>359.20</ele>
        <time>2014-05-04T10:06:50Z</time>
      </trkpt>
      <trkpt lat="41.525889144" lon="2.340163214">
        <ele>359.20</ele>
        <time>2014-05-04T10:06:53Z</time>
      </trkpt>
      <trkpt lat="41.526078156" lon="2.339965485">
        <ele>359.70</ele>
        <time>2014-05-04T10:07:04Z</time>
      </trkpt>
      <trkpt lat="41.526264151" lon="2.339847552">
        <ele>361.60</ele>
        <time>2014-05-04T10:07:13Z</time>
      </trkpt>
      <trkpt lat="41.526447044" lon="2.339761721">
        <ele>362.60</ele>
        <time>2014-05-04T10:07:22Z</time>
      </trkpt>
      <trkpt lat="41.526586686" lon="2.339699527">
        <ele>364.00</ele>
        <time>2014-05-04T10:07:30Z</time>
      </trkpt>
      <trkpt lat="41.526671008" lon="2.339684188">
        <ele>365.00</ele>
        <time>2014-05-04T10:07:37Z</time>
      </trkpt>
      <trkpt lat="41.526770837" lon="2.339675387">
        <ele>365.90</ele>
        <time>2014-05-04T10:07:44Z</time>
      </trkpt>
      <trkpt lat="41.526946689" lon="2.339688296">
        <ele>368.30</ele>
        <time>2014-05-04T10:07:55Z</time>
      </trkpt>
      <trkpt lat="41.527056241" lon="2.339706736">
        <ele>369.80</ele>
        <time>2014-05-04T10:08:02Z</time>
      </trkpt>
      <trkpt lat="41.527130420" lon="2.339723248">
        <ele>370.70</ele>
        <time>2014-05-04T10:08:07Z</time>
      </trkpt>
      <trkpt lat="41.527161098" lon="2.339735402">
        <ele>371.20</ele>
        <time>2014-05-04T10:08:09Z</time>
      </trkpt>
      <trkpt lat="41.527289844" lon="2.339784185">
        <ele>373.10</ele>
        <time>2014-05-04T10:08:18Z</time>
      </trkpt>
      <trkpt lat="41.527430157" lon="2.339851826">
        <ele>375.10</ele>
        <time>2014-05-04T10:08:28Z</time>
      </trkpt>
      <trkpt lat="41.527528728" lon="2.339908404">
        <ele>377.00</ele>
        <time>2014-05-04T10:08:35Z</time>
      </trkpt>
      <trkpt lat="41.527630149" lon="2.339961797">
        <ele>378.40</ele>
        <time>2014-05-04T10:08:43Z</time>
      </trkpt>
      <trkpt lat="41.527756716" lon="2.340042682">
        <ele>380.80</ele>
        <time>2014-05-04T10:08:53Z</time>
      </trkpt>
      <trkpt lat="41.527782113" lon="2.340059362">
        <ele>380.80</ele>
        <time>2014-05-04T10:08:55Z</time>
      </trkpt>
      <trkpt lat="41.527883702" lon="2.340120466">
        <ele>382.70</ele>
        <time>2014-05-04T10:09:03Z</time>
      </trkpt>
      <trkpt lat="41.527954613" lon="2.340173440">
        <ele>384.20</ele>
        <time>2014-05-04T10:09:09Z</time>
      </trkpt>
      <trkpt lat="41.528040192" lon="2.340269161">
        <ele>385.60</ele>
        <time>2014-05-04T10:09:18Z</time>
      </trkpt>
      <trkpt lat="41.528174219" lon="2.340367816">
        <ele>388.00</ele>
        <time>2014-05-04T10:09:30Z</time>
      </trkpt>
      <trkpt lat="41.528210429" lon="2.340394303">
        <ele>389.00</ele>
        <time>2014-05-04T10:09:33Z</time>
      </trkpt>
      <trkpt lat="41.528310509" lon="2.340454569">
        <ele>390.00</ele>
        <time>2014-05-04T10:09:41Z</time>
      </trkpt>
      <trkpt lat="41.528443613" lon="2.340575688">
        <ele>391.90</ele>
        <time>2014-05-04T10:09:52Z</time>
      </trkpt>
      <trkpt lat="41.528551069" lon="2.340642659">
        <ele>393.30</ele>
        <time>2014-05-04T10:10:00Z</time>
      </trkpt>
      <trkpt lat="41.528656346" lon="2.340721700">
        <ele>395.20</ele>
        <time>2014-05-04T10:10:08Z</time>
      </trkpt>
      <trkpt lat="41.528757935" lon="2.340789007">
        <ele>396.20</ele>
        <time>2014-05-04T10:10:16Z</time>
      </trkpt>
      <trkpt lat="41.528863798" lon="2.340876682">
        <ele>397.60</ele>
        <time>2014-05-04T10:10:24Z</time>
      </trkpt>
      <trkpt lat="41.529001094" lon="2.340961423">
        <ele>398.60</ele>
        <time>2014-05-04T10:10:33Z</time>
      </trkpt>
      <trkpt lat="41.529104275" lon="2.341039626">
        <ele>399.60</ele>
        <time>2014-05-04T10:10:40Z</time>
      </trkpt>
      <trkpt lat="41.529259424" lon="2.341140879">
        <ele>400.50</ele>
        <time>2014-05-04T10:10:49Z</time>
      </trkpt>
      <trkpt lat="41.529376519" lon="2.341223190">
        <ele>401.00</ele>
        <time>2014-05-04T10:10:56Z</time>
      </trkpt>
      <trkpt lat="41.529528651" lon="2.341320923">
        <ele>402.00</ele>
        <time>2014-05-04T10:11:05Z</time>
      </trkpt>
      <trkpt lat="41.529662007" lon="2.341417315">
        <ele>402.90</ele>
        <time>2014-05-04T10:11:13Z</time>
      </trkpt>
      <trkpt lat="41.529798129" lon="2.341514377">
        <ele>403.40</ele>
        <time>2014-05-04T10:11:21Z</time>
      </trkpt>
      <trkpt lat="41.529944561" lon="2.341632897">
        <ele>404.40</ele>
        <time>2014-05-04T10:11:30Z</time>
      </trkpt>
      <trkpt lat="41.530106164" lon="2.341748651">
        <ele>405.80</ele>
        <time>2014-05-04T10:11:39Z</time>
      </trkpt>
      <trkpt lat="41.530251003" lon="2.341855604">
        <ele>406.80</ele>
        <time>2014-05-04T10:11:48Z</time>
      </trkpt>
      <trkpt lat="41.530420485" lon="2.341991475">
        <ele>408.70</ele>
        <time>2014-05-04T10:11:59Z</time>
      </trkpt>
      <trkpt lat="41.530539340" lon="2.342101362">
        <ele>409.70</ele>
        <time>2014-05-04T10:12:07Z</time>
      </trkpt>
      <trkpt lat="41.530686778" lon="2.342228515">
        <ele>411.60</ele>
        <time>2014-05-04T10:12:17Z</time>
      </trkpt>
      <trkpt lat="41.530787445" lon="2.342326835">
        <ele>412.50</ele>
        <time>2014-05-04T10:12:24Z</time>
      </trkpt>
      <trkpt lat="41.530956675" lon="2.342384754">
        <ele>413.50</ele>
        <time>2014-05-04T10:12:33Z</time>
      </trkpt>
      <trkpt lat="41.531169157" lon="2.342392046">
        <ele>414.00</ele>
        <time>2014-05-04T10:12:42Z</time>
      </trkpt>
      <trkpt lat="41.531381554" lon="2.342368828">
        <ele>415.00</ele>
        <time>2014-05-04T10:12:51Z</time>
      </trkpt>
      <trkpt lat="41.531574673" lon="2.342339408">
        <ele>415.40</ele>
        <time>2014-05-04T10:12:59Z</time>
      </trkpt>
      <trkpt lat="41.531781455" lon="2.342320213">
        <ele>416.90</ele>
        <time>2014-05-04T10:13:08Z</time>
      </trkpt>
      <trkpt lat="41.531891425" lon="2.342304371">
        <ele>417.40</ele>
        <time>2014-05-04T10:13:13Z</time>
      </trkpt>
      <trkpt lat="41.531983291" lon="2.342301270">
        <ele>417.40</ele>
        <time>2014-05-04T10:13:18Z</time>
      </trkpt>
      <trkpt lat="41.532126538" lon="2.342162130">
        <ele>418.30</ele>
        <time>2014-05-04T10:13:26Z</time>
      </trkpt>
      <trkpt lat="41.532176494" lon="2.342107480">
        <ele>418.30</ele>
        <time>2014-05-04T10:13:31Z</time>
      </trkpt>
      <trkpt lat="41.532189150" lon="2.342098428">
        <ele>418.80</ele>
        <time>2014-05-04T10:13:39Z</time>
      </trkpt>
      <trkpt lat="41.532175236" lon="2.342076719">
        <ele>418.80</ele>
        <time>2014-05-04T10:13:56Z</time>
      </trkpt>
      <trkpt lat="41.532180266" lon="2.342079569">
        <ele>418.80</ele>
        <time>2014-05-04T10:14:11Z</time>
      </trkpt>
      <trkpt lat="41.532182948" lon="2.342083257">
        <ele>418.80</ele>
        <time>2014-05-04T10:14:29Z</time>
      </trkpt>
      <trkpt lat="41.532186217" lon="2.342092393">
        <ele>418.80</ele>
        <time>2014-05-04T10:14:45Z</time>
      </trkpt>
      <trkpt lat="41.532190827" lon="2.342112510">
        <ele>418.80</ele>
        <time>2014-05-04T10:15:02Z</time>
      </trkpt>
      <trkpt lat="41.532202226" lon="2.342106307">
        <ele>418.80</ele>
        <time>2014-05-04T10:15:27Z</time>
      </trkpt>
      <trkpt lat="41.532183954" lon="2.342119215">
        <ele>418.80</ele>
        <time>2014-05-04T10:15:50Z</time>
      </trkpt>
      <trkpt lat="41.532196946" lon="2.342112761">
        <ele>418.80</ele>
        <time>2014-05-04T10:16:10Z</time>
      </trkpt>
      <trkpt lat="41.532182696" lon="2.342097338">
        <ele>418.80</ele>
        <time>2014-05-04T10:16:33Z</time>
      </trkpt>
      <trkpt lat="41.532183786" lon="2.342121143">
        <ele>418.80</ele>
        <time>2014-05-04T10:16:51Z</time>
      </trkpt>
      <trkpt lat="41.532184708" lon="2.342098763">
        <ele>418.80</ele>
        <time>2014-05-04T10:17:14Z</time>
      </trkpt>
      <trkpt lat="41.532173812" lon="2.342075126">
        <ele>418.80</ele>
        <time>2014-05-04T10:17:33Z</time>
      </trkpt>
      <trkpt lat="41.532158054" lon="2.342088118">
        <ele>418.80</ele>
        <time>2014-05-04T10:17:55Z</time>
      </trkpt>
      <trkpt lat="41.532155371" lon="2.342080742">
        <ele>418.80</ele>
        <time>2014-05-04T10:18:17Z</time>
      </trkpt>
      <trkpt lat="41.532139110" lon="2.342084849">
        <ele>418.80</ele>
        <time>2014-05-04T10:18:38Z</time>
      </trkpt>
      <trkpt lat="41.532147744" lon="2.342068505">
        <ele>418.80</ele>
        <time>2014-05-04T10:18:57Z</time>
      </trkpt>
      <trkpt lat="41.532171465" lon="2.342070013">
        <ele>418.80</ele>
        <time>2014-05-04T10:19:24Z</time>
      </trkpt>
      <trkpt lat="41.532170962" lon="2.342075797">
        <ele>419.30</ele>
        <time>2014-05-04T10:19:46Z</time>
      </trkpt>
      <trkpt lat="41.532159227" lon="2.342074037">
        <ele>419.30</ele>
        <time>2014-05-04T10:20:09Z</time>
      </trkpt>
      <trkpt lat="41.532157215" lon="2.342084514">
        <ele>419.30</ele>
        <time>2014-05-04T10:20:33Z</time>
      </trkpt>
      <trkpt lat="41.532160400" lon="2.342081580">
        <ele>419.30</ele>
        <time>2014-05-04T10:20:50Z</time>
      </trkpt>
      <trkpt lat="41.532178589" lon="2.342097171">
        <ele>419.30</ele>
        <time>2014-05-04T10:21:10Z</time>
      </trkpt>
      <trkpt lat="41.532174566" lon="2.342089459">
        <ele>419.30</ele>
        <time>2014-05-04T10:21:33Z</time>
      </trkpt>
      <trkpt lat="41.532185798" lon="2.342073953">
        <ele>419.30</ele>
        <time>2014-05-04T10:21:59Z</time>
      </trkpt>
      <trkpt lat="41.532179176" lon="2.342079736">
        <ele>419.30</ele>
        <time>2014-05-04T10:22:20Z</time>
      </trkpt>
      <trkpt lat="41.532173644" lon="2.342098093">
        <ele>419.30</ele>
        <time>2014-05-04T10:22:44Z</time>
      </trkpt>
      <trkpt lat="41.532171967" lon="2.342081916">
        <ele>419.30</ele>
        <time>2014-05-04T10:23:06Z</time>
      </trkpt>
      <trkpt lat="41.532185127" lon="2.342092393">
        <ele>419.30</ele>
        <time>2014-05-04T10:23:31Z</time>
      </trkpt>
      <trkpt lat="41.532175823" lon="2.342087280">
        <ele>418.80</ele>
        <time>2014-05-04T10:23:55Z</time>
      </trkpt>
      <trkpt lat="41.532164005" lon="2.342097841">
        <ele>418.80</ele>
        <time>2014-05-04T10:24:23Z</time>
      </trkpt>
      <trkpt lat="41.532162999" lon="2.342095075">
        <ele>418.80</ele>
        <time>2014-05-04T10:24:44Z</time>
      </trkpt>
      <trkpt lat="41.532164005" lon="2.342077641">
        <ele>418.80</ele>
        <time>2014-05-04T10:25:07Z</time>
      </trkpt>
      <trkpt lat="41.532190743" lon="2.342076719">
        <ele>418.80</ele>
        <time>2014-05-04T10:25:29Z</time>
      </trkpt>
      <trkpt lat="41.532196862" lon="2.342099099">
        <ele>418.80</ele>
        <time>2014-05-04T10:25:45Z</time>
      </trkpt>
      <trkpt lat="41.532201137" lon="2.342108151">
        <ele>418.80</ele>
        <time>2014-05-04T10:25:51Z</time>
      </trkpt>
      <trkpt lat="41.532193090" lon="2.342138493">
        <ele>418.80</ele>
        <time>2014-05-04T10:25:57Z</time>
      </trkpt>
      <trkpt lat="41.532157132" lon="2.342252990">
        <ele>418.80</ele>
        <time>2014-05-04T10:26:02Z</time>
      </trkpt>
      <trkpt lat="41.532250841" lon="2.342370840">
        <ele>418.80</ele>
        <time>2014-05-04T10:26:08Z</time>
      </trkpt>
      <trkpt lat="41.532383778" lon="2.342434375">
        <ele>420.20</ele>
        <time>2014-05-04T10:26:16Z</time>
      </trkpt>
      <trkpt lat="41.532503639" lon="2.342507716">
        <ele>422.20</ele>
        <time>2014-05-04T10:26:24Z</time>
      </trkpt>
      <trkpt lat="41.532605563" lon="2.342577370">
        <ele>424.10</ele>
        <time>2014-05-04T10:26:32Z</time>
      </trkpt>
      <trkpt lat="41.532617969" lon="2.342589859">
        <ele>424.10</ele>
        <time>2014-05-04T10:26:33Z</time>
      </trkpt>
      <trkpt lat="41.532698938" lon="2.342629338">
        <ele>426.00</ele>
        <time>2014-05-04T10:26:39Z</time>
      </trkpt>
      <trkpt lat="41.532833886" lon="2.342721706">
        <ele>427.40</ele>
        <time>2014-05-04T10:26:48Z</time>
      </trkpt>
      <trkpt lat="41.532900103" lon="2.342753893">
        <ele>427.90</ele>
        <time>2014-05-04T10:26:52Z</time>
      </trkpt>
      <trkpt lat="41.533016444" lon="2.342789013">
        <ele>429.40</ele>
        <time>2014-05-04T10:27:00Z</time>
      </trkpt>
      <trkpt lat="41.533129181" lon="2.342809046">
        <ele>430.30</ele>
        <time>2014-05-04T10:27:07Z</time>
      </trkpt>
      <trkpt lat="41.533284246" lon="2.342824049">
        <ele>431.30</ele>
        <time>2014-05-04T10:27:16Z</time>
      </trkpt>
      <trkpt lat="41.533466050" lon="2.342835700">
        <ele>432.30</ele>
        <time>2014-05-04T10:27:26Z</time>
      </trkpt>
      <trkpt lat="41.533647099" lon="2.342848273">
        <ele>434.70</ele>
        <time>2014-05-04T10:27:36Z</time>
      </trkpt>
      <trkpt lat="41.533785987" lon="2.342848860">
        <ele>436.10</ele>
        <time>2014-05-04T10:27:44Z</time>
      </trkpt>
      <trkpt lat="41.533962426" lon="2.342869731">
        <ele>438.00</ele>
        <time>2014-05-04T10:27:55Z</time>
      </trkpt>
      <trkpt lat="41.534117994" lon="2.342881214">
        <ele>439.90</ele>
        <time>2014-05-04T10:28:04Z</time>
      </trkpt>
      <trkpt lat="41.534226959" lon="2.342905941">
        <ele>440.40</ele>
        <time>2014-05-04T10:28:10Z</time>
      </trkpt>
      <trkpt lat="41.534396525" lon="2.342911892">
        <ele>442.30</ele>
        <time>2014-05-04T10:28:20Z</time>
      </trkpt>
      <trkpt lat="41.534552847" lon="2.342929158">
        <ele>443.30</ele>
        <time>2014-05-04T10:28:28Z</time>
      </trkpt>
      <trkpt lat="41.534752169" lon="2.342943491">
        <ele>444.30</ele>
        <time>2014-05-04T10:28:38Z</time>
      </trkpt>
      <trkpt lat="41.534890303" lon="2.342944246">
        <ele>444.30</ele>
        <time>2014-05-04T10:28:45Z</time>
      </trkpt>
      <trkpt lat="41.535005721" lon="2.342960591">
        <ele>442.80</ele>
        <time>2014-05-04T10:28:48Z</time>
      </trkpt>
      <trkpt lat="41.535279474" lon="2.343042482">
        <ele>441.40</ele>
        <time>2014-05-04T10:28:53Z</time>
      </trkpt>
      <trkpt lat="41.535678872" lon="2.343321934">
        <ele>439.50</ele>
        <time>2014-05-04T10:29:00Z</time>
      </trkpt>
      <trkpt lat="41.535828489" lon="2.343455626">
        <ele>439.50</ele>
        <time>2014-05-04T10:29:03Z</time>
      </trkpt>
      <trkpt lat="41.536176925" lon="2.343785286">
        <ele>438.50</ele>
        <time>2014-05-04T10:29:11Z</time>
      </trkpt>
      <trkpt lat="41.536472471" lon="2.344022326">
        <ele>439.00</ele>
        <time>2014-05-04T10:29:19Z</time>
      </trkpt>
      <trkpt lat="41.536761059" lon="2.344300186">
        <ele>439.00</ele>
        <time>2014-05-04T10:29:26Z</time>
      </trkpt>
      <trkpt lat="41.537162050" lon="2.344699416">
        <ele>439.90</ele>
        <time>2014-05-04T10:29:36Z</time>
      </trkpt>
      <trkpt lat="41.537469414" lon="2.345035950">
        <ele>439.90</ele>
        <time>2014-05-04T10:29:44Z</time>
      </trkpt>
      <trkpt lat="41.537718524" lon="2.345318588">
        <ele>438.50</ele>
        <time>2014-05-04T10:29:50Z</time>
      </trkpt>
      <trkpt lat="41.538049609" lon="2.345653947">
        <ele>437.50</ele>
        <time>2014-05-04T10:29:58Z</time>
      </trkpt>
      <trkpt lat="41.538376168" lon="2.345894760">
        <ele>439.50</ele>
        <time>2014-05-04T10:30:07Z</time>
      </trkpt>
      <trkpt lat="41.538549925" lon="2.346050998">
        <ele>441.90</ele>
        <time>2014-05-04T10:30:14Z</time>
      </trkpt>
      <trkpt lat="41.538591667" lon="2.346065918">
        <ele>442.30</ele>
        <time>2014-05-04T10:30:16Z</time>
      </trkpt>
      <trkpt lat="41.538597367" lon="2.346102212">
        <ele>442.30</ele>
        <time>2014-05-04T10:30:21Z</time>
      </trkpt>
      <trkpt lat="41.538616142" lon="2.346113611">
        <ele>442.30</ele>
        <time>2014-05-04T10:30:33Z</time>
      </trkpt>
      <trkpt lat="41.538614634" lon="2.346130962">
        <ele>442.30</ele>
        <time>2014-05-04T10:30:49Z</time>
      </trkpt>
      <trkpt lat="41.538721000" lon="2.346238753">
        <ele>442.30</ele>
        <time>2014-05-04T10:30:57Z</time>
      </trkpt>
      <trkpt lat="41.538738267" lon="2.346258199">
        <ele>442.30</ele>
        <time>2014-05-04T10:30:58Z</time>
      </trkpt>
      <trkpt lat="41.538915292" lon="2.346534299">
        <ele>440.40</ele>
        <time>2014-05-04T10:31:04Z</time>
      </trkpt>
      <trkpt lat="41.539057449" lon="2.346806962">
        <ele>437.10</ele>
        <time>2014-05-04T10:31:08Z</time>
      </trkpt>
      <trkpt lat="41.539090223" lon="2.346869072">
        <ele>436.60</ele>
        <time>2014-05-04T10:31:09Z</time>
      </trkpt>
      <trkpt lat="41.539124253" lon="2.346938223">
        <ele>435.60</ele>
        <time>2014-05-04T10:31:10Z</time>
      </trkpt>
      <trkpt lat="41.539185441" lon="2.347085409">
        <ele>434.70</ele>
        <time>2014-05-04T10:31:12Z</time>
      </trkpt>
      <trkpt lat="41.539303458" lon="2.347270146">
        <ele>433.20</ele>
        <time>2014-05-04T10:31:15Z</time>
      </trkpt>
      <trkpt lat="41.539411250" lon="2.347336615">
        <ele>432.70</ele>
        <time>2014-05-04T10:31:17Z</time>
      </trkpt>
      <trkpt lat="41.539511078" lon="2.347372741">
        <ele>431.80</ele>
        <time>2014-05-04T10:31:19Z</time>
      </trkpt>
      <trkpt lat="41.539667904" lon="2.347457984">
        <ele>430.30</ele>
        <time>2014-05-04T10:31:22Z</time>
      </trkpt>
      <trkpt lat="41.539858173" lon="2.347569967">
        <ele>427.90</ele>
        <time>2014-05-04T10:31:25Z</time>
      </trkpt>
      <trkpt lat="41.540155479" lon="2.347738694">
        <ele>425.00</ele>
        <time>2014-05-04T10:31:29Z</time>
      </trkpt>
      <trkpt lat="41.540540627" lon="2.347818742">
        <ele>422.20</ele>
        <time>2014-05-04T10:31:34Z</time>
      </trkpt>
      <trkpt lat="41.540625955" lon="2.347832069">
        <ele>421.70</ele>
        <time>2014-05-04T10:31:35Z</time>
      </trkpt>
      <trkpt lat="41.541039183" lon="2.348063326">
        <ele>417.40</ele>
        <time>2014-05-04T10:31:40Z</time>
      </trkpt>
      <trkpt lat="41.541106825" lon="2.348139349">
        <ele>416.40</ele>
        <time>2014-05-04T10:31:41Z</time>
      </trkpt>
      <trkpt lat="41.541310589" lon="2.348370606">
        <ele>414.50</ele>
        <time>2014-05-04T10:31:44Z</time>
      </trkpt>
      <trkpt lat="41.541437239" lon="2.348478816">
        <ele>413.00</ele>
        <time>2014-05-04T10:31:46Z</time>
      </trkpt>
      <trkpt lat="41.541578475" lon="2.348683838">
        <ele>412.10</ele>
        <time>2014-05-04T10:31:51Z</time>
      </trkpt>
      <trkpt lat="41.541635388" lon="2.348982150">
        <ele>413.50</ele>
        <time>2014-05-04T10:31:59Z</time>
      </trkpt>
      <trkpt lat="41.541561208" lon="2.349279707">
        <ele>415.00</ele>
        <time>2014-05-04T10:32:07Z</time>
      </trkpt>
      <trkpt lat="41.541501612" lon="2.349550778">
        <ele>415.90</ele>
        <time>2014-05-04T10:32:13Z</time>
      </trkpt>
      <trkpt lat="41.541540085" lon="2.349852694">
        <ele>416.90</ele>
        <time>2014-05-04T10:32:20Z</time>
      </trkpt>
      <trkpt lat="41.541602950" lon="2.350133656">
        <ele>417.80</ele>
        <time>2014-05-04T10:32:27Z</time>
      </trkpt>
      <trkpt lat="41.541656594" lon="2.350391818">
        <ele>419.80</ele>
        <time>2014-05-04T10:32:34Z</time>
      </trkpt>
      <trkpt lat="41.541574200" lon="2.350605473">
        <ele>420.20</ele>
        <time>2014-05-04T10:32:41Z</time>
      </trkpt>
      <trkpt lat="41.541370184" lon="2.350845866">
        <ele>421.20</ele>
        <time>2014-05-04T10:32:50Z</time>
      </trkpt>
      <trkpt lat="41.541236660" lon="2.351077039">
        <ele>421.20</ele>
        <time>2014-05-04T10:32:57Z</time>
      </trkpt>
      <trkpt lat="41.541156949" lon="2.351345176">
        <ele>421.70</ele>
        <time>2014-05-04T10:33:04Z</time>
      </trkpt>
      <trkpt lat="41.541081428" lon="2.351586994">
        <ele>421.70</ele>
        <time>2014-05-04T10:33:11Z</time>
      </trkpt>
      <trkpt lat="41.540992412" lon="2.351859070">
        <ele>423.60</ele>
        <time>2014-05-04T10:33:19Z</time>
      </trkpt>
      <trkpt lat="41.540971122" lon="2.352133075">
        <ele>424.60</ele>
        <time>2014-05-04T10:33:27Z</time>
      </trkpt>
      <trkpt lat="41.541057036" lon="2.352396183">
        <ele>426.00</ele>
        <time>2014-05-04T10:33:35Z</time>
      </trkpt>
      <trkpt lat="41.541152925" lon="2.352680832">
        <ele>426.50</ele>
        <time>2014-05-04T10:33:43Z</time>
      </trkpt>
      <trkpt lat="41.541235152" lon="2.353045780">
        <ele>426.50</ele>
        <time>2014-05-04T10:33:52Z</time>
      </trkpt>
      <trkpt lat="41.541221657" lon="2.353386086">
        <ele>426.50</ele>
        <time>2014-05-04T10:34:00Z</time>
      </trkpt>
      <trkpt lat="41.541233056" lon="2.353578366">
        <ele>425.00</ele>
        <time>2014-05-04T10:34:04Z</time>
      </trkpt>
      <trkpt lat="41.541284856" lon="2.353808198">
        <ele>423.60</ele>
        <time>2014-05-04T10:34:08Z</time>
      </trkpt>
      <trkpt lat="41.541322324" lon="2.354202651">
        <ele>421.20</ele>
        <time>2014-05-04T10:34:14Z</time>
      </trkpt>
      <trkpt lat="41.541390720" lon="2.354566341">
        <ele>419.30</ele>
        <time>2014-05-04T10:34:19Z</time>
      </trkpt>
      <trkpt lat="41.541470097" lon="2.354903378">
        <ele>417.80</ele>
        <time>2014-05-04T10:34:24Z</time>
      </trkpt>
      <trkpt lat="41.541650894" lon="2.355367400">
        <ele>415.40</ele>
        <time>2014-05-04T10:34:30Z</time>
      </trkpt>
      <trkpt lat="41.541821885" lon="2.355870314">
        <ele>413.00</ele>
        <time>2014-05-04T10:34:37Z</time>
      </trkpt>
      <trkpt lat="41.541847115" lon="2.355939297">
        <ele>413.00</ele>
        <time>2014-05-04T10:34:38Z</time>
      </trkpt>
      <trkpt lat="41.541907716" lon="2.356071312">
        <ele>412.10</ele>
        <time>2014-05-04T10:34:40Z</time>
      </trkpt>
      <trkpt lat="41.542023051" lon="2.356253535">
        <ele>411.60</ele>
        <time>2014-05-04T10:34:43Z</time>
      </trkpt>
      <trkpt lat="41.542261935" lon="2.356750414">
        <ele>408.20</ele>
        <time>2014-05-04T10:34:50Z</time>
      </trkpt>
      <trkpt lat="41.542300659" lon="2.356835993">
        <ele>408.20</ele>
        <time>2014-05-04T10:34:51Z</time>
      </trkpt>
      <trkpt lat="41.542456563" lon="2.357184261">
        <ele>406.80</ele>
        <time>2014-05-04T10:34:55Z</time>
      </trkpt>
      <trkpt lat="41.542479110" lon="2.357660102">
        <ele>405.30</ele>
        <time>2014-05-04T10:35:00Z</time>
      </trkpt>
      <trkpt lat="41.542517331" lon="2.358030079">
        <ele>404.90</ele>
        <time>2014-05-04T10:35:06Z</time>
      </trkpt>
      <trkpt lat="41.542625793" lon="2.358140636">
        <ele>404.90</ele>
        <time>2014-05-04T10:35:10Z</time>
      </trkpt>
      <trkpt lat="41.542748001" lon="2.358510194">
        <ele>406.30</ele>
        <time>2014-05-04T10:35:18Z</time>
      </trkpt>
      <trkpt lat="41.542784127" lon="2.358676072">
        <ele>406.30</ele>
        <time>2014-05-04T10:35:22Z</time>
      </trkpt>
      <trkpt lat="41.542784882" lon="2.358980084">
        <ele>404.90</ele>
        <time>2014-05-04T10:35:27Z</time>
      </trkpt>
      <trkpt lat="41.542817404" lon="2.359221567">
        <ele>404.90</ele>
        <time>2014-05-04T10:35:31Z</time>
      </trkpt>
      <trkpt lat="41.542975067" lon="2.359621635">
        <ele>404.90</ele>
        <time>2014-05-04T10:35:39Z</time>
      </trkpt>
      <trkpt lat="41.543047906" lon="2.359746357">
        <ele>404.90</ele>
        <time>2014-05-04T10:35:42Z</time>
      </trkpt>
      <trkpt lat="41.543272960" lon="2.359975770">
        <ele>404.40</ele>
        <time>2014-05-04T10:35:49Z</time>
      </trkpt>
      <trkpt lat="41.543438838" lon="2.360029163">
        <ele>406.30</ele>
        <time>2014-05-04T10:35:55Z</time>
      </trkpt>
      <trkpt lat="41.543559789" lon="2.360048274">
        <ele>408.20</ele>
        <time>2014-05-04T10:36:01Z</time>
      </trkpt>
      <trkpt lat="41.543687026" lon="2.360095715">
        <ele>410.60</ele>
        <time>2014-05-04T10:36:08Z</time>
      </trkpt>
      <trkpt lat="41.543751902" lon="2.360187665">
        <ele>412.50</ele>
        <time>2014-05-04T10:36:15Z</time>
      </trkpt>
      <trkpt lat="41.543786603" lon="2.360288667">
        <ele>413.50</ele>
        <time>2014-05-04T10:36:20Z</time>
      </trkpt>
      <trkpt lat="41.543758105" lon="2.360397212">
        <ele>415.00</ele>
        <time>2014-05-04T10:36:26Z</time>
      </trkpt>
      <trkpt lat="41.543748968" lon="2.360495281">
        <ele>415.40</ele>
        <time>2014-05-04T10:36:30Z</time>
      </trkpt>
      <trkpt lat="41.543758775" lon="2.360601312">
        <ele>415.90</ele>
        <time>2014-05-04T10:36:35Z</time>
      </trkpt>
      <trkpt lat="41.543759781" lon="2.360735254">
        <ele>417.40</ele>
        <time>2014-05-04T10:36:42Z</time>
      </trkpt>
      <trkpt lat="41.543787777" lon="2.360896103">
        <ele>419.30</ele>
        <time>2014-05-04T10:36:51Z</time>
      </trkpt>
      <trkpt lat="41.543820717" lon="2.360985622">
        <ele>420.70</ele>
        <time>2014-05-04T10:36:55Z</time>
      </trkpt>
      <trkpt lat="41.543890874" lon="2.361081678">
        <ele>422.20</ele>
        <time>2014-05-04T10:37:02Z</time>
      </trkpt>
      <trkpt lat="41.544022889" lon="2.361186368">
        <ele>422.20</ele>
        <time>2014-05-04T10:37:07Z</time>
      </trkpt>
      <trkpt lat="41.544107043" lon="2.361258788">
        <ele>420.70</ele>
        <time>2014-05-04T10:37:09Z</time>
      </trkpt>
      <trkpt lat="41.544317429" lon="2.361414272">
        <ele>419.80</ele>
        <time>2014-05-04T10:37:13Z</time>
      </trkpt>
      <trkpt lat="41.544534688" lon="2.361545198">
        <ele>419.80</ele>
        <time>2014-05-04T10:37:18Z</time>
      </trkpt>
      <trkpt lat="41.544728729" lon="2.361696826">
        <ele>421.20</ele>
        <time>2014-05-04T10:37:27Z</time>
      </trkpt>
      <trkpt lat="41.544756557" lon="2.361938896">
        <ele>421.70</ele>
        <time>2014-05-04T10:37:34Z</time>
      </trkpt>
      <trkpt lat="41.544658740" lon="2.362152634">
        <ele>422.60</ele>
        <time>2014-05-04T10:37:41Z</time>
      </trkpt>
      <trkpt lat="41.544479870" lon="2.362462346">
        <ele>422.60</ele>
        <time>2014-05-04T10:37:50Z</time>
      </trkpt>
      <trkpt lat="41.544332600" lon="2.362648089">
        <ele>422.60</ele>
        <time>2014-05-04T10:37:56Z</time>
      </trkpt>
      <trkpt lat="41.544240986" lon="2.362845650">
        <ele>421.20</ele>
        <time>2014-05-04T10:38:00Z</time>
      </trkpt>
      <trkpt lat="41.544264958" lon="2.363131473">
        <ele>420.70</ele>
        <time>2014-05-04T10:38:05Z</time>
      </trkpt>
      <trkpt lat="41.544400577" lon="2.363277067">
        <ele>420.20</ele>
        <time>2014-05-04T10:38:09Z</time>
      </trkpt>
      <trkpt lat="41.544445421" lon="2.363290729">
        <ele>419.80</ele>
        <time>2014-05-04T10:38:10Z</time>
      </trkpt>
      <trkpt lat="41.544899301" lon="2.363351917">
        <ele>417.80</ele>
        <time>2014-05-04T10:38:18Z</time>
      </trkpt>
      <trkpt lat="41.545152350" lon="2.363398604">
        <ele>417.40</ele>
        <time>2014-05-04T10:38:22Z</time>
      </trkpt>
      <trkpt lat="41.545438509" lon="2.363671351">
        <ele>416.40</ele>
        <time>2014-05-04T10:38:28Z</time>
      </trkpt>
      <trkpt lat="41.545603716" lon="2.364182144">
        <ele>415.90</ele>
        <time>2014-05-04T10:38:37Z</time>
      </trkpt>
      <trkpt lat="41.545676052" lon="2.364624960">
        <ele>414.50</ele>
        <time>2014-05-04T10:38:43Z</time>
      </trkpt>
      <trkpt lat="41.545682673" lon="2.364842806">
        <ele>413.50</ele>
        <time>2014-05-04T10:38:46Z</time>
      </trkpt>
      <trkpt lat="41.545669179" lon="2.364959482">
        <ele>412.50</ele>
        <time>2014-05-04T10:38:48Z</time>
      </trkpt>
      <trkpt lat="41.545654259" lon="2.365093844">
        <ele>411.10</ele>
        <time>2014-05-04T10:38:51Z</time>
      </trkpt>
      <trkpt lat="41.545667083" lon="2.365144974">
        <ele>410.10</ele>
        <time>2014-05-04T10:38:55Z</time>
      </trkpt>
      <trkpt lat="41.545665910" lon="2.365169616">
        <ele>410.60</ele>
        <time>2014-05-04T10:39:08Z</time>
      </trkpt>
      <trkpt lat="41.545674543" lon="2.365172802">
        <ele>410.60</ele>
        <time>2014-05-04T10:39:18Z</time>
      </trkpt>
      <trkpt lat="41.545678147" lon="2.365177747">
        <ele>410.60</ele>
        <time>2014-05-04T10:39:29Z</time>
      </trkpt>
      <trkpt lat="41.545673369" lon="2.365182525">
        <ele>410.60</ele>
        <time>2014-05-04T10:39:41Z</time>
      </trkpt>
      <trkpt lat="41.545674878" lon="2.365184872">
        <ele>410.60</ele>
        <time>2014-05-04T10:39:48Z</time>
      </trkpt>
      <trkpt lat="41.545708993" lon="2.365127539">
        <ele>410.60</ele>
        <time>2014-05-04T10:39:52Z</time>
      </trkpt>
      <trkpt lat="41.545792309" lon="2.364918914">
        <ele>408.70</ele>
        <time>2014-05-04T10:40:00Z</time>
      </trkpt>
      <trkpt lat="41.545823908" lon="2.364838112">
        <ele>407.70</ele>
        <time>2014-05-04T10:40:02Z</time>
      </trkpt>
      <trkpt lat="41.545922396" lon="2.364676593">
        <ele>406.80</ele>
        <time>2014-05-04T10:40:06Z</time>
      </trkpt>
      <trkpt lat="41.546139068" lon="2.364552122">
        <ele>405.80</ele>
        <time>2014-05-04T10:40:11Z</time>
      </trkpt>
      <trkpt lat="41.546253732" lon="2.364528904">
        <ele>405.30</ele>
        <time>2014-05-04T10:40:13Z</time>
      </trkpt>
      <trkpt lat="41.546491108" lon="2.364580620">
        <ele>403.90</ele>
        <time>2014-05-04T10:40:17Z</time>
      </trkpt>
      <trkpt lat="41.546728400" lon="2.364775499">
        <ele>402.50</ele>
        <time>2014-05-04T10:40:22Z</time>
      </trkpt>
      <trkpt lat="41.546929146" lon="2.364769129">
        <ele>401.50</ele>
        <time>2014-05-04T10:40:27Z</time>
      </trkpt>
      <trkpt lat="41.547020425" lon="2.364568215">
        <ele>400.10</ele>
        <time>2014-05-04T10:40:30Z</time>
      </trkpt>
      <trkpt lat="41.547066609" lon="2.364404516">
        <ele>399.60</ele>
        <time>2014-05-04T10:40:32Z</time>
      </trkpt>
      <trkpt lat="41.547226285" lon="2.364233693">
        <ele>399.10</ele>
        <time>2014-05-04T10:40:36Z</time>
      </trkpt>
      <trkpt lat="41.547275822" lon="2.364226652">
        <ele>399.10</ele>
        <time>2014-05-04T10:40:37Z</time>
      </trkpt>
      <trkpt lat="41.547476317" lon="2.364229083">
        <ele>398.60</ele>
        <time>2014-05-04T10:40:41Z</time>
      </trkpt>
      <trkpt lat="41.547839086" lon="2.364179295">
        <ele>397.20</ele>
        <time>2014-05-04T10:40:47Z</time>
      </trkpt>
      <trkpt lat="41.548053327" lon="2.363995731">
        <ele>396.70</ele>
        <time>2014-05-04T10:40:52Z</time>
      </trkpt>
      <trkpt lat="41.548078808" lon="2.363936890">
        <ele>396.20</ele>
        <time>2014-05-04T10:40:53Z</time>
      </trkpt>
      <trkpt lat="41.548274861" lon="2.363441519">
        <ele>394.30</ele>
        <time>2014-05-04T10:41:01Z</time>
      </trkpt>
      <trkpt lat="41.548371336" lon="2.363216382">
        <ele>392.80</ele>
        <time>2014-05-04T10:41:05Z</time>
      </trkpt>
      <trkpt lat="41.548406289" lon="2.362956626">
        <ele>391.90</ele>
        <time>2014-05-04T10:41:09Z</time>
      </trkpt>
      <trkpt lat="41.548418610" lon="2.362740541">
        <ele>391.90</ele>
        <time>2014-05-04T10:41:12Z</time>
      </trkpt>
      <trkpt lat="41.548393549" lon="2.362540046">
        <ele>391.90</ele>
        <time>2014-05-04T10:41:15Z</time>
      </trkpt>
      <trkpt lat="41.548258265" lon="2.362203596">
        <ele>391.90</ele>
        <time>2014-05-04T10:41:21Z</time>
      </trkpt>
      <trkpt lat="41.548179894" lon="2.361984493">
        <ele>391.90</ele>
        <time>2014-05-04T10:41:25Z</time>
      </trkpt>
      <trkpt lat="41.548175032" lon="2.361663466">
        <ele>390.40</ele>
        <time>2014-05-04T10:41:30Z</time>
      </trkpt>
      <trkpt lat="41.548334121" lon="2.361470012">
        <ele>389.50</ele>
        <time>2014-05-04T10:41:34Z</time>
      </trkpt>
      <trkpt lat="41.548619441" lon="2.361408154">
        <ele>387.60</ele>
        <time>2014-05-04T10:41:39Z</time>
      </trkpt>
      <trkpt lat="41.548746678" lon="2.361440172">
        <ele>387.10</ele>
        <time>2014-05-04T10:41:41Z</time>
      </trkpt>
      <trkpt lat="41.548947676" lon="2.361542515">
        <ele>384.70</ele>
        <time>2014-05-04T10:41:44Z</time>
      </trkpt>
      <trkpt lat="41.549169377" lon="2.361544695">
        <ele>381.80</ele>
        <time>2014-05-04T10:41:48Z</time>
      </trkpt>
      <trkpt lat="41.549220591" lon="2.361485351">
        <ele>380.80</ele>
        <time>2014-05-04T10:41:52Z</time>
      </trkpt>
      <trkpt lat="41.549225620" lon="2.361490045">
        <ele>380.80</ele>
        <time>2014-05-04T10:41:53Z</time>
      </trkpt>
      <trkpt lat="41.549218160" lon="2.361541677">
        <ele>381.30</ele>
        <time>2014-05-04T10:41:57Z</time>
      </trkpt>
      <trkpt lat="41.549197205" lon="2.361572858">
        <ele>381.30</ele>
        <time>2014-05-04T10:42:01Z</time>
      </trkpt>
      <trkpt lat="41.549153620" lon="2.361664053">
        <ele>379.90</ele>
        <time>2014-05-04T10:42:07Z</time>
      </trkpt>
      <trkpt lat="41.549081619" lon="2.361671010">
        <ele>378.40</ele>
        <time>2014-05-04T10:42:12Z</time>
      </trkpt>
      <trkpt lat="41.548927392" lon="2.361765306">
        <ele>376.50</ele>
        <time>2014-05-04T10:42:19Z</time>
      </trkpt>
      <trkpt lat="41.548836951" lon="2.361891035">
        <ele>375.10</ele>
        <time>2014-05-04T10:42:24Z</time>
      </trkpt>
      <trkpt lat="41.548825887" lon="2.361956749">
        <ele>374.10</ele>
        <time>2014-05-04T10:42:26Z</time>
      </trkpt>
      <trkpt lat="41.548820523" lon="2.362130087">
        <ele>371.20</ele>
        <time>2014-05-04T10:42:32Z</time>
      </trkpt>
      <trkpt lat="41.548895289" lon="2.362354554">
        <ele>368.30</ele>
        <time>2014-05-04T10:42:37Z</time>
      </trkpt>
      <trkpt lat="41.548939127" lon="2.362515822">
        <ele>366.40</ele>
        <time>2014-05-04T10:42:41Z</time>
      </trkpt>
      <trkpt lat="41.548960668" lon="2.362649094">
        <ele>365.40</ele>
        <time>2014-05-04T10:42:45Z</time>
      </trkpt>
      <trkpt lat="41.549039290" lon="2.363024855">
        <ele>362.10</ele>
        <time>2014-05-04T10:42:51Z</time>
      </trkpt>
      <trkpt lat="41.549051779" lon="2.363091156">
        <ele>362.10</ele>
        <time>2014-05-04T10:42:52Z</time>
      </trkpt>
      <trkpt lat="41.549110453" lon="2.363346133">
        <ele>360.20</ele>
        <time>2014-05-04T10:42:57Z</time>
      </trkpt>
      <trkpt lat="41.549172730" lon="2.363610499">
        <ele>357.80</ele>
        <time>2014-05-04T10:43:03Z</time>
      </trkpt>
      <trkpt lat="41.549177927" lon="2.363638913">
        <ele>357.80</ele>
        <time>2014-05-04T10:43:04Z</time>
      </trkpt>
      <trkpt lat="41.549250179" lon="2.363713596">
        <ele>356.30</ele>
        <time>2014-05-04T10:43:09Z</time>
      </trkpt>
      <trkpt lat="41.549278258" lon="2.363634639">
        <ele>354.90</ele>
        <time>2014-05-04T10:43:14Z</time>
      </trkpt>
      <trkpt lat="41.549277839" lon="2.363620473">
        <ele>354.90</ele>
        <time>2014-05-04T10:43:15Z</time>
      </trkpt>
      <trkpt lat="41.549255376" lon="2.363441184">
        <ele>352.90</ele>
        <time>2014-05-04T10:43:22Z</time>
      </trkpt>
      <trkpt lat="41.549249089" lon="2.363373207">
        <ele>352.00</ele>
        <time>2014-05-04T10:43:24Z</time>
      </trkpt>
      <trkpt lat="41.549320671" lon="2.363395168">
        <ele>351.00</ele>
        <time>2014-05-04T10:43:28Z</time>
      </trkpt>
      <trkpt lat="41.549430725" lon="2.363692306">
        <ele>349.10</ele>
        <time>2014-05-04T10:43:35Z</time>
      </trkpt>
      <trkpt lat="41.549569530" lon="2.363901267">
        <ele>346.70</ele>
        <time>2014-05-04T10:43:41Z</time>
      </trkpt>
      <trkpt lat="41.549551844" lon="2.364069911">
        <ele>345.30</ele>
        <time>2014-05-04T10:43:46Z</time>
      </trkpt>
      <trkpt lat="41.549476574" lon="2.364209050">
        <ele>343.30</ele>
        <time>2014-05-04T10:43:51Z</time>
      </trkpt>
      <trkpt lat="41.549354031" lon="2.364240482">
        <ele>342.40</ele>
        <time>2014-05-04T10:43:57Z</time>
      </trkpt>
      <trkpt lat="41.549390408" lon="2.364289852">
        <ele>341.40</ele>
        <time>2014-05-04T10:44:00Z</time>
      </trkpt>
      <trkpt lat="41.549518903" lon="2.364287924">
        <ele>340.00</ele>
        <time>2014-05-04T10:44:05Z</time>
      </trkpt>
      <trkpt lat="41.549570368" lon="2.364289181">
        <ele>339.00</ele>
        <time>2014-05-04T10:44:07Z</time>
      </trkpt>
      <trkpt lat="41.549674136" lon="2.364218690">
        <ele>337.60</ele>
        <time>2014-05-04T10:44:12Z</time>
      </trkpt>
      <trkpt lat="41.549769103" lon="2.363981985">
        <ele>335.20</ele>
        <time>2014-05-04T10:44:20Z</time>
      </trkpt>
      <trkpt lat="41.549804558" lon="2.363833793">
        <ele>333.20</ele>
        <time>2014-05-04T10:44:25Z</time>
      </trkpt>
      <trkpt lat="41.549915115" lon="2.363898417">
        <ele>330.80</ele>
        <time>2014-05-04T10:44:30Z</time>
      </trkpt>
      <trkpt lat="41.550079904" lon="2.363997240">
        <ele>329.40</ele>
        <time>2014-05-04T10:44:35Z</time>
      </trkpt>
      <trkpt lat="41.550141092" lon="2.364169069">
        <ele>328.00</ele>
        <time>2014-05-04T10:44:40Z</time>
      </trkpt>
      <trkpt lat="41.550096500" lon="2.364361182">
        <ele>326.50</ele>
        <time>2014-05-04T10:44:45Z</time>
      </trkpt>
      <trkpt lat="41.550084514" lon="2.364399403">
        <ele>325.50</ele>
        <time>2014-05-04T10:44:46Z</time>
      </trkpt>
      <trkpt lat="41.549994324" lon="2.364607777">
        <ele>324.10</ele>
        <time>2014-05-04T10:44:53Z</time>
      </trkpt>
      <trkpt lat="41.549975130" lon="2.364713641">
        <ele>323.10</ele>
        <time>2014-05-04T10:44:58Z</time>
      </trkpt>
      <trkpt lat="41.550074288" lon="2.364802573">
        <ele>320.30</ele>
        <time>2014-05-04T10:45:03Z</time>
      </trkpt>
      <trkpt lat="41.550110581" lon="2.364790168">
        <ele>319.80</ele>
        <time>2014-05-04T10:45:04Z</time>
      </trkpt>
      <trkpt lat="41.550283081" lon="2.364644323">
        <ele>317.90</ele>
        <time>2014-05-04T10:45:10Z</time>
      </trkpt>
      <trkpt lat="41.550346029" lon="2.364563605">
        <ele>316.90</ele>
        <time>2014-05-04T10:45:13Z</time>
      </trkpt>
      <trkpt lat="41.550419790" lon="2.364368809">
        <ele>315.00</ele>
        <time>2014-05-04T10:45:19Z</time>
      </trkpt>
      <trkpt lat="41.550458011" lon="2.364271663">
        <ele>314.00</ele>
        <time>2014-05-04T10:45:22Z</time>
      </trkpt>
      <trkpt lat="41.550518193" lon="2.364296641">
        <ele>312.60</ele>
        <time>2014-05-04T10:45:26Z</time>
      </trkpt>
      <trkpt lat="41.550494221" lon="2.364373336">
        <ele>311.60</ele>
        <time>2014-05-04T10:45:29Z</time>
      </trkpt>
      <trkpt lat="41.550479469" lon="2.364643987">
        <ele>310.20</ele>
        <time>2014-05-04T10:45:36Z</time>
      </trkpt>
      <trkpt lat="41.550444600" lon="2.364935678">
        <ele>309.20</ele>
        <time>2014-05-04T10:45:42Z</time>
      </trkpt>
      <trkpt lat="41.550403864" lon="2.365140447">
        <ele>306.80</ele>
        <time>2014-05-04T10:45:48Z</time>
      </trkpt>
      <trkpt lat="41.550412749" lon="2.365318814">
        <ele>305.40</ele>
        <time>2014-05-04T10:45:53Z</time>
      </trkpt>
      <trkpt lat="41.550443259" lon="2.365573792">
        <ele>303.90</ele>
        <time>2014-05-04T10:45:59Z</time>
      </trkpt>
      <trkpt lat="41.550484666" lon="2.365875457">
        <ele>302.00</ele>
        <time>2014-05-04T10:46:06Z</time>
      </trkpt>
      <trkpt lat="41.550541327" lon="2.366054829">
        <ele>301.50</ele>
        <time>2014-05-04T10:46:10Z</time>
      </trkpt>
      <trkpt lat="41.550490282" lon="2.366210230">
        <ele>301.00</ele>
        <time>2014-05-04T10:46:14Z</time>
      </trkpt>
      <trkpt lat="41.550362290" lon="2.366217941">
        <ele>300.10</ele>
        <time>2014-05-04T10:46:18Z</time>
      </trkpt>
      <trkpt lat="41.550282075" lon="2.366197405">
        <ele>299.10</ele>
        <time>2014-05-04T10:46:22Z</time>
      </trkpt>
      <trkpt lat="41.550247961" lon="2.366239734">
        <ele>299.10</ele>
        <time>2014-05-04T10:46:26Z</time>
      </trkpt>
      <trkpt lat="41.550307808" lon="2.366369989">
        <ele>297.70</ele>
        <time>2014-05-04T10:46:32Z</time>
      </trkpt>
      <trkpt lat="41.550384334" lon="2.366487419">
        <ele>296.70</ele>
        <time>2014-05-04T10:46:36Z</time>
      </trkpt>
      <trkpt lat="41.550459688" lon="2.366573501">
        <ele>295.70</ele>
        <time>2014-05-04T10:46:39Z</time>
      </trkpt>
      <trkpt lat="41.550591786" lon="2.366609292">
        <ele>294.80</ele>
        <time>2014-05-04T10:46:43Z</time>
      </trkpt>
      <trkpt lat="41.550760849" lon="2.366550954">
        <ele>291.90</ele>
        <time>2014-05-04T10:46:49Z</time>
      </trkpt>
      <trkpt lat="41.550906611" lon="2.366470069">
        <ele>288.50</ele>
        <time>2014-05-04T10:46:54Z</time>
      </trkpt>
      <trkpt lat="41.550993028" lon="2.366280219">
        <ele>285.70</ele>
        <time>2014-05-04T10:46:59Z</time>
      </trkpt>
      <trkpt lat="41.551053881" lon="2.366130183">
        <ele>284.20</ele>
        <time>2014-05-04T10:47:02Z</time>
      </trkpt>
      <trkpt lat="41.551114314" lon="2.365960784">
        <ele>282.80</ele>
        <time>2014-05-04T10:47:05Z</time>
      </trkpt>
      <trkpt lat="41.551194529" lon="2.365710333">
        <ele>279.90</ele>
        <time>2014-05-04T10:47:10Z</time>
      </trkpt>
      <trkpt lat="41.551281030" lon="2.365518052">
        <ele>277.00</ele>
        <time>2014-05-04T10:47:15Z</time>
      </trkpt>
      <trkpt lat="41.551307433" lon="2.365470611">
        <ele>276.50</ele>
        <time>2014-05-04T10:47:16Z</time>
      </trkpt>
      <trkpt lat="41.551433581" lon="2.365153104">
        <ele>272.70</ele>
        <time>2014-05-04T10:47:23Z</time>
      </trkpt>
      <trkpt lat="41.551462750" lon="2.365080685">
        <ele>272.20</ele>
        <time>2014-05-04T10:47:25Z</time>
      </trkpt>
      <trkpt lat="41.551530308" lon="2.365018994">
        <ele>270.30</ele>
        <time>2014-05-04T10:47:29Z</time>
      </trkpt>
      <trkpt lat="41.551546318" lon="2.365024358">
        <ele>270.30</ele>
        <time>2014-05-04T10:47:30Z</time>
      </trkpt>
      <trkpt lat="41.551561740" lon="2.365040535">
        <ele>270.80</ele>
        <time>2014-05-04T10:47:32Z</time>
      </trkpt>
      <trkpt lat="41.551626281" lon="2.365106752">
        <ele>270.80</ele>
        <time>2014-05-04T10:47:38Z</time>
      </trkpt>
      <trkpt lat="41.551636172" lon="2.365310265">
        <ele>270.80</ele>
        <time>2014-05-04T10:47:46Z</time>
      </trkpt>
      <trkpt lat="41.551610020" lon="2.365483519">
        <ele>270.80</ele>
        <time>2014-05-04T10:47:51Z</time>
      </trkpt>
      <trkpt lat="41.551579091" lon="2.365691055">
        <ele>270.80</ele>
        <time>2014-05-04T10:47:57Z</time>
      </trkpt>
      <trkpt lat="41.551672968" lon="2.365912253">
        <ele>270.80</ele>
        <time>2014-05-04T10:48:02Z</time>
      </trkpt>
      <trkpt lat="41.551944877" lon="2.366164465">
        <ele>269.30</ele>
        <time>2014-05-04T10:48:09Z</time>
      </trkpt>
      <trkpt lat="41.552230365" lon="2.366536873">
        <ele>268.40</ele>
        <time>2014-05-04T10:48:19Z</time>
      </trkpt>
      <trkpt lat="41.552350394" lon="2.366739296">
        <ele>268.80</ele>
        <time>2014-05-04T10:48:25Z</time>
      </trkpt>
      <trkpt lat="41.552382245" lon="2.366808698">
        <ele>269.80</ele>
        <time>2014-05-04T10:48:27Z</time>
      </trkpt>
      <trkpt lat="41.552405463" lon="2.366994357">
        <ele>270.30</ele>
        <time>2014-05-04T10:48:32Z</time>
      </trkpt>
      <trkpt lat="41.552277136" lon="2.367160319">
        <ele>268.80</ele>
        <time>2014-05-04T10:48:36Z</time>
      </trkpt>
      <trkpt lat="41.552069851" lon="2.367121929">
        <ele>266.40</ele>
        <time>2014-05-04T10:48:41Z</time>
      </trkpt>
      <trkpt lat="41.551881929" lon="2.367063927">
        <ele>265.50</ele>
        <time>2014-05-04T10:48:46Z</time>
      </trkpt>
      <trkpt lat="41.551786291" lon="2.367079014">
        <ele>264.50</ele>
        <time>2014-05-04T10:48:48Z</time>
      </trkpt>
      <trkpt lat="41.551577414" lon="2.367204659">
        <ele>262.60</ele>
        <time>2014-05-04T10:48:52Z</time>
      </trkpt>
      <trkpt lat="41.551400808" lon="2.367503474">
        <ele>261.10</ele>
        <time>2014-05-04T10:48:57Z</time>
      </trkpt>
      <trkpt lat="41.551368621" lon="2.367570948">
        <ele>261.10</ele>
        <time>2014-05-04T10:48:58Z</time>
      </trkpt>
      <trkpt lat="41.551287820" lon="2.367725762">
        <ele>260.70</ele>
        <time>2014-05-04T10:49:00Z</time>
      </trkpt>
      <trkpt lat="41.550993615" lon="2.368133793">
        <ele>258.30</ele>
        <time>2014-05-04T10:49:06Z</time>
      </trkpt>
      <trkpt lat="41.550948772" lon="2.368435122">
        <ele>256.30</ele>
        <time>2014-05-04T10:49:10Z</time>
      </trkpt>
      <trkpt lat="41.550990765" lon="2.368665038">
        <ele>255.90</ele>
        <time>2014-05-04T10:49:13Z</time>
      </trkpt>
      <trkpt lat="41.551106854" lon="2.368985310">
        <ele>252.00</ele>
        <time>2014-05-04T10:49:17Z</time>
      </trkpt>
      <trkpt lat="41.551216993" lon="2.369316395">
        <ele>249.60</ele>
        <time>2014-05-04T10:49:21Z</time>
      </trkpt>
      <trkpt lat="41.551210203" lon="2.369473053">
        <ele>248.20</ele>
        <time>2014-05-04T10:49:24Z</time>
      </trkpt>
      <trkpt lat="41.551095204" lon="2.369474059">
        <ele>248.20</ele>
        <time>2014-05-04T10:49:28Z</time>
      </trkpt>
      <trkpt lat="41.550996297" lon="2.369406669">
        <ele>248.20</ele>
        <time>2014-05-04T10:49:32Z</time>
      </trkpt>
      <trkpt lat="41.550937121" lon="2.369367190">
        <ele>248.20</ele>
        <time>2014-05-04T10:49:34Z</time>
      </trkpt>
      <trkpt lat="41.550785325" lon="2.369245065">
        <ele>247.70</ele>
        <time>2014-05-04T10:49:38Z</time>
      </trkpt>
      <trkpt lat="41.550717934" lon="2.369168706">
        <ele>246.70</ele>
        <time>2014-05-04T10:49:40Z</time>
      </trkpt>
      <trkpt lat="41.550520959" lon="2.368914148">
        <ele>244.80</ele>
        <time>2014-05-04T10:49:46Z</time>
      </trkpt>
      <trkpt lat="41.550460610" lon="2.368979443">
        <ele>244.30</ele>
        <time>2014-05-04T10:49:51Z</time>
      </trkpt>
      <trkpt lat="41.550473015" lon="2.369017245">
        <ele>243.40</ele>
        <time>2014-05-04T10:49:52Z</time>
      </trkpt>
      <trkpt lat="41.550505034" lon="2.369098047">
        <ele>241.90</ele>
        <time>2014-05-04T10:49:54Z</time>
      </trkpt>
      <trkpt lat="41.550560270" lon="2.369324693">
        <ele>238.50</ele>
        <time>2014-05-04T10:49:58Z</time>
      </trkpt>
      <trkpt lat="41.550569658" lon="2.369379763">
        <ele>238.10</ele>
        <time>2014-05-04T10:49:59Z</time>
      </trkpt>
      <trkpt lat="41.550619614" lon="2.369604733">
        <ele>236.60</ele>
        <time>2014-05-04T10:50:03Z</time>
      </trkpt>
      <trkpt lat="41.550744840" lon="2.369871110">
        <ele>232.30</ele>
        <time>2014-05-04T10:50:08Z</time>
      </trkpt>
      <trkpt lat="41.550813655" lon="2.370032210">
        <ele>230.90</ele>
        <time>2014-05-04T10:50:13Z</time>
      </trkpt>
      <trkpt lat="41.550731010" lon="2.370083340">
        <ele>229.40</ele>
        <time>2014-05-04T10:50:16Z</time>
      </trkpt>
      <trkpt lat="41.550573849" lon="2.370074287">
        <ele>226.50</ele>
        <time>2014-05-04T10:50:22Z</time>
      </trkpt>
      <trkpt lat="41.550613496" lon="2.370200938">
        <ele>225.10</ele>
        <time>2014-05-04T10:50:26Z</time>
      </trkpt>
      <trkpt lat="41.550857158" lon="2.370449545">
        <ele>223.20</ele>
        <time>2014-05-04T10:50:33Z</time>
      </trkpt>
      <trkpt lat="41.550904683" lon="2.370503441">
        <ele>222.70</ele>
        <time>2014-05-04T10:50:35Z</time>
      </trkpt>
      <trkpt lat="41.551148848" lon="2.370542919">
        <ele>220.80</ele>
        <time>2014-05-04T10:50:43Z</time>
      </trkpt>
      <trkpt lat="41.551289664" lon="2.370577034">
        <ele>218.40</ele>
        <time>2014-05-04T10:50:47Z</time>
      </trkpt>
      <trkpt lat="41.551293855" lon="2.370723465">
        <ele>216.00</ele>
        <time>2014-05-04T10:50:51Z</time>
      </trkpt>
      <trkpt lat="41.551225291" lon="2.370771745">
        <ele>215.00</ele>
        <time>2014-05-04T10:50:53Z</time>
      </trkpt>
      <trkpt lat="41.551088414" lon="2.370932259">
        <ele>212.10</ele>
        <time>2014-05-04T10:50:59Z</time>
      </trkpt>
      <trkpt lat="41.551181453" lon="2.371003673">
        <ele>211.20</ele>
        <time>2014-05-04T10:51:02Z</time>
      </trkpt>
      <trkpt lat="41.551484794" lon="2.370935947">
        <ele>208.70</ele>
        <time>2014-05-04T10:51:08Z</time>
      </trkpt>
      <trkpt lat="41.551570541" lon="2.370873921">
        <ele>207.80</ele>
        <time>2014-05-04T10:51:10Z</time>
      </trkpt>
      <trkpt lat="41.551825351" lon="2.370650459">
        <ele>203.00</ele>
        <time>2014-05-04T10:51:15Z</time>
      </trkpt>
      <trkpt lat="41.552040598" lon="2.370486677">
        <ele>201.50</ele>
        <time>2014-05-04T10:51:20Z</time>
      </trkpt>
      <trkpt lat="41.552074126" lon="2.370421214">
        <ele>201.10</ele>
        <time>2014-05-04T10:51:22Z</time>
      </trkpt>
      <trkpt lat="41.552095081" lon="2.370354829">
        <ele>201.50</ele>
        <time>2014-05-04T10:51:24Z</time>
      </trkpt>
      <trkpt lat="41.552185102" lon="2.370348627">
        <ele>201.50</ele>
        <time>2014-05-04T10:51:28Z</time>
      </trkpt>
      <trkpt lat="41.552215193" lon="2.370371509">
        <ele>201.50</ele>
        <time>2014-05-04T10:51:29Z</time>
      </trkpt>
      <trkpt lat="41.552335558" lon="2.370569993">
        <ele>203.00</ele>
        <time>2014-05-04T10:51:36Z</time>
      </trkpt>
      <trkpt lat="41.552478218" lon="2.370671414">
        <ele>204.40</ele>
        <time>2014-05-04T10:51:42Z</time>
      </trkpt>
      <trkpt lat="41.552665050" lon="2.370747102">
        <ele>204.90</ele>
        <time>2014-05-04T10:51:47Z</time>
      </trkpt>
      <trkpt lat="41.552949029" lon="2.371013479">
        <ele>202.50</ele>
        <time>2014-05-04T10:51:53Z</time>
      </trkpt>
      <trkpt lat="41.553143657" lon="2.371122193">
        <ele>200.60</ele>
        <time>2014-05-04T10:51:58Z</time>
      </trkpt>
      <trkpt lat="41.553178693" lon="2.371086402">
        <ele>200.10</ele>
        <time>2014-05-04T10:51:59Z</time>
      </trkpt>
      <trkpt lat="41.553363179" lon="2.370805022">
        <ele>197.20</ele>
        <time>2014-05-04T10:52:06Z</time>
      </trkpt>
      <trkpt lat="41.553384050" lon="2.370778702">
        <ele>196.70</ele>
        <time>2014-05-04T10:52:07Z</time>
      </trkpt>
      <trkpt lat="41.553589993" lon="2.370764034">
        <ele>192.90</ele>
        <time>2014-05-04T10:52:14Z</time>
      </trkpt>
      <trkpt lat="41.553664425" lon="2.370809045">
        <ele>191.90</ele>
        <time>2014-05-04T10:52:16Z</time>
      </trkpt>
      <trkpt lat="41.553769282" lon="2.370999063">
        <ele>186.20</ele>
        <time>2014-05-04T10:52:21Z</time>
      </trkpt>
      <trkpt lat="41.553719745" lon="2.371038960">
        <ele>184.20</ele>
        <time>2014-05-04T10:52:25Z</time>
      </trkpt>
      <trkpt lat="41.553751093" lon="2.371078188">
        <ele>184.70</ele>
        <time>2014-05-04T10:52:36Z</time>
      </trkpt>
      <trkpt lat="41.553689738" lon="2.371090006">
        <ele>183.30</ele>
        <time>2014-05-04T10:52:40Z</time>
      </trkpt>
      <trkpt lat="41.553663167" lon="2.371147925">
        <ele>182.80</ele>
        <time>2014-05-04T10:52:43Z</time>
      </trkpt>
      <trkpt lat="41.553713040" lon="2.371417822">
        <ele>181.40</ele>
        <time>2014-05-04T10:52:51Z</time>
      </trkpt>
      <trkpt lat="41.553695940" lon="2.371584119">
        <ele>179.40</ele>
        <time>2014-05-04T10:52:55Z</time>
      </trkpt>
      <trkpt lat="41.553712872" lon="2.371777490">
        <ele>176.50</ele>
        <time>2014-05-04T10:52:59Z</time>
      </trkpt>
      <trkpt lat="41.553750590" lon="2.371958707">
        <ele>173.20</ele>
        <time>2014-05-04T10:53:03Z</time>
      </trkpt>
      <trkpt lat="41.553823848" lon="2.372185270">
        <ele>169.80</ele>
        <time>2014-05-04T10:53:08Z</time>
      </trkpt>
      <trkpt lat="41.553750255" lon="2.372378891">
        <ele>165.00</ele>
        <time>2014-05-04T10:53:13Z</time>
      </trkpt>
      <trkpt lat="41.553717650" lon="2.372463968">
        <ele>164.50</ele>
        <time>2014-05-04T10:53:15Z</time>
      </trkpt>
      <trkpt lat="41.553667777" lon="2.372673683">
        <ele>161.60</ele>
        <time>2014-05-04T10:53:19Z</time>
      </trkpt>
      <trkpt lat="41.553736760" lon="2.372953806">
        <ele>160.70</ele>
        <time>2014-05-04T10:53:24Z</time>
      </trkpt>
      <trkpt lat="41.553842708" lon="2.373083139">
        <ele>159.20</ele>
        <time>2014-05-04T10:53:28Z</time>
      </trkpt>
      <trkpt lat="41.554021997" lon="2.372996554">
        <ele>158.80</ele>
        <time>2014-05-04T10:53:33Z</time>
      </trkpt>
      <trkpt lat="41.554059799" lon="2.372971324">
        <ele>158.30</ele>
        <time>2014-05-04T10:53:34Z</time>
      </trkpt>
      <trkpt lat="41.554251577" lon="2.372742582">
        <ele>158.80</ele>
        <time>2014-05-04T10:53:41Z</time>
      </trkpt>
      <trkpt lat="41.554466321" lon="2.372488527">
        <ele>157.30</ele>
        <time>2014-05-04T10:53:49Z</time>
      </trkpt>
      <trkpt lat="41.554566653" lon="2.372298677">
        <ele>156.40</ele>
        <time>2014-05-04T10:53:54Z</time>
      </trkpt>
      <trkpt lat="41.554603198" lon="2.371862315">
        <ele>154.90</ele>
        <time>2014-05-04T10:54:02Z</time>
      </trkpt>
      <trkpt lat="41.554611160" lon="2.371751506">
        <ele>154.90</ele>
        <time>2014-05-04T10:54:04Z</time>
      </trkpt>
      <trkpt lat="41.554727501" lon="2.371587556">
        <ele>154.00</ele>
        <time>2014-05-04T10:54:08Z</time>
      </trkpt>
      <trkpt lat="41.554912909" lon="2.371615384">
        <ele>153.50</ele>
        <time>2014-05-04T10:54:13Z</time>
      </trkpt>
      <trkpt lat="41.555152296" lon="2.371794002">
        <ele>152.00</ele>
        <time>2014-05-04T10:54:19Z</time>
      </trkpt>
      <trkpt lat="41.555223123" lon="2.371933058">
        <ele>151.10</ele>
        <time>2014-05-04T10:54:22Z</time>
      </trkpt>
      <trkpt lat="41.555449016" lon="2.372227514">
        <ele>150.10</ele>
        <time>2014-05-04T10:54:29Z</time>
      </trkpt>
      <trkpt lat="41.555527805" lon="2.372262299">
        <ele>150.10</ele>
        <time>2014-05-04T10:54:31Z</time>
      </trkpt>
      <trkpt lat="41.555609278" lon="2.372310411">
        <ele>149.60</ele>
        <time>2014-05-04T10:54:33Z</time>
      </trkpt>
      <trkpt lat="41.555944721" lon="2.372517612">
        <ele>148.70</ele>
        <time>2014-05-04T10:54:41Z</time>
      </trkpt>
      <trkpt lat="41.556318806" lon="2.372627834">
        <ele>147.20</ele>
        <time>2014-05-04T10:54:50Z</time>
      </trkpt>
      <trkpt lat="41.556361637" lon="2.372639150">
        <ele>147.20</ele>
        <time>2014-05-04T10:54:51Z</time>
      </trkpt>
      <trkpt lat="41.556443109" lon="2.372676365">
        <ele>147.20</ele>
        <time>2014-05-04T10:54:53Z</time>
      </trkpt>
      <trkpt lat="41.556599264" lon="2.372823468">
        <ele>146.70</ele>
        <time>2014-05-04T10:54:59Z</time>
      </trkpt>
      <trkpt lat="41.556754329" lon="2.372860432">
        <ele>147.70</ele>
        <time>2014-05-04T10:55:06Z</time>
      </trkpt>
      <trkpt lat="41.556827839" lon="2.372922458">
        <ele>147.70</ele>
        <time>2014-05-04T10:55:09Z</time>
      </trkpt>
      <trkpt lat="41.556911490" lon="2.373009546">
        <ele>146.70</ele>
        <time>2014-05-04T10:55:12Z</time>
      </trkpt>
      <trkpt lat="41.556969325" lon="2.373074673">
        <ele>145.30</ele>
        <time>2014-05-04T10:55:14Z</time>
      </trkpt>
      <trkpt lat="41.557000590" lon="2.373113565">
        <ele>145.30</ele>
        <time>2014-05-04T10:55:15Z</time>
      </trkpt>
      <trkpt lat="41.557251209" lon="2.373601224">
        <ele>144.30</ele>
        <time>2014-05-04T10:55:23Z</time>
      </trkpt>
      <trkpt lat="41.557399233" lon="2.374062061">
        <ele>143.40</ele>
        <time>2014-05-04T10:55:29Z</time>
      </trkpt>
      <trkpt lat="41.557517166" lon="2.374424160">
        <ele>142.40</ele>
        <time>2014-05-04T10:55:35Z</time>
      </trkpt>
      <trkpt lat="41.557626047" lon="2.374777122">
        <ele>141.90</ele>
        <time>2014-05-04T10:55:42Z</time>
      </trkpt>
      <trkpt lat="41.557715734" lon="2.375070991">
        <ele>141.00</ele>
        <time>2014-05-04T10:55:47Z</time>
      </trkpt>
      <trkpt lat="41.557796787" lon="2.375375422">
        <ele>140.50</ele>
        <time>2014-05-04T10:55:52Z</time>
      </trkpt>
      <trkpt lat="41.557884377" lon="2.375781944">
        <ele>140.00</ele>
        <time>2014-05-04T10:55:59Z</time>
      </trkpt>
      <trkpt lat="41.557986218" lon="2.375763755">
        <ele>138.60</ele>
        <time>2014-05-04T10:56:02Z</time>
      </trkpt>
      <trkpt lat="41.558049836" lon="2.375809269">
        <ele>138.10</ele>
        <time>2014-05-04T10:56:05Z</time>
      </trkpt>
      <trkpt lat="41.558057631" lon="2.375843719">
        <ele>138.60</ele>
        <time>2014-05-04T10:56:06Z</time>
      </trkpt>
      <trkpt lat="41.558123262" lon="2.376143707">
        <ele>138.10</ele>
        <time>2014-05-04T10:56:13Z</time>
      </trkpt>
      <trkpt lat="41.558214792" lon="2.376622565">
        <ele>135.20</ele>
        <time>2014-05-04T10:56:21Z</time>
      </trkpt>
      <trkpt lat="41.558240441" lon="2.376761789">
        <ele>134.70</ele>
        <time>2014-05-04T10:56:23Z</time>
      </trkpt>
      <trkpt lat="41.558260138" lon="2.376905874">
        <ele>134.70</ele>
        <time>2014-05-04T10:56:25Z</time>
      </trkpt>
      <trkpt lat="41.558384777" lon="2.377489254">
        <ele>134.20</ele>
        <time>2014-05-04T10:56:34Z</time>
      </trkpt>
      <trkpt lat="41.558466249" lon="2.377811454">
        <ele>133.80</ele>
        <time>2014-05-04T10:56:40Z</time>
      </trkpt>
      <trkpt lat="41.558536322" lon="2.378048495">
        <ele>133.80</ele>
        <time>2014-05-04T10:56:45Z</time>
      </trkpt>
      <trkpt lat="41.558686526" lon="2.378338089">
        <ele>132.80</ele>
        <time>2014-05-04T10:56:52Z</time>
      </trkpt>
      <trkpt lat="41.558809404" lon="2.378539590">
        <ele>131.80</ele>
        <time>2014-05-04T10:56:59Z</time>
      </trkpt>
      <trkpt lat="41.558873107" lon="2.378646627">
        <ele>130.90</ele>
        <time>2014-05-04T10:57:06Z</time>
      </trkpt>
      <trkpt lat="41.558892720" lon="2.378652662">
        <ele>130.40</ele>
        <time>2014-05-04T10:57:13Z</time>
      </trkpt>
      <trkpt lat="41.558938150" lon="2.378712090">
        <ele>130.40</ele>
        <time>2014-05-04T10:57:21Z</time>
      </trkpt>
      <trkpt lat="41.558977964" lon="2.378772272">
        <ele>129.00</ele>
        <time>2014-05-04T10:57:29Z</time>
      </trkpt>
      <trkpt lat="41.559009732" lon="2.378831532">
        <ele>128.00</ele>
        <time>2014-05-04T10:57:37Z</time>
      </trkpt>
      <trkpt lat="41.559025909" lon="2.378881823">
        <ele>128.00</ele>
        <time>2014-05-04T10:57:43Z</time>
      </trkpt>
      <trkpt lat="41.559030016" lon="2.378885595">
        <ele>128.00</ele>
        <time>2014-05-04T10:57:45Z</time>
      </trkpt>
      <trkpt lat="41.559144010" lon="2.379015096">
        <ele>127.00</ele>
        <time>2014-05-04T10:57:52Z</time>
      </trkpt>
      <trkpt lat="41.559210814" lon="2.379122468">
        <ele>127.00</ele>
        <time>2014-05-04T10:57:58Z</time>
      </trkpt>
      <trkpt lat="41.559330423" lon="2.379282311">
        <ele>126.60</ele>
        <time>2014-05-04T10:58:05Z</time>
      </trkpt>
      <trkpt lat="41.559385744" lon="2.379354144">
        <ele>126.60</ele>
        <time>2014-05-04T10:58:10Z</time>
      </trkpt>
      <trkpt lat="41.559389935" lon="2.379360011">
        <ele>125.60</ele>
        <time>2014-05-04T10:58:22Z</time>
      </trkpt>
      <trkpt lat="41.559410806" lon="2.379376775">
        <ele>125.60</ele>
        <time>2014-05-04T10:58:34Z</time>
      </trkpt>
      <trkpt lat="41.559485489" lon="2.379480459">
        <ele>125.60</ele>
        <time>2014-05-04T10:58:40Z</time>
      </trkpt>
      <trkpt lat="41.559622449" lon="2.379644493">
        <ele>125.10</ele>
        <time>2014-05-04T10:58:48Z</time>
      </trkpt>
      <trkpt lat="41.559770641" lon="2.379905924">
        <ele>124.60</ele>
        <time>2014-05-04T10:58:57Z</time>
      </trkpt>
      <trkpt lat="41.559881953" lon="2.380089488">
        <ele>124.20</ele>
        <time>2014-05-04T10:59:04Z</time>
      </trkpt>
      <trkpt lat="41.560060906" lon="2.380346980">
        <ele>123.70</ele>
        <time>2014-05-04T10:59:13Z</time>
      </trkpt>
      <trkpt lat="41.560224018" lon="2.380578740">
        <ele>123.70</ele>
        <time>2014-05-04T10:59:21Z</time>
      </trkpt>
      <trkpt lat="41.560377407" lon="2.380796585">
        <ele>122.70</ele>
        <time>2014-05-04T10:59:29Z</time>
      </trkpt>
      <trkpt lat="41.560525683" lon="2.381007893">
        <ele>122.20</ele>
        <time>2014-05-04T10:59:37Z</time>
      </trkpt>
      <trkpt lat="41.560660967" lon="2.381273599">
        <ele>121.70</ele>
        <time>2014-05-04T10:59:45Z</time>
      </trkpt>
      <trkpt lat="41.560817038" lon="2.381549364">
        <ele>120.80</ele>
        <time>2014-05-04T10:59:53Z</time>
      </trkpt>
      <trkpt lat="41.560963051" lon="2.381818339">
        <ele>120.30</ele>
        <time>2014-05-04T11:00:01Z</time>
      </trkpt>
      <trkpt lat="41.561110740" lon="2.382103743">
        <ele>119.80</ele>
        <time>2014-05-04T11:00:09Z</time>
      </trkpt>
      <trkpt lat="41.561202186" lon="2.382300718">
        <ele>119.30</ele>
        <time>2014-05-04T11:00:16Z</time>
      </trkpt>
      <trkpt lat="41.561287514" lon="2.382466763">
        <ele>118.40</ele>
        <time>2014-05-04T11:00:22Z</time>
      </trkpt>
      <trkpt lat="41.561518435" lon="2.382792233">
        <ele>117.90</ele>
        <time>2014-05-04T11:00:32Z</time>
      </trkpt>
      <trkpt lat="41.561657324" lon="2.383089204">
        <ele>117.40</ele>
        <time>2014-05-04T11:00:40Z</time>
      </trkpt>
      <trkpt lat="41.561794871" lon="2.383382654">
        <ele>116.50</ele>
        <time>2014-05-04T11:00:48Z</time>
      </trkpt>
      <trkpt lat="41.561905009" lon="2.383591615">
        <ele>116.00</ele>
        <time>2014-05-04T11:00:55Z</time>
      </trkpt>
      <trkpt lat="41.562022355" lon="2.383777861">
        <ele>116.00</ele>
        <time>2014-05-04T11:01:01Z</time>
      </trkpt>
      <trkpt lat="41.562253780" lon="2.384081705">
        <ele>115.00</ele>
        <time>2014-05-04T11:01:10Z</time>
      </trkpt>
      <trkpt lat="41.562474140" lon="2.384347830">
        <ele>114.10</ele>
        <time>2014-05-04T11:01:18Z</time>
      </trkpt>
      <trkpt lat="41.562729788" lon="2.384687297">
        <ele>113.10</ele>
        <time>2014-05-04T11:01:28Z</time>
      </trkpt>
      <trkpt lat="41.562995913" lon="2.385023411">
        <ele>112.60</ele>
        <time>2014-05-04T11:01:38Z</time>
      </trkpt>
      <trkpt lat="41.563203701" lon="2.385295991">
        <ele>111.70</ele>
        <time>2014-05-04T11:01:46Z</time>
      </trkpt>
      <trkpt lat="41.563290370" lon="2.385375368">
        <ele>111.20</ele>
        <time>2014-05-04T11:01:51Z</time>
      </trkpt>
      <trkpt lat="41.563401262" lon="2.385459187">
        <ele>110.70</ele>
        <time>2014-05-04T11:01:58Z</time>
      </trkpt>
      <trkpt lat="41.563517100" lon="2.385586592">
        <ele>109.70</ele>
        <time>2014-05-04T11:02:04Z</time>
      </trkpt>
      <trkpt lat="41.563728073" lon="2.385763785">
        <ele>108.80</ele>
        <time>2014-05-04T11:02:13Z</time>
      </trkpt>
      <trkpt lat="41.563868218" lon="2.385880377">
        <ele>108.80</ele>
        <time>2014-05-04T11:02:19Z</time>
      </trkpt>
      <trkpt lat="41.564042394" lon="2.386051368">
        <ele>107.80</ele>
        <time>2014-05-04T11:02:27Z</time>
      </trkpt>
      <trkpt lat="41.564195364" lon="2.386255300">
        <ele>107.80</ele>
        <time>2014-05-04T11:02:34Z</time>
      </trkpt>
      <trkpt lat="41.564390662" lon="2.386477672">
        <ele>106.80</ele>
        <time>2014-05-04T11:02:43Z</time>
      </trkpt>
      <trkpt lat="41.564667349" lon="2.386771876">
        <ele>106.40</ele>
        <time>2014-05-04T11:02:53Z</time>
      </trkpt>
      <trkpt lat="41.564906652" lon="2.387104219">
        <ele>105.40</ele>
        <time>2014-05-04T11:03:03Z</time>
      </trkpt>
      <trkpt lat="41.565122319" lon="2.387408482">
        <ele>104.90</ele>
        <time>2014-05-04T11:03:12Z</time>
      </trkpt>
      <trkpt lat="41.565290208" lon="2.387636302">
        <ele>104.00</ele>
        <time>2014-05-04T11:03:19Z</time>
      </trkpt>
      <trkpt lat="41.565537642" lon="2.387907624">
        <ele>103.00</ele>
        <time>2014-05-04T11:03:29Z</time>
      </trkpt>
      <trkpt lat="41.565784489" lon="2.388158411">
        <ele>102.50</ele>
        <time>2014-05-04T11:03:38Z</time>
      </trkpt>
      <trkpt lat="41.566041729" lon="2.388393188">
        <ele>101.60</ele>
        <time>2014-05-04T11:03:47Z</time>
      </trkpt>
      <trkpt lat="41.566256139" lon="2.388582535">
        <ele>101.60</ele>
        <time>2014-05-04T11:03:55Z</time>
      </trkpt>
      <trkpt lat="41.566496029" lon="2.388775235">
        <ele>100.60</ele>
        <time>2014-05-04T11:04:03Z</time>
      </trkpt>
      <trkpt lat="41.566825018" lon="2.389088467">
        <ele>100.10</ele>
        <time>2014-05-04T11:04:14Z</time>
      </trkpt>
      <trkpt lat="41.567023250" lon="2.389405638">
        <ele>99.60</ele>
        <time>2014-05-04T11:04:22Z</time>
      </trkpt>
      <trkpt lat="41.567188206" lon="2.389788607">
        <ele>98.70</ele>
        <time>2014-05-04T11:04:30Z</time>
      </trkpt>
      <trkpt lat="41.567284933" lon="2.390138468">
        <ele>98.20</ele>
        <time>2014-05-04T11:04:37Z</time>
      </trkpt>
      <trkpt lat="41.567396580" lon="2.390676167">
        <ele>97.20</ele>
        <time>2014-05-04T11:04:47Z</time>
      </trkpt>
      <trkpt lat="41.567470676" lon="2.391165251">
        <ele>96.30</ele>
        <time>2014-05-04T11:04:56Z</time>
      </trkpt>
      <trkpt lat="41.567527170" lon="2.391429281">
        <ele>96.30</ele>
        <time>2014-05-04T11:05:03Z</time>
      </trkpt>
      <trkpt lat="41.567529601" lon="2.391455265">
        <ele>95.80</ele>
        <time>2014-05-04T11:05:08Z</time>
      </trkpt>
      <trkpt lat="41.567524823" lon="2.391458785">
        <ele>95.80</ele>
        <time>2014-05-04T11:05:21Z</time>
      </trkpt>
      <trkpt lat="41.567516777" lon="2.391469849">
        <ele>95.80</ele>
        <time>2014-05-04T11:05:27Z</time>
      </trkpt>
      <trkpt lat="41.567475789" lon="2.391551405">
        <ele>95.80</ele>
        <time>2014-05-04T11:05:31Z</time>
      </trkpt>
      <trkpt lat="41.567348803" lon="2.391675709">
        <ele>95.30</ele>
        <time>2014-05-04T11:05:36Z</time>
      </trkpt>
      <trkpt lat="41.567255094" lon="2.391786518">
        <ele>95.30</ele>
        <time>2014-05-04T11:05:39Z</time>
      </trkpt>
      <trkpt lat="41.567144201" lon="2.391948288">
        <ele>94.40</ele>
        <time>2014-05-04T11:05:43Z</time>
      </trkpt>
      <trkpt lat="41.567140932" lon="2.392187424">
        <ele>93.90</ele>
        <time>2014-05-04T11:05:47Z</time>
      </trkpt>
      <trkpt lat="41.567255177" lon="2.392467044">
        <ele>92.90</ele>
        <time>2014-05-04T11:05:52Z</time>
      </trkpt>
      <trkpt lat="41.567362047" lon="2.392974401">
        <ele>92.40</ele>
        <time>2014-05-04T11:06:00Z</time>
      </trkpt>
      <trkpt lat="41.567358945" lon="2.393184452">
        <ele>92.40</ele>
        <time>2014-05-04T11:06:03Z</time>
      </trkpt>
      <trkpt lat="41.567331369" lon="2.393807981">
        <ele>91.00</ele>
        <time>2014-05-04T11:06:12Z</time>
      </trkpt>
      <trkpt lat="41.567331956" lon="2.394349285">
        <ele>91.00</ele>
        <time>2014-05-04T11:06:20Z</time>
      </trkpt>
      <trkpt lat="41.567335057" lon="2.394871561">
        <ele>90.50</ele>
        <time>2014-05-04T11:06:28Z</time>
      </trkpt>
      <trkpt lat="41.567327765" lon="2.395093849">
        <ele>90.00</ele>
        <time>2014-05-04T11:06:33Z</time>
      </trkpt>
      <trkpt lat="41.567369423" lon="2.395232067">
        <ele>90.00</ele>
        <time>2014-05-04T11:06:37Z</time>
      </trkpt>
      <trkpt lat="41.567546030" lon="2.395334661">
        <ele>88.60</ele>
        <time>2014-05-04T11:06:42Z</time>
      </trkpt>
      <trkpt lat="41.567858255" lon="2.395572959">
        <ele>87.10</ele>
        <time>2014-05-04T11:06:49Z</time>
      </trkpt>
      <trkpt lat="41.567919779" lon="2.395646468">
        <ele>87.10</ele>
        <time>2014-05-04T11:06:53Z</time>
      </trkpt>
      <trkpt lat="41.567923970" lon="2.395653676">
        <ele>87.10</ele>
        <time>2014-05-04T11:06:54Z</time>
      </trkpt>
      <trkpt lat="41.567994629" lon="2.395819303">
        <ele>88.60</ele>
        <time>2014-05-04T11:07:01Z</time>
      </trkpt>
      <trkpt lat="41.568088925" lon="2.396058858">
        <ele>89.10</ele>
        <time>2014-05-04T11:07:10Z</time>
      </trkpt>
      <trkpt lat="41.567987421" lon="2.396341412">
        <ele>90.00</ele>
        <time>2014-05-04T11:07:16Z</time>
      </trkpt>
      <trkpt lat="41.567802516" lon="2.396444174">
        <ele>90.50</ele>
        <time>2014-05-04T11:07:23Z</time>
      </trkpt>
      <trkpt lat="41.567599171" lon="2.396564789">
        <ele>90.50</ele>
        <time>2014-05-04T11:07:29Z</time>
      </trkpt>
      <trkpt lat="41.567488111" lon="2.396623714">
        <ele>89.50</ele>
        <time>2014-05-04T11:07:32Z</time>
      </trkpt>
      <trkpt lat="41.567335141" lon="2.396721363">
        <ele>89.50</ele>
        <time>2014-05-04T11:07:36Z</time>
      </trkpt>
      <trkpt lat="41.567122324" lon="2.396900904">
        <ele>88.60</ele>
        <time>2014-05-04T11:07:42Z</time>
      </trkpt>
      <trkpt lat="41.567128946" lon="2.397074577">
        <ele>88.10</ele>
        <time>2014-05-04T11:07:47Z</time>
      </trkpt>
      <trkpt lat="41.567113188" lon="2.397323854">
        <ele>89.50</ele>
        <time>2014-05-04T11:07:54Z</time>
      </trkpt>
      <trkpt lat="41.566998272" lon="2.397479087">
        <ele>89.50</ele>
        <time>2014-05-04T11:08:02Z</time>
      </trkpt>
      <trkpt lat="41.566880171" lon="2.397535414">
        <ele>89.50</ele>
        <time>2014-05-04T11:08:08Z</time>
      </trkpt>
      <trkpt lat="41.566724268" lon="2.397606995">
        <ele>90.50</ele>
        <time>2014-05-04T11:08:15Z</time>
      </trkpt>
      <trkpt lat="41.566500219" lon="2.397774633">
        <ele>90.50</ele>
        <time>2014-05-04T11:08:24Z</time>
      </trkpt>
      <trkpt lat="41.566371390" lon="2.397910504">
        <ele>91.00</ele>
        <time>2014-05-04T11:08:30Z</time>
      </trkpt>
      <trkpt lat="41.566177684" lon="2.398149891">
        <ele>91.90</ele>
        <time>2014-05-04T11:08:38Z</time>
      </trkpt>
      <trkpt lat="41.566024630" lon="2.398390032">
        <ele>92.40</ele>
        <time>2014-05-04T11:08:45Z</time>
      </trkpt>
      <trkpt lat="41.565865206" lon="2.398657080">
        <ele>93.40</ele>
        <time>2014-05-04T11:08:53Z</time>
      </trkpt>
      <trkpt lat="41.565731515" lon="2.398880541">
        <ele>94.40</ele>
        <time>2014-05-04T11:09:00Z</time>
      </trkpt>
      <trkpt lat="41.565585838" lon="2.399156558">
        <ele>95.80</ele>
        <time>2014-05-04T11:09:09Z</time>
      </trkpt>
      <trkpt lat="41.565408728" lon="2.399442380">
        <ele>98.20</ele>
        <time>2014-05-04T11:09:20Z</time>
      </trkpt>
      <trkpt lat="41.565238911" lon="2.399510777">
        <ele>100.10</ele>
        <time>2014-05-04T11:09:28Z</time>
      </trkpt>
      <trkpt lat="41.565069932" lon="2.399581101">
        <ele>102.00</ele>
        <time>2014-05-04T11:09:36Z</time>
      </trkpt>
      <trkpt lat="41.565012599" lon="2.399773801">
        <ele>103.50</ele>
        <time>2014-05-04T11:09:43Z</time>
      </trkpt>
      <trkpt lat="41.565090383" lon="2.399970105">
        <ele>104.40</ele>
        <time>2014-05-04T11:09:51Z</time>
      </trkpt>
      <trkpt lat="41.565209490" lon="2.400040764">
        <ele>105.90</ele>
        <time>2014-05-04T11:09:58Z</time>
      </trkpt>
      <trkpt lat="41.565355084" lon="2.400005896">
        <ele>107.30</ele>
        <time>2014-05-04T11:10:06Z</time>
      </trkpt>
      <trkpt lat="41.565373608" lon="2.400000950">
        <ele>107.30</ele>
        <time>2014-05-04T11:10:07Z</time>
      </trkpt>
      <trkpt lat="41.565487518" lon="2.399923502">
        <ele>108.30</ele>
        <time>2014-05-04T11:10:14Z</time>
      </trkpt>
      <trkpt lat="41.565566475" lon="2.399913276">
        <ele>109.70</ele>
        <time>2014-05-04T11:10:20Z</time>
      </trkpt>
      <trkpt lat="41.565617018" lon="2.399911348">
        <ele>110.20</ele>
        <time>2014-05-04T11:10:24Z</time>
      </trkpt>
      <trkpt lat="41.565688432" lon="2.399911013">
        <ele>111.20</ele>
        <time>2014-05-04T11:10:29Z</time>
      </trkpt>
      <trkpt lat="41.565847018" lon="2.399877317">
        <ele>113.10</ele>
        <time>2014-05-04T11:10:40Z</time>
      </trkpt>
      <trkpt lat="41.565862860" lon="2.399876563">
        <ele>113.60</ele>
        <time>2014-05-04T11:10:41Z</time>
      </trkpt>
      <trkpt lat="41.565934357" lon="2.399845550">
        <ele>114.50</ele>
        <time>2014-05-04T11:10:46Z</time>
      </trkpt>
      <trkpt lat="41.566033934" lon="2.399801042">
        <ele>115.50</ele>
        <time>2014-05-04T11:10:53Z</time>
      </trkpt>
      <trkpt lat="41.566143653" lon="2.399726108">
        <ele>116.90</ele>
        <time>2014-05-04T11:11:02Z</time>
      </trkpt>
      <trkpt lat="41.566256809" lon="2.399667099">
        <ele>118.90</ele>
        <time>2014-05-04T11:11:10Z</time>
      </trkpt>
      <trkpt lat="41.566371557" lon="2.399587387">
        <ele>119.80</ele>
        <time>2014-05-04T11:11:18Z</time>
      </trkpt>
      <trkpt lat="41.566498040" lon="2.399507927">
        <ele>121.30</ele>
        <time>2014-05-04T11:11:27Z</time>
      </trkpt>
      <trkpt lat="41.566510697" lon="2.399498539">
        <ele>121.30</ele>
        <time>2014-05-04T11:11:28Z</time>
      </trkpt>
      <trkpt lat="41.566655788" lon="2.399453528">
        <ele>123.20</ele>
        <time>2014-05-04T11:11:38Z</time>
      </trkpt>
      <trkpt lat="41.566668696" lon="2.399455205">
        <ele>123.20</ele>
        <time>2014-05-04T11:11:39Z</time>
      </trkpt>
      <trkpt lat="41.566780594" lon="2.399449002">
        <ele>123.70</ele>
        <time>2014-05-04T11:11:46Z</time>
      </trkpt>
      <trkpt lat="41.566923170" lon="2.399468951">
        <ele>125.10</ele>
        <time>2014-05-04T11:11:55Z</time>
      </trkpt>
      <trkpt lat="41.567082343" lon="2.399542041">
        <ele>126.60</ele>
        <time>2014-05-04T11:12:05Z</time>
      </trkpt>
      <trkpt lat="41.567203210" lon="2.399637511">
        <ele>127.50</ele>
        <time>2014-05-04T11:12:13Z</time>
      </trkpt>
      <trkpt lat="41.567314773" lon="2.399803221">
        <ele>128.00</ele>
        <time>2014-05-04T11:12:22Z</time>
      </trkpt>
      <trkpt lat="41.567434299" lon="2.399943870">
        <ele>129.00</ele>
        <time>2014-05-04T11:12:31Z</time>
      </trkpt>
      <trkpt lat="41.567573019" lon="2.400034813">
        <ele>129.90</ele>
        <time>2014-05-04T11:12:40Z</time>
      </trkpt>
      <trkpt lat="41.567649546" lon="2.400052248">
        <ele>130.40</ele>
        <time>2014-05-04T11:12:44Z</time>
      </trkpt>
      <trkpt lat="41.567829757" lon="2.400028946">
        <ele>131.80</ele>
        <time>2014-05-04T11:12:53Z</time>
      </trkpt>
      <trkpt lat="41.568006783" lon="2.399999777">
        <ele>132.30</ele>
        <time>2014-05-04T11:13:01Z</time>
      </trkpt>
      <trkpt lat="41.568204009" lon="2.399952084">
        <ele>132.80</ele>
        <time>2014-05-04T11:13:10Z</time>
      </trkpt>
      <trkpt lat="41.568383465" lon="2.399985863">
        <ele>133.30</ele>
        <time>2014-05-04T11:13:18Z</time>
      </trkpt>
      <trkpt lat="41.568547918" lon="2.400119219">
        <ele>132.80</ele>
        <time>2014-05-04T11:13:26Z</time>
      </trkpt>
      <trkpt lat="41.568736176" lon="2.400359947">
        <ele>132.80</ele>
        <time>2014-05-04T11:13:34Z</time>
      </trkpt>
      <trkpt lat="41.568907502" lon="2.400628587">
        <ele>132.80</ele>
        <time>2014-05-04T11:13:42Z</time>
      </trkpt>
      <trkpt lat="41.569058963" lon="2.400834866">
        <ele>133.80</ele>
        <time>2014-05-04T11:13:50Z</time>
      </trkpt>
      <trkpt lat="41.569230038" lon="2.401032092">
        <ele>134.70</ele>
        <time>2014-05-04T11:13:59Z</time>
      </trkpt>
      <trkpt lat="41.569363813" lon="2.401165113">
        <ele>136.20</ele>
        <time>2014-05-04T11:14:06Z</time>
      </trkpt>
      <trkpt lat="41.569467916" lon="2.401303917">
        <ele>137.60</ele>
        <time>2014-05-04T11:14:13Z</time>
      </trkpt>
      <trkpt lat="41.569529942" lon="2.401512711">
        <ele>138.60</ele>
        <time>2014-05-04T11:14:21Z</time>
      </trkpt>
      <trkpt lat="41.569532205" lon="2.401726449">
        <ele>140.00</ele>
        <time>2014-05-04T11:14:29Z</time>
      </trkpt>
      <trkpt lat="41.569520303" lon="2.401940523">
        <ele>141.50</ele>
        <time>2014-05-04T11:14:37Z</time>
      </trkpt>
      <trkpt lat="41.569499097" lon="2.402225675">
        <ele>143.40</ele>
        <time>2014-05-04T11:14:47Z</time>
      </trkpt>
      <trkpt lat="41.569580737" lon="2.402440420">
        <ele>144.80</ele>
        <time>2014-05-04T11:14:55Z</time>
      </trkpt>
      <trkpt lat="41.569625244" lon="2.402499680">
        <ele>144.80</ele>
        <time>2014-05-04T11:14:58Z</time>
      </trkpt>
      <trkpt lat="41.569726330" lon="2.402525664">
        <ele>145.30</ele>
        <time>2014-05-04T11:15:03Z</time>
      </trkpt>
      <trkpt lat="41.569901763" lon="2.402614931">
        <ele>147.70</ele>
        <time>2014-05-04T11:15:13Z</time>
      </trkpt>
      <trkpt lat="41.570036544" lon="2.402790615">
        <ele>149.10</ele>
        <time>2014-05-04T11:15:21Z</time>
      </trkpt>
      <trkpt lat="41.570083651" lon="2.403008545">
        <ele>150.60</ele>
        <time>2014-05-04T11:15:29Z</time>
      </trkpt>
      <trkpt lat="41.570139977" lon="2.403241143">
        <ele>152.00</ele>
        <time>2014-05-04T11:15:38Z</time>
      </trkpt>
      <trkpt lat="41.570192532" lon="2.403413559">
        <ele>154.00</ele>
        <time>2014-05-04T11:15:46Z</time>
      </trkpt>
      <trkpt lat="41.570256821" lon="2.403593267">
        <ele>154.90</ele>
        <time>2014-05-04T11:15:55Z</time>
      </trkpt>
      <trkpt lat="41.570311303" lon="2.403781692">
        <ele>156.40</ele>
        <time>2014-05-04T11:16:05Z</time>
      </trkpt>
      <trkpt lat="41.570387830" lon="2.403959388">
        <ele>158.30</ele>
        <time>2014-05-04T11:16:14Z</time>
      </trkpt>
      <trkpt lat="41.570474164" lon="2.404080674">
        <ele>158.80</ele>
        <time>2014-05-04T11:16:21Z</time>
      </trkpt>
      <trkpt lat="41.570501992" lon="2.404102635">
        <ele>159.70</ele>
        <time>2014-05-04T11:16:23Z</time>
      </trkpt>
      <trkpt lat="41.570607101" lon="2.404230040">
        <ele>162.10</ele>
        <time>2014-05-04T11:16:32Z</time>
      </trkpt>
      <trkpt lat="41.570700894" lon="2.404323163">
        <ele>164.00</ele>
        <time>2014-05-04T11:16:40Z</time>
      </trkpt>
      <trkpt lat="41.570802315" lon="2.404428439">
        <ele>165.50</ele>
        <time>2014-05-04T11:16:49Z</time>
      </trkpt>
      <trkpt lat="41.570903233" lon="2.404531201">
        <ele>167.40</ele>
        <time>2014-05-04T11:16:58Z</time>
      </trkpt>
      <trkpt lat="41.570987220" lon="2.404627426">
        <ele>168.90</ele>
        <time>2014-05-04T11:17:06Z</time>
      </trkpt>
      <trkpt lat="41.571079337" lon="2.404707976">
        <ele>170.30</ele>
        <time>2014-05-04T11:17:14Z</time>
      </trkpt>
      <trkpt lat="41.571223673" lon="2.404752232">
        <ele>170.30</ele>
        <time>2014-05-04T11:17:22Z</time>
      </trkpt>
      <trkpt lat="41.571384354" lon="2.404841667">
        <ele>170.30</ele>
        <time>2014-05-04T11:17:30Z</time>
      </trkpt>
      <trkpt lat="41.571530870" lon="2.404961445">
        <ele>170.80</ele>
        <time>2014-05-04T11:17:37Z</time>
      </trkpt>
      <trkpt lat="41.571647295" lon="2.405051215">
        <ele>170.80</ele>
        <time>2014-05-04T11:17:42Z</time>
      </trkpt>
      <trkpt lat="41.571841755" lon="2.405239891">
        <ele>170.80</ele>
        <time>2014-05-04T11:17:51Z</time>
      </trkpt>
      <trkpt lat="41.572055410" lon="2.405474082">
        <ele>171.30</ele>
        <time>2014-05-04T11:18:02Z</time>
      </trkpt>
      <trkpt lat="41.572207876" lon="2.405618670">
        <ele>171.70</ele>
        <time>2014-05-04T11:18:10Z</time>
      </trkpt>
      <trkpt lat="41.572338466" lon="2.405804664">
        <ele>171.70</ele>
        <time>2014-05-04T11:18:17Z</time>
      </trkpt>
      <trkpt lat="41.572404264" lon="2.405963669">
        <ele>170.30</ele>
        <time>2014-05-04T11:18:21Z</time>
      </trkpt>
      <trkpt lat="41.572537872" lon="2.406089984">
        <ele>169.80</ele>
        <time>2014-05-04T11:18:26Z</time>
      </trkpt>
      <trkpt lat="41.572675754" lon="2.406096438">
        <ele>169.80</ele>
        <time>2014-05-04T11:18:32Z</time>
      </trkpt>
      <trkpt lat="41.572755299" lon="2.406055534">
        <ele>169.80</ele>
        <time>2014-05-04T11:18:39Z</time>
      </trkpt>
      <trkpt lat="41.572787234" lon="2.406040866">
        <ele>169.80</ele>
        <time>2014-05-04T11:18:41Z</time>
      </trkpt>
      <trkpt lat="41.572813888" lon="2.405975403">
        <ele>170.80</ele>
        <time>2014-05-04T11:18:44Z</time>
      </trkpt>
      <trkpt lat="41.572896450" lon="2.405779435">
        <ele>170.80</ele>
        <time>2014-05-04T11:18:51Z</time>
      </trkpt>
      <trkpt lat="41.572926541" lon="2.405722354">
        <ele>170.80</ele>
        <time>2014-05-04T11:18:57Z</time>
      </trkpt>
      <trkpt lat="41.572916985" lon="2.405700896">
        <ele>170.80</ele>
        <time>2014-05-04T11:19:08Z</time>
      </trkpt>
      <trkpt lat="41.572914136" lon="2.405702824">
        <ele>170.80</ele>
        <time>2014-05-04T11:19:09Z</time>
      </trkpt>
      <trkpt lat="41.572890582" lon="2.405763928">
        <ele>170.80</ele>
        <time>2014-05-04T11:19:14Z</time>
      </trkpt>
      <trkpt lat="41.572885386" lon="2.405797623">
        <ele>170.80</ele>
        <time>2014-05-04T11:19:22Z</time>
      </trkpt>
      <trkpt lat="41.572871220" lon="2.405838946">
        <ele>170.80</ele>
        <time>2014-05-04T11:19:26Z</time>
      </trkpt>
      <trkpt lat="41.572849763" lon="2.405935338">
        <ele>170.80</ele>
        <time>2014-05-04T11:19:33Z</time>
      </trkpt>
      <trkpt lat="41.572844650" lon="2.405952186">
        <ele>170.80</ele>
        <time>2014-05-04T11:19:48Z</time>
      </trkpt>
      <trkpt lat="41.572843225" lon="2.405983199">
        <ele>170.80</ele>
        <time>2014-05-04T11:19:50Z</time>
      </trkpt>
      <trkpt lat="41.572747839" lon="2.406041956">
        <ele>170.80</ele>
        <time>2014-05-04T11:19:55Z</time>
      </trkpt>
      <trkpt lat="41.572730740" lon="2.406054445">
        <ele>170.80</ele>
        <time>2014-05-04T11:19:56Z</time>
      </trkpt>
      <trkpt lat="41.572619931" lon="2.406046230">
        <ele>170.80</ele>
        <time>2014-05-04T11:20:02Z</time>
      </trkpt>
      <trkpt lat="41.572480959" lon="2.405970290">
        <ele>169.30</ele>
        <time>2014-05-04T11:20:10Z</time>
      </trkpt>
      <trkpt lat="41.572422872" lon="2.405832660">
        <ele>169.80</ele>
        <time>2014-05-04T11:20:16Z</time>
      </trkpt>
      <trkpt lat="41.572396888" lon="2.405755630">
        <ele>170.80</ele>
        <time>2014-05-04T11:20:19Z</time>
      </trkpt>
      <trkpt lat="41.572374006" lon="2.405705171">
        <ele>171.30</ele>
        <time>2014-05-04T11:20:21Z</time>
      </trkpt>
      <trkpt lat="41.572223467" lon="2.405539544">
        <ele>171.70</ele>
        <time>2014-05-04T11:20:29Z</time>
      </trkpt>
      <trkpt lat="41.572017607" lon="2.405329242">
        <ele>171.70</ele>
        <time>2014-05-04T11:20:37Z</time>
      </trkpt>
      <trkpt lat="41.571813927" lon="2.405119863">
        <ele>171.70</ele>
        <time>2014-05-04T11:20:45Z</time>
      </trkpt>
      <trkpt lat="41.571604631" lon="2.404924564">
        <ele>171.70</ele>
        <time>2014-05-04T11:20:53Z</time>
      </trkpt>
      <trkpt lat="41.571424671" lon="2.404769080">
        <ele>170.80</ele>
        <time>2014-05-04T11:21:00Z</time>
      </trkpt>
      <trkpt lat="41.571180674" lon="2.404686853">
        <ele>170.30</ele>
        <time>2014-05-04T11:21:08Z</time>
      </trkpt>
      <trkpt lat="41.571020747" lon="2.404682243">
        <ele>169.80</ele>
        <time>2014-05-04T11:21:15Z</time>
      </trkpt>
      <trkpt lat="41.570915890" lon="2.404744269">
        <ele>169.30</ele>
        <time>2014-05-04T11:21:21Z</time>
      </trkpt>
      <trkpt lat="41.570918237" lon="2.404899586">
        <ele>168.90</ele>
        <time>2014-05-04T11:21:27Z</time>
      </trkpt>
      <trkpt lat="41.570956710" lon="2.404911824">
        <ele>168.90</ele>
        <time>2014-05-04T11:21:30Z</time>
      </trkpt>
      <trkpt lat="41.571060897" lon="2.404888438">
        <ele>169.80</ele>
        <time>2014-05-04T11:21:39Z</time>
      </trkpt>
      <trkpt lat="41.571084701" lon="2.404882990">
        <ele>170.30</ele>
        <time>2014-05-04T11:21:47Z</time>
      </trkpt>
      <trkpt lat="41.571111607" lon="2.404875949">
        <ele>170.80</ele>
        <time>2014-05-04T11:21:54Z</time>
      </trkpt>
      <trkpt lat="41.571154942" lon="2.404890115">
        <ele>171.30</ele>
        <time>2014-05-04T11:22:02Z</time>
      </trkpt>
      <trkpt lat="41.571205485" lon="2.404904699">
        <ele>173.20</ele>
        <time>2014-05-04T11:22:10Z</time>
      </trkpt>
      <trkpt lat="41.571240018" lon="2.404857593">
        <ele>173.20</ele>
        <time>2014-05-04T11:22:19Z</time>
      </trkpt>
      <trkpt lat="41.571264409" lon="2.404854491">
        <ele>173.20</ele>
        <time>2014-05-04T11:22:27Z</time>
      </trkpt>
      <trkpt lat="41.571287795" lon="2.404868070">
        <ele>173.20</ele>
        <time>2014-05-04T11:22:29Z</time>
      </trkpt>
      <trkpt lat="41.571371949" lon="2.404968737">
        <ele>175.10</ele>
        <time>2014-05-04T11:22:37Z</time>
      </trkpt>
      <trkpt lat="41.571445123" lon="2.405049957">
        <ele>175.60</ele>
        <time>2014-05-04T11:22:43Z</time>
      </trkpt>
      <trkpt lat="41.571488374" lon="2.405162443">
        <ele>177.50</ele>
        <time>2014-05-04T11:22:50Z</time>
      </trkpt>
      <trkpt lat="41.571521901" lon="2.405239808">
        <ele>178.50</ele>
        <time>2014-05-04T11:22:55Z</time>
      </trkpt>
      <trkpt lat="41.571584514" lon="2.405345336">
        <ele>179.90</ele>
        <time>2014-05-04T11:23:02Z</time>
      </trkpt>
      <trkpt lat="41.571672021" lon="2.405429071">
        <ele>180.90</ele>
        <time>2014-05-04T11:23:10Z</time>
      </trkpt>
      <trkpt lat="41.571681744" lon="2.405438710">
        <ele>181.40</ele>
        <time>2014-05-04T11:23:11Z</time>
      </trkpt>
      <trkpt lat="41.571751649" lon="2.405581873">
        <ele>182.30</ele>
        <time>2014-05-04T11:23:20Z</time>
      </trkpt>
      <trkpt lat="41.571816609" lon="2.405736938">
        <ele>182.80</ele>
        <time>2014-05-04T11:23:27Z</time>
      </trkpt>
      <trkpt lat="41.571910570" lon="2.405934919">
        <ele>185.20</ele>
        <time>2014-05-04T11:23:37Z</time>
      </trkpt>
      <trkpt lat="41.571917946" lon="2.405951599">
        <ele>185.70</ele>
        <time>2014-05-04T11:23:38Z</time>
      </trkpt>
      <trkpt lat="41.571963376" lon="2.406017229">
        <ele>186.60</ele>
        <time>2014-05-04T11:23:42Z</time>
      </trkpt>
      <trkpt lat="41.572051302" lon="2.406133989">
        <ele>189.00</ele>
        <time>2014-05-04T11:23:51Z</time>
      </trkpt>
      <trkpt lat="41.572122297" lon="2.406252174">
        <ele>191.00</ele>
        <time>2014-05-04T11:23:59Z</time>
      </trkpt>
      <trkpt lat="41.572139229" lon="2.406394834">
        <ele>191.90</ele>
        <time>2014-05-04T11:24:06Z</time>
      </trkpt>
      <trkpt lat="41.572203266" lon="2.406515952">
        <ele>192.90</ele>
        <time>2014-05-04T11:24:14Z</time>
      </trkpt>
      <trkpt lat="41.572298401" lon="2.406593736">
        <ele>194.30</ele>
        <time>2014-05-04T11:24:22Z</time>
      </trkpt>
      <trkpt lat="41.572376772" lon="2.406696331">
        <ele>196.30</ele>
        <time>2014-05-04T11:24:30Z</time>
      </trkpt>
      <trkpt lat="41.572395044" lon="2.406722482">
        <ele>196.70</ele>
        <time>2014-05-04T11:24:32Z</time>
      </trkpt>
      <trkpt lat="41.572445000" lon="2.406767745">
        <ele>197.20</ele>
        <time>2014-05-04T11:24:36Z</time>
      </trkpt>
      <trkpt lat="41.572564778" lon="2.406915518">
        <ele>198.20</ele>
        <time>2014-05-04T11:24:46Z</time>
      </trkpt>
      <trkpt lat="41.572648178" lon="2.407012245">
        <ele>199.10</ele>
        <time>2014-05-04T11:24:53Z</time>
      </trkpt>
      <trkpt lat="41.572742977" lon="2.407103775">
        <ele>200.60</ele>
        <time>2014-05-04T11:25:01Z</time>
      </trkpt>
      <trkpt lat="41.572753706" lon="2.407116516">
        <ele>200.60</ele>
        <time>2014-05-04T11:25:02Z</time>
      </trkpt>
      <trkpt lat="41.572768710" lon="2.407193713">
        <ele>202.50</ele>
        <time>2014-05-04T11:25:06Z</time>
      </trkpt>
      <trkpt lat="41.572786144" lon="2.407383395">
        <ele>204.40</ele>
        <time>2014-05-04T11:25:16Z</time>
      </trkpt>
      <trkpt lat="41.572785557" lon="2.407398064">
        <ele>204.40</ele>
        <time>2014-05-04T11:25:17Z</time>
      </trkpt>
      <trkpt lat="41.572803830" lon="2.407529576">
        <ele>206.80</ele>
        <time>2014-05-04T11:25:25Z</time>
      </trkpt>
      <trkpt lat="41.572791257" lon="2.407592524">
        <ele>207.80</ele>
        <time>2014-05-04T11:25:29Z</time>
      </trkpt>
      <trkpt lat="41.572835849" lon="2.407705177">
        <ele>210.70</ele>
        <time>2014-05-04T11:25:37Z</time>
      </trkpt>
      <trkpt lat="41.572861413" lon="2.407715403">
        <ele>211.60</ele>
        <time>2014-05-04T11:25:40Z</time>
      </trkpt>
      <trkpt lat="41.572922937" lon="2.407687910">
        <ele>212.60</ele>
        <time>2014-05-04T11:25:47Z</time>
      </trkpt>
      <trkpt lat="41.572949675" lon="2.407663100">
        <ele>212.60</ele>
        <time>2014-05-04T11:25:50Z</time>
      </trkpt>
      <trkpt lat="41.573021256" lon="2.407570060">
        <ele>213.10</ele>
        <time>2014-05-04T11:25:59Z</time>
      </trkpt>
      <trkpt lat="41.573103064" lon="2.407570144">
        <ele>214.50</ele>
        <time>2014-05-04T11:26:07Z</time>
      </trkpt>
      <trkpt lat="41.573077750" lon="2.407647509">
        <ele>215.50</ele>
        <time>2014-05-04T11:26:14Z</time>
      </trkpt>
      <trkpt lat="41.573035589" lon="2.407813722">
        <ele>217.40</ele>
        <time>2014-05-04T11:26:25Z</time>
      </trkpt>
      <trkpt lat="41.572977754" lon="2.407934422">
        <ele>218.80</ele>
        <time>2014-05-04T11:26:34Z</time>
      </trkpt>
      <trkpt lat="41.572966187" lon="2.407967279">
        <ele>218.80</ele>
        <time>2014-05-04T11:26:37Z</time>
      </trkpt>
      <trkpt lat="41.573001978" lon="2.408068281">
        <ele>221.70</ele>
        <time>2014-05-04T11:26:44Z</time>
      </trkpt>
      <trkpt lat="41.573040870" lon="2.408051517">
        <ele>222.70</ele>
        <time>2014-05-04T11:26:51Z</time>
      </trkpt>
      <trkpt lat="41.573055874" lon="2.408070879">
        <ele>222.70</ele>
        <time>2014-05-04T11:27:02Z</time>
      </trkpt>
      <trkpt lat="41.573073559" lon="2.408056546">
        <ele>223.20</ele>
        <time>2014-05-04T11:27:12Z</time>
      </trkpt>
      <trkpt lat="41.573091832" lon="2.408036681">
        <ele>223.20</ele>
        <time>2014-05-04T11:27:15Z</time>
      </trkpt>
      <trkpt lat="41.573165341" lon="2.407976750">
        <ele>226.10</ele>
        <time>2014-05-04T11:27:25Z</time>
      </trkpt>
      <trkpt lat="41.573202222" lon="2.407953281">
        <ele>227.50</ele>
        <time>2014-05-04T11:27:32Z</time>
      </trkpt>
      <trkpt lat="41.573255782" lon="2.407925202">
        <ele>228.90</ele>
        <time>2014-05-04T11:27:40Z</time>
      </trkpt>
      <trkpt lat="41.573296769" lon="2.407875581">
        <ele>228.90</ele>
        <time>2014-05-04T11:27:48Z</time>
      </trkpt>
      <trkpt lat="41.573356784" lon="2.407778770">
        <ele>227.50</ele>
        <time>2014-05-04T11:27:53Z</time>
      </trkpt>
      <trkpt lat="41.573378577" lon="2.407751277">
        <ele>227.50</ele>
        <time>2014-05-04T11:28:00Z</time>
      </trkpt>
      <trkpt lat="41.573377152" lon="2.407741470">
        <ele>227.50</ele>
        <time>2014-05-04T11:28:11Z</time>
      </trkpt>
      <trkpt lat="41.573392239" lon="2.407703836">
        <ele>227.00</ele>
        <time>2014-05-04T11:28:29Z</time>
      </trkpt>
      <trkpt lat="41.573417804" lon="2.407662932">
        <ele>227.00</ele>
        <time>2014-05-04T11:28:31Z</time>
      </trkpt>
      <trkpt lat="41.573555519" lon="2.407573078">
        <ele>227.00</ele>
        <time>2014-05-04T11:28:39Z</time>
      </trkpt>
      <trkpt lat="41.573685606" lon="2.407567965">
        <ele>226.10</ele>
        <time>2014-05-04T11:28:44Z</time>
      </trkpt>
      <trkpt lat="41.573792308" lon="2.407633092">
        <ele>224.10</ele>
        <time>2014-05-04T11:28:49Z</time>
      </trkpt>
      <trkpt lat="41.573833044" lon="2.407730239">
        <ele>222.70</ele>
        <time>2014-05-04T11:28:55Z</time>
      </trkpt>
      <trkpt lat="41.573885682" lon="2.407775333">
        <ele>222.70</ele>
        <time>2014-05-04T11:29:01Z</time>
      </trkpt>
      <trkpt lat="41.573934800" lon="2.407831408">
        <ele>222.20</ele>
        <time>2014-05-04T11:29:07Z</time>
      </trkpt>
      <trkpt lat="41.574032868" lon="2.408047158">
        <ele>220.30</ele>
        <time>2014-05-04T11:29:12Z</time>
      </trkpt>
      <trkpt lat="41.574076119" lon="2.408123518">
        <ele>219.80</ele>
        <time>2014-05-04T11:29:15Z</time>
      </trkpt>
      <trkpt lat="41.574207631" lon="2.408139443">
        <ele>218.40</ele>
        <time>2014-05-04T11:29:22Z</time>
      </trkpt>
      <trkpt lat="41.574387004" lon="2.408233991">
        <ele>216.00</ele>
        <time>2014-05-04T11:29:29Z</time>
      </trkpt>
      <trkpt lat="41.574545757" lon="2.408329629">
        <ele>213.10</ele>
        <time>2014-05-04T11:29:36Z</time>
      </trkpt>
      <trkpt lat="41.574573585" lon="2.408338597">
        <ele>213.10</ele>
        <time>2014-05-04T11:29:37Z</time>
      </trkpt>
      <trkpt lat="41.574678526" lon="2.408328036">
        <ele>214.50</ele>
        <time>2014-05-04T11:29:42Z</time>
      </trkpt>
      <trkpt lat="41.574698224" lon="2.408318984">
        <ele>215.00</ele>
        <time>2014-05-04T11:29:43Z</time>
      </trkpt>
      <trkpt lat="41.574764441" lon="2.408291323">
        <ele>216.90</ele>
        <time>2014-05-04T11:29:47Z</time>
      </trkpt>
      <trkpt lat="41.574812637" lon="2.408269530">
        <ele>217.90</ele>
        <time>2014-05-04T11:29:50Z</time>
      </trkpt>
      <trkpt lat="41.574857899" lon="2.408246648">
        <ele>218.40</ele>
        <time>2014-05-04T11:29:53Z</time>
      </trkpt>
      <trkpt lat="41.574952279" lon="2.408245223">
        <ele>219.30</ele>
        <time>2014-05-04T11:30:02Z</time>
      </trkpt>
      <trkpt lat="41.574985388" lon="2.408248995">
        <ele>219.30</ele>
        <time>2014-05-04T11:30:07Z</time>
      </trkpt>
      <trkpt lat="41.575054035" lon="2.408358043">
        <ele>219.80</ele>
        <time>2014-05-04T11:30:15Z</time>
      </trkpt>
      <trkpt lat="41.575065435" lon="2.408397857">
        <ele>220.30</ele>
        <time>2014-05-04T11:30:17Z</time>
      </trkpt>
      <trkpt lat="41.575104662" lon="2.408463068">
        <ele>220.30</ele>
        <time>2014-05-04T11:30:21Z</time>
      </trkpt>
      <trkpt lat="41.575205413" lon="2.408609668">
        <ele>222.20</ele>
        <time>2014-05-04T11:30:31Z</time>
      </trkpt>
      <trkpt lat="41.575232402" lon="2.408743443">
        <ele>222.70</ele>
        <time>2014-05-04T11:30:38Z</time>
      </trkpt>
      <trkpt lat="41.575276575" lon="2.408878224">
        <ele>224.10</ele>
        <time>2014-05-04T11:30:45Z</time>
      </trkpt>
      <trkpt lat="41.575341954" lon="2.408994984">
        <ele>224.60</ele>
        <time>2014-05-04T11:30:52Z</time>
      </trkpt>
      <trkpt lat="41.575351509" lon="2.409042509">
        <ele>224.60</ele>
        <time>2014-05-04T11:30:59Z</time>
      </trkpt>
      <trkpt lat="41.575359891" lon="2.409073522">
        <ele>225.10</ele>
        <time>2014-05-04T11:31:07Z</time>
      </trkpt>
      <trkpt lat="41.575394089" lon="2.409129430">
        <ele>223.60</ele>
        <time>2014-05-04T11:31:11Z</time>
      </trkpt>
      <trkpt lat="41.575394425" lon="2.409142254">
        <ele>223.60</ele>
        <time>2014-05-04T11:31:14Z</time>
      </trkpt>
      <trkpt lat="41.575477657" lon="2.409244346">
        <ele>220.30</ele>
        <time>2014-05-04T11:31:20Z</time>
      </trkpt>
      <trkpt lat="41.575506826" lon="2.409343587">
        <ele>218.40</ele>
        <time>2014-05-04T11:31:23Z</time>
      </trkpt>
      <trkpt lat="41.575544544" lon="2.409519272">
        <ele>216.00</ele>
        <time>2014-05-04T11:31:28Z</time>
      </trkpt>
      <trkpt lat="41.575659377" lon="2.409609797">
        <ele>214.50</ele>
        <time>2014-05-04T11:31:33Z</time>
      </trkpt>
      <trkpt lat="41.575676224" lon="2.409630919">
        <ele>214.50</ele>
        <time>2014-05-04T11:31:34Z</time>
      </trkpt>
      <trkpt lat="41.575770353" lon="2.409721779">
        <ele>215.00</ele>
        <time>2014-05-04T11:31:40Z</time>
      </trkpt>
      <trkpt lat="41.575793571" lon="2.409757570">
        <ele>216.40</ele>
        <time>2014-05-04T11:31:42Z</time>
      </trkpt>
      <trkpt lat="41.575822321" lon="2.409812555">
        <ele>217.40</ele>
        <time>2014-05-04T11:31:45Z</time>
      </trkpt>
      <trkpt lat="41.575862554" lon="2.409979019">
        <ele>219.80</ele>
        <time>2014-05-04T11:31:54Z</time>
      </trkpt>
      <trkpt lat="41.575913935" lon="2.410163086">
        <ele>221.70</ele>
        <time>2014-05-04T11:32:02Z</time>
      </trkpt>
      <trkpt lat="41.575983840" lon="2.410309183">
        <ele>221.70</ele>
        <time>2014-05-04T11:32:08Z</time>
      </trkpt>
      <trkpt lat="41.576008399" lon="2.410357546">
        <ele>222.20</ele>
        <time>2014-05-04T11:32:10Z</time>
      </trkpt>
      <trkpt lat="41.576032790" lon="2.410374310">
        <ele>222.70</ele>
        <time>2014-05-04T11:32:12Z</time>
      </trkpt>
      <trkpt lat="41.576051901" lon="2.410373723">
        <ele>223.20</ele>
        <time>2014-05-04T11:32:13Z</time>
      </trkpt>
      <trkpt lat="41.576162961" lon="2.410321336">
        <ele>226.10</ele>
        <time>2014-05-04T11:32:22Z</time>
      </trkpt>
      <trkpt lat="41.576185509" lon="2.410320247">
        <ele>226.50</ele>
        <time>2014-05-04T11:32:24Z</time>
      </trkpt>
      <trkpt lat="41.576278129" lon="2.410290826">
        <ele>228.50</ele>
        <time>2014-05-04T11:32:32Z</time>
      </trkpt>
      <trkpt lat="41.576383824" lon="2.410422087">
        <ele>230.40</ele>
        <time>2014-05-04T11:32:42Z</time>
      </trkpt>
      <trkpt lat="41.576501171" lon="2.410551252">
        <ele>228.50</ele>
        <time>2014-05-04T11:32:47Z</time>
      </trkpt>
      <trkpt lat="41.576592953" lon="2.410537087">
        <ele>226.50</ele>
        <time>2014-05-04T11:32:51Z</time>
      </trkpt>
      <trkpt lat="41.576728069" lon="2.410617804">
        <ele>224.60</ele>
        <time>2014-05-04T11:32:55Z</time>
      </trkpt>
      <trkpt lat="41.576761932" lon="2.410643788">
        <ele>224.60</ele>
        <time>2014-05-04T11:32:56Z</time>
      </trkpt>
      <trkpt lat="41.576900066" lon="2.410721991">
        <ele>223.20</ele>
        <time>2014-05-04T11:33:01Z</time>
      </trkpt>
      <trkpt lat="41.576950776" lon="2.410768846">
        <ele>223.20</ele>
        <time>2014-05-04T11:33:04Z</time>
      </trkpt>
      <trkpt lat="41.576983801" lon="2.410814695">
        <ele>223.20</ele>
        <time>2014-05-04T11:33:06Z</time>
      </trkpt>
      <trkpt lat="41.577127802" lon="2.410827939">
        <ele>222.20</ele>
        <time>2014-05-04T11:33:11Z</time>
      </trkpt>
      <trkpt lat="41.577232073" lon="2.410879320">
        <ele>222.20</ele>
        <time>2014-05-04T11:33:17Z</time>
      </trkpt>
      <trkpt lat="41.577285214" lon="2.410838081">
        <ele>223.60</ele>
        <time>2014-05-04T11:33:20Z</time>
      </trkpt>
      <trkpt lat="41.577333326" lon="2.410735905">
        <ele>225.60</ele>
        <time>2014-05-04T11:33:28Z</time>
      </trkpt>
      <trkpt lat="41.577363920" lon="2.410662480">
        <ele>226.50</ele>
        <time>2014-05-04T11:33:36Z</time>
      </trkpt>
      <trkpt lat="41.577383283" lon="2.410582768">
        <ele>228.00</ele>
        <time>2014-05-04T11:33:42Z</time>
      </trkpt>
      <trkpt lat="41.577425946" lon="2.410495848">
        <ele>229.40</ele>
        <time>2014-05-04T11:33:51Z</time>
      </trkpt>
      <trkpt lat="41.577437765" lon="2.410411609">
        <ele>230.40</ele>
        <time>2014-05-04T11:34:00Z</time>
      </trkpt>
      <trkpt lat="41.577444051" lon="2.410348661">
        <ele>230.90</ele>
        <time>2014-05-04T11:34:10Z</time>
      </trkpt>
      <trkpt lat="41.577471209" lon="2.410215305">
        <ele>231.80</ele>
        <time>2014-05-04T11:34:19Z</time>
      </trkpt>
      <trkpt lat="41.577531307" lon="2.410127966">
        <ele>233.70</ele>
        <time>2014-05-04T11:34:26Z</time>
      </trkpt>
      <trkpt lat="41.577620071" lon="2.410016738">
        <ele>235.20</ele>
        <time>2014-05-04T11:34:35Z</time>
      </trkpt>
      <trkpt lat="41.577670614" lon="2.409923531">
        <ele>236.10</ele>
        <time>2014-05-04T11:34:41Z</time>
      </trkpt>
      <trkpt lat="41.577742615" lon="2.409815908">
        <ele>237.60</ele>
        <time>2014-05-04T11:34:49Z</time>
      </trkpt>
      <trkpt lat="41.577772957" lon="2.409777099">
        <ele>238.50</ele>
        <time>2014-05-04T11:34:55Z</time>
      </trkpt>
      <trkpt lat="41.577787709" lon="2.409775842">
        <ele>238.50</ele>
        <time>2014-05-04T11:35:02Z</time>
      </trkpt>
      <trkpt lat="41.577797265" lon="2.409767460">
        <ele>238.50</ele>
        <time>2014-05-04T11:35:15Z</time>
      </trkpt>
      <trkpt lat="41.577839174" lon="2.409770729">
        <ele>239.00</ele>
        <time>2014-05-04T11:35:23Z</time>
      </trkpt>
      <trkpt lat="41.577886448" lon="2.409733011">
        <ele>241.00</ele>
        <time>2014-05-04T11:35:33Z</time>
      </trkpt>
      <trkpt lat="41.577942691" lon="2.409690514">
        <ele>241.90</ele>
        <time>2014-05-04T11:35:42Z</time>
      </trkpt>
      <trkpt lat="41.577979739" lon="2.409603175">
        <ele>243.80</ele>
        <time>2014-05-04T11:35:52Z</time>
      </trkpt>
      <trkpt lat="41.578023828" lon="2.409556823">
        <ele>243.80</ele>
        <time>2014-05-04T11:36:00Z</time>
      </trkpt>
      <trkpt lat="41.578062552" lon="2.409505442">
        <ele>245.30</ele>
        <time>2014-05-04T11:36:08Z</time>
      </trkpt>
      <trkpt lat="41.578096834" lon="2.409452887">
        <ele>246.20</ele>
        <time>2014-05-04T11:36:16Z</time>
      </trkpt>
      <trkpt lat="41.578127679" lon="2.409335792">
        <ele>247.20</ele>
        <time>2014-05-04T11:36:23Z</time>
      </trkpt>
      <trkpt lat="41.578106138" lon="2.409182487">
        <ele>248.20</ele>
        <time>2014-05-04T11:36:31Z</time>
      </trkpt>
      <trkpt lat="41.578084848" lon="2.409089364">
        <ele>249.60</ele>
        <time>2014-05-04T11:36:37Z</time>
      </trkpt>
      <trkpt lat="41.578101109" lon="2.409026668">
        <ele>250.10</ele>
        <time>2014-05-04T11:36:41Z</time>
      </trkpt>
      <trkpt lat="41.578184090" lon="2.409023566">
        <ele>251.50</ele>
        <time>2014-05-04T11:36:49Z</time>
      </trkpt>
      <trkpt lat="41.578261287" lon="2.409041001">
        <ele>252.50</ele>
        <time>2014-05-04T11:36:57Z</time>
      </trkpt>
      <trkpt lat="41.578382657" lon="2.409115683">
        <ele>254.40</ele>
        <time>2014-05-04T11:37:07Z</time>
      </trkpt>
      <trkpt lat="41.578454406" lon="2.409151977">
        <ele>255.40</ele>
        <time>2014-05-04T11:37:13Z</time>
      </trkpt>
      <trkpt lat="41.578539315" lon="2.409197156">
        <ele>255.90</ele>
        <time>2014-05-04T11:37:21Z</time>
      </trkpt>
      <trkpt lat="41.578565047" lon="2.409208136">
        <ele>255.90</ele>
        <time>2014-05-04T11:37:28Z</time>
      </trkpt>
      <trkpt lat="41.578574267" lon="2.409201346">
        <ele>255.90</ele>
        <time>2014-05-04T11:37:31Z</time>
      </trkpt>
      <trkpt lat="41.578589941" lon="2.409071930">
        <ele>254.90</ele>
        <time>2014-05-04T11:37:38Z</time>
      </trkpt>
      <trkpt lat="41.578602430" lon="2.408946704">
        <ele>253.40</ele>
        <time>2014-05-04T11:37:44Z</time>
      </trkpt>
      <trkpt lat="41.578632773" lon="2.408866070">
        <ele>252.00</ele>
        <time>2014-05-04T11:37:51Z</time>
      </trkpt>
      <trkpt lat="41.578632018" lon="2.408864310">
        <ele>252.00</ele>
        <time>2014-05-04T11:38:01Z</time>
      </trkpt>
      <trkpt lat="41.578643083" lon="2.408840925">
        <ele>251.50</ele>
        <time>2014-05-04T11:38:10Z</time>
      </trkpt>
      <trkpt lat="41.578691865" lon="2.408803290">
        <ele>250.60</ele>
        <time>2014-05-04T11:38:14Z</time>
      </trkpt>
      <trkpt lat="41.578771661" lon="2.408602040">
        <ele>248.20</ele>
        <time>2014-05-04T11:38:22Z</time>
      </trkpt>
      <trkpt lat="41.578793286" lon="2.408580834">
        <ele>247.20</ele>
        <time>2014-05-04T11:38:24Z</time>
      </trkpt>
      <trkpt lat="41.578821701" lon="2.408535237">
        <ele>246.70</ele>
        <time>2014-05-04T11:38:28Z</time>
      </trkpt>
      <trkpt lat="41.578882470" lon="2.408490645">
        <ele>245.30</ele>
        <time>2014-05-04T11:38:33Z</time>
      </trkpt>
      <trkpt lat="41.578930163" lon="2.408456782">
        <ele>243.40</ele>
        <time>2014-05-04T11:38:41Z</time>
      </trkpt>
      <trkpt lat="41.578953967" lon="2.408430547">
        <ele>243.40</ele>
        <time>2014-05-04T11:38:51Z</time>
      </trkpt>
      <trkpt lat="41.578999062" lon="2.408417136">
        <ele>242.40</ele>
        <time>2014-05-04T11:39:03Z</time>
      </trkpt>
      <trkpt lat="41.579040804" lon="2.408419063">
        <ele>241.00</ele>
        <time>2014-05-04T11:39:10Z</time>
      </trkpt>
      <trkpt lat="41.579081288" lon="2.408414537">
        <ele>239.50</ele>
        <time>2014-05-04T11:39:16Z</time>
      </trkpt>
      <trkpt lat="41.579093107" lon="2.408398276">
        <ele>239.00</ele>
        <time>2014-05-04T11:39:23Z</time>
      </trkpt>
      <trkpt lat="41.579096963" lon="2.408380423">
        <ele>239.00</ele>
        <time>2014-05-04T11:39:25Z</time>
      </trkpt>
      <trkpt lat="41.579103668" lon="2.408273721">
        <ele>238.50</ele>
        <time>2014-05-04T11:39:30Z</time>
      </trkpt>
      <trkpt lat="41.579097130" lon="2.408214713">
        <ele>238.10</ele>
        <time>2014-05-04T11:39:32Z</time>
      </trkpt>
      <trkpt lat="41.579105261" lon="2.408167439">
        <ele>237.60</ele>
        <time>2014-05-04T11:39:34Z</time>
      </trkpt>
      <trkpt lat="41.579114732" lon="2.408054451">
        <ele>236.10</ele>
        <time>2014-05-04T11:39:38Z</time>
      </trkpt>
      <trkpt lat="41.579155049" lon="2.407945067">
        <ele>233.30</ele>
        <time>2014-05-04T11:39:43Z</time>
      </trkpt>
      <trkpt lat="41.579198719" lon="2.407676762">
        <ele>230.90</ele>
        <time>2014-05-04T11:39:48Z</time>
      </trkpt>
      <trkpt lat="41.579232079" lon="2.407406194">
        <ele>229.90</ele>
        <time>2014-05-04T11:39:53Z</time>
      </trkpt>
      <trkpt lat="41.579247250" lon="2.407344587">
        <ele>229.40</ele>
        <time>2014-05-04T11:39:54Z</time>
      </trkpt>
      <trkpt lat="41.579338697" lon="2.407150546">
        <ele>227.50</ele>
        <time>2014-05-04T11:39:59Z</time>
      </trkpt>
      <trkpt lat="41.579365351" lon="2.407191115">
        <ele>227.00</ele>
        <time>2014-05-04T11:40:01Z</time>
      </trkpt>
      <trkpt lat="41.579380271" lon="2.407255152">
        <ele>226.50</ele>
        <time>2014-05-04T11:40:03Z</time>
      </trkpt>
      <trkpt lat="41.579406003" lon="2.407415331">
        <ele>225.10</ele>
        <time>2014-05-04T11:40:07Z</time>
      </trkpt>
      <trkpt lat="41.579454367" lon="2.407725880">
        <ele>223.20</ele>
        <time>2014-05-04T11:40:13Z</time>
      </trkpt>
      <trkpt lat="41.579525026" lon="2.407940289">
        <ele>221.70</ele>
        <time>2014-05-04T11:40:19Z</time>
      </trkpt>
      <trkpt lat="41.579610354" lon="2.408038777">
        <ele>220.30</ele>
        <time>2014-05-04T11:40:23Z</time>
      </trkpt>
      <trkpt lat="41.579687132" lon="2.408234913">
        <ele>216.90</ele>
        <time>2014-05-04T11:40:30Z</time>
      </trkpt>
      <trkpt lat="41.579661735" lon="2.408467008">
        <ele>215.50</ele>
        <time>2014-05-04T11:40:36Z</time>
      </trkpt>
      <trkpt lat="41.579677326" lon="2.408694577">
        <ele>214.50</ele>
        <time>2014-05-04T11:40:41Z</time>
      </trkpt>
      <trkpt lat="41.579762234" lon="2.408865148">
        <ele>214.50</ele>
        <time>2014-05-04T11:40:47Z</time>
      </trkpt>
      <trkpt lat="41.579828954" lon="2.408945698">
        <ele>216.00</ele>
        <time>2014-05-04T11:40:51Z</time>
      </trkpt>
      <trkpt lat="41.579963651" lon="2.409125909">
        <ele>216.40</ele>
        <time>2014-05-04T11:40:58Z</time>
      </trkpt>
      <trkpt lat="41.580017882" lon="2.409230096">
        <ele>217.40</ele>
        <time>2014-05-04T11:41:04Z</time>
      </trkpt>
      <trkpt lat="41.580091308" lon="2.409340486">
        <ele>213.55</ele>
        <time>2014-05-04T11:41:10Z</time>
      </trkpt>
      <trkpt lat="41.580102791" lon="2.409362195">
        <ele>213.55</ele>
        <time>2014-05-04T11:41:11Z</time>
      </trkpt>
      <trkpt lat="41.580184598" lon="2.409462610">
        <ele>211.63</ele>
        <time>2014-05-04T11:41:15Z</time>
      </trkpt>
      <trkpt lat="41.580193986" lon="2.409526564">
        <ele>211.15</ele>
        <time>2014-05-04T11:41:18Z</time>
      </trkpt>
      <trkpt lat="41.580218880" lon="2.409739632">
        <ele>214.51</ele>
        <time>2014-05-04T11:41:27Z</time>
      </trkpt>
      <trkpt lat="41.580211085" lon="2.409913641">
        <ele>214.51</ele>
        <time>2014-05-04T11:41:33Z</time>
      </trkpt>
      <trkpt lat="41.580206810" lon="2.410136096">
        <ele>214.51</ele>
        <time>2014-05-04T11:41:41Z</time>
      </trkpt>
      <trkpt lat="41.580163979" lon="2.410332233">
        <ele>214.99</ele>
        <time>2014-05-04T11:41:48Z</time>
      </trkpt>
      <trkpt lat="41.580109664" lon="2.410390319">
        <ele>215.47</ele>
        <time>2014-05-04T11:41:52Z</time>
      </trkpt>
      <trkpt lat="41.580043699" lon="2.410494506">
        <ele>216.43</ele>
        <time>2014-05-04T11:41:59Z</time>
      </trkpt>
      <trkpt lat="41.579939092" lon="2.410567429">
        <ele>219.30</ele>
        <time>2014-05-04T11:42:08Z</time>
      </trkpt>
      <trkpt lat="41.579920317" lon="2.410579080">
        <ele>219.30</ele>
        <time>2014-05-04T11:42:10Z</time>
      </trkpt>
      <trkpt lat="41.579898859" lon="2.410615793">
        <ele>219.80</ele>
        <time>2014-05-04T11:42:11Z</time>
      </trkpt>
      <trkpt lat="41.579940853" lon="2.410812684">
        <ele>219.80</ele>
        <time>2014-05-04T11:42:19Z</time>
      </trkpt>
      <trkpt lat="41.579969770" lon="2.410969844">
        <ele>220.80</ele>
        <time>2014-05-04T11:42:26Z</time>
      </trkpt>
      <trkpt lat="41.579967256" lon="2.411151061">
        <ele>222.20</ele>
        <time>2014-05-04T11:42:35Z</time>
      </trkpt>
      <trkpt lat="41.579990557" lon="2.411328590">
        <ele>223.60</ele>
        <time>2014-05-04T11:42:43Z</time>
      </trkpt>
      <trkpt lat="41.580015619" lon="2.411539981">
        <ele>225.09</ele>
        <time>2014-05-04T11:42:52Z</time>
      </trkpt>
      <trkpt lat="41.580021487" lon="2.411665375">
        <ele>226.53</ele>
        <time>2014-05-04T11:42:59Z</time>
      </trkpt>
      <trkpt lat="41.580013272" lon="2.411811471">
        <ele>227.97</ele>
        <time>2014-05-04T11:43:06Z</time>
      </trkpt>
      <trkpt lat="41.579979829" lon="2.411977433">
        <ele>228.90</ele>
        <time>2014-05-04T11:43:14Z</time>
      </trkpt>
      <trkpt lat="41.579936326" lon="2.412147753">
        <ele>229.90</ele>
        <time>2014-05-04T11:43:23Z</time>
      </trkpt>
      <trkpt lat="41.579858878" lon="2.412320504">
        <ele>229.90</ele>
        <time>2014-05-04T11:43:29Z</time>
      </trkpt>
      <trkpt lat="41.579819902" lon="2.412422931">
        <ele>229.90</ele>
        <time>2014-05-04T11:43:35Z</time>
      </trkpt>
      <trkpt lat="41.579717475" lon="2.412441874">
        <ele>231.30</ele>
        <time>2014-05-04T11:43:42Z</time>
      </trkpt>
      <trkpt lat="41.579675146" lon="2.412435588">
        <ele>231.80</ele>
        <time>2014-05-04T11:43:45Z</time>
      </trkpt>
      <trkpt lat="41.579630890" lon="2.412429385">
        <ele>232.80</ele>
        <time>2014-05-04T11:43:49Z</time>
      </trkpt>
      <trkpt lat="41.579565679" lon="2.412406586">
        <ele>233.70</ele>
        <time>2014-05-04T11:43:55Z</time>
      </trkpt>
      <trkpt lat="41.579473897" lon="2.412424356">
        <ele>235.70</ele>
        <time>2014-05-04T11:44:03Z</time>
      </trkpt>
      <trkpt lat="41.579387731" lon="2.412435252">
        <ele>237.10</ele>
        <time>2014-05-04T11:44:11Z</time>
      </trkpt>
      <trkpt lat="41.579321598" lon="2.412456291">
        <ele>239.00</ele>
        <time>2014-05-04T11:44:17Z</time>
      </trkpt>
      <trkpt lat="41.579266696" lon="2.412457967">
        <ele>239.50</ele>
        <time>2014-05-04T11:44:20Z</time>
      </trkpt>
      <trkpt lat="41.579236940" lon="2.412432319">
        <ele>240.50</ele>
        <time>2014-05-04T11:44:23Z</time>
      </trkpt>
      <trkpt lat="41.579242472" lon="2.412344393">
        <ele>241.90</ele>
        <time>2014-05-04T11:44:30Z</time>
      </trkpt>
      <trkpt lat="41.579299805" lon="2.412249258">
        <ele>242.90</ele>
        <time>2014-05-04T11:44:38Z</time>
      </trkpt>
      <trkpt lat="41.579354119" lon="2.412146328">
        <ele>244.30</ele>
        <time>2014-05-04T11:44:46Z</time>
      </trkpt>
      <trkpt lat="41.579282454" lon="2.412071897">
        <ele>245.80</ele>
        <time>2014-05-04T11:44:54Z</time>
      </trkpt>
      <trkpt lat="41.579220093" lon="2.412078686">
        <ele>246.70</ele>
        <time>2014-05-04T11:45:01Z</time>
      </trkpt>
      <trkpt lat="41.579131328" lon="2.412104670">
        <ele>248.60</ele>
        <time>2014-05-04T11:45:09Z</time>
      </trkpt>
      <trkpt lat="41.579025046" lon="2.412151190">
        <ele>250.60</ele>
        <time>2014-05-04T11:45:19Z</time>
      </trkpt>
      <trkpt lat="41.578928570" lon="2.412189830">
        <ele>252.50</ele>
        <time>2014-05-04T11:45:28Z</time>
      </trkpt>
      <trkpt lat="41.578852965" lon="2.412218999">
        <ele>253.00</ele>
        <time>2014-05-04T11:45:35Z</time>
      </trkpt>
      <trkpt lat="41.578808709" lon="2.412240876">
        <ele>253.40</ele>
        <time>2014-05-04T11:45:39Z</time>
      </trkpt>
      <trkpt lat="41.578738720" lon="2.412303405">
        <ele>253.90</ele>
        <time>2014-05-04T11:45:45Z</time>
      </trkpt>
      <trkpt lat="41.578665630" lon="2.412402731">
        <ele>255.40</ele>
        <time>2014-05-04T11:45:52Z</time>
      </trkpt>
      <trkpt lat="41.578621038" lon="2.412463332">
        <ele>255.90</ele>
        <time>2014-05-04T11:45:56Z</time>
      </trkpt>
      <trkpt lat="41.578562113" lon="2.412549162">
        <ele>256.80</ele>
        <time>2014-05-04T11:46:02Z</time>
      </trkpt>
      <trkpt lat="41.578510649" lon="2.412579170">
        <ele>258.30</ele>
        <time>2014-05-04T11:46:06Z</time>
      </trkpt>
      <trkpt lat="41.578472511" lon="2.412576320">
        <ele>258.70</ele>
        <time>2014-05-04T11:46:09Z</time>
      </trkpt>
      <trkpt lat="41.578463542" lon="2.412564669">
        <ele>258.70</ele>
        <time>2014-05-04T11:46:10Z</time>
      </trkpt>
      <trkpt lat="41.578454406" lon="2.412501386">
        <ele>259.70</ele>
        <time>2014-05-04T11:46:15Z</time>
      </trkpt>
      <trkpt lat="41.578453987" lon="2.412401306">
        <ele>260.20</ele>
        <time>2014-05-04T11:46:24Z</time>
      </trkpt>
      <trkpt lat="41.578457759" lon="2.412384374">
        <ele>260.20</ele>
        <time>2014-05-04T11:46:25Z</time>
      </trkpt>
      <trkpt lat="41.578467733" lon="2.412304327">
        <ele>261.60</ele>
        <time>2014-05-04T11:46:30Z</time>
      </trkpt>
      <trkpt lat="41.578487431" lon="2.412148340">
        <ele>262.10</ele>
        <time>2014-05-04T11:46:38Z</time>
      </trkpt>
      <trkpt lat="41.578468823" lon="2.412051948">
        <ele>263.50</ele>
        <time>2014-05-04T11:46:44Z</time>
      </trkpt>
      <trkpt lat="41.578408389" lon="2.412019594">
        <ele>264.00</ele>
        <time>2014-05-04T11:46:50Z</time>
      </trkpt>
      <trkpt lat="41.578378801" lon="2.412029484">
        <ele>264.50</ele>
        <time>2014-05-04T11:46:53Z</time>
      </trkpt>
      <trkpt lat="41.578345776" lon="2.412043398">
        <ele>265.00</ele>
        <time>2014-05-04T11:46:56Z</time>
      </trkpt>
      <trkpt lat="41.578277045" lon="2.412068544">
        <ele>265.90</ele>
        <time>2014-05-04T11:47:04Z</time>
      </trkpt>
      <trkpt lat="41.578215857" lon="2.412083715">
        <ele>266.90</ele>
        <time>2014-05-04T11:47:12Z</time>
      </trkpt>
      <trkpt lat="41.578189538" lon="2.412073992">
        <ele>266.90</ele>
        <time>2014-05-04T11:47:27Z</time>
      </trkpt>
      <trkpt lat="41.578157603" lon="2.412081452">
        <ele>266.90</ele>
        <time>2014-05-04T11:47:39Z</time>
      </trkpt>
      <trkpt lat="41.578160956" lon="2.412084805">
        <ele>266.90</ele>
        <time>2014-05-04T11:47:53Z</time>
      </trkpt>
      <trkpt lat="41.578166488" lon="2.412085392">
        <ele>266.90</ele>
        <time>2014-05-04T11:48:02Z</time>
      </trkpt>
      <trkpt lat="41.578154501" lon="2.412097126">
        <ele>266.90</ele>
        <time>2014-05-04T11:48:19Z</time>
      </trkpt>
      <trkpt lat="41.578170930" lon="2.412116908">
        <ele>266.90</ele>
        <time>2014-05-04T11:48:33Z</time>
      </trkpt>
      <trkpt lat="41.578173109" lon="2.412124451">
        <ele>266.90</ele>
        <time>2014-05-04T11:48:46Z</time>
      </trkpt>
      <trkpt lat="41.578157267" lon="2.412120177">
        <ele>266.90</ele>
        <time>2014-05-04T11:49:04Z</time>
      </trkpt>
      <trkpt lat="41.578039083" lon="2.412052032">
        <ele>266.90</ele>
        <time>2014-05-04T11:49:13Z</time>
      </trkpt>
      <trkpt lat="41.577989210" lon="2.412026048">
        <ele>266.90</ele>
        <time>2014-05-04T11:49:17Z</time>
      </trkpt>
      <trkpt lat="41.577923077" lon="2.411989670">
        <ele>266.90</ele>
        <time>2014-05-04T11:49:21Z</time>
      </trkpt>
      <trkpt lat="41.577827775" lon="2.411995202">
        <ele>266.90</ele>
        <time>2014-05-04T11:49:26Z</time>
      </trkpt>
      <trkpt lat="41.577723336" lon="2.412089164">
        <ele>266.90</ele>
        <time>2014-05-04T11:49:34Z</time>
      </trkpt>
      <trkpt lat="41.577679667" lon="2.412114728">
        <ele>266.90</ele>
        <time>2014-05-04T11:49:42Z</time>
      </trkpt>
      <trkpt lat="41.577671955" lon="2.412097462">
        <ele>266.90</ele>
        <time>2014-05-04T11:49:57Z</time>
      </trkpt>
      <trkpt lat="41.577664495" lon="2.412104838">
        <ele>266.90</ele>
        <time>2014-05-04T11:50:07Z</time>
      </trkpt>
      <trkpt lat="41.577656030" lon="2.412106598">
        <ele>266.90</ele>
        <time>2014-05-04T11:50:24Z</time>
      </trkpt>
      <trkpt lat="41.577667932" lon="2.412107771">
        <ele>266.90</ele>
        <time>2014-05-04T11:50:37Z</time>
      </trkpt>
      <trkpt lat="41.577668100" lon="2.412112968">
        <ele>266.90</ele>
        <time>2014-05-04T11:50:52Z</time>
      </trkpt>
      <trkpt lat="41.577660221" lon="2.412110454">
        <ele>266.90</ele>
        <time>2014-05-04T11:51:06Z</time>
      </trkpt>
      <trkpt lat="41.577665837" lon="2.412115231">
        <ele>266.90</ele>
        <time>2014-05-04T11:51:18Z</time>
      </trkpt>
      <trkpt lat="41.577669441" lon="2.412133001">
        <ele>266.90</ele>
        <time>2014-05-04T11:51:31Z</time>
      </trkpt>
      <trkpt lat="41.577674805" lon="2.412154878">
        <ele>266.90</ele>
        <time>2014-05-04T11:51:50Z</time>
      </trkpt>
      <trkpt lat="41.577672374" lon="2.412150519">
        <ele>266.90</ele>
        <time>2014-05-04T11:52:04Z</time>
      </trkpt>
      <trkpt lat="41.577667764" lon="2.412136605">
        <ele>266.90</ele>
        <time>2014-05-04T11:52:17Z</time>
      </trkpt>
      <trkpt lat="41.577658628" lon="2.412140209">
        <ele>266.90</ele>
        <time>2014-05-04T11:52:34Z</time>
      </trkpt>
      <trkpt lat="41.577630884" lon="2.412177928">
        <ele>266.90</ele>
        <time>2014-05-04T11:52:43Z</time>
      </trkpt>
      <trkpt lat="41.577529547" lon="2.412283624">
        <ele>266.90</ele>
        <time>2014-05-04T11:52:51Z</time>
      </trkpt>
      <trkpt lat="41.577424438" lon="2.412349589">
        <ele>266.90</ele>
        <time>2014-05-04T11:52:58Z</time>
      </trkpt>
      <trkpt lat="41.577281442" lon="2.412319917">
        <ele>267.90</ele>
        <time>2014-05-04T11:53:06Z</time>
      </trkpt>
      <trkpt lat="41.577167113" lon="2.412232746">
        <ele>267.90</ele>
        <time>2014-05-04T11:53:13Z</time>
      </trkpt>
      <trkpt lat="41.577137358" lon="2.412216568">
        <ele>268.40</ele>
        <time>2014-05-04T11:53:15Z</time>
      </trkpt>
      <trkpt lat="41.576992351" lon="2.412154626">
        <ele>268.80</ele>
        <time>2014-05-04T11:53:23Z</time>
      </trkpt>
      <trkpt lat="41.576848685" lon="2.412130570">
        <ele>269.80</ele>
        <time>2014-05-04T11:53:32Z</time>
      </trkpt>
      <trkpt lat="41.576823539" lon="2.412119925">
        <ele>270.30</ele>
        <time>2014-05-04T11:53:39Z</time>
      </trkpt>
      <trkpt lat="41.576814654" lon="2.412118416">
        <ele>270.30</ele>
        <time>2014-05-04T11:53:46Z</time>
      </trkpt>
      <trkpt lat="41.576770565" lon="2.412105592">
        <ele>270.30</ele>
        <time>2014-05-04T11:53:53Z</time>
      </trkpt>
      <trkpt lat="41.576742989" lon="2.412100144">
        <ele>270.30</ele>
        <time>2014-05-04T11:54:04Z</time>
      </trkpt>
      <trkpt lat="41.576732679" lon="2.412095618">
        <ele>270.30</ele>
        <time>2014-05-04T11:54:05Z</time>
      </trkpt>
      <trkpt lat="41.576593623" lon="2.411970476">
        <ele>267.90</ele>
        <time>2014-05-04T11:54:12Z</time>
      </trkpt>
      <trkpt lat="41.576446940" lon="2.411828570">
        <ele>266.40</ele>
        <time>2014-05-04T11:54:18Z</time>
      </trkpt>
      <trkpt lat="41.576427578" lon="2.411802251">
        <ele>265.90</ele>
        <time>2014-05-04T11:54:22Z</time>
      </trkpt>
      <trkpt lat="41.576423555" lon="2.411789511">
        <ele>265.90</ele>
        <time>2014-05-04T11:54:28Z</time>
      </trkpt>
      <trkpt lat="41.576445012" lon="2.411783727">
        <ele>265.90</ele>
        <time>2014-05-04T11:54:35Z</time>
      </trkpt>
      <trkpt lat="41.576457585" lon="2.411795126">
        <ele>265.90</ele>
        <time>2014-05-04T11:54:37Z</time>
      </trkpt>
      <trkpt lat="41.576538387" lon="2.411874000">
        <ele>265.90</ele>
        <time>2014-05-04T11:54:44Z</time>
      </trkpt>
      <trkpt lat="41.576563449" lon="2.411901744">
        <ele>267.40</ele>
        <time>2014-05-04T11:54:46Z</time>
      </trkpt>
      <trkpt lat="41.576574932" lon="2.411919765">
        <ele>267.40</ele>
        <time>2014-05-04T11:54:47Z</time>
      </trkpt>
      <trkpt lat="41.576705522" lon="2.412053708">
        <ele>268.80</ele>
        <time>2014-05-04T11:54:56Z</time>
      </trkpt>
      <trkpt lat="41.576805434" lon="2.412171390">
        <ele>270.30</ele>
        <time>2014-05-04T11:55:03Z</time>
      </trkpt>
      <trkpt lat="41.576892354" lon="2.412265435">
        <ele>272.20</ele>
        <time>2014-05-04T11:55:10Z</time>
      </trkpt>
      <trkpt lat="41.576983633" lon="2.412341124">
        <ele>273.20</ele>
        <time>2014-05-04T11:55:17Z</time>
      </trkpt>
      <trkpt lat="41.577080277" lon="2.412441036">
        <ele>274.60</ele>
        <time>2014-05-04T11:55:25Z</time>
      </trkpt>
      <trkpt lat="41.577199048" lon="2.412551677">
        <ele>276.50</ele>
        <time>2014-05-04T11:55:34Z</time>
      </trkpt>
      <trkpt lat="41.577291417" lon="2.412596436">
        <ele>278.00</ele>
        <time>2014-05-04T11:55:41Z</time>
      </trkpt>
      <trkpt lat="41.577422845" lon="2.412628371">
        <ele>279.90</ele>
        <time>2014-05-04T11:55:50Z</time>
      </trkpt>
      <trkpt lat="41.577491996" lon="2.412653266">
        <ele>280.80</ele>
        <time>2014-05-04T11:55:55Z</time>
      </trkpt>
      <trkpt lat="41.577605068" lon="2.412770948">
        <ele>282.30</ele>
        <time>2014-05-04T11:56:04Z</time>
      </trkpt>
      <trkpt lat="41.577611186" lon="2.412945375">
        <ele>283.30</ele>
        <time>2014-05-04T11:56:12Z</time>
      </trkpt>
      <trkpt lat="41.577547065" lon="2.413139919">
        <ele>284.20</ele>
        <time>2014-05-04T11:56:21Z</time>
      </trkpt>
      <trkpt lat="41.577554106" lon="2.413409230">
        <ele>285.70</ele>
        <time>2014-05-04T11:56:32Z</time>
      </trkpt>
      <trkpt lat="41.577628621" lon="2.413595224">
        <ele>286.60</ele>
        <time>2014-05-04T11:56:41Z</time>
      </trkpt>
      <trkpt lat="41.577715625" lon="2.413764455">
        <ele>288.10</ele>
        <time>2014-05-04T11:56:48Z</time>
      </trkpt>
      <trkpt lat="41.577853256" lon="2.413951790">
        <ele>289.00</ele>
        <time>2014-05-04T11:56:58Z</time>
      </trkpt>
      <trkpt lat="41.577970016" lon="2.414086990">
        <ele>290.00</ele>
        <time>2014-05-04T11:57:07Z</time>
      </trkpt>
      <trkpt lat="41.578077556" lon="2.414250270">
        <ele>291.90</ele>
        <time>2014-05-04T11:57:17Z</time>
      </trkpt>
      <trkpt lat="41.578102701" lon="2.414476833">
        <ele>293.80</ele>
        <time>2014-05-04T11:57:27Z</time>
      </trkpt>
      <trkpt lat="41.578032796" lon="2.414618906">
        <ele>294.80</ele>
        <time>2014-05-04T11:57:34Z</time>
      </trkpt>
      <trkpt lat="41.577910420" lon="2.414775480">
        <ele>296.20</ele>
        <time>2014-05-04T11:57:43Z</time>
      </trkpt>
      <trkpt lat="41.577781339" lon="2.414861897">
        <ele>297.70</ele>
        <time>2014-05-04T11:57:51Z</time>
      </trkpt>
      <trkpt lat="41.577645552" lon="2.414898191">
        <ele>299.10</ele>
        <time>2014-05-04T11:57:59Z</time>
      </trkpt>
      <trkpt lat="41.577483865" lon="2.414972874">
        <ele>300.10</ele>
        <time>2014-05-04T11:58:08Z</time>
      </trkpt>
      <trkpt lat="41.577362160" lon="2.415111259">
        <ele>301.50</ele>
        <time>2014-05-04T11:58:16Z</time>
      </trkpt>
      <trkpt lat="41.577289908" lon="2.415307144">
        <ele>302.50</ele>
        <time>2014-05-04T11:58:24Z</time>
      </trkpt>
      <trkpt lat="41.577299380" lon="2.415507220">
        <ele>303.40</ele>
        <time>2014-05-04T11:58:32Z</time>
      </trkpt>
      <trkpt lat="41.577338020" lon="2.415715007">
        <ele>304.40</ele>
        <time>2014-05-04T11:58:40Z</time>
      </trkpt>
      <trkpt lat="41.577377750" lon="2.415913491">
        <ele>305.80</ele>
        <time>2014-05-04T11:58:48Z</time>
      </trkpt>
      <trkpt lat="41.577416978" lon="2.416095043">
        <ele>306.80</ele>
        <time>2014-05-04T11:58:56Z</time>
      </trkpt>
      <trkpt lat="41.577451595" lon="2.416324120">
        <ele>309.20</ele>
        <time>2014-05-04T11:59:06Z</time>
      </trkpt>
      <trkpt lat="41.577458552" lon="2.416543055">
        <ele>310.60</ele>
        <time>2014-05-04T11:59:15Z</time>
      </trkpt>
      <trkpt lat="41.577434328" lon="2.416725446">
        <ele>312.60</ele>
        <time>2014-05-04T11:59:23Z</time>
      </trkpt>
      <trkpt lat="41.577313797" lon="2.416856455">
        <ele>313.10</ele>
        <time>2014-05-04T11:59:32Z</time>
      </trkpt>
      <trkpt lat="41.577154205" lon="2.416927952">
        <ele>314.00</ele>
        <time>2014-05-04T11:59:41Z</time>
      </trkpt>
      <trkpt lat="41.576982376" lon="2.417004647">
        <ele>315.00</ele>
        <time>2014-05-04T11:59:50Z</time>
      </trkpt>
      <trkpt lat="41.576814654" lon="2.417076564">
        <ele>315.00</ele>
        <time>2014-05-04T11:59:58Z</time>
      </trkpt>
      <trkpt lat="41.576665289" lon="2.417161640">
        <ele>315.90</ele>
        <time>2014-05-04T12:00:05Z</time>
      </trkpt>
      <trkpt lat="41.576542075" lon="2.417319220">
        <ele>316.40</ele>
        <time>2014-05-04T12:00:12Z</time>
      </trkpt>
      <trkpt lat="41.576442665" lon="2.417484930">
        <ele>316.90</ele>
        <time>2014-05-04T12:00:19Z</time>
      </trkpt>
      <trkpt lat="41.576315344" lon="2.417664889">
        <ele>317.90</ele>
        <time>2014-05-04T12:00:27Z</time>
      </trkpt>
      <trkpt lat="41.576104288" lon="2.417746278">
        <ele>319.30</ele>
        <time>2014-05-04T12:00:36Z</time>
      </trkpt>
      <trkpt lat="41.575897087" lon="2.417737225">
        <ele>320.70</ele>
        <time>2014-05-04T12:00:45Z</time>
      </trkpt>
      <trkpt lat="41.575702879" lon="2.417717695">
        <ele>321.70</ele>
        <time>2014-05-04T12:00:53Z</time>
      </trkpt>
      <trkpt lat="41.575538761" lon="2.417682324">
        <ele>322.70</ele>
        <time>2014-05-04T12:01:01Z</time>
      </trkpt>
      <trkpt lat="41.575306917" lon="2.417612335">
        <ele>325.10</ele>
        <time>2014-05-04T12:01:11Z</time>
      </trkpt>
      <trkpt lat="41.575083372" lon="2.417536730">
        <ele>327.00</ele>
        <time>2014-05-04T12:01:21Z</time>
      </trkpt>
      <trkpt lat="41.574919841" lon="2.417488031">
        <ele>328.90</ele>
        <time>2014-05-04T12:01:29Z</time>
      </trkpt>
      <trkpt lat="41.574770476" lon="2.417416785">
        <ele>330.80</ele>
        <time>2014-05-04T12:01:37Z</time>
      </trkpt>
      <trkpt lat="41.574612393" lon="2.417426173">
        <ele>332.80</ele>
        <time>2014-05-04T12:01:45Z</time>
      </trkpt>
      <trkpt lat="41.574521449" lon="2.417598756">
        <ele>334.20</ele>
        <time>2014-05-04T12:01:53Z</time>
      </trkpt>
      <trkpt lat="41.574525389" lon="2.417780392">
        <ele>335.20</ele>
        <time>2014-05-04T12:02:01Z</time>
      </trkpt>
      <trkpt lat="41.574545254" lon="2.417939564">
        <ele>337.10</ele>
        <time>2014-05-04T12:02:09Z</time>
      </trkpt>
      <trkpt lat="41.574563191" lon="2.418106364">
        <ele>338.50</ele>
        <time>2014-05-04T12:02:17Z</time>
      </trkpt>
      <trkpt lat="41.574584314" lon="2.418297639">
        <ele>339.50</ele>
        <time>2014-05-04T12:02:26Z</time>
      </trkpt>
      <trkpt lat="41.574610046" lon="2.418480532">
        <ele>340.90</ele>
        <time>2014-05-04T12:02:34Z</time>
      </trkpt>
      <trkpt lat="41.574612644" lon="2.418691673">
        <ele>342.40</ele>
        <time>2014-05-04T12:02:43Z</time>
      </trkpt>
      <trkpt lat="41.574582553" lon="2.418902477">
        <ele>343.80</ele>
        <time>2014-05-04T12:02:52Z</time>
      </trkpt>
      <trkpt lat="41.574510469" lon="2.419081515">
        <ele>344.80</ele>
        <time>2014-05-04T12:03:00Z</time>
      </trkpt>
      <trkpt lat="41.574424722" lon="2.419313274">
        <ele>346.20</ele>
        <time>2014-05-04T12:03:10Z</time>
      </trkpt>
      <trkpt lat="41.574352722" lon="2.419477895">
        <ele>347.20</ele>
        <time>2014-05-04T12:03:18Z</time>
      </trkpt>
      <trkpt lat="41.574247780" lon="2.419594823">
        <ele>348.10</ele>
        <time>2014-05-04T12:03:26Z</time>
      </trkpt>
      <trkpt lat="41.574108389" lon="2.419650143">
        <ele>350.10</ele>
        <time>2014-05-04T12:03:35Z</time>
      </trkpt>
      <trkpt lat="41.573979811" lon="2.419693058">
        <ele>351.00</ele>
        <time>2014-05-04T12:03:43Z</time>
      </trkpt>
      <trkpt lat="41.573909068" lon="2.419687610">
        <ele>352.00</ele>
        <time>2014-05-04T12:03:47Z</time>
      </trkpt>
      <trkpt lat="41.573735646" lon="2.419618460">
        <ele>353.90</ele>
        <time>2014-05-04T12:03:59Z</time>
      </trkpt>
      <trkpt lat="41.573591310" lon="2.419540592">
        <ele>354.40</ele>
        <time>2014-05-04T12:04:09Z</time>
      </trkpt>
      <trkpt lat="41.573468347" lon="2.419475800">
        <ele>355.30</ele>
        <time>2014-05-04T12:04:16Z</time>
      </trkpt>
      <trkpt lat="41.573326190" lon="2.419494743">
        <ele>356.80</ele>
        <time>2014-05-04T12:04:24Z</time>
      </trkpt>
      <trkpt lat="41.573157630" lon="2.419614269">
        <ele>357.30</ele>
        <time>2014-05-04T12:04:33Z</time>
      </trkpt>
      <trkpt lat="41.573088898" lon="2.419656010">
        <ele>358.20</ele>
        <time>2014-05-04T12:04:37Z</time>
      </trkpt>
      <trkpt lat="41.573000469" lon="2.419750307">
        <ele>359.20</ele>
        <time>2014-05-04T12:04:43Z</time>
      </trkpt>
      <trkpt lat="41.572805925" lon="2.419899086">
        <ele>361.10</ele>
        <time>2014-05-04T12:04:55Z</time>
      </trkpt>
      <trkpt lat="41.572655470" lon="2.420032106">
        <ele>362.60</ele>
        <time>2014-05-04T12:05:05Z</time>
      </trkpt>
      <trkpt lat="41.572572405" lon="2.420248192">
        <ele>364.00</ele>
        <time>2014-05-04T12:05:15Z</time>
      </trkpt>
      <trkpt lat="41.572638706" lon="2.420419434">
        <ele>365.00</ele>
        <time>2014-05-04T12:05:23Z</time>
      </trkpt>
      <trkpt lat="41.572779103" lon="2.420553209">
        <ele>365.90</ele>
        <time>2014-05-04T12:05:32Z</time>
      </trkpt>
      <trkpt lat="41.572901479" lon="2.420663515">
        <ele>366.40</ele>
        <time>2014-05-04T12:05:40Z</time>
      </trkpt>
      <trkpt lat="41.573013964" lon="2.420774156">
        <ele>367.80</ele>
        <time>2014-05-04T12:05:48Z</time>
      </trkpt>
      <trkpt lat="41.573164755" lon="2.420961408">
        <ele>369.30</ele>
        <time>2014-05-04T12:05:59Z</time>
      </trkpt>
      <trkpt lat="41.573236084" lon="2.421129633">
        <ele>369.80</ele>
        <time>2014-05-04T12:06:07Z</time>
      </trkpt>
      <trkpt lat="41.573305906" lon="2.421367679">
        <ele>371.20</ele>
        <time>2014-05-04T12:06:17Z</time>
      </trkpt>
      <trkpt lat="41.573365669" lon="2.421583261">
        <ele>372.20</ele>
        <time>2014-05-04T12:06:26Z</time>
      </trkpt>
      <trkpt lat="41.573432640" lon="2.421825498">
        <ele>372.70</ele>
        <time>2014-05-04T12:06:36Z</time>
      </trkpt>
      <trkpt lat="41.573517716" lon="2.422064969">
        <ele>374.10</ele>
        <time>2014-05-04T12:06:46Z</time>
      </trkpt>
      <trkpt lat="41.573625675" lon="2.422335034">
        <ele>375.50</ele>
        <time>2014-05-04T12:06:58Z</time>
      </trkpt>
      <trkpt lat="41.573706142" lon="2.422531925">
        <ele>377.00</ele>
        <time>2014-05-04T12:07:07Z</time>
      </trkpt>
      <trkpt lat="41.573775209" lon="2.422748765">
        <ele>378.90</ele>
        <time>2014-05-04T12:07:17Z</time>
      </trkpt>
      <trkpt lat="41.573794403" lon="2.422810121">
        <ele>379.90</ele>
        <time>2014-05-04T12:07:20Z</time>
      </trkpt>
      <trkpt lat="41.573868834" lon="2.423020674">
        <ele>380.80</ele>
        <time>2014-05-04T12:07:30Z</time>
      </trkpt>
      <trkpt lat="41.573871684" lon="2.423229719">
        <ele>382.30</ele>
        <time>2014-05-04T12:07:39Z</time>
      </trkpt>
      <trkpt lat="41.573889119" lon="2.423416300">
        <ele>383.20</ele>
        <time>2014-05-04T12:07:47Z</time>
      </trkpt>
      <trkpt lat="41.573910660" lon="2.423610173">
        <ele>384.70</ele>
        <time>2014-05-04T12:07:56Z</time>
      </trkpt>
      <trkpt lat="41.573916276" lon="2.423631463">
        <ele>384.70</ele>
        <time>2014-05-04T12:07:57Z</time>
      </trkpt>
      <trkpt lat="41.573912420" lon="2.423676223">
        <ele>384.70</ele>
        <time>2014-05-04T12:07:59Z</time>
      </trkpt>
      <trkpt lat="41.573949384" lon="2.423891721">
        <ele>385.20</ele>
        <time>2014-05-04T12:08:08Z</time>
      </trkpt>
      <trkpt lat="41.574024151" lon="2.424102862">
        <ele>385.20</ele>
        <time>2014-05-04T12:08:14Z</time>
      </trkpt>
      <trkpt lat="41.574034712" lon="2.424149633">
        <ele>385.20</ele>
        <time>2014-05-04T12:08:15Z</time>
      </trkpt>
      <trkpt lat="41.574085255" lon="2.424386505">
        <ele>384.20</ele>
        <time>2014-05-04T12:08:19Z</time>
      </trkpt>
      <trkpt lat="41.574128925" lon="2.424618432">
        <ele>382.70</ele>
        <time>2014-05-04T12:08:22Z</time>
      </trkpt>
      <trkpt lat="41.574283571" lon="2.425346233">
        <ele>381.30</ele>
        <time>2014-05-04T12:08:30Z</time>
      </trkpt>
      <trkpt lat="41.574301005" lon="2.425423011">
        <ele>380.80</ele>
        <time>2014-05-04T12:08:31Z</time>
      </trkpt>
      <trkpt lat="41.574373090" lon="2.425641192">
        <ele>380.80</ele>
        <time>2014-05-04T12:08:35Z</time>
      </trkpt>
      <trkpt lat="41.574419693" lon="2.425814614">
        <ele>382.30</ele>
        <time>2014-05-04T12:08:40Z</time>
      </trkpt>
      <trkpt lat="41.574460345" lon="2.425998261">
        <ele>382.30</ele>
        <time>2014-05-04T12:08:47Z</time>
      </trkpt>
      <trkpt lat="41.574466967" lon="2.426047798">
        <ele>382.70</ele>
        <time>2014-05-04T12:08:50Z</time>
      </trkpt>
      <trkpt lat="41.574500159" lon="2.426164810">
        <ele>383.20</ele>
        <time>2014-05-04T12:08:58Z</time>
      </trkpt>
      <trkpt lat="41.574547014" lon="2.426253071">
        <ele>383.70</ele>
        <time>2014-05-04T12:09:03Z</time>
      </trkpt>
      <trkpt lat="41.574582302" lon="2.426455327">
        <ele>385.20</ele>
        <time>2014-05-04T12:09:12Z</time>
      </trkpt>
      <trkpt lat="41.574627816" lon="2.426629670">
        <ele>386.60</ele>
        <time>2014-05-04T12:09:19Z</time>
      </trkpt>
      <trkpt lat="41.574694284" lon="2.426783478">
        <ele>388.00</ele>
        <time>2014-05-04T12:09:26Z</time>
      </trkpt>
      <trkpt lat="41.574690261" lon="2.426968215">
        <ele>389.00</ele>
        <time>2014-05-04T12:09:33Z</time>
      </trkpt>
      <trkpt lat="41.574620356" lon="2.427175332">
        <ele>390.90</ele>
        <time>2014-05-04T12:09:43Z</time>
      </trkpt>
      <trkpt lat="41.574621613" lon="2.427361578">
        <ele>392.40</ele>
        <time>2014-05-04T12:09:51Z</time>
      </trkpt>
      <trkpt lat="41.574672491" lon="2.427472135">
        <ele>393.80</ele>
        <time>2014-05-04T12:09:56Z</time>
      </trkpt>
      <trkpt lat="41.574715323" lon="2.427554194">
        <ele>394.30</ele>
        <time>2014-05-04T12:10:00Z</time>
      </trkpt>
      <trkpt lat="41.574776092" lon="2.427651424">
        <ele>394.80</ele>
        <time>2014-05-04T12:10:05Z</time>
      </trkpt>
      <trkpt lat="41.574923445" lon="2.427817637">
        <ele>394.80</ele>
        <time>2014-05-04T12:10:14Z</time>
      </trkpt>
      <trkpt lat="41.575097789" lon="2.427936744">
        <ele>394.80</ele>
        <time>2014-05-04T12:10:21Z</time>
      </trkpt>
      <trkpt lat="41.575336003" lon="2.428019222">
        <ele>395.20</ele>
        <time>2014-05-04T12:10:31Z</time>
      </trkpt>
      <trkpt lat="41.575464413" lon="2.428075465">
        <ele>396.20</ele>
        <time>2014-05-04T12:10:37Z</time>
      </trkpt>
      <trkpt lat="41.575595087" lon="2.428205887">
        <ele>396.70</ele>
        <time>2014-05-04T12:10:44Z</time>
      </trkpt>
      <trkpt lat="41.575728192" lon="2.428377800">
        <ele>397.60</ele>
        <time>2014-05-04T12:10:52Z</time>
      </trkpt>
      <trkpt lat="41.575815028" lon="2.428587683">
        <ele>398.60</ele>
        <time>2014-05-04T12:11:00Z</time>
      </trkpt>
      <trkpt lat="41.575908235" lon="2.428809133">
        <ele>399.60</ele>
        <time>2014-05-04T12:11:08Z</time>
      </trkpt>
      <trkpt lat="41.575975374" lon="2.428948440">
        <ele>400.50</ele>
        <time>2014-05-04T12:11:14Z</time>
      </trkpt>
      <trkpt lat="41.576040502" lon="2.429150527">
        <ele>402.00</ele>
        <time>2014-05-04T12:11:22Z</time>
      </trkpt>
      <trkpt lat="41.576115436" lon="2.429307856">
        <ele>402.90</ele>
        <time>2014-05-04T12:11:30Z</time>
      </trkpt>
      <trkpt lat="41.576206296" lon="2.429513464">
        <ele>404.90</ele>
        <time>2014-05-04T12:11:40Z</time>
      </trkpt>
      <trkpt lat="41.576301933" lon="2.429716557">
        <ele>406.30</ele>
        <time>2014-05-04T12:11:50Z</time>
      </trkpt>
      <trkpt lat="41.576321044" lon="2.429774812">
        <ele>407.30</ele>
        <time>2014-05-04T12:11:53Z</time>
      </trkpt>
      <trkpt lat="41.576421962" lon="2.429977821">
        <ele>409.20</ele>
        <time>2014-05-04T12:12:04Z</time>
      </trkpt>
      <trkpt lat="41.576496142" lon="2.430127103">
        <ele>411.10</ele>
        <time>2014-05-04T12:12:13Z</time>
      </trkpt>
      <trkpt lat="41.576559090" lon="2.430282001">
        <ele>412.10</ele>
        <time>2014-05-04T12:12:21Z</time>
      </trkpt>
      <trkpt lat="41.576652884" lon="2.430442849">
        <ele>414.50</ele>
        <time>2014-05-04T12:12:30Z</time>
      </trkpt>
      <trkpt lat="41.576756149" lon="2.430644518">
        <ele>414.50</ele>
        <time>2014-05-04T12:12:40Z</time>
      </trkpt>
      <trkpt lat="41.576848685" lon="2.430835122">
        <ele>415.00</ele>
        <time>2014-05-04T12:12:48Z</time>
      </trkpt>
      <trkpt lat="41.576971312" lon="2.431026649">
        <ele>415.40</ele>
        <time>2014-05-04T12:12:55Z</time>
      </trkpt>
      <trkpt lat="41.577105925" lon="2.431279028">
        <ele>415.40</ele>
        <time>2014-05-04T12:13:02Z</time>
      </trkpt>
      <trkpt lat="41.577210615" lon="2.431486648">
        <ele>414.50</ele>
        <time>2014-05-04T12:13:07Z</time>
      </trkpt>
      <trkpt lat="41.577323771" lon="2.431733914">
        <ele>413.50</ele>
        <time>2014-05-04T12:13:13Z</time>
      </trkpt>
      <trkpt lat="41.577344307" lon="2.431778003">
        <ele>413.50</ele>
        <time>2014-05-04T12:13:14Z</time>
      </trkpt>
      <trkpt lat="41.577422845" lon="2.432066340">
        <ele>412.10</ele>
        <time>2014-05-04T12:13:19Z</time>
      </trkpt>
      <trkpt lat="41.577501970" lon="2.432414608">
        <ele>410.60</ele>
        <time>2014-05-04T12:13:24Z</time>
      </trkpt>
      <trkpt lat="41.577528038" lon="2.432912242">
        <ele>408.20</ele>
        <time>2014-05-04T12:13:30Z</time>
      </trkpt>
      <trkpt lat="41.577526445" lon="2.433494533">
        <ele>404.40</ele>
        <time>2014-05-04T12:13:35Z</time>
      </trkpt>
      <trkpt lat="41.577517142" lon="2.433943467">
        <ele>400.50</ele>
        <time>2014-05-04T12:13:38Z</time>
      </trkpt>
      <trkpt lat="41.577510352" lon="2.434442945">
        <ele>397.20</ele>
        <time>2014-05-04T12:13:41Z</time>
      </trkpt>
      <trkpt lat="41.577528792" lon="2.434952397">
        <ele>395.20</ele>
        <time>2014-05-04T12:13:44Z</time>
      </trkpt>
      <trkpt lat="41.577591573" lon="2.435734429">
        <ele>392.80</ele>
        <time>2014-05-04T12:13:49Z</time>
      </trkpt>
      <trkpt lat="41.577689893" lon="2.436435826">
        <ele>391.40</ele>
        <time>2014-05-04T12:13:54Z</time>
      </trkpt>
      <trkpt lat="41.577769604" lon="2.436976543">
        <ele>389.00</ele>
        <time>2014-05-04T12:13:59Z</time>
      </trkpt>
      <trkpt lat="41.577803132" lon="2.437484989">
        <ele>386.60</ele>
        <time>2014-05-04T12:14:05Z</time>
      </trkpt>
      <trkpt lat="41.577817717" lon="2.437583644">
        <ele>386.60</ele>
        <time>2014-05-04T12:14:06Z</time>
      </trkpt>
      <trkpt lat="41.577862057" lon="2.437973905">
        <ele>383.20</ele>
        <time>2014-05-04T12:14:10Z</time>
      </trkpt>
      <trkpt lat="41.577897177" lon="2.438433401">
        <ele>379.90</ele>
        <time>2014-05-04T12:14:15Z</time>
      </trkpt>
      <trkpt lat="41.577908074" lon="2.438536247">
        <ele>379.90</ele>
        <time>2014-05-04T12:14:16Z</time>
      </trkpt>
      <trkpt lat="41.577986612" lon="2.439161118">
        <ele>375.50</ele>
        <time>2014-05-04T12:14:22Z</time>
      </trkpt>
      <trkpt lat="41.577990384" lon="2.439315429">
        <ele>374.60</ele>
        <time>2014-05-04T12:14:24Z</time>
      </trkpt>
      <trkpt lat="41.578003627" lon="2.439427579">
        <ele>373.10</ele>
        <time>2014-05-04T12:14:26Z</time>
      </trkpt>
      <trkpt lat="41.578068503" lon="2.439524725">
        <ele>370.70</ele>
        <time>2014-05-04T12:14:30Z</time>
      </trkpt>
      <trkpt lat="41.578082249" lon="2.439521205">
        <ele>370.20</ele>
        <time>2014-05-04T12:14:36Z</time>
      </trkpt>
      <trkpt lat="41.578079400" lon="2.439548697">
        <ele>370.20</ele>
        <time>2014-05-04T12:14:44Z</time>
      </trkpt>
      <trkpt lat="41.578082836" lon="2.439561689">
        <ele>369.80</ele>
        <time>2014-05-04T12:14:51Z</time>
      </trkpt>
      <trkpt lat="41.578080992" lon="2.439554816">
        <ele>369.80</ele>
        <time>2014-05-04T12:15:22Z</time>
      </trkpt>
      <trkpt lat="41.578079986" lon="2.439553140">
        <ele>369.80</ele>
        <time>2014-05-04T12:15:44Z</time>
      </trkpt>
      <trkpt lat="41.578078561" lon="2.439565042">
        <ele>369.80</ele>
        <time>2014-05-04T12:16:02Z</time>
      </trkpt>
      <trkpt lat="41.578077723" lon="2.439571329">
        <ele>369.80</ele>
        <time>2014-05-04T12:16:22Z</time>
      </trkpt>
      <trkpt lat="41.578068503" lon="2.439558420">
        <ele>369.80</ele>
        <time>2014-05-04T12:16:52Z</time>
      </trkpt>
      <trkpt lat="41.578071940" lon="2.439560935">
        <ele>369.80</ele>
        <time>2014-05-04T12:17:21Z</time>
      </trkpt>
      <trkpt lat="41.578075879" lon="2.439555319">
        <ele>369.80</ele>
        <time>2014-05-04T12:17:53Z</time>
      </trkpt>
      <trkpt lat="41.578078059" lon="2.439546853">
        <ele>369.80</ele>
        <time>2014-05-04T12:18:17Z</time>
      </trkpt>
      <trkpt lat="41.578084848" lon="2.439549703">
        <ele>369.80</ele>
        <time>2014-05-04T12:18:40Z</time>
      </trkpt>
      <trkpt lat="41.578089542" lon="2.439556157">
        <ele>369.80</ele>
        <time>2014-05-04T12:19:08Z</time>
      </trkpt>
      <trkpt lat="41.578076801" lon="2.439573676">
        <ele>369.80</ele>
        <time>2014-05-04T12:19:23Z</time>
      </trkpt>
      <trkpt lat="41.578073365" lon="2.439584907">
        <ele>369.80</ele>
        <time>2014-05-04T12:19:31Z</time>
      </trkpt>
      <trkpt lat="41.578097421" lon="2.439685658">
        <ele>368.80</ele>
        <time>2014-05-04T12:19:35Z</time>
      </trkpt>
      <trkpt lat="41.578238740" lon="2.439968044">
        <ele>365.90</ele>
        <time>2014-05-04T12:19:40Z</time>
      </trkpt>
      <trkpt lat="41.578402187" lon="2.440401472">
        <ele>363.50</ele>
        <time>2014-05-04T12:19:46Z</time>
      </trkpt>
      <trkpt lat="41.578499165" lon="2.440695258">
        <ele>362.10</ele>
        <time>2014-05-04T12:19:52Z</time>
      </trkpt>
      <trkpt lat="41.578504027" lon="2.440977058">
        <ele>360.60</ele>
        <time>2014-05-04T12:20:01Z</time>
      </trkpt>
      <trkpt lat="41.578502267" lon="2.440976806">
        <ele>360.60</ele>
        <time>2014-05-04T12:20:11Z</time>
      </trkpt>
      <trkpt lat="41.578505033" lon="2.440979405">
        <ele>360.60</ele>
        <time>2014-05-04T12:20:26Z</time>
      </trkpt>
      <trkpt lat="41.578507715" lon="2.440986110">
        <ele>360.60</ele>
        <time>2014-05-04T12:20:38Z</time>
      </trkpt>
      <trkpt lat="41.578512493" lon="2.440991810">
        <ele>360.60</ele>
        <time>2014-05-04T12:20:41Z</time>
      </trkpt>
      <trkpt lat="41.578535124" lon="2.441051154">
        <ele>360.60</ele>
        <time>2014-05-04T12:20:45Z</time>
      </trkpt>
      <trkpt lat="41.578597401" lon="2.441237148">
        <ele>360.60</ele>
        <time>2014-05-04T12:20:52Z</time>
      </trkpt>
      <trkpt lat="41.578687591" lon="2.441477709">
        <ele>360.20</ele>
        <time>2014-05-04T12:20:59Z</time>
      </trkpt>
      <trkpt lat="41.578779624" lon="2.441743164">
        <ele>359.70</ele>
        <time>2014-05-04T12:21:06Z</time>
      </trkpt>
      <trkpt lat="41.578936365" lon="2.442003589">
        <ele>358.70</ele>
        <time>2014-05-04T12:21:13Z</time>
      </trkpt>
      <trkpt lat="41.579050611" lon="2.442265105">
        <ele>358.20</ele>
        <time>2014-05-04T12:21:19Z</time>
      </trkpt>
      <trkpt lat="41.579172651" lon="2.442566183">
        <ele>358.20</ele>
        <time>2014-05-04T12:21:26Z</time>
      </trkpt>
      <trkpt lat="41.579309695" lon="2.442925431">
        <ele>358.20</ele>
        <time>2014-05-04T12:21:36Z</time>
      </trkpt>
      <trkpt lat="41.579415140" lon="2.443229191">
        <ele>360.20</ele>
        <time>2014-05-04T12:21:46Z</time>
      </trkpt>
      <trkpt lat="41.579479932" lon="2.443412420">
        <ele>361.10</ele>
        <time>2014-05-04T12:21:54Z</time>
      </trkpt>
      <trkpt lat="41.579512873" lon="2.443534376">
        <ele>363.00</ele>
        <time>2014-05-04T12:22:01Z</time>
      </trkpt>
      <trkpt lat="41.579493762" lon="2.443609310">
        <ele>364.50</ele>
        <time>2014-05-04T12:22:09Z</time>
      </trkpt>
      <trkpt lat="41.579501054" lon="2.443638060">
        <ele>364.50</ele>
        <time>2014-05-04T12:22:15Z</time>
      </trkpt>
      <trkpt lat="41.579493678" lon="2.443634708">
        <ele>364.50</ele>
        <time>2014-05-04T12:22:25Z</time>
      </trkpt>
      <trkpt lat="41.579493427" lon="2.443605539">
        <ele>364.50</ele>
        <time>2014-05-04T12:22:40Z</time>
      </trkpt>
      <trkpt lat="41.579484877" lon="2.443612160">
        <ele>364.50</ele>
        <time>2014-05-04T12:23:03Z</time>
      </trkpt>
      <trkpt lat="41.579501222" lon="2.443625488">
        <ele>364.50</ele>
        <time>2014-05-04T12:23:19Z</time>
      </trkpt>
      <trkpt lat="41.579498875" lon="2.443638731">
        <ele>364.50</ele>
        <time>2014-05-04T12:23:36Z</time>
      </trkpt>
      <trkpt lat="41.579504156" lon="2.443645269">
        <ele>364.50</ele>
        <time>2014-05-04T12:23:39Z</time>
      </trkpt>
      <trkpt lat="41.579550005" lon="2.443734368">
        <ele>365.00</ele>
        <time>2014-05-04T12:23:46Z</time>
      </trkpt>
      <trkpt lat="41.579572636" lon="2.443914663">
        <ele>366.90</ele>
        <time>2014-05-04T12:23:55Z</time>
      </trkpt>
      <trkpt lat="41.579599374" lon="2.444036033">
        <ele>367.80</ele>
        <time>2014-05-04T12:24:00Z</time>
      </trkpt>
      <trkpt lat="41.579634662" lon="2.444230493">
        <ele>369.30</ele>
        <time>2014-05-04T12:24:09Z</time>
      </trkpt>
      <trkpt lat="41.579666094" lon="2.444399305">
        <ele>371.70</ele>
        <time>2014-05-04T12:24:17Z</time>
      </trkpt>
      <trkpt lat="41.579694592" lon="2.444554202">
        <ele>372.70</ele>
        <time>2014-05-04T12:24:24Z</time>
      </trkpt>
      <trkpt lat="41.579717223" lon="2.444692001">
        <ele>374.10</ele>
        <time>2014-05-04T12:24:31Z</time>
      </trkpt>
      <trkpt lat="41.579786458" lon="2.444878498">
        <ele>376.50</ele>
        <time>2014-05-04T12:24:40Z</time>
      </trkpt>
      <trkpt lat="41.579857872" lon="2.445064241">
        <ele>377.00</ele>
        <time>2014-05-04T12:24:48Z</time>
      </trkpt>
      <trkpt lat="41.579888047" lon="2.445257193">
        <ele>377.50</ele>
        <time>2014-05-04T12:24:55Z</time>
      </trkpt>
      <trkpt lat="41.579933141" lon="2.445465986">
        <ele>377.90</ele>
        <time>2014-05-04T12:25:02Z</time>
      </trkpt>
      <trkpt lat="41.579968094" lon="2.445742589">
        <ele>378.90</ele>
        <time>2014-05-04T12:25:10Z</time>
      </trkpt>
      <trkpt lat="41.579961388" lon="2.446037548">
        <ele>378.90</ele>
        <time>2014-05-04T12:25:19Z</time>
      </trkpt>
      <trkpt lat="41.579952587" lon="2.446264362">
        <ele>379.90</ele>
        <time>2014-05-04T12:25:28Z</time>
      </trkpt>
      <trkpt lat="41.579921910" lon="2.446478184">
        <ele>381.30</ele>
        <time>2014-05-04T12:25:37Z</time>
      </trkpt>
      <trkpt lat="41.579880671" lon="2.446656887">
        <ele>382.70</ele>
        <time>2014-05-04T12:25:44Z</time>
      </trkpt>
      <trkpt lat="41.579836079" lon="2.446825028">
        <ele>384.20</ele>
        <time>2014-05-04T12:25:52Z</time>
      </trkpt>
      <trkpt lat="41.579807748" lon="2.446874984">
        <ele>384.20</ele>
        <time>2014-05-04T12:25:55Z</time>
      </trkpt>
      <trkpt lat="41.579718229" lon="2.447188467">
        <ele>385.20</ele>
        <time>2014-05-04T12:26:05Z</time>
      </trkpt>
      <trkpt lat="41.579656119" lon="2.447411090">
        <ele>385.20</ele>
        <time>2014-05-04T12:26:11Z</time>
      </trkpt>
      <trkpt lat="41.579588394" lon="2.447712084">
        <ele>385.60</ele>
        <time>2014-05-04T12:26:19Z</time>
      </trkpt>
      <trkpt lat="41.579510023" lon="2.448099580">
        <ele>384.20</ele>
        <time>2014-05-04T12:26:27Z</time>
      </trkpt>
      <trkpt lat="41.579501054" lon="2.448156828">
        <ele>384.20</ele>
        <time>2014-05-04T12:26:28Z</time>
      </trkpt>
      <trkpt lat="41.579459983" lon="2.448510377">
        <ele>383.20</ele>
        <time>2014-05-04T12:26:34Z</time>
      </trkpt>
      <trkpt lat="41.579441207" lon="2.448668879">
        <ele>382.30</ele>
        <time>2014-05-04T12:26:37Z</time>
      </trkpt>
      <trkpt lat="41.579428802" lon="2.448882114">
        <ele>380.80</ele>
        <time>2014-05-04T12:26:40Z</time>
      </trkpt>
      <trkpt lat="41.579330315" lon="2.449135499">
        <ele>380.30</ele>
        <time>2014-05-04T12:26:44Z</time>
      </trkpt>
      <trkpt lat="41.579142979" lon="2.449471027">
        <ele>380.30</ele>
        <time>2014-05-04T12:26:51Z</time>
      </trkpt>
      <trkpt lat="41.579018592" lon="2.449733716">
        <ele>380.80</ele>
        <time>2014-05-04T12:26:58Z</time>
      </trkpt>
      <trkpt lat="41.578879620" lon="2.449987017">
        <ele>380.80</ele>
        <time>2014-05-04T12:27:05Z</time>
      </trkpt>
      <trkpt lat="41.578759172" lon="2.450322796">
        <ele>380.80</ele>
        <time>2014-05-04T12:27:13Z</time>
      </trkpt>
      <trkpt lat="41.578687926" lon="2.450510970">
        <ele>380.80</ele>
        <time>2014-05-04T12:27:19Z</time>
      </trkpt>
      <trkpt lat="41.578620116" lon="2.450712638">
        <ele>380.80</ele>
        <time>2014-05-04T12:27:25Z</time>
      </trkpt>
      <trkpt lat="41.578548199" lon="2.450981530">
        <ele>379.40</ele>
        <time>2014-05-04T12:27:30Z</time>
      </trkpt>
      <trkpt lat="41.578480977" lon="2.451239692">
        <ele>378.40</ele>
        <time>2014-05-04T12:27:34Z</time>
      </trkpt>
      <trkpt lat="41.578453065" lon="2.451392913">
        <ele>377.90</ele>
        <time>2014-05-04T12:27:36Z</time>
      </trkpt>
      <trkpt lat="41.578365725" lon="2.451758281">
        <ele>377.50</ele>
        <time>2014-05-04T12:27:41Z</time>
      </trkpt>
      <trkpt lat="41.578284756" lon="2.452014012">
        <ele>377.50</ele>
        <time>2014-05-04T12:27:47Z</time>
      </trkpt>
      <trkpt lat="41.578243266" lon="2.452170083">
        <ele>378.90</ele>
        <time>2014-05-04T12:27:51Z</time>
      </trkpt>
      <trkpt lat="41.578212085" lon="2.452461606">
        <ele>380.30</ele>
        <time>2014-05-04T12:27:58Z</time>
      </trkpt>
      <trkpt lat="41.578209654" lon="2.452717757">
        <ele>383.20</ele>
        <time>2014-05-04T12:28:05Z</time>
      </trkpt>
      <trkpt lat="41.578216779" lon="2.452754637">
        <ele>383.20</ele>
        <time>2014-05-04T12:28:06Z</time>
      </trkpt>
      <trkpt lat="41.578285678" lon="2.453042639">
        <ele>386.10</ele>
        <time>2014-05-04T12:28:15Z</time>
      </trkpt>
      <trkpt lat="41.578319122" lon="2.453282027">
        <ele>387.10</ele>
        <time>2014-05-04T12:28:22Z</time>
      </trkpt>
      <trkpt lat="41.578327169" lon="2.453510350">
        <ele>389.00</ele>
        <time>2014-05-04T12:28:29Z</time>
      </trkpt>
      <trkpt lat="41.578338317" lon="2.453786617">
        <ele>390.00</ele>
        <time>2014-05-04T12:28:38Z</time>
      </trkpt>
      <trkpt lat="41.578328510" lon="2.454017706">
        <ele>390.90</ele>
        <time>2014-05-04T12:28:45Z</time>
      </trkpt>
      <trkpt lat="41.578310572" lon="2.454098508">
        <ele>391.40</ele>
        <time>2014-05-04T12:28:48Z</time>
      </trkpt>
      <trkpt lat="41.578362959" lon="2.454352731">
        <ele>391.40</ele>
        <time>2014-05-04T12:28:54Z</time>
      </trkpt>
      <trkpt lat="41.578498327" lon="2.454731844">
        <ele>389.50</ele>
        <time>2014-05-04T12:29:02Z</time>
      </trkpt>
      <trkpt lat="41.578512576" lon="2.454917839">
        <ele>389.00</ele>
        <time>2014-05-04T12:29:05Z</time>
      </trkpt>
      <trkpt lat="41.578539231" lon="2.455199722">
        <ele>387.10</ele>
        <time>2014-05-04T12:29:09Z</time>
      </trkpt>
      <trkpt lat="41.578511487" lon="2.455416646">
        <ele>385.20</ele>
        <time>2014-05-04T12:29:12Z</time>
      </trkpt>
      <trkpt lat="41.578503440" lon="2.455860551">
        <ele>381.30</ele>
        <time>2014-05-04T12:29:17Z</time>
      </trkpt>
      <trkpt lat="41.578504949" lon="2.455950238">
        <ele>380.30</ele>
        <time>2014-05-04T12:29:18Z</time>
      </trkpt>
      <trkpt lat="41.578426913" lon="2.456249723">
        <ele>377.90</ele>
        <time>2014-05-04T12:29:22Z</time>
      </trkpt>
      <trkpt lat="41.578383747" lon="2.456309235">
        <ele>377.00</ele>
        <time>2014-05-04T12:29:23Z</time>
      </trkpt>
      <trkpt lat="41.578190544" lon="2.456555579">
        <ele>372.70</ele>
        <time>2014-05-04T12:29:27Z</time>
      </trkpt>
      <trkpt lat="41.578153412" lon="2.456608888">
        <ele>372.70</ele>
        <time>2014-05-04T12:29:28Z</time>
      </trkpt>
      <trkpt lat="41.578120639" lon="2.456662113">
        <ele>371.70</ele>
        <time>2014-05-04T12:29:29Z</time>
      </trkpt>
      <trkpt lat="41.578064564" lon="2.456962017">
        <ele>368.30</ele>
        <time>2014-05-04T12:29:34Z</time>
      </trkpt>
      <trkpt lat="41.578027013" lon="2.457153879">
        <ele>365.90</ele>
        <time>2014-05-04T12:29:37Z</time>
      </trkpt>
      <trkpt lat="41.578028438" lon="2.457354710">
        <ele>363.00</ele>
        <time>2014-05-04T12:29:40Z</time>
      </trkpt>
      <trkpt lat="41.578095409" lon="2.457648328">
        <ele>358.20</ele>
        <time>2014-05-04T12:29:44Z</time>
      </trkpt>
      <trkpt lat="41.578141677" lon="2.457854690">
        <ele>355.80</ele>
        <time>2014-05-04T12:29:47Z</time>
      </trkpt>
      <trkpt lat="41.578163219" lon="2.458173957">
        <ele>352.50</ele>
        <time>2014-05-04T12:29:52Z</time>
      </trkpt>
      <trkpt lat="41.578244858" lon="2.458247215">
        <ele>351.50</ele>
        <time>2014-05-04T12:29:54Z</time>
      </trkpt>
      <trkpt lat="41.578417106" lon="2.458253166">
        <ele>349.60</ele>
        <time>2014-05-04T12:29:57Z</time>
      </trkpt>
      <trkpt lat="41.578634365" lon="2.458212849">
        <ele>348.10</ele>
        <time>2014-05-04T12:30:01Z</time>
      </trkpt>
      <trkpt lat="41.578796639" lon="2.458157361">
        <ele>347.20</ele>
        <time>2014-05-04T12:30:04Z</time>
      </trkpt>
      <trkpt lat="41.579076930" lon="2.458170604">
        <ele>345.70</ele>
        <time>2014-05-04T12:30:09Z</time>
      </trkpt>
      <trkpt lat="41.579416984" lon="2.458287532">
        <ele>343.80</ele>
        <time>2014-05-04T12:30:15Z</time>
      </trkpt>
      <trkpt lat="41.579591914" lon="2.458366908">
        <ele>343.80</ele>
        <time>2014-05-04T12:30:18Z</time>
      </trkpt>
      <trkpt lat="41.580120477" lon="2.458698664">
        <ele>342.85</ele>
        <time>2014-05-04T12:30:28Z</time>
      </trkpt>
      <trkpt lat="41.580210247" lon="2.458757505">
        <ele>342.85</ele>
        <time>2014-05-04T12:30:30Z</time>
      </trkpt>
      <trkpt lat="41.580446701" lon="2.458918354">
        <ele>342.85</ele>
        <time>2014-05-04T12:30:37Z</time>
      </trkpt>
      <trkpt lat="41.580608136" lon="2.459055733">
        <ele>342.85</ele>
        <time>2014-05-04T12:30:43Z</time>
      </trkpt>
      <trkpt lat="41.580784156" lon="2.459161345">
        <ele>344.77</ele>
        <time>2014-05-04T12:30:50Z</time>
      </trkpt>
      <trkpt lat="41.580947687" lon="2.459087249">
        <ele>345.25</ele>
        <time>2014-05-04T12:30:57Z</time>
      </trkpt>
      <trkpt lat="41.581061178" lon="2.459034778">
        <ele>346.21</ele>
        <time>2014-05-04T12:31:03Z</time>
      </trkpt>
      <trkpt lat="41.581193696" lon="2.459081717">
        <ele>347.17</ele>
        <time>2014-05-04T12:31:10Z</time>
      </trkpt>
      <trkpt lat="41.581325795" lon="2.459223874">
        <ele>350.06</ele>
        <time>2014-05-04T12:31:20Z</time>
      </trkpt>
      <trkpt lat="41.581418331" lon="2.459345412">
        <ele>352.46</ele>
        <time>2014-05-04T12:31:29Z</time>
      </trkpt>
      <trkpt lat="41.581519836" lon="2.459448761">
        <ele>355.34</ele>
        <time>2014-05-04T12:31:37Z</time>
      </trkpt>
      <trkpt lat="41.581639026" lon="2.459572561">
        <ele>358.23</ele>
        <time>2014-05-04T12:31:47Z</time>
      </trkpt>
      <trkpt lat="41.581702058" lon="2.459660404">
        <ele>359.67</ele>
        <time>2014-05-04T12:31:54Z</time>
      </trkpt>
      <trkpt lat="41.581747488" lon="2.459739277">
        <ele>361.11</ele>
        <time>2014-05-04T12:32:01Z</time>
      </trkpt>
      <trkpt lat="41.581750422" lon="2.459861485">
        <ele>361.59</ele>
        <time>2014-05-04T12:32:10Z</time>
      </trkpt>
      <trkpt lat="41.581746231" lon="2.459979670">
        <ele>361.59</ele>
        <time>2014-05-04T12:32:19Z</time>
      </trkpt>
      <trkpt lat="41.581740783" lon="2.460107997">
        <ele>362.55</ele>
        <time>2014-05-04T12:32:29Z</time>
      </trkpt>
      <trkpt lat="41.581732149" lon="2.460236492">
        <ele>363.04</ele>
        <time>2014-05-04T12:32:37Z</time>
      </trkpt>
      <trkpt lat="41.581726030" lon="2.460382421">
        <ele>364.00</ele>
        <time>2014-05-04T12:32:45Z</time>
      </trkpt>
      <trkpt lat="41.581745309" lon="2.460574618">
        <ele>364.48</ele>
        <time>2014-05-04T12:32:54Z</time>
      </trkpt>
      <trkpt lat="41.581792499" lon="2.460784584">
        <ele>364.48</ele>
        <time>2014-05-04T12:33:02Z</time>
      </trkpt>
      <trkpt lat="41.581882437" lon="2.460909559">
        <ele>364.48</ele>
        <time>2014-05-04T12:33:10Z</time>
      </trkpt>
      <trkpt lat="41.582007579" lon="2.460922467">
        <ele>365.44</ele>
        <time>2014-05-04T12:33:17Z</time>
      </trkpt>
      <trkpt lat="41.582147724" lon="2.460988181">
        <ele>365.92</ele>
        <time>2014-05-04T12:33:24Z</time>
      </trkpt>
      <trkpt lat="41.582340340" lon="2.461045010">
        <ele>365.92</ele>
        <time>2014-05-04T12:33:32Z</time>
      </trkpt>
      <trkpt lat="41.582574614" lon="2.461113658">
        <ele>365.92</ele>
        <time>2014-05-04T12:33:39Z</time>
      </trkpt>
      <trkpt lat="41.582848535" lon="2.461178366">
        <ele>365.92</ele>
        <time>2014-05-04T12:33:47Z</time>
      </trkpt>
      <trkpt lat="41.583093789" lon="2.461160010">
        <ele>364.96</ele>
        <time>2014-05-04T12:33:54Z</time>
      </trkpt>
      <trkpt lat="41.583334182" lon="2.461162944">
        <ele>363.04</ele>
        <time>2014-05-04T12:33:59Z</time>
      </trkpt>
      <trkpt lat="41.583484638" lon="2.461232346">
        <ele>362.55</ele>
        <time>2014-05-04T12:34:02Z</time>
      </trkpt>
      <trkpt lat="41.583746069" lon="2.461143665">
        <ele>361.11</ele>
        <time>2014-05-04T12:34:07Z</time>
      </trkpt>
      <trkpt lat="41.583806754" lon="2.461109216">
        <ele>360.15</ele>
        <time>2014-05-04T12:34:08Z</time>
      </trkpt>
      <trkpt lat="41.584158710" lon="2.461090775">
        <ele>359.19</ele>
        <time>2014-05-04T12:34:13Z</time>
      </trkpt>
      <trkpt lat="41.584301454" lon="2.461116340">
        <ele>357.75</ele>
        <time>2014-05-04T12:34:15Z</time>
      </trkpt>
      <trkpt lat="41.584552073" lon="2.461307615">
        <ele>357.75</ele>
        <time>2014-05-04T12:34:19Z</time>
      </trkpt>
      <trkpt lat="41.584590965" lon="2.461383388">
        <ele>357.75</ele>
        <time>2014-05-04T12:34:20Z</time>
      </trkpt>
      <trkpt lat="41.584741001" lon="2.461757304">
        <ele>357.75</ele>
        <time>2014-05-04T12:34:25Z</time>
      </trkpt>
      <trkpt lat="41.584759693" lon="2.462144297">
        <ele>357.75</ele>
        <time>2014-05-04T12:34:31Z</time>
      </trkpt>
      <trkpt lat="41.584754999" lon="2.462380080">
        <ele>357.75</ele>
        <time>2014-05-04T12:34:35Z</time>
      </trkpt>
      <trkpt lat="41.584819959" lon="2.462578312">
        <ele>359.19</ele>
        <time>2014-05-04T12:34:39Z</time>
      </trkpt>
      <trkpt lat="41.584969324" lon="2.462749386">
        <ele>360.15</ele>
        <time>2014-05-04T12:34:44Z</time>
      </trkpt>
      <trkpt lat="41.585157162" lon="2.462839408">
        <ele>358.23</ele>
        <time>2014-05-04T12:34:48Z</time>
      </trkpt>
      <trkpt lat="41.585254979" lon="2.462854831">
        <ele>357.27</ele>
        <time>2014-05-04T12:34:50Z</time>
      </trkpt>
      <trkpt lat="41.585414990" lon="2.462924820">
        <ele>354.38</ele>
        <time>2014-05-04T12:34:53Z</time>
      </trkpt>
      <trkpt lat="41.585629483" lon="2.463130260">
        <ele>351.02</ele>
        <time>2014-05-04T12:34:57Z</time>
      </trkpt>
      <trkpt lat="41.585674326" lon="2.463184407">
        <ele>350.54</ele>
        <time>2014-05-04T12:34:58Z</time>
      </trkpt>
      <trkpt lat="41.585861242" lon="2.463314997">
        <ele>347.17</ele>
        <time>2014-05-04T12:35:02Z</time>
      </trkpt>
      <trkpt lat="41.586030054" lon="2.463380544">
        <ele>345.25</ele>
        <time>2014-05-04T12:35:05Z</time>
      </trkpt>
      <trkpt lat="41.586276733" lon="2.463555474">
        <ele>343.33</ele>
        <time>2014-05-04T12:35:09Z</time>
      </trkpt>
      <trkpt lat="41.586491561" lon="2.463691848">
        <ele>340.92</ele>
        <time>2014-05-04T12:35:12Z</time>
      </trkpt>
      <trkpt lat="41.586817366" lon="2.463817995">
        <ele>339.00</ele>
        <time>2014-05-04T12:35:17Z</time>
      </trkpt>
      <trkpt lat="41.586986429" lon="2.463992171">
        <ele>336.60</ele>
        <time>2014-05-04T12:35:20Z</time>
      </trkpt>
      <trkpt lat="41.587156163" lon="2.464178082">
        <ele>335.16</ele>
        <time>2014-05-04T12:35:23Z</time>
      </trkpt>
      <trkpt lat="41.587403932" lon="2.464256033">
        <ele>335.16</ele>
        <time>2014-05-04T12:35:27Z</time>
      </trkpt>
      <trkpt lat="41.587451708" lon="2.464258632">
        <ele>335.16</ele>
        <time>2014-05-04T12:35:28Z</time>
      </trkpt>
      <trkpt lat="41.587636110" lon="2.464318311">
        <ele>336.60</ele>
        <time>2014-05-04T12:35:33Z</time>
      </trkpt>
      <trkpt lat="41.587787823" lon="2.464524003">
        <ele>338.04</ele>
        <time>2014-05-04T12:35:39Z</time>
      </trkpt>
      <trkpt lat="41.587948169" lon="2.464920048">
        <ele>340.44</ele>
        <time>2014-05-04T12:35:47Z</time>
      </trkpt>
      <trkpt lat="41.588028635" lon="2.465246439">
        <ele>342.37</ele>
        <time>2014-05-04T12:35:54Z</time>
      </trkpt>
      <trkpt lat="41.588082279" lon="2.465524132">
        <ele>343.81</ele>
        <time>2014-05-04T12:36:00Z</time>
      </trkpt>
      <trkpt lat="41.588027461" lon="2.465891091">
        <ele>345.25</ele>
        <time>2014-05-04T12:36:09Z</time>
      </trkpt>
      <trkpt lat="41.587980774" lon="2.466115307">
        <ele>347.17</ele>
        <time>2014-05-04T12:36:16Z</time>
      </trkpt>
      <trkpt lat="41.587980439" lon="2.466324352">
        <ele>348.13</ele>
        <time>2014-05-04T12:36:22Z</time>
      </trkpt>
      <trkpt lat="41.588007932" lon="2.466573127">
        <ele>348.62</ele>
        <time>2014-05-04T12:36:29Z</time>
      </trkpt>
      <trkpt lat="41.588047326" lon="2.466812514">
        <ele>349.58</ele>
        <time>2014-05-04T12:36:36Z</time>
      </trkpt>
      <trkpt lat="41.588131062" lon="2.467096493">
        <ele>350.54</ele>
        <time>2014-05-04T12:36:43Z</time>
      </trkpt>
      <trkpt lat="41.588272213" lon="2.467391703">
        <ele>351.02</ele>
        <time>2014-05-04T12:36:52Z</time>
      </trkpt>
      <trkpt lat="41.588501039" lon="2.467632767">
        <ele>352.46</ele>
        <time>2014-05-04T12:37:01Z</time>
      </trkpt>
      <trkpt lat="41.588649147" lon="2.468008444">
        <ele>351.98</ele>
        <time>2014-05-04T12:37:09Z</time>
      </trkpt>
      <trkpt lat="41.588809661" lon="2.468223859">
        <ele>351.98</ele>
        <time>2014-05-04T12:37:15Z</time>
      </trkpt>
      <trkpt lat="41.589023399" lon="2.468444051">
        <ele>353.42</ele>
        <time>2014-05-04T12:37:23Z</time>
      </trkpt>
      <trkpt lat="41.589093807" lon="2.468589226">
        <ele>355.34</ele>
        <time>2014-05-04T12:37:29Z</time>
      </trkpt>
      <trkpt lat="41.589116941" lon="2.468848562">
        <ele>355.83</ele>
        <time>2014-05-04T12:37:35Z</time>
      </trkpt>
      <trkpt lat="41.589135381" lon="2.468954761">
        <ele>355.83</ele>
        <time>2014-05-04T12:37:37Z</time>
      </trkpt>
      <trkpt lat="41.589279802" lon="2.469263466">
        <ele>354.38</ele>
        <time>2014-05-04T12:37:43Z</time>
      </trkpt>
      <trkpt lat="41.589466215" lon="2.469499082">
        <ele>354.38</ele>
        <time>2014-05-04T12:37:49Z</time>
      </trkpt>
      <trkpt lat="41.589631003" lon="2.469759172">
        <ele>354.38</ele>
        <time>2014-05-04T12:37:56Z</time>
      </trkpt>
      <trkpt lat="41.589764611" lon="2.470051365">
        <ele>357.27</ele>
        <time>2014-05-04T12:38:05Z</time>
      </trkpt>
      <trkpt lat="41.589876593" lon="2.470206766">
        <ele>359.19</ele>
        <time>2014-05-04T12:38:12Z</time>
      </trkpt>
      <trkpt lat="41.590054625" lon="2.470363759">
        <ele>360.63</ele>
        <time>2014-05-04T12:38:20Z</time>
      </trkpt>
      <trkpt lat="41.590319577" lon="2.470500803">
        <ele>360.63</ele>
        <time>2014-05-04T12:38:28Z</time>
      </trkpt>
      <trkpt lat="41.590503056" lon="2.470657125">
        <ele>359.67</ele>
        <time>2014-05-04T12:38:32Z</time>
      </trkpt>
      <trkpt lat="41.590635491" lon="2.470939595">
        <ele>359.19</ele>
        <time>2014-05-04T12:38:37Z</time>
      </trkpt>
      <trkpt lat="41.590687207" lon="2.471105306">
        <ele>359.19</ele>
        <time>2014-05-04T12:38:40Z</time>
      </trkpt>
      <trkpt lat="41.590856018" lon="2.471353578">
        <ele>359.19</ele>
        <time>2014-05-04T12:38:46Z</time>
      </trkpt>
      <trkpt lat="41.591183583" lon="2.471703690">
        <ele>359.19</ele>
        <time>2014-05-04T12:38:57Z</time>
      </trkpt>
      <trkpt lat="41.591246867" lon="2.471754903">
        <ele>360.15</ele>
        <time>2014-05-04T12:38:59Z</time>
      </trkpt>
      <trkpt lat="41.591561188" lon="2.471874094">
        <ele>359.19</ele>
        <time>2014-05-04T12:39:06Z</time>
      </trkpt>
      <trkpt lat="41.591657328" lon="2.471932180">
        <ele>358.23</ele>
        <time>2014-05-04T12:39:08Z</time>
      </trkpt>
      <trkpt lat="41.591929237" lon="2.472146338">
        <ele>356.79</ele>
        <time>2014-05-04T12:39:14Z</time>
      </trkpt>
      <trkpt lat="41.592058822" lon="2.472211214">
        <ele>356.79</ele>
        <time>2014-05-04T12:39:17Z</time>
      </trkpt>
      <trkpt lat="41.592464087" lon="2.472256560">
        <ele>356.79</ele>
        <time>2014-05-04T12:39:26Z</time>
      </trkpt>
      <trkpt lat="41.592812941" lon="2.472306768">
        <ele>356.79</ele>
        <time>2014-05-04T12:39:36Z</time>
      </trkpt>
      <trkpt lat="41.592887540" lon="2.472326214">
        <ele>358.23</ele>
        <time>2014-05-04T12:39:38Z</time>
      </trkpt>
      <trkpt lat="41.593158192" lon="2.472440627">
        <ele>358.23</ele>
        <time>2014-05-04T12:39:45Z</time>
      </trkpt>
      <trkpt lat="41.593359777" lon="2.472660065">
        <ele>358.23</ele>
        <time>2014-05-04T12:39:51Z</time>
      </trkpt>
      <trkpt lat="41.593658592" lon="2.472999280">
        <ele>358.23</ele>
        <time>2014-05-04T12:40:00Z</time>
      </trkpt>
      <trkpt lat="41.593811058" lon="2.473037418">
        <ele>358.23</ele>
        <time>2014-05-04T12:40:04Z</time>
      </trkpt>
      <trkpt lat="41.594065282" lon="2.473173540">
        <ele>356.79</ele>
        <time>2014-05-04T12:40:10Z</time>
      </trkpt>
      <trkpt lat="41.594367701" lon="2.473611327">
        <ele>354.86</ele>
        <time>2014-05-04T12:40:18Z</time>
      </trkpt>
      <trkpt lat="41.594586804" lon="2.473754071">
        <ele>355.34</ele>
        <time>2014-05-04T12:40:23Z</time>
      </trkpt>
      <trkpt lat="41.594765003" lon="2.473811738">
        <ele>354.86</ele>
        <time>2014-05-04T12:40:27Z</time>
      </trkpt>
      <trkpt lat="41.595026518" lon="2.474024974">
        <ele>354.86</ele>
        <time>2014-05-04T12:40:35Z</time>
      </trkpt>
      <trkpt lat="41.595110505" lon="2.474077612">
        <ele>356.31</ele>
        <time>2014-05-04T12:40:38Z</time>
      </trkpt>
      <trkpt lat="41.595260709" lon="2.474007875">
        <ele>358.23</ele>
        <time>2014-05-04T12:40:44Z</time>
      </trkpt>
      <trkpt lat="41.595451145" lon="2.473905867">
        <ele>358.23</ele>
        <time>2014-05-04T12:40:50Z</time>
      </trkpt>
      <trkpt lat="41.595628171" lon="2.474020280">
        <ele>358.71</ele>
        <time>2014-05-04T12:40:56Z</time>
      </trkpt>
      <trkpt lat="41.595718612" lon="2.474232426">
        <ele>360.15</ele>
        <time>2014-05-04T12:41:02Z</time>
      </trkpt>
      <trkpt lat="41.595905193" lon="2.474516070">
        <ele>360.15</ele>
        <time>2014-05-04T12:41:09Z</time>
      </trkpt>
      <trkpt lat="41.596075597" lon="2.474613300">
        <ele>358.71</ele>
        <time>2014-05-04T12:41:13Z</time>
      </trkpt>
      <trkpt lat="41.596172743" lon="2.474652946">
        <ele>358.23</ele>
        <time>2014-05-04T12:41:15Z</time>
      </trkpt>
      <trkpt lat="41.596441383" lon="2.474878419">
        <ele>358.23</ele>
        <time>2014-05-04T12:41:22Z</time>
      </trkpt>
      <trkpt lat="41.596628803" lon="2.474973889">
        <ele>358.23</ele>
        <time>2014-05-04T12:41:29Z</time>
      </trkpt>
      <trkpt lat="41.596718405" lon="2.474932147">
        <ele>360.63</ele>
        <time>2014-05-04T12:41:34Z</time>
      </trkpt>
      <trkpt lat="41.596847319" lon="2.474796360">
        <ele>362.55</ele>
        <time>2014-05-04T12:41:43Z</time>
      </trkpt>
      <trkpt lat="41.596945723" lon="2.474698795">
        <ele>364.48</ele>
        <time>2014-05-04T12:41:51Z</time>
      </trkpt>
      <trkpt lat="41.597070110" lon="2.474648755">
        <ele>367.36</ele>
        <time>2014-05-04T12:42:01Z</time>
      </trkpt>
      <trkpt lat="41.597165245" lon="2.474682870">
        <ele>369.76</ele>
        <time>2014-05-04T12:42:09Z</time>
      </trkpt>
      <trkpt lat="41.597264403" lon="2.474731904">
        <ele>370.24</ele>
        <time>2014-05-04T12:42:17Z</time>
      </trkpt>
      <trkpt lat="41.597400357" lon="2.474786470">
        <ele>372.65</ele>
        <time>2014-05-04T12:42:29Z</time>
      </trkpt>
      <trkpt lat="41.597499515" lon="2.474807257">
        <ele>375.53</ele>
        <time>2014-05-04T12:42:38Z</time>
      </trkpt>
      <trkpt lat="41.597608312" lon="2.474821255">
        <ele>376.97</ele>
        <time>2014-05-04T12:42:47Z</time>
      </trkpt>
      <trkpt lat="41.597704620" lon="2.474823266">
        <ele>378.90</ele>
        <time>2014-05-04T12:42:55Z</time>
      </trkpt>
      <trkpt lat="41.597835964" lon="2.474812202">
        <ele>380.82</ele>
        <time>2014-05-04T12:43:06Z</time>
      </trkpt>
      <trkpt lat="41.597926405" lon="2.474814298">
        <ele>382.74</ele>
        <time>2014-05-04T12:43:14Z</time>
      </trkpt>
      <trkpt lat="41.598029922" lon="2.474807760">
        <ele>384.66</ele>
        <time>2014-05-04T12:43:24Z</time>
      </trkpt>
      <trkpt lat="41.598111478" lon="2.474779178">
        <ele>385.15</ele>
        <time>2014-05-04T12:43:31Z</time>
      </trkpt>
      <trkpt lat="41.598186915" lon="2.474803234">
        <ele>386.11</ele>
        <time>2014-05-04T12:43:38Z</time>
      </trkpt>
      <trkpt lat="41.598310883" lon="2.474866685">
        <ele>387.55</ele>
        <time>2014-05-04T12:43:47Z</time>
      </trkpt>
      <trkpt lat="41.598409119" lon="2.474965926">
        <ele>389.95</ele>
        <time>2014-05-04T12:43:56Z</time>
      </trkpt>
      <trkpt lat="41.598502661" lon="2.475167763">
        <ele>392.36</ele>
        <time>2014-05-04T12:44:07Z</time>
      </trkpt>
      <trkpt lat="41.598564939" lon="2.475304052">
        <ele>393.80</ele>
        <time>2014-05-04T12:44:15Z</time>
      </trkpt>
      <trkpt lat="41.598670718" lon="2.475459369">
        <ele>396.20</ele>
        <time>2014-05-04T12:44:25Z</time>
      </trkpt>
      <trkpt lat="41.598705755" lon="2.475497088">
        <ele>396.20</ele>
        <time>2014-05-04T12:44:28Z</time>
      </trkpt>
      <trkpt lat="41.598766020" lon="2.475569423">
        <ele>396.68</ele>
        <time>2014-05-04T12:44:34Z</time>
      </trkpt>
      <trkpt lat="41.598908094" lon="2.475644609">
        <ele>396.68</ele>
        <time>2014-05-04T12:44:41Z</time>
      </trkpt>
      <trkpt lat="41.599118899" lon="2.475739995">
        <ele>395.24</ele>
        <time>2014-05-04T12:44:47Z</time>
      </trkpt>
      <trkpt lat="41.599158294" lon="2.475759860">
        <ele>394.28</ele>
        <time>2014-05-04T12:44:48Z</time>
      </trkpt>
      <trkpt lat="41.599243118" lon="2.475814510">
        <ele>394.28</ele>
        <time>2014-05-04T12:44:50Z</time>
      </trkpt>
      <trkpt lat="41.599542855" lon="2.476104440">
        <ele>392.84</ele>
        <time>2014-05-04T12:44:57Z</time>
      </trkpt>
      <trkpt lat="41.599636230" lon="2.476188259">
        <ele>392.36</ele>
        <time>2014-05-04T12:44:59Z</time>
      </trkpt>
      <trkpt lat="41.599955077" lon="2.476596039">
        <ele>390.91</ele>
        <time>2014-05-04T12:45:06Z</time>
      </trkpt>
      <trkpt lat="41.600100671" lon="2.476772143">
        <ele>388.99</ele>
        <time>2014-05-04T12:45:09Z</time>
      </trkpt>
      <trkpt lat="41.600205109" lon="2.476898458">
        <ele>388.03</ele>
        <time>2014-05-04T12:45:11Z</time>
      </trkpt>
      <trkpt lat="41.600377860" lon="2.477129463">
        <ele>386.11</ele>
        <time>2014-05-04T12:45:15Z</time>
      </trkpt>
      <trkpt lat="41.600457991" lon="2.477248151">
        <ele>385.63</ele>
        <time>2014-05-04T12:45:17Z</time>
      </trkpt>
      <trkpt lat="41.600650272" lon="2.477545541">
        <ele>385.15</ele>
        <time>2014-05-04T12:45:22Z</time>
      </trkpt>
      <trkpt lat="41.600726380" lon="2.477844020">
        <ele>384.66</ele>
        <time>2014-05-04T12:45:26Z</time>
      </trkpt>
      <trkpt lat="41.600898125" lon="2.478259009">
        <ele>383.70</ele>
        <time>2014-05-04T12:45:33Z</time>
      </trkpt>
      <trkpt lat="41.601049586" lon="2.478540389">
        <ele>386.11</ele>
        <time>2014-05-04T12:45:40Z</time>
      </trkpt>
      <trkpt lat="41.601205825" lon="2.478759157">
        <ele>387.07</ele>
        <time>2014-05-04T12:45:47Z</time>
      </trkpt>
      <trkpt lat="41.601367847" lon="2.478948252">
        <ele>388.51</ele>
        <time>2014-05-04T12:45:54Z</time>
      </trkpt>
      <trkpt lat="41.601585274" lon="2.479122764">
        <ele>389.95</ele>
        <time>2014-05-04T12:46:02Z</time>
      </trkpt>
      <trkpt lat="41.601686946" lon="2.479307501">
        <ele>390.91</ele>
        <time>2014-05-04T12:46:08Z</time>
      </trkpt>
      <trkpt lat="41.601754672" lon="2.479535572">
        <ele>391.39</ele>
        <time>2014-05-04T12:46:14Z</time>
      </trkpt>
      <trkpt lat="41.601947288" lon="2.479854588">
        <ele>391.87</ele>
        <time>2014-05-04T12:46:24Z</time>
      </trkpt>
      <trkpt lat="41.602004955" lon="2.479937485">
        <ele>391.87</ele>
        <time>2014-05-04T12:46:26Z</time>
      </trkpt>
      <trkpt lat="41.602198158" lon="2.480125155">
        <ele>389.47</ele>
        <time>2014-05-04T12:46:30Z</time>
      </trkpt>
      <trkpt lat="41.602431511" lon="2.480331099">
        <ele>387.55</ele>
        <time>2014-05-04T12:46:34Z</time>
      </trkpt>
      <trkpt lat="41.602704844" lon="2.480467053">
        <ele>387.07</ele>
        <time>2014-05-04T12:46:38Z</time>
      </trkpt>
      <trkpt lat="41.602928138" lon="2.480647767">
        <ele>386.59</ele>
        <time>2014-05-04T12:46:42Z</time>
      </trkpt>
      <trkpt lat="41.603105918" lon="2.480836611">
        <ele>386.11</ele>
        <time>2014-05-04T12:46:46Z</time>
      </trkpt>
      <trkpt lat="41.603236760" lon="2.481081028">
        <ele>386.11</ele>
        <time>2014-05-04T12:46:51Z</time>
      </trkpt>
      <trkpt lat="41.603342288" lon="2.481518731">
        <ele>386.11</ele>
        <time>2014-05-04T12:47:00Z</time>
      </trkpt>
      <trkpt lat="41.603389981" lon="2.481906561">
        <ele>388.51</ele>
        <time>2014-05-04T12:47:09Z</time>
      </trkpt>
      <trkpt lat="41.603485619" lon="2.482131532">
        <ele>390.91</ele>
        <time>2014-05-04T12:47:16Z</time>
      </trkpt>
      <trkpt lat="41.603650072" lon="2.482376032">
        <ele>392.36</ele>
        <time>2014-05-04T12:47:24Z</time>
      </trkpt>
      <trkpt lat="41.603810585" lon="2.482578622">
        <ele>392.84</ele>
        <time>2014-05-04T12:47:31Z</time>
      </trkpt>
      <trkpt lat="41.603968332" lon="2.482808035">
        <ele>393.80</ele>
        <time>2014-05-04T12:47:39Z</time>
      </trkpt>
      <trkpt lat="41.604057600" lon="2.482962597">
        <ele>394.76</ele>
        <time>2014-05-04T12:47:45Z</time>
      </trkpt>
      <trkpt lat="41.604161871" lon="2.483194273">
        <ele>396.20</ele>
        <time>2014-05-04T12:47:53Z</time>
      </trkpt>
      <trkpt lat="41.604206630" lon="2.483429134">
        <ele>398.12</ele>
        <time>2014-05-04T12:48:01Z</time>
      </trkpt>
      <trkpt lat="41.604290784" lon="2.483684279">
        <ele>398.12</ele>
        <time>2014-05-04T12:48:08Z</time>
      </trkpt>
      <trkpt lat="41.604325402" lon="2.483738929">
        <ele>398.12</ele>
        <time>2014-05-04T12:48:09Z</time>
      </trkpt>
      <trkpt lat="41.604407879" lon="2.483845798">
        <ele>396.68</ele>
        <time>2014-05-04T12:48:11Z</time>
      </trkpt>
      <trkpt lat="41.604457249" lon="2.483898018">
        <ele>396.20</ele>
        <time>2014-05-04T12:48:12Z</time>
      </trkpt>
      <trkpt lat="41.604566800" lon="2.483993404">
        <ele>395.24</ele>
        <time>2014-05-04T12:48:14Z</time>
      </trkpt>
      <trkpt lat="41.604670736" lon="2.484095831">
        <ele>395.24</ele>
        <time>2014-05-04T12:48:16Z</time>
      </trkpt>
      <trkpt lat="41.604806104" lon="2.484274784">
        <ele>392.84</ele>
        <time>2014-05-04T12:48:19Z</time>
      </trkpt>
      <trkpt lat="41.604876931" lon="2.484444853">
        <ele>390.91</ele>
        <time>2014-05-04T12:48:22Z</time>
      </trkpt>
      <trkpt lat="41.604803589" lon="2.484737130">
        <ele>390.91</ele>
        <time>2014-05-04T12:48:29Z</time>
      </trkpt>
      <trkpt lat="41.604794704" lon="2.484783566">
        <ele>390.91</ele>
        <time>2014-05-04T12:48:30Z</time>
      </trkpt>
      <trkpt lat="41.604808786" lon="2.484877611">
        <ele>392.36</ele>
        <time>2014-05-04T12:48:32Z</time>
      </trkpt>
      <trkpt lat="41.604955553" lon="2.485043069">
        <ele>392.84</ele>
        <time>2014-05-04T12:48:38Z</time>
      </trkpt>
      <trkpt lat="41.605222433" lon="2.485299640">
        <ele>393.80</ele>
        <time>2014-05-04T12:48:48Z</time>
      </trkpt>
      <trkpt lat="41.605338774" lon="2.485539949">
        <ele>394.76</ele>
        <time>2014-05-04T12:48:55Z</time>
      </trkpt>
      <trkpt lat="41.605438854" lon="2.485880422">
        <ele>397.16</ele>
        <time>2014-05-04T12:49:04Z</time>
      </trkpt>
      <trkpt lat="41.605553267" lon="2.486133220">
        <ele>399.08</ele>
        <time>2014-05-04T12:49:12Z</time>
      </trkpt>
      <trkpt lat="41.605577742" lon="2.486420887">
        <ele>399.57</ele>
        <time>2014-05-04T12:49:19Z</time>
      </trkpt>
      <trkpt lat="41.605527199" lon="2.486652898">
        <ele>398.12</ele>
        <time>2014-05-04T12:49:24Z</time>
      </trkpt>
      <trkpt lat="41.605517224" lon="2.486705871">
        <ele>398.12</ele>
        <time>2014-05-04T12:49:25Z</time>
      </trkpt>
      <trkpt lat="41.605598864" lon="2.486960514">
        <ele>397.64</ele>
        <time>2014-05-04T12:49:30Z</time>
      </trkpt>
      <trkpt lat="41.605664494" lon="2.487042321">
        <ele>397.64</ele>
        <time>2014-05-04T12:49:32Z</time>
      </trkpt>
      <trkpt lat="41.605852417" lon="2.487286570">
        <ele>397.64</ele>
        <time>2014-05-04T12:49:39Z</time>
      </trkpt>
      <trkpt lat="41.605908911" lon="2.487387404">
        <ele>399.08</ele>
        <time>2014-05-04T12:49:43Z</time>
      </trkpt>
      <trkpt lat="41.606000776" lon="2.487593347">
        <ele>400.53</ele>
        <time>2014-05-04T12:49:51Z</time>
      </trkpt>
      <trkpt lat="41.606069424" lon="2.487806751">
        <ele>401.49</ele>
        <time>2014-05-04T12:49:59Z</time>
      </trkpt>
      <trkpt lat="41.606141425" lon="2.487983776">
        <ele>403.41</ele>
        <time>2014-05-04T12:50:06Z</time>
      </trkpt>
      <trkpt lat="41.606251563" lon="2.488244789">
        <ele>405.33</ele>
        <time>2014-05-04T12:50:15Z</time>
      </trkpt>
      <trkpt lat="41.606323563" lon="2.488409829">
        <ele>406.29</ele>
        <time>2014-05-04T12:50:22Z</time>
      </trkpt>
      <trkpt lat="41.606390367" lon="2.488608563">
        <ele>407.26</ele>
        <time>2014-05-04T12:50:30Z</time>
      </trkpt>
      <trkpt lat="41.606474605" lon="2.488792379">
        <ele>408.22</ele>
        <time>2014-05-04T12:50:37Z</time>
      </trkpt>
      <trkpt lat="41.606548953" lon="2.488961022">
        <ele>409.18</ele>
        <time>2014-05-04T12:50:44Z</time>
      </trkpt>
      <trkpt lat="41.606609219" lon="2.489175934">
        <ele>410.14</ele>
        <time>2014-05-04T12:50:52Z</time>
      </trkpt>
      <trkpt lat="41.606665880" lon="2.489448095">
        <ele>411.10</ele>
        <time>2014-05-04T12:51:00Z</time>
      </trkpt>
      <trkpt lat="41.606632688" lon="2.489768116">
        <ele>411.58</ele>
        <time>2014-05-04T12:51:09Z</time>
      </trkpt>
      <trkpt lat="41.606727571" lon="2.489951009">
        <ele>412.06</ele>
        <time>2014-05-04T12:51:15Z</time>
      </trkpt>
      <trkpt lat="41.606937454" lon="2.490025357">
        <ele>412.06</ele>
        <time>2014-05-04T12:51:23Z</time>
      </trkpt>
      <trkpt lat="41.607175584" lon="2.490034409">
        <ele>412.06</ele>
        <time>2014-05-04T12:51:30Z</time>
      </trkpt>
      <trkpt lat="41.607459144" lon="2.490118899">
        <ele>412.06</ele>
        <time>2014-05-04T12:51:38Z</time>
      </trkpt>
      <trkpt lat="41.607708757" lon="2.490312856">
        <ele>412.06</ele>
        <time>2014-05-04T12:51:46Z</time>
      </trkpt>
      <trkpt lat="41.607888129" lon="2.490586106">
        <ele>410.62</ele>
        <time>2014-05-04T12:51:53Z</time>
      </trkpt>
      <trkpt lat="41.607881759" lon="2.490807053">
        <ele>410.62</ele>
        <time>2014-05-04T12:51:58Z</time>
      </trkpt>
      <trkpt lat="41.607769190" lon="2.491026407">
        <ele>410.62</ele>
        <time>2014-05-04T12:52:04Z</time>
      </trkpt>
      <trkpt lat="41.607640109" lon="2.491271326">
        <ele>410.62</ele>
        <time>2014-05-04T12:52:10Z</time>
      </trkpt>
      <trkpt lat="41.607738764" lon="2.491435276">
        <ele>410.62</ele>
        <time>2014-05-04T12:52:15Z</time>
      </trkpt>
      <trkpt lat="41.607940768" lon="2.491546169">
        <ele>410.14</ele>
        <time>2014-05-04T12:52:21Z</time>
      </trkpt>
      <trkpt lat="41.608032382" lon="2.491746580">
        <ele>409.66</ele>
        <time>2014-05-04T12:52:25Z</time>
      </trkpt>
      <trkpt lat="41.608160541" lon="2.492100967">
        <ele>407.74</ele>
        <time>2014-05-04T12:52:31Z</time>
      </trkpt>
      <trkpt lat="41.608254838" lon="2.492264079">
        <ele>407.74</ele>
        <time>2014-05-04T12:52:34Z</time>
      </trkpt>
      <trkpt lat="41.608367155" lon="2.492413864">
        <ele>407.26</ele>
        <time>2014-05-04T12:52:37Z</time>
      </trkpt>
      <trkpt lat="41.608546779" lon="2.492440518">
        <ele>407.26</ele>
        <time>2014-05-04T12:52:41Z</time>
      </trkpt>
      <trkpt lat="41.608612913" lon="2.492369607">
        <ele>407.26</ele>
        <time>2014-05-04T12:52:43Z</time>
      </trkpt>
      <trkpt lat="41.608673849" lon="2.492106583">
        <ele>407.74</ele>
        <time>2014-05-04T12:52:49Z</time>
      </trkpt>
      <trkpt lat="41.608670496" lon="2.491991583">
        <ele>408.70</ele>
        <time>2014-05-04T12:52:52Z</time>
      </trkpt>
      <trkpt lat="41.608658594" lon="2.491729481">
        <ele>411.10</ele>
        <time>2014-05-04T12:53:00Z</time>
      </trkpt>
      <trkpt lat="41.608745766" lon="2.491478108">
        <ele>412.54</ele>
        <time>2014-05-04T12:53:07Z</time>
      </trkpt>
      <trkpt lat="41.608875099" lon="2.491285660">
        <ele>414.47</ele>
        <time>2014-05-04T12:53:14Z</time>
      </trkpt>
      <trkpt lat="41.609065116" lon="2.491188765">
        <ele>416.39</ele>
        <time>2014-05-04T12:53:22Z</time>
      </trkpt>
      <trkpt lat="41.609286901" lon="2.491145598">
        <ele>418.31</ele>
        <time>2014-05-04T12:53:31Z</time>
      </trkpt>
      <trkpt lat="41.609480859" lon="2.491046440">
        <ele>419.75</ele>
        <time>2014-05-04T12:53:39Z</time>
      </trkpt>
      <trkpt lat="41.609569539" lon="2.490821218">
        <ele>420.71</ele>
        <time>2014-05-04T12:53:46Z</time>
      </trkpt>
      <trkpt lat="41.609648245" lon="2.490535563">
        <ele>421.68</ele>
        <time>2014-05-04T12:53:54Z</time>
      </trkpt>
      <trkpt lat="41.609687808" lon="2.490208250">
        <ele>422.16</ele>
        <time>2014-05-04T12:54:02Z</time>
      </trkpt>
      <trkpt lat="41.609813285" lon="2.489826957">
        <ele>422.64</ele>
        <time>2014-05-04T12:54:10Z</time>
      </trkpt>
      <trkpt lat="41.609836503" lon="2.489779767">
        <ele>422.64</ele>
        <time>2014-05-04T12:54:11Z</time>
      </trkpt>
      <trkpt lat="41.609955191" lon="2.489594443">
        <ele>422.64</ele>
        <time>2014-05-04T12:54:15Z</time>
      </trkpt>
      <trkpt lat="41.610105059" lon="2.489425715">
        <ele>422.64</ele>
        <time>2014-05-04T12:54:19Z</time>
      </trkpt>
      <trkpt lat="41.610277978" lon="2.489360169">
        <ele>422.64</ele>
        <time>2014-05-04T12:54:23Z</time>
      </trkpt>
      <trkpt lat="41.610427846" lon="2.489551108">
        <ele>420.71</ele>
        <time>2014-05-04T12:54:27Z</time>
      </trkpt>
      <trkpt lat="41.610454584" lon="2.489619672">
        <ele>420.71</ele>
        <time>2014-05-04T12:54:28Z</time>
      </trkpt>
      <trkpt lat="41.610560448" lon="2.489913793">
        <ele>419.75</ele>
        <time>2014-05-04T12:54:32Z</time>
      </trkpt>
      <trkpt lat="41.610692882" lon="2.490248483">
        <ele>418.31</ele>
        <time>2014-05-04T12:54:37Z</time>
      </trkpt>
      <trkpt lat="41.610690032" lon="2.490325848">
        <ele>418.31</ele>
        <time>2014-05-04T12:54:38Z</time>
      </trkpt>
      <trkpt lat="41.610678297" lon="2.490480410">
        <ele>417.83</ele>
        <time>2014-05-04T12:54:40Z</time>
      </trkpt>
      <trkpt lat="41.610651392" lon="2.491030347">
        <ele>417.83</ele>
        <time>2014-05-04T12:54:47Z</time>
      </trkpt>
      <trkpt lat="41.610706042" lon="2.491341148">
        <ele>417.35</ele>
        <time>2014-05-04T12:54:51Z</time>
      </trkpt>
      <trkpt lat="41.610773181" lon="2.491466290">
        <ele>417.35</ele>
        <time>2014-05-04T12:54:53Z</time>
      </trkpt>
      <trkpt lat="41.610834285" lon="2.491653038">
        <ele>417.35</ele>
        <time>2014-05-04T12:54:56Z</time>
      </trkpt>
      <trkpt lat="41.610863537" lon="2.491841044">
        <ele>417.35</ele>
        <time>2014-05-04T12:54:59Z</time>
      </trkpt>
      <trkpt lat="41.610862951" lon="2.492073055">
        <ele>417.35</ele>
        <time>2014-05-04T12:55:03Z</time>
      </trkpt>
      <trkpt lat="41.610818443" lon="2.492280005">
        <ele>417.35</ele>
        <time>2014-05-04T12:55:07Z</time>
      </trkpt>
      <trkpt lat="41.610807630" lon="2.492530288">
        <ele>418.79</ele>
        <time>2014-05-04T12:55:11Z</time>
      </trkpt>
      <trkpt lat="41.610937047" lon="2.493001100">
        <ele>419.75</ele>
        <time>2014-05-04T12:55:19Z</time>
      </trkpt>
      <trkpt lat="41.611059758" lon="2.493407454">
        <ele>419.75</ele>
        <time>2014-05-04T12:55:27Z</time>
      </trkpt>
      <trkpt lat="41.611158161" lon="2.493600238">
        <ele>419.75</ele>
        <time>2014-05-04T12:55:31Z</time>
      </trkpt>
      <trkpt lat="41.611358824" lon="2.493924869">
        <ele>420.71</ele>
        <time>2014-05-04T12:55:39Z</time>
      </trkpt>
      <trkpt lat="41.611484720" lon="2.494462317">
        <ele>419.75</ele>
        <time>2014-05-04T12:55:48Z</time>
      </trkpt>
      <trkpt lat="41.611505256" lon="2.494581843">
        <ele>419.75</ele>
        <time>2014-05-04T12:55:50Z</time>
      </trkpt>
      <trkpt lat="41.611526546" lon="2.494762557">
        <ele>419.75</ele>
        <time>2014-05-04T12:55:53Z</time>
      </trkpt>
      <trkpt lat="41.611582789" lon="2.495237475">
        <ele>419.75</ele>
        <time>2014-05-04T12:56:01Z</time>
      </trkpt>
      <trkpt lat="41.611635427" lon="2.495534027">
        <ele>419.75</ele>
        <time>2014-05-04T12:56:06Z</time>
      </trkpt>
      <trkpt lat="41.611815722" lon="2.495734271">
        <ele>419.75</ele>
        <time>2014-05-04T12:56:11Z</time>
      </trkpt>
      <trkpt lat="41.611859559" lon="2.495732092">
        <ele>419.75</ele>
        <time>2014-05-04T12:56:12Z</time>
      </trkpt>
      <trkpt lat="41.612104814" lon="2.495644165">
        <ele>419.75</ele>
        <time>2014-05-04T12:56:19Z</time>
      </trkpt>
      <trkpt lat="41.612230626" lon="2.495616170">
        <ele>421.19</ele>
        <time>2014-05-04T12:56:24Z</time>
      </trkpt>
      <trkpt lat="41.612370352" lon="2.495653385">
        <ele>424.56</ele>
        <time>2014-05-04T12:56:31Z</time>
      </trkpt>
      <trkpt lat="41.612396085" lon="2.495665874">
        <ele>424.56</ele>
        <time>2014-05-04T12:56:32Z</time>
      </trkpt>
      <trkpt lat="41.612504211" lon="2.495753884">
        <ele>424.56</ele>
        <time>2014-05-04T12:56:40Z</time>
      </trkpt>
      <trkpt lat="41.612545702" lon="2.495767547">
        <ele>424.56</ele>
        <time>2014-05-04T12:56:53Z</time>
      </trkpt>
      <trkpt lat="41.612562298" lon="2.495765200">
        <ele>424.56</ele>
        <time>2014-05-04T12:57:08Z</time>
      </trkpt>
      <trkpt lat="41.612580570" lon="2.495774252">
        <ele>424.56</ele>
        <time>2014-05-04T12:57:24Z</time>
      </trkpt>
      <trkpt lat="41.612586605" lon="2.495817084">
        <ele>424.56</ele>
        <time>2014-05-04T12:57:33Z</time>
      </trkpt>
      <trkpt lat="41.612585683" lon="2.495987153">
        <ele>423.60</ele>
        <time>2014-05-04T12:57:38Z</time>
      </trkpt>
      <trkpt lat="41.612634298" lon="2.496212207">
        <ele>422.64</ele>
        <time>2014-05-04T12:57:42Z</time>
      </trkpt>
      <trkpt lat="41.612742844" lon="2.496475985">
        <ele>420.23</ele>
        <time>2014-05-04T12:57:46Z</time>
      </trkpt>
      <trkpt lat="41.612805876" lon="2.496722330">
        <ele>418.79</ele>
        <time>2014-05-04T12:57:49Z</time>
      </trkpt>
      <trkpt lat="41.612957085" lon="2.497137737">
        <ele>415.43</ele>
        <time>2014-05-04T12:57:54Z</time>
      </trkpt>
      <trkpt lat="41.612985416" lon="2.497212168">
        <ele>414.47</ele>
        <time>2014-05-04T12:57:55Z</time>
      </trkpt>
      <trkpt lat="41.613192952" lon="2.497380812">
        <ele>412.06</ele>
        <time>2014-05-04T12:58:00Z</time>
      </trkpt>
      <trkpt lat="41.613248692" lon="2.497360863">
        <ele>411.10</ele>
        <time>2014-05-04T12:58:01Z</time>
      </trkpt>
      <trkpt lat="41.613519344" lon="2.497382907">
        <ele>409.18</ele>
        <time>2014-05-04T12:58:07Z</time>
      </trkpt>
      <trkpt lat="41.613574077" lon="2.497463877">
        <ele>408.70</ele>
        <time>2014-05-04T12:58:09Z</time>
      </trkpt>
      <trkpt lat="41.613665356" lon="2.497631179">
        <ele>407.74</ele>
        <time>2014-05-04T12:58:12Z</time>
      </trkpt>
      <trkpt lat="41.613880520" lon="2.497804601">
        <ele>405.81</ele>
        <time>2014-05-04T12:58:17Z</time>
      </trkpt>
      <trkpt lat="41.614111106" lon="2.497665629">
        <ele>402.93</ele>
        <time>2014-05-04T12:58:21Z</time>
      </trkpt>
      <trkpt lat="41.614159805" lon="2.497603351">
        <ele>401.97</ele>
        <time>2014-05-04T12:58:22Z</time>
      </trkpt>
      <trkpt lat="41.614320067" lon="2.497422721">
        <ele>400.53</ele>
        <time>2014-05-04T12:58:25Z</time>
      </trkpt>
      <trkpt lat="41.614479071" lon="2.497456333">
        <ele>400.53</ele>
        <time>2014-05-04T12:58:28Z</time>
      </trkpt>
      <trkpt lat="41.614521903" lon="2.497538727">
        <ele>400.53</ele>
        <time>2014-05-04T12:58:30Z</time>
      </trkpt>
      <trkpt lat="41.614632628" lon="2.497791860">
        <ele>402.93</ele>
        <time>2014-05-04T12:58:39Z</time>
      </trkpt>
      <trkpt lat="41.614672861" lon="2.497994283">
        <ele>403.89</ele>
        <time>2014-05-04T12:58:46Z</time>
      </trkpt>
      <trkpt lat="41.614683590" lon="2.498247501">
        <ele>401.49</ele>
        <time>2014-05-04T12:58:51Z</time>
      </trkpt>
      <trkpt lat="41.614646290" lon="2.498569701">
        <ele>399.08</ele>
        <time>2014-05-04T12:58:57Z</time>
      </trkpt>
      <trkpt lat="41.614618882" lon="2.498879915">
        <ele>397.16</ele>
        <time>2014-05-04T12:59:01Z</time>
      </trkpt>
      <trkpt lat="41.614546881" lon="2.499286102">
        <ele>394.28</ele>
        <time>2014-05-04T12:59:06Z</time>
      </trkpt>
      <trkpt lat="41.614550318" lon="2.499511324">
        <ele>390.91</ele>
        <time>2014-05-04T12:59:09Z</time>
      </trkpt>
      <trkpt lat="41.614571524" lon="2.499588354">
        <ele>389.95</ele>
        <time>2014-05-04T12:59:10Z</time>
      </trkpt>
      <trkpt lat="41.614689709" lon="2.499855820">
        <ele>384.66</ele>
        <time>2014-05-04T12:59:14Z</time>
      </trkpt>
      <trkpt lat="41.614869417" lon="2.499983560">
        <ele>380.82</ele>
        <time>2014-05-04T12:59:19Z</time>
      </trkpt>
      <trkpt lat="41.614971760" lon="2.499966042">
        <ele>379.86</ele>
        <time>2014-05-04T12:59:21Z</time>
      </trkpt>
      <trkpt lat="41.615144008" lon="2.500123538">
        <ele>377.45</ele>
        <time>2014-05-04T12:59:25Z</time>
      </trkpt>
      <trkpt lat="41.615219026" lon="2.500214901">
        <ele>376.49</ele>
        <time>2014-05-04T12:59:27Z</time>
      </trkpt>
      <trkpt lat="41.615320279" lon="2.500241975">
        <ele>374.57</ele>
        <time>2014-05-04T12:59:29Z</time>
      </trkpt>
      <trkpt lat="41.615559080" lon="2.500233006">
        <ele>370.73</ele>
        <time>2014-05-04T12:59:33Z</time>
      </trkpt>
      <trkpt lat="41.615613311" lon="2.500229569">
        <ele>370.24</ele>
        <time>2014-05-04T12:59:34Z</time>
      </trkpt>
      <trkpt lat="41.615761084" lon="2.500339205">
        <ele>366.40</ele>
        <time>2014-05-04T12:59:39Z</time>
      </trkpt>
      <trkpt lat="41.615690256" lon="2.500453366">
        <ele>364.00</ele>
        <time>2014-05-04T12:59:43Z</time>
      </trkpt>
      <trkpt lat="41.615657399" lon="2.500454791">
        <ele>364.00</ele>
        <time>2014-05-04T12:59:44Z</time>
      </trkpt>
      <trkpt lat="41.615504681" lon="2.500434172">
        <ele>362.07</ele>
        <time>2014-05-04T12:59:48Z</time>
      </trkpt>
      <trkpt lat="41.615248530" lon="2.500561996">
        <ele>361.11</ele>
        <time>2014-05-04T12:59:53Z</time>
      </trkpt>
      <trkpt lat="41.615026158" lon="2.500525199">
        <ele>358.71</ele>
        <time>2014-05-04T12:59:57Z</time>
      </trkpt>
      <trkpt lat="41.614863549" lon="2.500489827">
        <ele>358.71</ele>
        <time>2014-05-04T13:00:00Z</time>
      </trkpt>
      <trkpt lat="41.614634472" lon="2.500548417">
        <ele>357.75</ele>
        <time>2014-05-04T13:00:04Z</time>
      </trkpt>
      <trkpt lat="41.614569764" lon="2.500515476">
        <ele>356.79</ele>
        <time>2014-05-04T13:00:05Z</time>
      </trkpt>
      <trkpt lat="41.614442275" lon="2.500407266">
        <ele>354.86</ele>
        <time>2014-05-04T13:00:07Z</time>
      </trkpt>
      <trkpt lat="41.614162738" lon="2.500237951">
        <ele>349.10</ele>
        <time>2014-05-04T13:00:11Z</time>
      </trkpt>
      <trkpt lat="41.614099036" lon="2.500209117">
        <ele>348.13</ele>
        <time>2014-05-04T13:00:12Z</time>
      </trkpt>
      <trkpt lat="41.613933158" lon="2.500049191">
        <ele>344.29</ele>
        <time>2014-05-04T13:00:16Z</time>
      </trkpt>
      <trkpt lat="41.613878089" lon="2.499978867">
        <ele>342.37</ele>
        <time>2014-05-04T13:00:18Z</time>
      </trkpt>
      <trkpt lat="41.613832072" lon="2.500074672">
        <ele>340.44</ele>
        <time>2014-05-04T13:00:22Z</time>
      </trkpt>
      <trkpt lat="41.613849423" lon="2.500118844">
        <ele>339.96</ele>
        <time>2014-05-04T13:00:23Z</time>
      </trkpt>
      <trkpt lat="41.614028963" lon="2.500421096">
        <ele>335.64</ele>
        <time>2014-05-04T13:00:28Z</time>
      </trkpt>
      <trkpt lat="41.614111944" lon="2.500549926">
        <ele>333.71</ele>
        <time>2014-05-04T13:00:30Z</time>
      </trkpt>
      <trkpt lat="41.614241864" lon="2.500866007">
        <ele>327.95</ele>
        <time>2014-05-04T13:00:34Z</time>
      </trkpt>
      <trkpt lat="41.614350074" lon="2.501146717">
        <ele>325.54</ele>
        <time>2014-05-04T13:00:38Z</time>
      </trkpt>
      <trkpt lat="41.614462308" lon="2.501242522">
        <ele>323.62</ele>
        <time>2014-05-04T13:00:40Z</time>
      </trkpt>
      <trkpt lat="41.614602118" lon="2.501336651">
        <ele>323.14</ele>
        <time>2014-05-04T13:00:42Z</time>
      </trkpt>
      <trkpt lat="41.614907135" lon="2.501439581">
        <ele>320.74</ele>
        <time>2014-05-04T13:00:47Z</time>
      </trkpt>
      <trkpt lat="41.614928090" lon="2.501532704">
        <ele>320.26</ele>
        <time>2014-05-04T13:00:49Z</time>
      </trkpt>
      <trkpt lat="41.614954325" lon="2.501852809">
        <ele>319.78</ele>
        <time>2014-05-04T13:00:56Z</time>
      </trkpt>
      <trkpt lat="41.614965054" lon="2.501918104">
        <ele>319.78</ele>
        <time>2014-05-04T13:00:57Z</time>
      </trkpt>
      <trkpt lat="41.615130681" lon="2.502534760">
        <ele>317.37</ele>
        <time>2014-05-04T13:01:06Z</time>
      </trkpt>
      <trkpt lat="41.615152893" lon="2.502675073">
        <ele>317.37</ele>
        <time>2014-05-04T13:01:08Z</time>
      </trkpt>
      <trkpt lat="41.615241657" lon="2.502900044">
        <ele>316.41</ele>
        <time>2014-05-04T13:01:12Z</time>
      </trkpt>
      <trkpt lat="41.615362692" lon="2.503138090">
        <ele>315.93</ele>
        <time>2014-05-04T13:01:17Z</time>
      </trkpt>
      <trkpt lat="41.615419521" lon="2.503527094">
        <ele>315.45</ele>
        <time>2014-05-04T13:01:24Z</time>
      </trkpt>
      <trkpt lat="41.615424215" lon="2.503677465">
        <ele>314.49</ele>
        <time>2014-05-04T13:01:26Z</time>
      </trkpt>
      <trkpt lat="41.615415079" lon="2.503828088">
        <ele>312.09</ele>
        <time>2014-05-04T13:01:28Z</time>
      </trkpt>
      <trkpt lat="41.615366296" lon="2.504149953">
        <ele>307.28</ele>
        <time>2014-05-04T13:01:32Z</time>
      </trkpt>
      <trkpt lat="41.615357327" lon="2.504239723">
        <ele>306.32</ele>
        <time>2014-05-04T13:01:33Z</time>
      </trkpt>
      <trkpt lat="41.615355651" lon="2.504586902">
        <ele>301.51</ele>
        <time>2014-05-04T13:01:37Z</time>
      </trkpt>
      <trkpt lat="41.615465621" lon="2.504782116">
        <ele>299.11</ele>
        <time>2014-05-04T13:01:41Z</time>
      </trkpt>
      <trkpt lat="41.615522283" lon="2.504785888">
        <ele>298.63</ele>
        <time>2014-05-04T13:01:42Z</time>
      </trkpt>
      <trkpt lat="41.615973565" lon="2.504804580">
        <ele>295.74</ele>
        <time>2014-05-04T13:01:48Z</time>
      </trkpt>
      <trkpt lat="41.616142460" lon="2.504951598">
        <ele>293.34</ele>
        <time>2014-05-04T13:01:52Z</time>
      </trkpt>
      <trkpt lat="41.616151177" lon="2.505136335">
        <ele>292.86</ele>
        <time>2014-05-04T13:01:55Z</time>
      </trkpt>
      <trkpt lat="41.615985886" lon="2.505702617">
        <ele>286.13</ele>
        <time>2014-05-04T13:02:02Z</time>
      </trkpt>
      <trkpt lat="41.615916316" lon="2.505892635">
        <ele>283.25</ele>
        <time>2014-05-04T13:02:04Z</time>
      </trkpt>
      <trkpt lat="41.615822774" lon="2.506140823">
        <ele>279.88</ele>
        <time>2014-05-04T13:02:07Z</time>
      </trkpt>
      <trkpt lat="41.615734932" lon="2.506383311">
        <ele>275.56</ele>
        <time>2014-05-04T13:02:10Z</time>
      </trkpt>
      <trkpt lat="41.615680533" lon="2.506672990">
        <ele>271.23</ele>
        <time>2014-05-04T13:02:13Z</time>
      </trkpt>
      <trkpt lat="41.615668044" lon="2.506756473">
        <ele>269.79</ele>
        <time>2014-05-04T13:02:14Z</time>
      </trkpt>
      <trkpt lat="41.615711044" lon="2.507196188">
        <ele>265.46</ele>
        <time>2014-05-04T13:02:19Z</time>
      </trkpt>
      <trkpt lat="41.615775836" lon="2.507429456">
        <ele>264.50</ele>
        <time>2014-05-04T13:02:23Z</time>
      </trkpt>
      <trkpt lat="41.615790504" lon="2.507470779">
        <ele>264.02</ele>
        <time>2014-05-04T13:02:28Z</time>
      </trkpt>
      <trkpt lat="41.615818583" lon="2.507495757">
        <ele>264.02</ele>
        <time>2014-05-04T13:02:34Z</time>
      </trkpt>
      <trkpt lat="41.615819589" lon="2.507505397">
        <ele>263.54</ele>
        <time>2014-05-04T13:02:47Z</time>
      </trkpt>
      <trkpt lat="41.615826546" lon="2.507479580">
        <ele>263.54</ele>
        <time>2014-05-04T13:02:54Z</time>
      </trkpt>
      <trkpt lat="41.615839370" lon="2.507481424">
        <ele>263.54</ele>
        <time>2014-05-04T13:03:05Z</time>
      </trkpt>
      <trkpt lat="41.615832916" lon="2.507474719">
        <ele>263.54</ele>
        <time>2014-05-04T13:03:17Z</time>
      </trkpt>
      <trkpt lat="41.615852111" lon="2.507457452">
        <ele>263.54</ele>
        <time>2014-05-04T13:03:26Z</time>
      </trkpt>
      <trkpt lat="41.615856470" lon="2.507454770">
        <ele>263.54</ele>
        <time>2014-05-04T13:03:38Z</time>
      </trkpt>
      <trkpt lat="41.615865522" lon="2.507445885">
        <ele>263.54</ele>
        <time>2014-05-04T13:04:01Z</time>
      </trkpt>
      <trkpt lat="41.615851524" lon="2.507483520">
        <ele>263.54</ele>
        <time>2014-05-04T13:04:23Z</time>
      </trkpt>
      <trkpt lat="41.615850267" lon="2.507502379">
        <ele>263.54</ele>
        <time>2014-05-04T13:04:45Z</time>
      </trkpt>
      <trkpt lat="41.615857224" lon="2.507509755">
        <ele>263.54</ele>
        <time>2014-05-04T13:05:03Z</time>
      </trkpt>
      <trkpt lat="41.615864768" lon="2.507497182">
        <ele>263.54</ele>
        <time>2014-05-04T13:05:24Z</time>
      </trkpt>
      <trkpt lat="41.615871306" lon="2.507486705">
        <ele>263.54</ele>
        <time>2014-05-04T13:05:48Z</time>
      </trkpt>
      <trkpt lat="41.615880945" lon="2.507472539">
        <ele>263.54</ele>
        <time>2014-05-04T13:06:10Z</time>
      </trkpt>
      <trkpt lat="41.615872060" lon="2.507466924">
        <ele>263.54</ele>
        <time>2014-05-04T13:06:26Z</time>
      </trkpt>
      <trkpt lat="41.615847417" lon="2.507494584">
        <ele>263.54</ele>
        <time>2014-05-04T13:06:48Z</time>
      </trkpt>
      <trkpt lat="41.615841047" lon="2.507485112">
        <ele>263.06</ele>
        <time>2014-05-04T13:07:09Z</time>
      </trkpt>
      <trkpt lat="41.615845992" lon="2.507461475">
        <ele>262.58</ele>
        <time>2014-05-04T13:07:30Z</time>
      </trkpt>
      <trkpt lat="41.615860744" lon="2.507425266">
        <ele>262.58</ele>
        <time>2014-05-04T13:07:52Z</time>
      </trkpt>
      <trkpt lat="41.615847417" lon="2.507405400">
        <ele>262.58</ele>
        <time>2014-05-04T13:08:15Z</time>
      </trkpt>
      <trkpt lat="41.615847249" lon="2.507415207">
        <ele>262.58</ele>
        <time>2014-05-04T13:08:33Z</time>
      </trkpt>
      <trkpt lat="41.615859487" lon="2.507415710">
        <ele>262.58</ele>
        <time>2014-05-04T13:08:52Z</time>
      </trkpt>
      <trkpt lat="41.615824954" lon="2.507481592">
        <ele>262.10</ele>
        <time>2014-05-04T13:09:15Z</time>
      </trkpt>
      <trkpt lat="41.615789498" lon="2.507491818">
        <ele>263.06</ele>
        <time>2014-05-04T13:09:39Z</time>
      </trkpt>
      <trkpt lat="41.615817494" lon="2.507457620">
        <ele>263.06</ele>
        <time>2014-05-04T13:10:01Z</time>
      </trkpt>
      <trkpt lat="41.615808357" lon="2.507451417">
        <ele>263.06</ele>
        <time>2014-05-04T13:10:21Z</time>
      </trkpt>
      <trkpt lat="41.615830318" lon="2.507426020">
        <ele>262.58</ele>
        <time>2014-05-04T13:10:43Z</time>
      </trkpt>
      <trkpt lat="41.615827468" lon="2.507383021">
        <ele>262.58</ele>
        <time>2014-05-04T13:11:05Z</time>
      </trkpt>
      <trkpt lat="41.615789079" lon="2.507425433">
        <ele>262.58</ele>
        <time>2014-05-04T13:11:26Z</time>
      </trkpt>
      <trkpt lat="41.615770471" lon="2.507486789">
        <ele>262.58</ele>
        <time>2014-05-04T13:11:44Z</time>
      </trkpt>
      <trkpt lat="41.615794863" lon="2.507507157">
        <ele>263.54</ele>
        <time>2014-05-04T13:11:57Z</time>
      </trkpt>
      <trkpt lat="41.615794276" lon="2.507507576">
        <ele>263.54</ele>
        <time>2014-05-04T13:12:05Z</time>
      </trkpt>
      <trkpt lat="41.615795030" lon="2.507546049">
        <ele>263.54</ele>
        <time>2014-05-04T13:12:15Z</time>
      </trkpt>
      <trkpt lat="41.615799305" lon="2.507569937">
        <ele>263.54</ele>
        <time>2014-05-04T13:12:18Z</time>
      </trkpt>
      <trkpt lat="41.615879939" lon="2.507741850">
        <ele>261.14</ele>
        <time>2014-05-04T13:12:24Z</time>
      </trkpt>
      <trkpt lat="41.615908018" lon="2.507801194">
        <ele>260.17</ele>
        <time>2014-05-04T13:12:25Z</time>
      </trkpt>
      <trkpt lat="41.616004075" lon="2.508090370">
        <ele>257.77</ele>
        <time>2014-05-04T13:12:31Z</time>
      </trkpt>
      <trkpt lat="41.616090241" lon="2.508322381">
        <ele>254.41</ele>
        <time>2014-05-04T13:12:36Z</time>
      </trkpt>
      <trkpt lat="41.616163582" lon="2.508568389">
        <ele>251.52</ele>
        <time>2014-05-04T13:12:42Z</time>
      </trkpt>
      <trkpt lat="41.616231476" lon="2.508821020">
        <ele>248.16</ele>
        <time>2014-05-04T13:12:48Z</time>
      </trkpt>
      <trkpt lat="41.616285036" lon="2.509114890">
        <ele>244.79</ele>
        <time>2014-05-04T13:12:54Z</time>
      </trkpt>
      <trkpt lat="41.616301968" lon="2.509402137">
        <ele>241.43</ele>
        <time>2014-05-04T13:13:00Z</time>
      </trkpt>
      <trkpt lat="41.616303560" lon="2.509450417">
        <ele>241.43</ele>
        <time>2014-05-04T13:13:01Z</time>
      </trkpt>
      <trkpt lat="41.616315965" lon="2.509597436">
        <ele>239.51</ele>
        <time>2014-05-04T13:13:04Z</time>
      </trkpt>
      <trkpt lat="41.616470612" lon="2.509789046">
        <ele>236.62</ele>
        <time>2014-05-04T13:13:10Z</time>
      </trkpt>
      <trkpt lat="41.616497769" lon="2.509799859">
        <ele>236.62</ele>
        <time>2014-05-04T13:13:11Z</time>
      </trkpt>
      <trkpt lat="41.616554934" lon="2.509810336">
        <ele>235.66</ele>
        <time>2014-05-04T13:13:13Z</time>
      </trkpt>
      <trkpt lat="41.616703377" lon="2.509613194">
        <ele>234.22</ele>
        <time>2014-05-04T13:13:19Z</time>
      </trkpt>
      <trkpt lat="41.616831872" lon="2.509477072">
        <ele>232.78</ele>
        <time>2014-05-04T13:13:24Z</time>
      </trkpt>
      <trkpt lat="41.616896831" lon="2.509561896">
        <ele>232.30</ele>
        <time>2014-05-04T13:13:29Z</time>
      </trkpt>
      <trkpt lat="41.616884259" lon="2.509589305">
        <ele>232.30</ele>
        <time>2014-05-04T13:13:30Z</time>
      </trkpt>
      <trkpt lat="41.616796081" lon="2.509786951">
        <ele>231.33</ele>
        <time>2014-05-04T13:13:35Z</time>
      </trkpt>
      <trkpt lat="41.616765571" lon="2.510144187">
        <ele>228.45</ele>
        <time>2014-05-04T13:13:41Z</time>
      </trkpt>
      <trkpt lat="41.616732630" lon="2.510314088">
        <ele>227.01</ele>
        <time>2014-05-04T13:13:44Z</time>
      </trkpt>
      <trkpt lat="41.616586869" lon="2.510574179">
        <ele>222.68</ele>
        <time>2014-05-04T13:13:50Z</time>
      </trkpt>
      <trkpt lat="41.616491483" lon="2.510689011">
        <ele>222.20</ele>
        <time>2014-05-04T13:13:53Z</time>
      </trkpt>
      <trkpt lat="41.616370951" lon="2.511070136">
        <ele>219.32</ele>
        <time>2014-05-04T13:14:01Z</time>
      </trkpt>
      <trkpt lat="41.616331891" lon="2.511337519">
        <ele>217.88</ele>
        <time>2014-05-04T13:14:07Z</time>
      </trkpt>
      <trkpt lat="41.616354522" lon="2.511482526">
        <ele>217.88</ele>
        <time>2014-05-04T13:14:10Z</time>
      </trkpt>
      <trkpt lat="41.616552084" lon="2.511946883">
        <ele>216.91</ele>
        <time>2014-05-04T13:14:17Z</time>
      </trkpt>
      <trkpt lat="41.616665910" lon="2.512175793">
        <ele>215.95</ele>
        <time>2014-05-04T13:14:20Z</time>
      </trkpt>
      <trkpt lat="41.616777892" lon="2.512507130">
        <ele>215.95</ele>
        <time>2014-05-04T13:14:24Z</time>
      </trkpt>
      <trkpt lat="41.616836733" lon="2.513145831">
        <ele>214.03</ele>
        <time>2014-05-04T13:14:31Z</time>
      </trkpt>
      <trkpt lat="41.616844444" lon="2.513773048">
        <ele>211.63</ele>
        <time>2014-05-04T13:14:38Z</time>
      </trkpt>
      <trkpt lat="41.616835979" lon="2.514145037">
        <ele>210.67</ele>
        <time>2014-05-04T13:14:42Z</time>
      </trkpt>
      <trkpt lat="41.616830782" lon="2.514800837">
        <ele>208.26</ele>
        <time>2014-05-04T13:14:49Z</time>
      </trkpt>
      <trkpt lat="41.616836146" lon="2.515277516">
        <ele>207.30</ele>
        <time>2014-05-04T13:14:55Z</time>
      </trkpt>
      <trkpt lat="41.616829609" lon="2.515498882">
        <ele>205.86</ele>
        <time>2014-05-04T13:14:59Z</time>
      </trkpt>
      <trkpt lat="41.616830614" lon="2.515649421">
        <ele>204.42</ele>
        <time>2014-05-04T13:15:04Z</time>
      </trkpt>
      <trkpt lat="41.616812677" lon="2.515786633">
        <ele>204.90</ele>
        <time>2014-05-04T13:15:07Z</time>
      </trkpt>
      <trkpt lat="41.616801278" lon="2.516265324">
        <ele>203.46</ele>
        <time>2014-05-04T13:15:14Z</time>
      </trkpt>
      <trkpt lat="41.616783340" lon="2.516559864">
        <ele>202.01</ele>
        <time>2014-05-04T13:15:18Z</time>
      </trkpt>
      <trkpt lat="41.616735899" lon="2.517162020">
        <ele>200.09</ele>
        <time>2014-05-04T13:15:26Z</time>
      </trkpt>
      <trkpt lat="41.616701198" lon="2.517797955">
        <ele>197.21</ele>
        <time>2014-05-04T13:15:33Z</time>
      </trkpt>
      <trkpt lat="41.616677728" lon="2.518295253">
        <ele>195.77</ele>
        <time>2014-05-04T13:15:38Z</time>
      </trkpt>
      <trkpt lat="41.616583181" lon="2.518625835">
        <ele>195.77</ele>
        <time>2014-05-04T13:15:43Z</time>
      </trkpt>
      <trkpt lat="41.616513275" lon="2.518899420">
        <ele>195.77</ele>
        <time>2014-05-04T13:15:48Z</time>
      </trkpt>
      <trkpt lat="41.616420823" lon="2.519398479">
        <ele>194.32</ele>
        <time>2014-05-04T13:15:55Z</time>
      </trkpt>
      <trkpt lat="41.616279001" lon="2.519941794">
        <ele>193.36</ele>
        <time>2014-05-04T13:16:01Z</time>
      </trkpt>
      <trkpt lat="41.616029975" lon="2.520711588">
        <ele>191.44</ele>
        <time>2014-05-04T13:16:10Z</time>
      </trkpt>
      <trkpt lat="41.615928470" lon="2.521331178">
        <ele>189.52</ele>
        <time>2014-05-04T13:16:16Z</time>
      </trkpt>
      <trkpt lat="41.615836185" lon="2.521976920">
        <ele>189.04</ele>
        <time>2014-05-04T13:16:22Z</time>
      </trkpt>
      <trkpt lat="41.615738201" lon="2.522675468">
        <ele>186.63</ele>
        <time>2014-05-04T13:16:28Z</time>
      </trkpt>
      <trkpt lat="41.615627308" lon="2.523584569">
        <ele>184.71</ele>
        <time>2014-05-04T13:16:36Z</time>
      </trkpt>
      <trkpt lat="41.615591266" lon="2.524123944">
        <ele>181.35</ele>
        <time>2014-05-04T13:16:41Z</time>
      </trkpt>
      <trkpt lat="41.615545166" lon="2.524569191">
        <ele>179.90</ele>
        <time>2014-05-04T13:16:45Z</time>
      </trkpt>
      <trkpt lat="41.615518930" lon="2.524904551">
        <ele>177.98</ele>
        <time>2014-05-04T13:16:48Z</time>
      </trkpt>
      <trkpt lat="41.615493868" lon="2.525741400">
        <ele>175.10</ele>
        <time>2014-05-04T13:16:55Z</time>
      </trkpt>
      <trkpt lat="41.615550949" lon="2.526502226">
        <ele>173.66</ele>
        <time>2014-05-04T13:17:01Z</time>
      </trkpt>
      <trkpt lat="41.615550279" lon="2.526868347">
        <ele>172.69</ele>
        <time>2014-05-04T13:17:04Z</time>
      </trkpt>
      <trkpt lat="41.615406864" lon="2.527745346">
        <ele>168.85</ele>
        <time>2014-05-04T13:17:11Z</time>
      </trkpt>
      <trkpt lat="41.615384317" lon="2.527873673">
        <ele>168.85</ele>
        <time>2014-05-04T13:17:12Z</time>
      </trkpt>
      <trkpt lat="41.615196562" lon="2.528832814">
        <ele>166.93</ele>
        <time>2014-05-04T13:17:20Z</time>
      </trkpt>
      <trkpt lat="41.615157251" lon="2.529391049">
        <ele>165.00</ele>
        <time>2014-05-04T13:17:25Z</time>
      </trkpt>
      <trkpt lat="41.615146019" lon="2.529958252">
        <ele>163.08</ele>
        <time>2014-05-04T13:17:30Z</time>
      </trkpt>
      <trkpt lat="41.615142499" lon="2.530725783">
        <ele>161.16</ele>
        <time>2014-05-04T13:17:37Z</time>
      </trkpt>
      <trkpt lat="41.615096399" lon="2.531302374">
        <ele>160.20</ele>
        <time>2014-05-04T13:17:43Z</time>
      </trkpt>
      <trkpt lat="41.615193712" lon="2.531797661">
        <ele>157.79</ele>
        <time>2014-05-04T13:17:48Z</time>
      </trkpt>
      <trkpt lat="41.615175188" lon="2.532140480">
        <ele>156.35</ele>
        <time>2014-05-04T13:17:51Z</time>
      </trkpt>
      <trkpt lat="41.615126741" lon="2.532353381">
        <ele>154.91</ele>
        <time>2014-05-04T13:17:53Z</time>
      </trkpt>
      <trkpt lat="41.614896323" lon="2.533175981">
        <ele>152.99</ele>
        <time>2014-05-04T13:18:01Z</time>
      </trkpt>
      <trkpt lat="41.614718794" lon="2.533697754">
        <ele>150.58</ele>
        <time>2014-05-04T13:18:06Z</time>
      </trkpt>
      <trkpt lat="41.614452668" lon="2.534582967">
        <ele>147.70</ele>
        <time>2014-05-04T13:18:14Z</time>
      </trkpt>
      <trkpt lat="41.614146561" lon="2.535462648">
        <ele>145.78</ele>
        <time>2014-05-04T13:18:22Z</time>
      </trkpt>
      <trkpt lat="41.613892757" lon="2.536180893">
        <ele>143.37</ele>
        <time>2014-05-04T13:18:29Z</time>
      </trkpt>
      <trkpt lat="41.613821846" lon="2.536352303">
        <ele>142.89</ele>
        <time>2014-05-04T13:18:31Z</time>
      </trkpt>
      <trkpt lat="41.613693603" lon="2.536582805">
        <ele>140.97</ele>
        <time>2014-05-04T13:18:35Z</time>
      </trkpt>
      <trkpt lat="41.613662171" lon="2.536631756">
        <ele>140.97</ele>
        <time>2014-05-04T13:18:36Z</time>
      </trkpt>
      <trkpt lat="41.613426891" lon="2.537043475">
        <ele>139.53</ele>
        <time>2014-05-04T13:18:43Z</time>
      </trkpt>
      <trkpt lat="41.613141152" lon="2.537403477">
        <ele>138.57</ele>
        <time>2014-05-04T13:18:49Z</time>
      </trkpt>
      <trkpt lat="41.612783999" lon="2.537822405">
        <ele>137.13</ele>
        <time>2014-05-04T13:18:56Z</time>
      </trkpt>
      <trkpt lat="41.612355516" lon="2.538322972">
        <ele>134.72</ele>
        <time>2014-05-04T13:19:04Z</time>
      </trkpt>
      <trkpt lat="41.612064497" lon="2.538839884">
        <ele>132.80</ele>
        <time>2014-05-04T13:19:11Z</time>
      </trkpt>
      <trkpt lat="41.611990401" lon="2.538963098">
        <ele>132.32</ele>
        <time>2014-05-04T13:19:13Z</time>
      </trkpt>
      <trkpt lat="41.611898451" lon="2.539085223">
        <ele>131.36</ele>
        <time>2014-05-04T13:19:16Z</time>
      </trkpt>
      <trkpt lat="41.611822679" lon="2.538949100">
        <ele>130.88</ele>
        <time>2014-05-04T13:19:21Z</time>
      </trkpt>
      <trkpt lat="41.611760820" lon="2.538776517">
        <ele>132.80</ele>
        <time>2014-05-04T13:19:25Z</time>
      </trkpt>
      <trkpt lat="41.611746990" lon="2.538747264">
        <ele>133.28</ele>
        <time>2014-05-04T13:19:26Z</time>
      </trkpt>
      <trkpt lat="41.611709020" lon="2.538731422">
        <ele>134.24</ele>
        <time>2014-05-04T13:19:28Z</time>
      </trkpt>
      <trkpt lat="41.611583543" lon="2.538749946">
        <ele>134.72</ele>
        <time>2014-05-04T13:19:32Z</time>
      </trkpt>
      <trkpt lat="41.611432585" lon="2.538751288">
        <ele>133.28</ele>
        <time>2014-05-04T13:19:35Z</time>
      </trkpt>
      <trkpt lat="41.611201244" lon="2.538760759">
        <ele>131.84</ele>
        <time>2014-05-04T13:19:39Z</time>
      </trkpt>
      <trkpt lat="41.611080210" lon="2.538786240">
        <ele>131.84</ele>
        <time>2014-05-04T13:19:41Z</time>
      </trkpt>
      <trkpt lat="41.610705622" lon="2.538954130">
        <ele>130.40</ele>
        <time>2014-05-04T13:19:47Z</time>
      </trkpt>
      <trkpt lat="41.610153590" lon="2.539291501">
        <ele>127.51</ele>
        <time>2014-05-04T13:19:56Z</time>
      </trkpt>
      <trkpt lat="41.609816470" lon="2.539501049">
        <ele>125.11</ele>
        <time>2014-05-04T13:20:02Z</time>
      </trkpt>
      <trkpt lat="41.609655202" lon="2.539604565">
        <ele>124.15</ele>
        <time>2014-05-04T13:20:05Z</time>
      </trkpt>
      <trkpt lat="41.609323698" lon="2.539804390">
        <ele>123.19</ele>
        <time>2014-05-04T13:20:11Z</time>
      </trkpt>
      <trkpt lat="41.609267036" lon="2.539842611">
        <ele>122.71</ele>
        <time>2014-05-04T13:20:12Z</time>
      </trkpt>
      <trkpt lat="41.609122532" lon="2.540020727">
        <ele>121.26</ele>
        <time>2014-05-04T13:20:17Z</time>
      </trkpt>
      <trkpt lat="41.609089089" lon="2.540195070">
        <ele>120.78</ele>
        <time>2014-05-04T13:20:22Z</time>
      </trkpt>
      <trkpt lat="41.609014909" lon="2.540362792">
        <ele>120.30</ele>
        <time>2014-05-04T13:20:27Z</time>
      </trkpt>
      <trkpt lat="41.608900831" lon="2.540450467">
        <ele>120.30</ele>
        <time>2014-05-04T13:20:34Z</time>
      </trkpt>
      <trkpt lat="41.608857329" lon="2.540468991">
        <ele>120.78</ele>
        <time>2014-05-04T13:20:42Z</time>
      </trkpt>
      <trkpt lat="41.608845930" lon="2.540452059">
        <ele>120.78</ele>
        <time>2014-05-04T13:20:44Z</time>
      </trkpt>
      <trkpt lat="41.608800583" lon="2.540309651">
        <ele>119.34</ele>
        <time>2014-05-04T13:20:49Z</time>
      </trkpt>
      <trkpt lat="41.608765882" lon="2.540300096">
        <ele>119.34</ele>
        <time>2014-05-04T13:20:50Z</time>
      </trkpt>
      <trkpt lat="41.608501433" lon="2.540330522">
        <ele>118.86</ele>
        <time>2014-05-04T13:20:57Z</time>
      </trkpt>
      <trkpt lat="41.608146963" lon="2.540390788">
        <ele>118.38</ele>
        <time>2014-05-04T13:21:05Z</time>
      </trkpt>
      <trkpt lat="41.607959795" lon="2.540411407">
        <ele>117.42</ele>
        <time>2014-05-04T13:21:11Z</time>
      </trkpt>
      <trkpt lat="41.607777572" lon="2.540427081">
        <ele>117.42</ele>
        <time>2014-05-04T13:21:17Z</time>
      </trkpt>
      <trkpt lat="41.607676738" lon="2.540464968">
        <ele>116.94</ele>
        <time>2014-05-04T13:21:20Z</time>
      </trkpt>
      <trkpt lat="41.607481440" lon="2.540422388">
        <ele>116.46</ele>
        <time>2014-05-04T13:21:24Z</time>
      </trkpt>
      <trkpt lat="41.606979950" lon="2.540279560">
        <ele>114.53</ele>
        <time>2014-05-04T13:21:32Z</time>
      </trkpt>
      <trkpt lat="41.606434121" lon="2.540188532">
        <ele>113.09</ele>
        <time>2014-05-04T13:21:41Z</time>
      </trkpt>
      <trkpt lat="41.606174952" lon="2.540151484">
        <ele>112.13</ele>
        <time>2014-05-04T13:21:47Z</time>
      </trkpt>
      <trkpt lat="41.606058109" lon="2.540258018">
        <ele>112.13</ele>
        <time>2014-05-04T13:21:53Z</time>
      </trkpt>
      <trkpt lat="41.605963225" lon="2.540333455">
        <ele>113.57</ele>
        <time>2014-05-04T13:21:56Z</time>
      </trkpt>
      <trkpt lat="41.605888124" lon="2.540368911">
        <ele>113.57</ele>
        <time>2014-05-04T13:22:00Z</time>
      </trkpt>
      <trkpt lat="41.605921148" lon="2.540431943">
        <ele>113.57</ele>
        <time>2014-05-04T13:22:05Z</time>
      </trkpt>
      <trkpt lat="41.605963728" lon="2.540452981">
        <ele>113.57</ele>
        <time>2014-05-04T13:22:08Z</time>
      </trkpt>
      <trkpt lat="41.605995999" lon="2.540463543">
        <ele>113.57</ele>
        <time>2014-05-04T13:22:10Z</time>
      </trkpt>
      <trkpt lat="41.606100521" lon="2.540614920">
        <ele>113.57</ele>
        <time>2014-05-04T13:22:16Z</time>
      </trkpt>
      <trkpt lat="41.606309482" lon="2.540685579">
        <ele>115.01</ele>
        <time>2014-05-04T13:22:21Z</time>
      </trkpt>
      <trkpt lat="41.606463374" lon="2.540752215">
        <ele>115.50</ele>
        <time>2014-05-04T13:22:25Z</time>
      </trkpt>
      <trkpt lat="41.606544762" lon="2.540924296">
        <ele>115.98</ele>
        <time>2014-05-04T13:22:29Z</time>
      </trkpt>
      <trkpt lat="41.606661270" lon="2.541393431">
        <ele>118.38</ele>
        <time>2014-05-04T13:22:40Z</time>
      </trkpt>
      <trkpt lat="41.606741653" lon="2.541702639">
        <ele>119.82</ele>
        <time>2014-05-04T13:22:48Z</time>
      </trkpt>
      <trkpt lat="41.606831088" lon="2.542030875">
        <ele>122.22</ele>
        <time>2014-05-04T13:22:57Z</time>
      </trkpt>
      <trkpt lat="41.606948183" lon="2.542248720">
        <ele>123.19</ele>
        <time>2014-05-04T13:23:04Z</time>
      </trkpt>
      <trkpt lat="41.607030242" lon="2.542360703">
        <ele>124.63</ele>
        <time>2014-05-04T13:23:10Z</time>
      </trkpt>
      <trkpt lat="41.607047257" lon="2.542387357">
        <ele>125.11</ele>
        <time>2014-05-04T13:23:16Z</time>
      </trkpt>
      <trkpt lat="41.607022530" lon="2.542434128">
        <ele>125.11</ele>
        <time>2014-05-04T13:23:25Z</time>
      </trkpt>
      <trkpt lat="41.607008113" lon="2.542482492">
        <ele>126.07</ele>
        <time>2014-05-04T13:23:34Z</time>
      </trkpt>
    </trkseg>
  </trk>
</gpx>
